<?xml version='1.0' encoding='UTF-8'?><gpx version="1.1" creator="JPX - https://github.com/jenetics/jpx" xmlns="http://www.topografix.com/GPX/1/1"><trk><trkseg><trkpt lat="45.1768707" lon="8.5329632"><ele>100.99999999999999</ele><time>2026-04-25T15:05:40.499Z</time></trkpt><trkpt lat="45.1769082" lon="8.5328571"><ele>101.0</ele><time>2026-04-25T15:05:45.499Z</time></trkpt><trkpt lat="45.1769369" lon="8.5327754"><ele>101.0</ele><time>2026-04-25T15:09:06.498Z</time></trkpt><trkpt lat="45.1769757" lon="8.5326689"><ele>101.0</ele><time>2026-04-25T15:09:08.498Z</time></trkpt><trkpt lat="45.1770276" lon="8.5325356"><ele>100.99999999999999</ele><time>2026-04-25T15:09:10.499Z</time></trkpt><trkpt lat="45.1770594" lon="8.5324495"><ele>101.0</ele><time>2026-04-25T15:09:11.498Z</time></trkpt><trkpt lat="45.1770988" lon="8.5323394"><ele>101.0</ele><time>2026-04-25T15:09:12.498Z</time></trkpt><trkpt lat="45.177143" lon="8.5322146"><ele>101.0</ele><time>2026-04-25T15:09:13.498Z</time></trkpt><trkpt lat="45.1771927" lon="8.5320917"><ele>101.0</ele><time>2026-04-25T15:09:14.499Z</time></trkpt><trkpt lat="45.1772424" lon="8.5319719"><ele>101.0</ele><time>2026-04-25T15:09:15.499Z</time></trkpt><trkpt lat="45.1772853" lon="8.5318617"><ele>101.0</ele><time>2026-04-25T15:09:16.499Z</time></trkpt><trkpt lat="45.1773295" lon="8.5317465"><ele>101.16666666666666</ele><time>2026-04-25T15:09:17.498Z</time></trkpt><trkpt lat="45.1773706" lon="8.5316359"><ele>101.33333333333333</ele><time>2026-04-25T15:09:18.499Z</time></trkpt><trkpt lat="45.1774093" lon="8.5315288"><ele>101.5</ele><time>2026-04-25T15:09:19.498Z</time></trkpt><trkpt lat="45.177442" lon="8.5314235"><ele>101.66666666666666</ele><time>2026-04-25T15:09:20.499Z</time></trkpt><trkpt lat="45.1774797" lon="8.5313361"><ele>101.83333333333333</ele><time>2026-04-25T15:09:21.499Z</time></trkpt><trkpt lat="45.1775259" lon="8.5312618"><ele>102.0</ele><time>2026-04-25T15:09:22.498Z</time></trkpt><trkpt lat="45.1775904" lon="8.5312132"><ele>102.16666666666667</ele><time>2026-04-25T15:09:23.499Z</time></trkpt><trkpt lat="45.1776574" lon="8.5311575"><ele>102.33333333333334</ele><time>2026-04-25T15:09:24.499Z</time></trkpt><trkpt lat="45.1777236" lon="8.5310904"><ele>102.5</ele><time>2026-04-25T15:09:25.499Z</time></trkpt><trkpt lat="45.1777864" lon="8.5310063"><ele>102.66666666666667</ele><time>2026-04-25T15:09:26.499Z</time></trkpt><trkpt lat="45.1778504" lon="8.5309093"><ele>102.83333333333334</ele><time>2026-04-25T15:09:27.499Z</time></trkpt><trkpt lat="45.177906" lon="8.5308065"><ele>103.0</ele><time>2026-04-25T15:09:28.499Z</time></trkpt><trkpt lat="45.1779623" lon="8.5307029"><ele>103.00000000000001</ele><time>2026-04-25T15:09:29.499Z</time></trkpt><trkpt lat="45.1780078" lon="8.5306004"><ele>103.0</ele><time>2026-04-25T15:09:30.499Z</time></trkpt><trkpt lat="45.1780383" lon="8.5304969"><ele>103.0</ele><time>2026-04-25T15:09:31.498Z</time></trkpt><trkpt lat="45.1780545" lon="8.5303953"><ele>103.0</ele><time>2026-04-25T15:09:32.499Z</time></trkpt><trkpt lat="45.1780485" lon="8.5302892"><ele>103.00000000000001</ele><time>2026-04-25T15:09:33.499Z</time></trkpt><trkpt lat="45.1780194" lon="8.5301789"><ele>103.0</ele><time>2026-04-25T15:09:34.499Z</time></trkpt><trkpt lat="45.1779824" lon="8.5300503"><ele>103.2</ele><time>2026-04-25T15:09:35.498Z</time></trkpt><trkpt lat="45.1779554" lon="8.5299101"><ele>103.4</ele><time>2026-04-25T15:09:36.499Z</time></trkpt><trkpt lat="45.1779342" lon="8.5297584"><ele>103.60000000000001</ele><time>2026-04-25T15:09:37.499Z</time></trkpt><trkpt lat="45.1779213" lon="8.5296009"><ele>103.80000000000001</ele><time>2026-04-25T15:09:38.499Z</time></trkpt><trkpt lat="45.1779238" lon="8.5294531"><ele>104.0</ele><time>2026-04-25T15:09:39.499Z</time></trkpt><trkpt lat="45.1779368" lon="8.5293082"><ele>103.6</ele><time>2026-04-25T15:09:40.499Z</time></trkpt><trkpt lat="45.1779526" lon="8.5291717"><ele>103.2</ele><time>2026-04-25T15:09:41.499Z</time></trkpt><trkpt lat="45.177964" lon="8.5290488"><ele>102.8</ele><time>2026-04-25T15:09:42.498Z</time></trkpt><trkpt lat="45.1779755" lon="8.5289405"><ele>102.39999999999999</ele><time>2026-04-25T15:09:43.499Z</time></trkpt><trkpt lat="45.1779479" lon="8.5287915"><ele>102.0</ele><time>2026-04-25T15:09:45.498Z</time></trkpt><trkpt lat="45.1778753" lon="8.5286972"><ele>102.0</ele><time>2026-04-25T15:09:47.498Z</time></trkpt><trkpt lat="45.1777842" lon="8.5285704"><ele>102.0</ele><time>2026-04-25T15:09:49.499Z</time></trkpt><trkpt lat="45.1777299" lon="8.5284892"><ele>102.0</ele><time>2026-04-25T15:09:50.499Z</time></trkpt><trkpt lat="45.1776691" lon="8.5283876"><ele>102.0</ele><time>2026-04-25T15:09:51.498Z</time></trkpt><trkpt lat="45.1776018" lon="8.5282828"><ele>102.0</ele><time>2026-04-25T15:09:52.499Z</time></trkpt><trkpt lat="45.1775327" lon="8.5281755"><ele>102.0</ele><time>2026-04-25T15:09:53.498Z</time></trkpt><trkpt lat="45.17746" lon="8.5280573"><ele>102.0</ele><time>2026-04-25T15:09:54.499Z</time></trkpt><trkpt lat="45.1773849" lon="8.5279359"><ele>102.0</ele><time>2026-04-25T15:09:55.499Z</time></trkpt><trkpt lat="45.177307" lon="8.5278053"><ele>102.0</ele><time>2026-04-25T15:09:56.499Z</time></trkpt><trkpt lat="45.1772198" lon="8.5276711"><ele>101.5</ele><time>2026-04-25T15:09:57.499Z</time></trkpt><trkpt lat="45.1771339" lon="8.5275333"><ele>101.0</ele><time>2026-04-25T15:09:58.499Z</time></trkpt><trkpt lat="45.1770491" lon="8.5274017"><ele>100.5</ele><time>2026-04-25T15:09:59.499Z</time></trkpt><trkpt lat="45.1769663" lon="8.527264"><ele>100.0</ele><time>2026-04-25T15:10:00.499Z</time></trkpt><trkpt lat="45.1768751" lon="8.5271268"><ele>100.5</ele><time>2026-04-25T15:10:01.499Z</time></trkpt><trkpt lat="45.176785" lon="8.5269862"><ele>101.0</ele><time>2026-04-25T15:10:02.498Z</time></trkpt><trkpt lat="45.1766999" lon="8.5268458"><ele>101.5</ele><time>2026-04-25T15:10:03.498Z</time></trkpt><trkpt lat="45.1766212" lon="8.5267187"><ele>102.0</ele><time>2026-04-25T15:10:04.499Z</time></trkpt><trkpt lat="45.1765401" lon="8.5266046"><ele>102.25</ele><time>2026-04-25T15:10:05.499Z</time></trkpt><trkpt lat="45.1764461" lon="8.526498"><ele>102.5</ele><time>2026-04-25T15:10:06.498Z</time></trkpt><trkpt lat="45.1763338" lon="8.5264005"><ele>102.75</ele><time>2026-04-25T15:10:07.499Z</time></trkpt><trkpt lat="45.1762243" lon="8.5263055"><ele>103.0</ele><time>2026-04-25T15:10:08.499Z</time></trkpt><trkpt lat="45.1761325" lon="8.5262197"><ele>103.0</ele><time>2026-04-25T15:10:09.498Z</time></trkpt><trkpt lat="45.176045" lon="8.5261462"><ele>103.0</ele><time>2026-04-25T15:10:10.498Z</time></trkpt><trkpt lat="45.1759647" lon="8.5260913"><ele>103.0</ele><time>2026-04-25T15:10:11.499Z</time></trkpt><trkpt lat="45.1758735" lon="8.5260521"><ele>103.0</ele><time>2026-04-25T15:10:12.498Z</time></trkpt><trkpt lat="45.1757778" lon="8.5260162"><ele>103.0</ele><time>2026-04-25T15:10:13.499Z</time></trkpt><trkpt lat="45.1756835" lon="8.5259583"><ele>103.0</ele><time>2026-04-25T15:10:14.498Z</time></trkpt><trkpt lat="45.1755837" lon="8.5258754"><ele>103.0</ele><time>2026-04-25T15:10:15.498Z</time></trkpt><trkpt lat="45.1754751" lon="8.5257807"><ele>103.0</ele><time>2026-04-25T15:10:16.498Z</time></trkpt><trkpt lat="45.175357" lon="8.5256771"><ele>103.0</ele><time>2026-04-25T15:10:17.498Z</time></trkpt><trkpt lat="45.1752341" lon="8.5255741"><ele>103.0</ele><time>2026-04-25T15:10:18.498Z</time></trkpt><trkpt lat="45.1751067" lon="8.5254696"><ele>103.0</ele><time>2026-04-25T15:10:19.499Z</time></trkpt><trkpt lat="45.1749871" lon="8.5253699"><ele>103.0</ele><time>2026-04-25T15:10:20.499Z</time></trkpt><trkpt lat="45.1748791" lon="8.525277"><ele>103.0</ele><time>2026-04-25T15:10:21.499Z</time></trkpt><trkpt lat="45.1747755" lon="8.5251945"><ele>103.00000000000001</ele><time>2026-04-25T15:10:22.499Z</time></trkpt><trkpt lat="45.17469" lon="8.5251307"><ele>103.0</ele><time>2026-04-25T15:10:23.499Z</time></trkpt><trkpt lat="45.174613" lon="8.5250772"><ele>103.0</ele><time>2026-04-25T15:10:24.498Z</time></trkpt><trkpt lat="45.1745295" lon="8.5250526"><ele>103.0</ele><time>2026-04-25T15:10:26.499Z</time></trkpt><trkpt lat="45.1744767" lon="8.5251033"><ele>103.00000000000001</ele><time>2026-04-25T15:10:28.498Z</time></trkpt><trkpt lat="45.1744186" lon="8.5252301"><ele>103.0</ele><time>2026-04-25T15:10:30.499Z</time></trkpt><trkpt lat="45.1743769" lon="8.5253357"><ele>103.0</ele><time>2026-04-25T15:10:31.499Z</time></trkpt><trkpt lat="45.1743218" lon="8.5254547"><ele>103.0</ele><time>2026-04-25T15:10:32.499Z</time></trkpt><trkpt lat="45.1742642" lon="8.5255781"><ele>103.0</ele><time>2026-04-25T15:10:33.499Z</time></trkpt><trkpt lat="45.1742035" lon="8.525688"><ele>103.0</ele><time>2026-04-25T15:10:34.499Z</time></trkpt><trkpt lat="45.1741404" lon="8.5257836"><ele>103.0</ele><time>2026-04-25T15:10:35.498Z</time></trkpt><trkpt lat="45.1740797" lon="8.5258711"><ele>103.00000000000001</ele><time>2026-04-25T15:10:36.499Z</time></trkpt><trkpt lat="45.17402" lon="8.5259489"><ele>103.0</ele><time>2026-04-25T15:10:37.498Z</time></trkpt><trkpt lat="45.1739611" lon="8.5260242"><ele>103.0</ele><time>2026-04-25T15:10:38.499Z</time></trkpt><trkpt lat="45.1739103" lon="8.5260893"><ele>103.0</ele><time>2026-04-25T15:10:39.498Z</time></trkpt><trkpt lat="45.1738149" lon="8.5261572"><ele>103.00000000000001</ele><time>2026-04-25T15:10:41.499Z</time></trkpt><trkpt lat="45.1737257" lon="8.5261255"><ele>103.0</ele><time>2026-04-25T15:10:43.498Z</time></trkpt><trkpt lat="45.1736172" lon="8.5260099"><ele>103.0</ele><time>2026-04-25T15:10:45.499Z</time></trkpt><trkpt lat="45.1735393" lon="8.5259453"><ele>103.0</ele><time>2026-04-25T15:10:46.498Z</time></trkpt><trkpt lat="45.1734496" lon="8.5258813"><ele>103.0</ele><time>2026-04-25T15:10:47.499Z</time></trkpt><trkpt lat="45.1733523" lon="8.5258134"><ele>103.0</ele><time>2026-04-25T15:10:48.498Z</time></trkpt><trkpt lat="45.1732387" lon="8.5257373"><ele>103.0</ele><time>2026-04-25T15:10:49.498Z</time></trkpt><trkpt lat="45.1731168" lon="8.5256603"><ele>102.75</ele><time>2026-04-25T15:10:50.499Z</time></trkpt><trkpt lat="45.1729958" lon="8.525587"><ele>102.5</ele><time>2026-04-25T15:10:51.498Z</time></trkpt><trkpt lat="45.1728716" lon="8.5255079"><ele>102.25</ele><time>2026-04-25T15:10:52.499Z</time></trkpt><trkpt lat="45.1727505" lon="8.5254321"><ele>102.0</ele><time>2026-04-25T15:10:53.499Z</time></trkpt><trkpt lat="45.1726344" lon="8.5253615"><ele>102.0</ele><time>2026-04-25T15:10:54.499Z</time></trkpt><trkpt lat="45.1725221" lon="8.5252957"><ele>102.0</ele><time>2026-04-25T15:10:55.499Z</time></trkpt><trkpt lat="45.172411" lon="8.5252247"><ele>102.0</ele><time>2026-04-25T15:10:56.498Z</time></trkpt><trkpt lat="45.1723091" lon="8.5251509"><ele>102.0</ele><time>2026-04-25T15:10:57.498Z</time></trkpt><trkpt lat="45.1722125" lon="8.5250836"><ele>102.16666666666667</ele><time>2026-04-25T15:10:58.499Z</time></trkpt><trkpt lat="45.1721218" lon="8.5250112"><ele>102.33333333333334</ele><time>2026-04-25T15:10:59.498Z</time></trkpt><trkpt lat="45.1720442" lon="8.5249454"><ele>102.5</ele><time>2026-04-25T15:11:00.498Z</time></trkpt><trkpt lat="45.1719785" lon="8.5248925"><ele>102.66666666666667</ele><time>2026-04-25T15:11:01.499Z</time></trkpt><trkpt lat="45.1719071" lon="8.5248051"><ele>102.83333333333334</ele><time>2026-04-25T15:11:03.499Z</time></trkpt><trkpt lat="45.1719054" lon="8.5247107"><ele>103.0</ele><time>2026-04-25T15:11:05.499Z</time></trkpt><trkpt lat="45.171972" lon="8.5246155"><ele>103.0</ele><time>2026-04-25T15:11:07.499Z</time></trkpt><trkpt lat="45.1720349" lon="8.5244818"><ele>103.0</ele><time>2026-04-25T15:11:09.498Z</time></trkpt><trkpt lat="45.1721033" lon="8.5243261"><ele>103.0</ele><time>2026-04-25T15:11:11.499Z</time></trkpt><trkpt lat="45.1721407" lon="8.5242363"><ele>103.0</ele><time>2026-04-25T15:11:12.498Z</time></trkpt><trkpt lat="45.1721794" lon="8.5241382"><ele>103.0</ele><time>2026-04-25T15:11:13.499Z</time></trkpt><trkpt lat="45.172224" lon="8.5240319"><ele>103.0</ele><time>2026-04-25T15:11:14.498Z</time></trkpt><trkpt lat="45.1722716" lon="8.5239208"><ele>103.0</ele><time>2026-04-25T15:11:15.498Z</time></trkpt><trkpt lat="45.1723267" lon="8.5238042"><ele>103.0</ele><time>2026-04-25T15:11:16.498Z</time></trkpt><trkpt lat="45.1723789" lon="8.5236864"><ele>103.0</ele><time>2026-04-25T15:11:17.498Z</time></trkpt><trkpt lat="45.1724277" lon="8.5235731"><ele>103.0</ele><time>2026-04-25T15:11:18.499Z</time></trkpt><trkpt lat="45.172476" lon="8.523461"><ele>103.33333333333334</ele><time>2026-04-25T15:11:19.499Z</time></trkpt><trkpt lat="45.1725245" lon="8.5233537"><ele>103.66666666666667</ele><time>2026-04-25T15:11:20.499Z</time></trkpt><trkpt lat="45.1725703" lon="8.5232526"><ele>104.0</ele><time>2026-04-25T15:11:21.498Z</time></trkpt><trkpt lat="45.1726179" lon="8.5231464"><ele>104.33333333333334</ele><time>2026-04-25T15:11:22.498Z</time></trkpt><trkpt lat="45.1726634" lon="8.5230349"><ele>104.66666666666667</ele><time>2026-04-25T15:11:23.498Z</time></trkpt><trkpt lat="45.1727112" lon="8.5229222"><ele>105.0</ele><time>2026-04-25T15:11:24.498Z</time></trkpt><trkpt lat="45.1727602" lon="8.522809"><ele>105.0</ele><time>2026-04-25T15:11:25.498Z</time></trkpt><trkpt lat="45.1728146" lon="8.5226937"><ele>105.0</ele><time>2026-04-25T15:11:26.499Z</time></trkpt><trkpt lat="45.1728707" lon="8.522554"><ele>105.0</ele><time>2026-04-25T15:11:27.498Z</time></trkpt><trkpt lat="45.172919" lon="8.5224266"><ele>105.0</ele><time>2026-04-25T15:11:28.499Z</time></trkpt><trkpt lat="45.1729698" lon="8.5223245"><ele>105.0</ele><time>2026-04-25T15:11:29.498Z</time></trkpt><trkpt lat="45.1730361" lon="8.5222528"><ele>105.0</ele><time>2026-04-25T15:11:30.498Z</time></trkpt><trkpt lat="45.1731328" lon="8.5222175"><ele>105.0</ele><time>2026-04-25T15:11:31.499Z</time></trkpt><trkpt lat="45.1732475" lon="8.5222098"><ele>105.0</ele><time>2026-04-25T15:11:32.499Z</time></trkpt><trkpt lat="45.1733727" lon="8.5222161"><ele>105.0</ele><time>2026-04-25T15:11:33.499Z</time></trkpt><trkpt lat="45.1735002" lon="8.5222196"><ele>104.8</ele><time>2026-04-25T15:11:34.499Z</time></trkpt><trkpt lat="45.1736109" lon="8.5222123"><ele>104.6</ele><time>2026-04-25T15:11:35.499Z</time></trkpt><trkpt lat="45.1737058" lon="8.5221783"><ele>104.4</ele><time>2026-04-25T15:11:36.498Z</time></trkpt><trkpt lat="45.1737785" lon="8.5221168"><ele>104.2</ele><time>2026-04-25T15:11:37.498Z</time></trkpt><trkpt lat="45.1738445" lon="8.5220229"><ele>104.0</ele><time>2026-04-25T15:11:38.499Z</time></trkpt><trkpt lat="45.1738931" lon="8.5219026"><ele>103.75</ele><time>2026-04-25T15:11:39.499Z</time></trkpt><trkpt lat="45.1739148" lon="8.5217495"><ele>103.5</ele><time>2026-04-25T15:11:40.499Z</time></trkpt><trkpt lat="45.1739261" lon="8.521567"><ele>103.25</ele><time>2026-04-25T15:11:41.499Z</time></trkpt><trkpt lat="45.1739512" lon="8.5213802"><ele>103.0</ele><time>2026-04-25T15:11:42.498Z</time></trkpt><trkpt lat="45.1739898" lon="8.5212158"><ele>103.0</ele><time>2026-04-25T15:11:43.499Z</time></trkpt><trkpt lat="45.1740476" lon="8.5210543"><ele>103.0</ele><time>2026-04-25T15:11:44.499Z</time></trkpt><trkpt lat="45.1741258" lon="8.5209127"><ele>103.0</ele><time>2026-04-25T15:11:45.498Z</time></trkpt><trkpt lat="45.1742203" lon="8.5207899"><ele>103.0</ele><time>2026-04-25T15:11:46.499Z</time></trkpt><trkpt lat="45.174329" lon="8.5206908"><ele>103.0</ele><time>2026-04-25T15:11:47.498Z</time></trkpt><trkpt lat="45.1744495" lon="8.520613"><ele>103.0</ele><time>2026-04-25T15:11:48.499Z</time></trkpt><trkpt lat="45.1745848" lon="8.5205623"><ele>103.0</ele><time>2026-04-25T15:11:49.499Z</time></trkpt><trkpt lat="45.1747366" lon="8.5205519"><ele>103.0</ele><time>2026-04-25T15:11:50.499Z</time></trkpt><trkpt lat="45.1748989" lon="8.5205635"><ele>102.66666666666667</ele><time>2026-04-25T15:11:51.498Z</time></trkpt><trkpt lat="45.1750634" lon="8.5205832"><ele>102.33333333333334</ele><time>2026-04-25T15:11:52.498Z</time></trkpt><trkpt lat="45.1752334" lon="8.5206026"><ele>102.0</ele><time>2026-04-25T15:11:53.498Z</time></trkpt><trkpt lat="45.1754034" lon="8.5206215"><ele>102.0</ele><time>2026-04-25T15:11:54.499Z</time></trkpt><trkpt lat="45.1755669" lon="8.5206512"><ele>102.0</ele><time>2026-04-25T15:11:55.499Z</time></trkpt><trkpt lat="45.1757242" lon="8.5206939"><ele>102.0</ele><time>2026-04-25T15:11:56.498Z</time></trkpt><trkpt lat="45.1758819" lon="8.520745"><ele>102.33333333333334</ele><time>2026-04-25T15:11:57.499Z</time></trkpt><trkpt lat="45.1760404" lon="8.520809"><ele>102.66666666666667</ele><time>2026-04-25T15:11:58.499Z</time></trkpt><trkpt lat="45.1761975" lon="8.520883"><ele>103.0</ele><time>2026-04-25T15:11:59.499Z</time></trkpt><trkpt lat="45.1763438" lon="8.5209587"><ele>103.0</ele><time>2026-04-25T15:12:00.498Z</time></trkpt><trkpt lat="45.1764803" lon="8.5210251"><ele>103.0</ele><time>2026-04-25T15:12:01.499Z</time></trkpt><trkpt lat="45.1766058" lon="8.5210904"><ele>103.0</ele><time>2026-04-25T15:12:02.499Z</time></trkpt><trkpt lat="45.1767286" lon="8.5211497"><ele>103.0</ele><time>2026-04-25T15:12:03.499Z</time></trkpt><trkpt lat="45.1768544" lon="8.5212141"><ele>103.0</ele><time>2026-04-25T15:12:04.499Z</time></trkpt><trkpt lat="45.1769905" lon="8.5212738"><ele>103.0</ele><time>2026-04-25T15:12:05.499Z</time></trkpt><trkpt lat="45.1771263" lon="8.5213175"><ele>103.0</ele><time>2026-04-25T15:12:06.499Z</time></trkpt><trkpt lat="45.1772717" lon="8.5213285"><ele>103.0</ele><time>2026-04-25T15:12:07.498Z</time></trkpt><trkpt lat="45.177419" lon="8.5213042"><ele>102.66666666666667</ele><time>2026-04-25T15:12:08.498Z</time></trkpt><trkpt lat="45.177569" lon="8.5212427"><ele>102.33333333333334</ele><time>2026-04-25T15:12:09.498Z</time></trkpt><trkpt lat="45.1777263" lon="8.521171"><ele>102.0</ele><time>2026-04-25T15:12:10.498Z</time></trkpt><trkpt lat="45.1778888" lon="8.5210971"><ele>102.0</ele><time>2026-04-25T15:12:11.498Z</time></trkpt><trkpt lat="45.1780534" lon="8.5210159"><ele>102.0</ele><time>2026-04-25T15:12:12.499Z</time></trkpt><trkpt lat="45.1782276" lon="8.5209286"><ele>102.0</ele><time>2026-04-25T15:12:13.499Z</time></trkpt><trkpt lat="45.1784062" lon="8.5208478"><ele>102.66666666666666</ele><time>2026-04-25T15:12:14.499Z</time></trkpt><trkpt lat="45.178585" lon="8.5207637"><ele>103.33333333333333</ele><time>2026-04-25T15:12:15.499Z</time></trkpt><trkpt lat="45.1787671" lon="8.5206745"><ele>104.0</ele><time>2026-04-25T15:12:16.498Z</time></trkpt><trkpt lat="45.1789539" lon="8.5205858"><ele>103.33333333333333</ele><time>2026-04-25T15:12:17.499Z</time></trkpt><trkpt lat="45.1791419" lon="8.5204921"><ele>102.66666666666666</ele><time>2026-04-25T15:12:18.499Z</time></trkpt><trkpt lat="45.1793333" lon="8.520403"><ele>102.0</ele><time>2026-04-25T15:12:19.499Z</time></trkpt><trkpt lat="45.1795261" lon="8.5203077"><ele>102.0</ele><time>2026-04-25T15:12:20.498Z</time></trkpt><trkpt lat="45.1797081" lon="8.5202247"><ele>102.0</ele><time>2026-04-25T15:12:21.498Z</time></trkpt><trkpt lat="45.1798805" lon="8.5201403"><ele>102.0</ele><time>2026-04-25T15:12:22.499Z</time></trkpt><trkpt lat="45.1800515" lon="8.5200552"><ele>102.33333333333334</ele><time>2026-04-25T15:12:23.499Z</time></trkpt><trkpt lat="45.1802183" lon="8.5199621"><ele>102.66666666666667</ele><time>2026-04-25T15:12:24.498Z</time></trkpt><trkpt lat="45.1803684" lon="8.5198522"><ele>103.0</ele><time>2026-04-25T15:12:25.498Z</time></trkpt><trkpt lat="45.1805131" lon="8.5197396"><ele>103.0</ele><time>2026-04-25T15:12:26.499Z</time></trkpt><trkpt lat="45.1806561" lon="8.5196102"><ele>103.0</ele><time>2026-04-25T15:12:27.499Z</time></trkpt><trkpt lat="45.1808006" lon="8.5194786"><ele>103.0</ele><time>2026-04-25T15:12:28.499Z</time></trkpt><trkpt lat="45.1809482" lon="8.5193411"><ele>103.33333333333334</ele><time>2026-04-25T15:12:29.499Z</time></trkpt><trkpt lat="45.1810932" lon="8.5191991"><ele>103.66666666666666</ele><time>2026-04-25T15:12:30.499Z</time></trkpt><trkpt lat="45.1812306" lon="8.5190672"><ele>104.0</ele><time>2026-04-25T15:12:31.499Z</time></trkpt><trkpt lat="45.1813613" lon="8.5189402"><ele>104.0</ele><time>2026-04-25T15:12:32.499Z</time></trkpt><trkpt lat="45.1814863" lon="8.5188241"><ele>104.0</ele><time>2026-04-25T15:12:33.499Z</time></trkpt><trkpt lat="45.1816046" lon="8.5187169"><ele>104.0</ele><time>2026-04-25T15:12:34.499Z</time></trkpt><trkpt lat="45.1817128" lon="8.5186163"><ele>104.0</ele><time>2026-04-25T15:12:35.499Z</time></trkpt><trkpt lat="45.1818192" lon="8.5185151"><ele>103.5</ele><time>2026-04-25T15:12:36.498Z</time></trkpt><trkpt lat="45.1819238" lon="8.5184132"><ele>103.0</ele><time>2026-04-25T15:12:37.499Z</time></trkpt><trkpt lat="45.1820273" lon="8.5183277"><ele>102.5</ele><time>2026-04-25T15:12:38.499Z</time></trkpt><trkpt lat="45.182127" lon="8.5182569"><ele>102.0</ele><time>2026-04-25T15:12:39.499Z</time></trkpt><trkpt lat="45.1822335" lon="8.5181932"><ele>102.0</ele><time>2026-04-25T15:12:40.499Z</time></trkpt><trkpt lat="45.1823429" lon="8.5181379"><ele>102.0</ele><time>2026-04-25T15:12:41.499Z</time></trkpt><trkpt lat="45.1824597" lon="8.5180881"><ele>102.0</ele><time>2026-04-25T15:12:42.499Z</time></trkpt><trkpt lat="45.1825816" lon="8.5180389"><ele>102.0</ele><time>2026-04-25T15:12:43.498Z</time></trkpt><trkpt lat="45.1827067" lon="8.5179936"><ele>102.25</ele><time>2026-04-25T15:12:44.499Z</time></trkpt><trkpt lat="45.1828386" lon="8.5179513"><ele>102.5</ele><time>2026-04-25T15:12:45.499Z</time></trkpt><trkpt lat="45.1829709" lon="8.5179062"><ele>102.75</ele><time>2026-04-25T15:12:46.499Z</time></trkpt><trkpt lat="45.1831065" lon="8.5178588"><ele>103.0</ele><time>2026-04-25T15:12:47.499Z</time></trkpt><trkpt lat="45.1832469" lon="8.5178091"><ele>103.5</ele><time>2026-04-25T15:12:48.498Z</time></trkpt><trkpt lat="45.1833839" lon="8.5177614"><ele>104.0</ele><time>2026-04-25T15:12:49.498Z</time></trkpt><trkpt lat="45.1835139" lon="8.5177171"><ele>104.5</ele><time>2026-04-25T15:12:50.498Z</time></trkpt><trkpt lat="45.1836324" lon="8.5176738"><ele>105.0</ele><time>2026-04-25T15:12:51.499Z</time></trkpt><trkpt lat="45.1837527" lon="8.5176314"><ele>105.0</ele><time>2026-04-25T15:12:52.499Z</time></trkpt><trkpt lat="45.183878" lon="8.5175866"><ele>105.0</ele><time>2026-04-25T15:12:53.498Z</time></trkpt><trkpt lat="45.184004" lon="8.5175408"><ele>105.0</ele><time>2026-04-25T15:12:54.499Z</time></trkpt><trkpt lat="45.1841351" lon="8.5174968"><ele>105.0</ele><time>2026-04-25T15:12:55.499Z</time></trkpt><trkpt lat="45.1842734" lon="8.5174492"><ele>104.5</ele><time>2026-04-25T15:12:56.498Z</time></trkpt><trkpt lat="45.1844195" lon="8.5173968"><ele>104.0</ele><time>2026-04-25T15:12:57.499Z</time></trkpt><trkpt lat="45.1845615" lon="8.5173418"><ele>103.5</ele><time>2026-04-25T15:12:58.499Z</time></trkpt><trkpt lat="45.1847022" lon="8.5172948"><ele>103.0</ele><time>2026-04-25T15:12:59.499Z</time></trkpt><trkpt lat="45.1848479" lon="8.5172718"><ele>103.0</ele><time>2026-04-25T15:13:00.498Z</time></trkpt><trkpt lat="45.1849932" lon="8.517297"><ele>103.0</ele><time>2026-04-25T15:13:01.499Z</time></trkpt><trkpt lat="45.1851275" lon="8.5173737"><ele>103.0</ele><time>2026-04-25T15:13:02.499Z</time></trkpt><trkpt lat="45.1852323" lon="8.5174942"><ele>103.0</ele><time>2026-04-25T15:13:03.499Z</time></trkpt><trkpt lat="45.1853066" lon="8.5176608"><ele>103.0</ele><time>2026-04-25T15:13:04.499Z</time></trkpt><trkpt lat="45.1853609" lon="8.517858"><ele>103.0</ele><time>2026-04-25T15:13:05.498Z</time></trkpt><trkpt lat="45.1853984" lon="8.5180738"><ele>103.0</ele><time>2026-04-25T15:13:06.499Z</time></trkpt><trkpt lat="45.1854235" lon="8.5182938"><ele>103.33333333333334</ele><time>2026-04-25T15:13:07.498Z</time></trkpt><trkpt lat="45.1854479" lon="8.5185173"><ele>103.66666666666666</ele><time>2026-04-25T15:13:08.499Z</time></trkpt><trkpt lat="45.1854702" lon="8.518738"><ele>104.0</ele><time>2026-04-25T15:13:09.499Z</time></trkpt><trkpt lat="45.1855022" lon="8.5189561"><ele>104.0</ele><time>2026-04-25T15:13:10.499Z</time></trkpt><trkpt lat="45.1855188" lon="8.5191818"><ele>104.0</ele><time>2026-04-25T15:13:11.499Z</time></trkpt><trkpt lat="45.185539" lon="8.5193993"><ele>104.0</ele><time>2026-04-25T15:13:12.498Z</time></trkpt><trkpt lat="45.1855561" lon="8.5196219"><ele>103.66666666666666</ele><time>2026-04-25T15:13:13.499Z</time></trkpt><trkpt lat="45.1855748" lon="8.5198469"><ele>103.33333333333334</ele><time>2026-04-25T15:13:14.499Z</time></trkpt><trkpt lat="45.1855903" lon="8.5200703"><ele>103.0</ele><time>2026-04-25T15:13:15.499Z</time></trkpt><trkpt lat="45.1856009" lon="8.5202934"><ele>103.0</ele><time>2026-04-25T15:13:16.499Z</time></trkpt><trkpt lat="45.1856069" lon="8.5205247"><ele>103.0</ele><time>2026-04-25T15:13:17.499Z</time></trkpt><trkpt lat="45.1856131" lon="8.5207542"><ele>103.0</ele><time>2026-04-25T15:13:18.498Z</time></trkpt><trkpt lat="45.1856213" lon="8.5209801"><ele>103.0</ele><time>2026-04-25T15:13:19.498Z</time></trkpt><trkpt lat="45.1856364" lon="8.5211926"><ele>103.0</ele><time>2026-04-25T15:13:20.498Z</time></trkpt><trkpt lat="45.1856616" lon="8.5213912"><ele>103.0</ele><time>2026-04-25T15:13:21.499Z</time></trkpt><trkpt lat="45.1856889" lon="8.521575"><ele>103.0</ele><time>2026-04-25T15:13:22.499Z</time></trkpt><trkpt lat="45.1857202" lon="8.5217496"><ele>103.0</ele><time>2026-04-25T15:13:23.499Z</time></trkpt><trkpt lat="45.1857631" lon="8.5219007"><ele>103.0</ele><time>2026-04-25T15:13:24.499Z</time></trkpt><trkpt lat="45.1858192" lon="8.5220329"><ele>103.0</ele><time>2026-04-25T15:13:25.499Z</time></trkpt><trkpt lat="45.185895" lon="8.5221475"><ele>103.0</ele><time>2026-04-25T15:13:26.499Z</time></trkpt><trkpt lat="45.1859906" lon="8.5222394"><ele>103.0</ele><time>2026-04-25T15:13:27.498Z</time></trkpt><trkpt lat="45.1860992" lon="8.5222937"><ele>103.0</ele><time>2026-04-25T15:13:28.499Z</time></trkpt><trkpt lat="45.18622" lon="8.5223056"><ele>103.0</ele><time>2026-04-25T15:13:29.498Z</time></trkpt><trkpt lat="45.1863501" lon="8.5222864"><ele>103.0</ele><time>2026-04-25T15:13:30.498Z</time></trkpt><trkpt lat="45.1864831" lon="8.5222555"><ele>103.0</ele><time>2026-04-25T15:13:31.499Z</time></trkpt><trkpt lat="45.1866213" lon="8.5222194"><ele>103.0</ele><time>2026-04-25T15:13:32.499Z</time></trkpt><trkpt lat="45.1867567" lon="8.522182"><ele>103.0</ele><time>2026-04-25T15:13:33.499Z</time></trkpt><trkpt lat="45.1868938" lon="8.5221484"><ele>103.0</ele><time>2026-04-25T15:13:34.498Z</time></trkpt><trkpt lat="45.1870343" lon="8.5221158"><ele>103.0</ele><time>2026-04-25T15:13:35.498Z</time></trkpt><trkpt lat="45.187178" lon="8.5220874"><ele>103.0</ele><time>2026-04-25T15:13:36.499Z</time></trkpt><trkpt lat="45.1873214" lon="8.5220582"><ele>103.0</ele><time>2026-04-25T15:13:37.498Z</time></trkpt><trkpt lat="45.1874686" lon="8.5220258"><ele>103.0</ele><time>2026-04-25T15:13:38.499Z</time></trkpt><trkpt lat="45.1876214" lon="8.5219935"><ele>103.33333333333334</ele><time>2026-04-25T15:13:39.498Z</time></trkpt><trkpt lat="45.1877922" lon="8.5219595"><ele>103.66666666666666</ele><time>2026-04-25T15:13:40.498Z</time></trkpt><trkpt lat="45.1879657" lon="8.5219271"><ele>104.0</ele><time>2026-04-25T15:13:41.499Z</time></trkpt><trkpt lat="45.1881286" lon="8.5218928"><ele>104.0</ele><time>2026-04-25T15:13:42.498Z</time></trkpt><trkpt lat="45.1882785" lon="8.5218631"><ele>104.0</ele><time>2026-04-25T15:13:43.499Z</time></trkpt><trkpt lat="45.1884203" lon="8.5218323"><ele>104.0</ele><time>2026-04-25T15:13:44.499Z</time></trkpt><trkpt lat="45.188544" lon="8.5218131"><ele>104.0</ele><time>2026-04-25T15:13:45.499Z</time></trkpt><trkpt lat="45.1886484" lon="8.5217786"><ele>103.99999999999999</ele><time>2026-04-25T15:13:46.499Z</time></trkpt><trkpt lat="45.1887342" lon="8.5217526"><ele>104.0</ele><time>2026-04-25T15:13:47.499Z</time></trkpt><trkpt lat="45.1887975" lon="8.5217382"><ele>104.0</ele><time>2026-04-25T15:13:48.499Z</time></trkpt><trkpt lat="45.1888801" lon="8.5217619"><ele>104.0</ele><time>2026-04-25T15:13:50.499Z</time></trkpt><trkpt lat="45.1889123" lon="8.5218451"><ele>103.99999999999999</ele><time>2026-04-25T15:13:52.499Z</time></trkpt><trkpt lat="45.188934" lon="8.5220164"><ele>104.0</ele><time>2026-04-25T15:13:54.498Z</time></trkpt><trkpt lat="45.1889439" lon="8.522153"><ele>104.25</ele><time>2026-04-25T15:13:55.498Z</time></trkpt><trkpt lat="45.1889526" lon="8.5223203"><ele>104.5</ele><time>2026-04-25T15:13:56.499Z</time></trkpt><trkpt lat="45.1889587" lon="8.5224992"><ele>104.75</ele><time>2026-04-25T15:13:57.499Z</time></trkpt><trkpt lat="45.188957" lon="8.522682"><ele>105.0</ele><time>2026-04-25T15:13:58.499Z</time></trkpt><trkpt lat="45.1889614" lon="8.5228748"><ele>104.75</ele><time>2026-04-25T15:13:59.499Z</time></trkpt><trkpt lat="45.1889697" lon="8.5230781"><ele>104.5</ele><time>2026-04-25T15:14:00.499Z</time></trkpt><trkpt lat="45.1889789" lon="8.523287"><ele>104.25</ele><time>2026-04-25T15:14:01.498Z</time></trkpt><trkpt lat="45.188987" lon="8.5235055"><ele>104.0</ele><time>2026-04-25T15:14:02.498Z</time></trkpt><trkpt lat="45.1889957" lon="8.5237197"><ele>103.75</ele><time>2026-04-25T15:14:03.499Z</time></trkpt><trkpt lat="45.189006" lon="8.5239239"><ele>103.5</ele><time>2026-04-25T15:14:04.499Z</time></trkpt><trkpt lat="45.1890145" lon="8.5241152"><ele>103.25</ele><time>2026-04-25T15:14:05.499Z</time></trkpt><trkpt lat="45.1890208" lon="8.5243135"><ele>103.0</ele><time>2026-04-25T15:14:06.499Z</time></trkpt><trkpt lat="45.1890245" lon="8.5245126"><ele>103.25</ele><time>2026-04-25T15:14:07.499Z</time></trkpt><trkpt lat="45.1890291" lon="8.5247011"><ele>103.5</ele><time>2026-04-25T15:14:08.498Z</time></trkpt><trkpt lat="45.189036" lon="8.5248835"><ele>103.75</ele><time>2026-04-25T15:14:09.498Z</time></trkpt><trkpt lat="45.1890436" lon="8.5250567"><ele>104.0</ele><time>2026-04-25T15:14:10.499Z</time></trkpt><trkpt lat="45.189049" lon="8.5252134"><ele>103.99999999999999</ele><time>2026-04-25T15:14:11.499Z</time></trkpt><trkpt lat="45.1890478" lon="8.525355"><ele>104.0</ele><time>2026-04-25T15:14:12.499Z</time></trkpt><trkpt lat="45.1890477" lon="8.5254814"><ele>104.0</ele><time>2026-04-25T15:14:13.499Z</time></trkpt><trkpt lat="45.1890486" lon="8.5255836"><ele>104.0</ele><time>2026-04-25T15:14:14.499Z</time></trkpt><trkpt lat="45.1890817" lon="8.5257259"><ele>103.99999999999999</ele><time>2026-04-25T15:14:16.499Z</time></trkpt><trkpt lat="45.1891552" lon="8.5257784"><ele>104.0</ele><time>2026-04-25T15:14:18.499Z</time></trkpt><trkpt lat="45.1892469" lon="8.525778"><ele>103.99999999999999</ele><time>2026-04-25T15:14:20.498Z</time></trkpt><trkpt lat="45.1893116" lon="8.5257569"><ele>104.0</ele><time>2026-04-25T15:14:21.499Z</time></trkpt><trkpt lat="45.1893912" lon="8.5257372"><ele>104.0</ele><time>2026-04-25T15:14:22.498Z</time></trkpt><trkpt lat="45.1894811" lon="8.5257111"><ele>104.0</ele><time>2026-04-25T15:14:23.499Z</time></trkpt><trkpt lat="45.1895761" lon="8.525685"><ele>103.99999999999999</ele><time>2026-04-25T15:14:24.499Z</time></trkpt><trkpt lat="45.1896823" lon="8.5256538"><ele>104.0</ele><time>2026-04-25T15:14:25.498Z</time></trkpt><trkpt lat="45.1898024" lon="8.5256227"><ele>103.5</ele><time>2026-04-25T15:14:26.499Z</time></trkpt><trkpt lat="45.1899297" lon="8.525595"><ele>103.0</ele><time>2026-04-25T15:14:27.498Z</time></trkpt><trkpt lat="45.1900622" lon="8.525559"><ele>102.5</ele><time>2026-04-25T15:14:28.499Z</time></trkpt><trkpt lat="45.1902002" lon="8.5255196"><ele>102.0</ele><time>2026-04-25T15:14:29.499Z</time></trkpt><trkpt lat="45.1903367" lon="8.5254801"><ele>102.0</ele><time>2026-04-25T15:14:30.499Z</time></trkpt><trkpt lat="45.1904734" lon="8.5254412"><ele>102.0</ele><time>2026-04-25T15:14:31.498Z</time></trkpt><trkpt lat="45.1906063" lon="8.525405"><ele>102.0</ele><time>2026-04-25T15:14:32.499Z</time></trkpt><trkpt lat="45.1907391" lon="8.5253662"><ele>102.0</ele><time>2026-04-25T15:14:33.499Z</time></trkpt><trkpt lat="45.1908605" lon="8.5253294"><ele>102.19999999999999</ele><time>2026-04-25T15:14:34.499Z</time></trkpt><trkpt lat="45.190973" lon="8.5252994"><ele>102.4</ele><time>2026-04-25T15:14:35.498Z</time></trkpt><trkpt lat="45.191078" lon="8.5252751"><ele>102.6</ele><time>2026-04-25T15:14:36.499Z</time></trkpt><trkpt lat="45.1911763" lon="8.5252505"><ele>102.80000000000001</ele><time>2026-04-25T15:14:37.499Z</time></trkpt><trkpt lat="45.1912779" lon="8.5252387"><ele>103.0</ele><time>2026-04-25T15:14:38.499Z</time></trkpt><trkpt lat="45.1913848" lon="8.5252439"><ele>103.0</ele><time>2026-04-25T15:14:39.499Z</time></trkpt><trkpt lat="45.1914881" lon="8.525262"><ele>103.0</ele><time>2026-04-25T15:14:40.498Z</time></trkpt><trkpt lat="45.1915927" lon="8.5252892"><ele>103.0</ele><time>2026-04-25T15:14:41.498Z</time></trkpt><trkpt lat="45.191689" lon="8.5253141"><ele>103.0</ele><time>2026-04-25T15:14:42.498Z</time></trkpt><trkpt lat="45.1917834" lon="8.5253335"><ele>103.0</ele><time>2026-04-25T15:14:43.498Z</time></trkpt><trkpt lat="45.1918874" lon="8.5253611"><ele>103.0</ele><time>2026-04-25T15:14:44.499Z</time></trkpt><trkpt lat="45.191987" lon="8.52539"><ele>103.0</ele><time>2026-04-25T15:14:45.498Z</time></trkpt><trkpt lat="45.1920829" lon="8.5254171"><ele>103.0</ele><time>2026-04-25T15:14:46.499Z</time></trkpt><trkpt lat="45.192184" lon="8.5254409"><ele>103.0</ele><time>2026-04-25T15:14:47.499Z</time></trkpt><trkpt lat="45.1922738" lon="8.5254607"><ele>103.0</ele><time>2026-04-25T15:14:48.499Z</time></trkpt><trkpt lat="45.1923599" lon="8.5254757"><ele>103.0</ele><time>2026-04-25T15:14:49.499Z</time></trkpt><trkpt lat="45.1924397" lon="8.5254848"><ele>103.0</ele><time>2026-04-25T15:14:50.499Z</time></trkpt><trkpt lat="45.1925085" lon="8.5254945"><ele>103.0</ele><time>2026-04-25T15:14:51.499Z</time></trkpt><trkpt lat="45.1926001" lon="8.5255467"><ele>103.0</ele><time>2026-04-25T15:14:53.498Z</time></trkpt><trkpt lat="45.1926293" lon="8.525642"><ele>103.0</ele><time>2026-04-25T15:14:55.498Z</time></trkpt><trkpt lat="45.1926084" lon="8.5258223"><ele>103.0</ele><time>2026-04-25T15:14:57.499Z</time></trkpt><trkpt lat="45.1925847" lon="8.5259342"><ele>103.0</ele><time>2026-04-25T15:14:58.499Z</time></trkpt><trkpt lat="45.1925613" lon="8.5260596"><ele>103.0</ele><time>2026-04-25T15:14:59.499Z</time></trkpt><trkpt lat="45.1925434" lon="8.5261922"><ele>103.0</ele><time>2026-04-25T15:15:00.499Z</time></trkpt><trkpt lat="45.1925196" lon="8.5263287"><ele>103.0</ele><time>2026-04-25T15:15:01.499Z</time></trkpt><trkpt lat="45.1924974" lon="8.5264688"><ele>103.0</ele><time>2026-04-25T15:15:02.499Z</time></trkpt><trkpt lat="45.1924795" lon="8.5266085"><ele>103.0</ele><time>2026-04-25T15:15:03.498Z</time></trkpt><trkpt lat="45.1924624" lon="8.5267479"><ele>103.0</ele><time>2026-04-25T15:15:04.499Z</time></trkpt><trkpt lat="45.1924405" lon="8.5268981"><ele>103.0</ele><time>2026-04-25T15:15:05.499Z</time></trkpt><trkpt lat="45.192421" lon="8.5270522"><ele>103.0</ele><time>2026-04-25T15:15:06.499Z</time></trkpt><trkpt lat="45.1923969" lon="8.5272215"><ele>103.0</ele><time>2026-04-25T15:15:07.498Z</time></trkpt><trkpt lat="45.192374" lon="8.5273959"><ele>103.0</ele><time>2026-04-25T15:15:08.499Z</time></trkpt><trkpt lat="45.1923485" lon="8.5275785"><ele>103.0</ele><time>2026-04-25T15:15:09.498Z</time></trkpt><trkpt lat="45.1923245" lon="8.5277655"><ele>103.0</ele><time>2026-04-25T15:15:10.498Z</time></trkpt><trkpt lat="45.1923001" lon="8.5279449"><ele>103.0</ele><time>2026-04-25T15:15:11.498Z</time></trkpt><trkpt lat="45.1922799" lon="8.5281066"><ele>103.0</ele><time>2026-04-25T15:15:12.498Z</time></trkpt><trkpt lat="45.1922605" lon="8.5282666"><ele>103.0</ele><time>2026-04-25T15:15:13.498Z</time></trkpt><trkpt lat="45.1922385" lon="8.5284218"><ele>103.0</ele><time>2026-04-25T15:15:14.498Z</time></trkpt><trkpt lat="45.1922181" lon="8.5285681"><ele>103.0</ele><time>2026-04-25T15:15:15.499Z</time></trkpt><trkpt lat="45.1921994" lon="8.5287035"><ele>103.0</ele><time>2026-04-25T15:15:16.499Z</time></trkpt><trkpt lat="45.1921845" lon="8.5288366"><ele>103.0</ele><time>2026-04-25T15:15:17.498Z</time></trkpt><trkpt lat="45.1921677" lon="8.5289804"><ele>103.0</ele><time>2026-04-25T15:15:18.499Z</time></trkpt><trkpt lat="45.1921441" lon="8.5291326"><ele>103.0</ele><time>2026-04-25T15:15:19.499Z</time></trkpt><trkpt lat="45.1921207" lon="8.5292989"><ele>103.0</ele><time>2026-04-25T15:15:20.498Z</time></trkpt><trkpt lat="45.1920961" lon="8.5294754"><ele>102.75</ele><time>2026-04-25T15:15:21.498Z</time></trkpt><trkpt lat="45.1920674" lon="8.529652"><ele>102.5</ele><time>2026-04-25T15:15:22.499Z</time></trkpt><trkpt lat="45.1920423" lon="8.5298256"><ele>102.25</ele><time>2026-04-25T15:15:23.498Z</time></trkpt><trkpt lat="45.1920184" lon="8.5299949"><ele>102.0</ele><time>2026-04-25T15:15:24.498Z</time></trkpt><trkpt lat="45.1919951" lon="8.5301625"><ele>102.0</ele><time>2026-04-25T15:15:25.498Z</time></trkpt><trkpt lat="45.1919741" lon="8.5303273"><ele>102.0</ele><time>2026-04-25T15:15:26.498Z</time></trkpt><trkpt lat="45.1919482" lon="8.5305056"><ele>102.0</ele><time>2026-04-25T15:15:27.498Z</time></trkpt><trkpt lat="45.1919227" lon="8.5306748"><ele>102.0</ele><time>2026-04-25T15:15:28.498Z</time></trkpt><trkpt lat="45.1918994" lon="8.5308326"><ele>102.39999999999999</ele><time>2026-04-25T15:15:29.498Z</time></trkpt><trkpt lat="45.1918794" lon="8.5309825"><ele>102.8</ele><time>2026-04-25T15:15:30.499Z</time></trkpt><trkpt lat="45.1918607" lon="8.5311225"><ele>103.2</ele><time>2026-04-25T15:15:31.499Z</time></trkpt><trkpt lat="45.1918412" lon="8.5312642"><ele>103.6</ele><time>2026-04-25T15:15:32.499Z</time></trkpt><trkpt lat="45.1918223" lon="8.5313968"><ele>104.0</ele><time>2026-04-25T15:15:33.498Z</time></trkpt><trkpt lat="45.1917999" lon="8.5315293"><ele>104.0</ele><time>2026-04-25T15:15:34.498Z</time></trkpt><trkpt lat="45.1917836" lon="8.5316823"><ele>104.0</ele><time>2026-04-25T15:15:35.499Z</time></trkpt><trkpt lat="45.1917644" lon="8.5318453"><ele>104.0</ele><time>2026-04-25T15:15:36.498Z</time></trkpt><trkpt lat="45.1917434" lon="8.5320175"><ele>104.0</ele><time>2026-04-25T15:15:37.499Z</time></trkpt><trkpt lat="45.1917229" lon="8.5321903"><ele>104.25</ele><time>2026-04-25T15:15:38.499Z</time></trkpt><trkpt lat="45.1916999" lon="8.5323759"><ele>104.5</ele><time>2026-04-25T15:15:39.499Z</time></trkpt><trkpt lat="45.1916753" lon="8.5325639"><ele>104.75</ele><time>2026-04-25T15:15:40.499Z</time></trkpt><trkpt lat="45.1916534" lon="8.5327543"><ele>105.0</ele><time>2026-04-25T15:15:41.498Z</time></trkpt><trkpt lat="45.1916358" lon="8.5329234"><ele>105.0</ele><time>2026-04-25T15:15:42.498Z</time></trkpt><trkpt lat="45.1916202" lon="8.5330707"><ele>105.0</ele><time>2026-04-25T15:15:43.499Z</time></trkpt><trkpt lat="45.1916052" lon="8.5332067"><ele>105.0</ele><time>2026-04-25T15:15:44.499Z</time></trkpt><trkpt lat="45.1915923" lon="8.5333179"><ele>105.0</ele><time>2026-04-25T15:15:45.498Z</time></trkpt><trkpt lat="45.1915781" lon="8.5334309"><ele>105.0</ele><time>2026-04-25T15:15:46.499Z</time></trkpt><trkpt lat="45.1915504" lon="8.5335329"><ele>105.0</ele><time>2026-04-25T15:15:47.498Z</time></trkpt><trkpt lat="45.1915095" lon="8.5336097"><ele>104.6</ele><time>2026-04-25T15:15:48.499Z</time></trkpt><trkpt lat="45.1914471" lon="8.533679"><ele>104.2</ele><time>2026-04-25T15:15:49.499Z</time></trkpt><trkpt lat="45.1913617" lon="8.5337518"><ele>103.80000000000001</ele><time>2026-04-25T15:15:50.499Z</time></trkpt><trkpt lat="45.1912562" lon="8.5338302"><ele>103.4</ele><time>2026-04-25T15:15:51.499Z</time></trkpt><trkpt lat="45.191143" lon="8.5339096"><ele>103.0</ele><time>2026-04-25T15:15:52.499Z</time></trkpt><trkpt lat="45.1910224" lon="8.5339997"><ele>103.0</ele><time>2026-04-25T15:15:53.499Z</time></trkpt><trkpt lat="45.1908999" lon="8.534089"><ele>103.0</ele><time>2026-04-25T15:15:54.499Z</time></trkpt><trkpt lat="45.1907741" lon="8.5341752"><ele>103.0</ele><time>2026-04-25T15:15:55.499Z</time></trkpt><trkpt lat="45.1906476" lon="8.5342607"><ele>103.0</ele><time>2026-04-25T15:15:56.498Z</time></trkpt><trkpt lat="45.1905187" lon="8.5343416"><ele>103.25</ele><time>2026-04-25T15:15:57.499Z</time></trkpt><trkpt lat="45.1903926" lon="8.5344194"><ele>103.5</ele><time>2026-04-25T15:15:58.499Z</time></trkpt><trkpt lat="45.1902652" lon="8.5344908"><ele>103.75</ele><time>2026-04-25T15:15:59.498Z</time></trkpt><trkpt lat="45.1901388" lon="8.5345607"><ele>104.0</ele><time>2026-04-25T15:16:00.498Z</time></trkpt><trkpt lat="45.1900165" lon="8.5346308"><ele>104.0</ele><time>2026-04-25T15:16:01.498Z</time></trkpt><trkpt lat="45.1898921" lon="8.5347006"><ele>104.0</ele><time>2026-04-25T15:16:02.499Z</time></trkpt><trkpt lat="45.1897643" lon="8.5347737"><ele>104.0</ele><time>2026-04-25T15:16:03.498Z</time></trkpt><trkpt lat="45.1896352" lon="8.5348437"><ele>104.0</ele><time>2026-04-25T15:16:04.499Z</time></trkpt><trkpt lat="45.1895095" lon="8.5349103"><ele>103.75</ele><time>2026-04-25T15:16:05.499Z</time></trkpt><trkpt lat="45.1893985" lon="8.5349802"><ele>103.5</ele><time>2026-04-25T15:16:06.498Z</time></trkpt><trkpt lat="45.1892817" lon="8.5350455"><ele>103.25</ele><time>2026-04-25T15:16:07.499Z</time></trkpt><trkpt lat="45.1891594" lon="8.5351085"><ele>103.0</ele><time>2026-04-25T15:16:08.498Z</time></trkpt><trkpt lat="45.1890342" lon="8.5351756"><ele>103.0</ele><time>2026-04-25T15:16:09.499Z</time></trkpt><trkpt lat="45.1888974" lon="8.535252"><ele>103.0</ele><time>2026-04-25T15:16:10.498Z</time></trkpt><trkpt lat="45.1887524" lon="8.5353366"><ele>103.0</ele><time>2026-04-25T15:16:11.498Z</time></trkpt><trkpt lat="45.1886025" lon="8.5354219"><ele>103.0</ele><time>2026-04-25T15:16:12.499Z</time></trkpt><trkpt lat="45.1884506" lon="8.5355067"><ele>103.0</ele><time>2026-04-25T15:16:13.499Z</time></trkpt><trkpt lat="45.1882938" lon="8.5355934"><ele>103.0</ele><time>2026-04-25T15:16:14.498Z</time></trkpt><trkpt lat="45.1881329" lon="8.5356862"><ele>103.0</ele><time>2026-04-25T15:16:15.499Z</time></trkpt><trkpt lat="45.1879658" lon="8.5357832"><ele>103.0</ele><time>2026-04-25T15:16:16.499Z</time></trkpt><trkpt lat="45.1878001" lon="8.5358773"><ele>103.0</ele><time>2026-04-25T15:16:17.498Z</time></trkpt><trkpt lat="45.1876339" lon="8.5359711"><ele>103.0</ele><time>2026-04-25T15:16:18.498Z</time></trkpt><trkpt lat="45.1874747" lon="8.5360598"><ele>103.0</ele><time>2026-04-25T15:16:19.498Z</time></trkpt><trkpt lat="45.187314" lon="8.5361483"><ele>103.0</ele><time>2026-04-25T15:16:20.499Z</time></trkpt><trkpt lat="45.1871575" lon="8.5362337"><ele>102.66666666666667</ele><time>2026-04-25T15:16:21.499Z</time></trkpt><trkpt lat="45.187007" lon="8.5363102"><ele>102.33333333333334</ele><time>2026-04-25T15:16:22.499Z</time></trkpt><trkpt lat="45.1868535" lon="8.5363805"><ele>102.0</ele><time>2026-04-25T15:16:23.498Z</time></trkpt><trkpt lat="45.1866931" lon="8.5364464"><ele>102.0</ele><time>2026-04-25T15:16:24.499Z</time></trkpt><trkpt lat="45.1865304" lon="8.536518"><ele>102.0</ele><time>2026-04-25T15:16:25.499Z</time></trkpt><trkpt lat="45.1863661" lon="8.5365919"><ele>102.0</ele><time>2026-04-25T15:16:26.499Z</time></trkpt><trkpt lat="45.1862053" lon="8.5366618"><ele>101.66666666666666</ele><time>2026-04-25T15:16:27.499Z</time></trkpt><trkpt lat="45.186044" lon="8.5367275"><ele>101.33333333333333</ele><time>2026-04-25T15:16:28.498Z</time></trkpt><trkpt lat="45.1858932" lon="8.5367934"><ele>101.0</ele><time>2026-04-25T15:16:29.499Z</time></trkpt><trkpt lat="45.1857488" lon="8.5368522"><ele>101.33333333333333</ele><time>2026-04-25T15:16:30.498Z</time></trkpt><trkpt lat="45.1856009" lon="8.5368988"><ele>101.66666666666666</ele><time>2026-04-25T15:16:31.499Z</time></trkpt><trkpt lat="45.185454" lon="8.5369372"><ele>102.0</ele><time>2026-04-25T15:16:32.499Z</time></trkpt><trkpt lat="45.1852981" lon="8.5369688"><ele>102.0</ele><time>2026-04-25T15:16:33.498Z</time></trkpt><trkpt lat="45.1851313" lon="8.536989"><ele>102.0</ele><time>2026-04-25T15:16:34.499Z</time></trkpt><trkpt lat="45.1849625" lon="8.5370065"><ele>102.0</ele><time>2026-04-25T15:16:35.498Z</time></trkpt><trkpt lat="45.1847907" lon="8.537026"><ele>102.0</ele><time>2026-04-25T15:16:36.499Z</time></trkpt><trkpt lat="45.184616" lon="8.5370484"><ele>102.0</ele><time>2026-04-25T15:16:37.499Z</time></trkpt><trkpt lat="45.1844418" lon="8.5370733"><ele>102.0</ele><time>2026-04-25T15:16:38.498Z</time></trkpt><trkpt lat="45.1842674" lon="8.5370967"><ele>102.0</ele><time>2026-04-25T15:16:39.498Z</time></trkpt><trkpt lat="45.1840959" lon="8.5371155"><ele>102.0</ele><time>2026-04-25T15:16:40.499Z</time></trkpt><trkpt lat="45.1839319" lon="8.5371292"><ele>102.0</ele><time>2026-04-25T15:16:41.499Z</time></trkpt><trkpt lat="45.1837731" lon="8.5371416"><ele>102.0</ele><time>2026-04-25T15:16:42.499Z</time></trkpt><trkpt lat="45.1836185" lon="8.5371552"><ele>102.0</ele><time>2026-04-25T15:16:43.499Z</time></trkpt><trkpt lat="45.1834691" lon="8.5371728"><ele>102.0</ele><time>2026-04-25T15:16:44.498Z</time></trkpt><trkpt lat="45.1833256" lon="8.5371918"><ele>102.0</ele><time>2026-04-25T15:16:45.499Z</time></trkpt><trkpt lat="45.1831842" lon="8.5372182"><ele>101.75</ele><time>2026-04-25T15:16:46.498Z</time></trkpt><trkpt lat="45.18304" lon="8.5372536"><ele>101.5</ele><time>2026-04-25T15:16:47.499Z</time></trkpt><trkpt lat="45.1828984" lon="8.537305"><ele>101.25</ele><time>2026-04-25T15:16:48.498Z</time></trkpt><trkpt lat="45.1827586" lon="8.5373751"><ele>101.0</ele><time>2026-04-25T15:16:49.498Z</time></trkpt><trkpt lat="45.182619" lon="8.5374534"><ele>101.0</ele><time>2026-04-25T15:16:50.499Z</time></trkpt><trkpt lat="45.1824702" lon="8.5375356"><ele>101.0</ele><time>2026-04-25T15:16:51.499Z</time></trkpt><trkpt lat="45.1823244" lon="8.5376179"><ele>101.0</ele><time>2026-04-25T15:16:52.499Z</time></trkpt><trkpt lat="45.1821846" lon="8.5376936"><ele>101.0</ele><time>2026-04-25T15:16:53.498Z</time></trkpt><trkpt lat="45.1820491" lon="8.5377691"><ele>101.0</ele><time>2026-04-25T15:16:54.498Z</time></trkpt><trkpt lat="45.1819105" lon="8.5378453"><ele>101.0</ele><time>2026-04-25T15:16:55.499Z</time></trkpt><trkpt lat="45.1817708" lon="8.5379203"><ele>101.0</ele><time>2026-04-25T15:16:56.498Z</time></trkpt><trkpt lat="45.181635" lon="8.5379977"><ele>101.5</ele><time>2026-04-25T15:16:57.499Z</time></trkpt><trkpt lat="45.1814973" lon="8.5380733"><ele>102.0</ele><time>2026-04-25T15:16:58.499Z</time></trkpt><trkpt lat="45.1813683" lon="8.5381458"><ele>102.5</ele><time>2026-04-25T15:16:59.499Z</time></trkpt><trkpt lat="45.1812413" lon="8.5382137"><ele>103.0</ele><time>2026-04-25T15:17:00.499Z</time></trkpt><trkpt lat="45.1811202" lon="8.5382831"><ele>103.0</ele><time>2026-04-25T15:17:01.499Z</time></trkpt><trkpt lat="45.1810101" lon="8.5383415"><ele>103.0</ele><time>2026-04-25T15:17:02.498Z</time></trkpt><trkpt lat="45.1809055" lon="8.5383992"><ele>103.0</ele><time>2026-04-25T15:17:03.499Z</time></trkpt><trkpt lat="45.1807991" lon="8.5384652"><ele>103.0</ele><time>2026-04-25T15:17:04.499Z</time></trkpt><trkpt lat="45.1807061" lon="8.5385452"><ele>102.60000000000001</ele><time>2026-04-25T15:17:05.499Z</time></trkpt><trkpt lat="45.1806272" lon="8.5386298"><ele>102.2</ele><time>2026-04-25T15:17:06.499Z</time></trkpt><trkpt lat="45.1805591" lon="8.5387214"><ele>101.8</ele><time>2026-04-25T15:17:07.499Z</time></trkpt><trkpt lat="45.1804979" lon="8.5388106"><ele>101.4</ele><time>2026-04-25T15:17:08.499Z</time></trkpt><trkpt lat="45.1804335" lon="8.5389127"><ele>101.0</ele><time>2026-04-25T15:17:09.498Z</time></trkpt><trkpt lat="45.1803679" lon="8.5390237"><ele>100.99999999999999</ele><time>2026-04-25T15:17:10.499Z</time></trkpt><trkpt lat="45.1803073" lon="8.5391277"><ele>101.0</ele><time>2026-04-25T15:17:11.499Z</time></trkpt><trkpt lat="45.1802475" lon="8.5392295"><ele>101.0</ele><time>2026-04-25T15:17:12.499Z</time></trkpt><trkpt lat="45.1801878" lon="8.539331"><ele>101.0</ele><time>2026-04-25T15:17:13.499Z</time></trkpt><trkpt lat="45.1801347" lon="8.5394263"><ele>100.99999999999999</ele><time>2026-04-25T15:17:14.499Z</time></trkpt><trkpt lat="45.1800856" lon="8.539511"><ele>101.0</ele><time>2026-04-25T15:17:15.499Z</time></trkpt><trkpt lat="45.1800413" lon="8.5395866"><ele>101.0</ele><time>2026-04-25T15:17:16.499Z</time></trkpt><trkpt lat="45.1799982" lon="8.5396584"><ele>101.0</ele><time>2026-04-25T15:17:17.499Z</time></trkpt><trkpt lat="45.1799238" lon="8.5397823"><ele>101.0</ele><time>2026-04-25T15:17:19.499Z</time></trkpt><trkpt lat="45.1798628" lon="8.5398969"><ele>101.0</ele><time>2026-04-25T15:17:21.499Z</time></trkpt><trkpt lat="45.1797972" lon="8.5400044"><ele>101.0</ele><time>2026-04-25T15:17:23.499Z</time></trkpt><trkpt lat="45.1797422" lon="8.5400934"><ele>101.0</ele><time>2026-04-25T15:17:25.498Z</time></trkpt><trkpt lat="45.1796982" lon="8.54018"><ele>101.0</ele><time>2026-04-25T15:17:27.499Z</time></trkpt><trkpt lat="45.1796458" lon="8.5402728"><ele>101.0</ele><time>2026-04-25T15:17:29.499Z</time></trkpt><trkpt lat="45.1795908" lon="8.540372"><ele>101.0</ele><time>2026-04-25T15:17:31.498Z</time></trkpt><trkpt lat="45.1795207" lon="8.5404931"><ele>101.0</ele><time>2026-04-25T15:17:33.499Z</time></trkpt><trkpt lat="45.1794574" lon="8.5405955"><ele>101.16666666666666</ele><time>2026-04-25T15:17:35.499Z</time></trkpt><trkpt lat="45.1793984" lon="8.5406987"><ele>101.33333333333333</ele><time>2026-04-25T15:17:37.499Z</time></trkpt><trkpt lat="45.1793559" lon="8.540781"><ele>101.5</ele><time>2026-04-25T15:17:39.499Z</time></trkpt><trkpt lat="45.1793547" lon="8.5408847"><ele>101.66666666666666</ele><time>2026-04-25T15:17:42.499Z</time></trkpt><trkpt lat="45.1794147" lon="8.5409148"><ele>101.83333333333333</ele><time>2026-04-25T15:17:47.498Z</time></trkpt><trkpt lat="45.1795425" lon="8.5409296"><ele>102.0</ele><time>2026-04-25T15:17:51.499Z</time></trkpt><trkpt lat="45.1796223" lon="8.5409312"><ele>102.0</ele><time>2026-04-25T15:17:52.499Z</time></trkpt><trkpt lat="45.1797114" lon="8.5409338"><ele>102.0</ele><time>2026-04-25T15:17:53.499Z</time></trkpt><trkpt lat="45.179806" lon="8.5409378"><ele>102.0</ele><time>2026-04-25T15:17:54.499Z</time></trkpt><trkpt lat="45.179904" lon="8.5409475"><ele>102.0</ele><time>2026-04-25T15:17:55.498Z</time></trkpt><trkpt lat="45.1800057" lon="8.5409534"><ele>102.0</ele><time>2026-04-25T15:17:56.499Z</time></trkpt><trkpt lat="45.1801152" lon="8.5409635"><ele>102.19999999999999</ele><time>2026-04-25T15:17:57.498Z</time></trkpt><trkpt lat="45.1802213" lon="8.5409688"><ele>102.4</ele><time>2026-04-25T15:17:58.499Z</time></trkpt><trkpt lat="45.1803236" lon="8.5409743"><ele>102.6</ele><time>2026-04-25T15:17:59.498Z</time></trkpt><trkpt lat="45.1804198" lon="8.5409811"><ele>102.80000000000001</ele><time>2026-04-25T15:18:00.498Z</time></trkpt><trkpt lat="45.1805157" lon="8.5409907"><ele>103.0</ele><time>2026-04-25T15:18:01.499Z</time></trkpt><trkpt lat="45.1806107" lon="8.5410068"><ele>103.0</ele><time>2026-04-25T15:18:02.499Z</time></trkpt><trkpt lat="45.1807084" lon="8.541033"><ele>103.0</ele><time>2026-04-25T15:18:03.499Z</time></trkpt><trkpt lat="45.1808114" lon="8.5410787"><ele>103.0</ele><time>2026-04-25T15:18:04.499Z</time></trkpt><trkpt lat="45.180916" lon="8.5411361"><ele>103.0</ele><time>2026-04-25T15:18:05.499Z</time></trkpt><trkpt lat="45.1810213" lon="8.5411991"><ele>103.0</ele><time>2026-04-25T15:18:06.499Z</time></trkpt><trkpt lat="45.1811296" lon="8.5412683"><ele>102.75</ele><time>2026-04-25T15:18:07.499Z</time></trkpt><trkpt lat="45.1812378" lon="8.541342"><ele>102.5</ele><time>2026-04-25T15:18:08.499Z</time></trkpt><trkpt lat="45.1813393" lon="8.5414099"><ele>102.25</ele><time>2026-04-25T15:18:09.499Z</time></trkpt><trkpt lat="45.1814448" lon="8.5414823"><ele>102.0</ele><time>2026-04-25T15:18:10.499Z</time></trkpt><trkpt lat="45.1815554" lon="8.5415558"><ele>102.0</ele><time>2026-04-25T15:18:11.499Z</time></trkpt><trkpt lat="45.1816678" lon="8.5416278"><ele>102.0</ele><time>2026-04-25T15:18:12.499Z</time></trkpt><trkpt lat="45.1817781" lon="8.5417036"><ele>102.0</ele><time>2026-04-25T15:18:13.499Z</time></trkpt><trkpt lat="45.1818916" lon="8.5417771"><ele>102.0</ele><time>2026-04-25T15:18:14.499Z</time></trkpt><trkpt lat="45.1820021" lon="8.5418574"><ele>102.0</ele><time>2026-04-25T15:18:15.498Z</time></trkpt><trkpt lat="45.1821115" lon="8.5419503"><ele>102.0</ele><time>2026-04-25T15:18:16.499Z</time></trkpt><trkpt lat="45.1822192" lon="8.5420514"><ele>102.0</ele><time>2026-04-25T15:18:17.498Z</time></trkpt><trkpt lat="45.1823243" lon="8.5421538"><ele>102.0</ele><time>2026-04-25T15:18:18.498Z</time></trkpt><trkpt lat="45.1824311" lon="8.5422592"><ele>101.75</ele><time>2026-04-25T15:18:19.499Z</time></trkpt><trkpt lat="45.1825417" lon="8.5423718"><ele>101.5</ele><time>2026-04-25T15:18:20.499Z</time></trkpt><trkpt lat="45.1826566" lon="8.5424894"><ele>101.25</ele><time>2026-04-25T15:18:21.499Z</time></trkpt><trkpt lat="45.1827691" lon="8.5426054"><ele>101.0</ele><time>2026-04-25T15:18:22.499Z</time></trkpt><trkpt lat="45.1828841" lon="8.5427143"><ele>101.0</ele><time>2026-04-25T15:18:23.499Z</time></trkpt><trkpt lat="45.1830013" lon="8.5428217"><ele>101.0</ele><time>2026-04-25T15:18:24.498Z</time></trkpt><trkpt lat="45.1831225" lon="8.5429329"><ele>101.0</ele><time>2026-04-25T15:18:25.499Z</time></trkpt><trkpt lat="45.1832495" lon="8.5430523"><ele>101.0</ele><time>2026-04-25T15:18:26.498Z</time></trkpt><trkpt lat="45.1833761" lon="8.5431774"><ele>102.33333333333333</ele><time>2026-04-25T15:18:27.498Z</time></trkpt><trkpt lat="45.1835068" lon="8.543306"><ele>103.66666666666666</ele><time>2026-04-25T15:18:28.499Z</time></trkpt><trkpt lat="45.1836384" lon="8.5434305"><ele>105.0</ele><time>2026-04-25T15:18:29.498Z</time></trkpt><trkpt lat="45.1837702" lon="8.5435539"><ele>105.0</ele><time>2026-04-25T15:18:30.499Z</time></trkpt><trkpt lat="45.1838992" lon="8.5436758"><ele>105.0</ele><time>2026-04-25T15:18:31.499Z</time></trkpt><trkpt lat="45.1840263" lon="8.5437976"><ele>105.0</ele><time>2026-04-25T15:18:32.499Z</time></trkpt><trkpt lat="45.1841533" lon="8.5439131"><ele>104.75</ele><time>2026-04-25T15:18:33.499Z</time></trkpt><trkpt lat="45.1842766" lon="8.5440284"><ele>104.5</ele><time>2026-04-25T15:18:34.499Z</time></trkpt><trkpt lat="45.1844014" lon="8.5441457"><ele>104.25</ele><time>2026-04-25T15:18:35.499Z</time></trkpt><trkpt lat="45.1845283" lon="8.5442595"><ele>104.0</ele><time>2026-04-25T15:18:36.499Z</time></trkpt><trkpt lat="45.1846589" lon="8.5443852"><ele>104.0</ele><time>2026-04-25T15:18:37.498Z</time></trkpt><trkpt lat="45.1847941" lon="8.5445096"><ele>104.0</ele><time>2026-04-25T15:18:38.499Z</time></trkpt><trkpt lat="45.1849265" lon="8.5446337"><ele>104.0</ele><time>2026-04-25T15:18:39.499Z</time></trkpt><trkpt lat="45.1850594" lon="8.5447578"><ele>103.66666666666666</ele><time>2026-04-25T15:18:40.498Z</time></trkpt><trkpt lat="45.1851864" lon="8.5448779"><ele>103.33333333333334</ele><time>2026-04-25T15:18:41.499Z</time></trkpt><trkpt lat="45.1853138" lon="8.5449935"><ele>103.0</ele><time>2026-04-25T15:18:42.498Z</time></trkpt><trkpt lat="45.1854406" lon="8.5451003"><ele>103.0</ele><time>2026-04-25T15:18:43.498Z</time></trkpt><trkpt lat="45.1855649" lon="8.5451916"><ele>103.0</ele><time>2026-04-25T15:18:44.499Z</time></trkpt><trkpt lat="45.185681" lon="8.5452763"><ele>103.0</ele><time>2026-04-25T15:18:45.499Z</time></trkpt><trkpt lat="45.1857958" lon="8.5453515"><ele>103.0</ele><time>2026-04-25T15:18:46.499Z</time></trkpt><trkpt lat="45.185917" lon="8.5454182"><ele>103.25</ele><time>2026-04-25T15:18:47.499Z</time></trkpt><trkpt lat="45.1860431" lon="8.5454768"><ele>103.5</ele><time>2026-04-25T15:18:48.499Z</time></trkpt><trkpt lat="45.1861678" lon="8.5455349"><ele>103.75</ele><time>2026-04-25T15:18:49.498Z</time></trkpt><trkpt lat="45.1862977" lon="8.5455836"><ele>104.0</ele><time>2026-04-25T15:18:50.499Z</time></trkpt><trkpt lat="45.1864314" lon="8.5456319"><ele>104.25</ele><time>2026-04-25T15:18:51.499Z</time></trkpt><trkpt lat="45.1865652" lon="8.5456741"><ele>104.5</ele><time>2026-04-25T15:18:52.499Z</time></trkpt><trkpt lat="45.1867066" lon="8.5457119"><ele>104.75</ele><time>2026-04-25T15:18:53.498Z</time></trkpt><trkpt lat="45.1868491" lon="8.5457497"><ele>105.0</ele><time>2026-04-25T15:18:54.498Z</time></trkpt><trkpt lat="45.1869868" lon="8.545782"><ele>105.0</ele><time>2026-04-25T15:18:55.499Z</time></trkpt><trkpt lat="45.1871154" lon="8.5458101"><ele>105.0</ele><time>2026-04-25T15:18:56.499Z</time></trkpt><trkpt lat="45.1872431" lon="8.5458144"><ele>105.0</ele><time>2026-04-25T15:18:57.499Z</time></trkpt><trkpt lat="45.1873788" lon="8.5457992"><ele>105.0</ele><time>2026-04-25T15:18:58.499Z</time></trkpt><trkpt lat="45.1875152" lon="8.5457701"><ele>104.66666666666666</ele><time>2026-04-25T15:18:59.498Z</time></trkpt><trkpt lat="45.1876652" lon="8.545739"><ele>104.33333333333333</ele><time>2026-04-25T15:19:00.499Z</time></trkpt><trkpt lat="45.1878174" lon="8.5457004"><ele>104.0</ele><time>2026-04-25T15:19:01.499Z</time></trkpt><trkpt lat="45.1879597" lon="8.5456649"><ele>104.0</ele><time>2026-04-25T15:19:02.498Z</time></trkpt><trkpt lat="45.1880874" lon="8.5456341"><ele>104.0</ele><time>2026-04-25T15:19:03.499Z</time></trkpt><trkpt lat="45.1882141" lon="8.545615"><ele>104.0</ele><time>2026-04-25T15:19:04.498Z</time></trkpt><trkpt lat="45.1883555" lon="8.5456133"><ele>104.0</ele><time>2026-04-25T15:19:05.498Z</time></trkpt><trkpt lat="45.188499" lon="8.5456282"><ele>104.33333333333333</ele><time>2026-04-25T15:19:06.499Z</time></trkpt><trkpt lat="45.1886491" lon="8.5456462"><ele>104.66666666666666</ele><time>2026-04-25T15:19:07.499Z</time></trkpt><trkpt lat="45.1888086" lon="8.545667"><ele>105.0</ele><time>2026-04-25T15:19:08.498Z</time></trkpt><trkpt lat="45.1889679" lon="8.5456901"><ele>104.66666666666666</ele><time>2026-04-25T15:19:09.499Z</time></trkpt><trkpt lat="45.1891307" lon="8.5457089"><ele>104.33333333333333</ele><time>2026-04-25T15:19:10.498Z</time></trkpt><trkpt lat="45.1892891" lon="8.5457326"><ele>104.0</ele><time>2026-04-25T15:19:11.499Z</time></trkpt><trkpt lat="45.1894473" lon="8.5457529"><ele>104.0</ele><time>2026-04-25T15:19:12.499Z</time></trkpt><trkpt lat="45.1896035" lon="8.545773"><ele>104.0</ele><time>2026-04-25T15:19:13.499Z</time></trkpt><trkpt lat="45.1897602" lon="8.5457903"><ele>104.0</ele><time>2026-04-25T15:19:14.499Z</time></trkpt><trkpt lat="45.1899141" lon="8.5458095"><ele>104.0</ele><time>2026-04-25T15:19:15.499Z</time></trkpt><trkpt lat="45.1900712" lon="8.5458304"><ele>104.0</ele><time>2026-04-25T15:19:16.498Z</time></trkpt><trkpt lat="45.1902296" lon="8.5458522"><ele>104.0</ele><time>2026-04-25T15:19:17.499Z</time></trkpt><trkpt lat="45.1903847" lon="8.5458717"><ele>104.0</ele><time>2026-04-25T15:19:18.499Z</time></trkpt><trkpt lat="45.1905353" lon="8.5458901"><ele>104.0</ele><time>2026-04-25T15:19:19.499Z</time></trkpt><trkpt lat="45.1906807" lon="8.5459132"><ele>104.0</ele><time>2026-04-25T15:19:20.499Z</time></trkpt><trkpt lat="45.1908292" lon="8.5459324"><ele>104.0</ele><time>2026-04-25T15:19:21.499Z</time></trkpt><trkpt lat="45.1909766" lon="8.5459491"><ele>104.25</ele><time>2026-04-25T15:19:22.499Z</time></trkpt><trkpt lat="45.191121" lon="8.5459643"><ele>104.5</ele><time>2026-04-25T15:19:23.498Z</time></trkpt><trkpt lat="45.1912593" lon="8.5459781"><ele>104.75</ele><time>2026-04-25T15:19:24.499Z</time></trkpt><trkpt lat="45.1913818" lon="8.5459934"><ele>105.0</ele><time>2026-04-25T15:19:25.499Z</time></trkpt><trkpt lat="45.1914988" lon="8.5460081"><ele>104.75</ele><time>2026-04-25T15:19:26.499Z</time></trkpt><trkpt lat="45.1916089" lon="8.5460235"><ele>104.5</ele><time>2026-04-25T15:19:27.499Z</time></trkpt><trkpt lat="45.1917184" lon="8.5460377"><ele>104.25</ele><time>2026-04-25T15:19:28.499Z</time></trkpt><trkpt lat="45.1918327" lon="8.5460561"><ele>104.0</ele><time>2026-04-25T15:19:29.499Z</time></trkpt><trkpt lat="45.191951" lon="8.5460739"><ele>104.0</ele><time>2026-04-25T15:19:30.499Z</time></trkpt><trkpt lat="45.1920719" lon="8.5460881"><ele>104.0</ele><time>2026-04-25T15:19:31.499Z</time></trkpt><trkpt lat="45.1921993" lon="8.5460993"><ele>104.0</ele><time>2026-04-25T15:19:32.499Z</time></trkpt><trkpt lat="45.1923295" lon="8.5461167"><ele>104.0</ele><time>2026-04-25T15:19:33.499Z</time></trkpt><trkpt lat="45.192463" lon="8.5461326"><ele>104.0</ele><time>2026-04-25T15:19:34.499Z</time></trkpt><trkpt lat="45.192609" lon="8.5461537"><ele>104.0</ele><time>2026-04-25T15:19:35.499Z</time></trkpt><trkpt lat="45.1927663" lon="8.546175"><ele>104.0</ele><time>2026-04-25T15:19:36.498Z</time></trkpt><trkpt lat="45.1929161" lon="8.5461986"><ele>104.25</ele><time>2026-04-25T15:19:37.499Z</time></trkpt><trkpt lat="45.1930554" lon="8.5462219"><ele>104.5</ele><time>2026-04-25T15:19:38.499Z</time></trkpt><trkpt lat="45.1931867" lon="8.5462478"><ele>104.75</ele><time>2026-04-25T15:19:39.499Z</time></trkpt><trkpt lat="45.1933039" lon="8.5462715"><ele>105.0</ele><time>2026-04-25T15:19:40.499Z</time></trkpt><trkpt lat="45.1934168" lon="8.5462932"><ele>105.0</ele><time>2026-04-25T15:19:41.499Z</time></trkpt><trkpt lat="45.1935186" lon="8.5463133"><ele>105.0</ele><time>2026-04-25T15:19:42.499Z</time></trkpt><trkpt lat="45.1936071" lon="8.5463264"><ele>105.0</ele><time>2026-04-25T15:19:43.499Z</time></trkpt><trkpt lat="45.1936907" lon="8.546337"><ele>105.0</ele><time>2026-04-25T15:19:44.498Z</time></trkpt><trkpt lat="45.1937758" lon="8.5463392"><ele>105.0</ele><time>2026-04-25T15:19:45.499Z</time></trkpt><trkpt lat="45.1938674" lon="8.5463461"><ele>105.0</ele><time>2026-04-25T15:19:46.499Z</time></trkpt><trkpt lat="45.1939612" lon="8.5463612"><ele>105.0</ele><time>2026-04-25T15:19:47.498Z</time></trkpt><trkpt lat="45.1940608" lon="8.5463815"><ele>105.0</ele><time>2026-04-25T15:19:48.499Z</time></trkpt><trkpt lat="45.1941637" lon="8.5463985"><ele>105.0</ele><time>2026-04-25T15:19:49.498Z</time></trkpt><trkpt lat="45.1942699" lon="8.5464143"><ele>105.0</ele><time>2026-04-25T15:19:50.499Z</time></trkpt><trkpt lat="45.1943815" lon="8.5464284"><ele>105.0</ele><time>2026-04-25T15:19:51.498Z</time></trkpt><trkpt lat="45.1944957" lon="8.5464439"><ele>105.0</ele><time>2026-04-25T15:19:52.499Z</time></trkpt><trkpt lat="45.1946176" lon="8.5464666"><ele>105.0</ele><time>2026-04-25T15:19:53.498Z</time></trkpt><trkpt lat="45.1947493" lon="8.5464884"><ele>105.0</ele><time>2026-04-25T15:19:54.498Z</time></trkpt><trkpt lat="45.1948773" lon="8.5465107"><ele>105.0</ele><time>2026-04-25T15:19:55.499Z</time></trkpt><trkpt lat="45.195002" lon="8.5465295"><ele>105.0</ele><time>2026-04-25T15:19:56.499Z</time></trkpt><trkpt lat="45.1951212" lon="8.5465488"><ele>105.0</ele><time>2026-04-25T15:19:57.498Z</time></trkpt><trkpt lat="45.1952439" lon="8.5465675"><ele>105.0</ele><time>2026-04-25T15:19:58.499Z</time></trkpt><trkpt lat="45.195368" lon="8.5465876"><ele>105.0</ele><time>2026-04-25T15:19:59.499Z</time></trkpt><trkpt lat="45.1954964" lon="8.5466122"><ele>105.0</ele><time>2026-04-25T15:20:00.499Z</time></trkpt><trkpt lat="45.1956268" lon="8.5466382"><ele>105.0</ele><time>2026-04-25T15:20:01.499Z</time></trkpt><trkpt lat="45.1957599" lon="8.5466606"><ele>105.0</ele><time>2026-04-25T15:20:02.499Z</time></trkpt><trkpt lat="45.1958958" lon="8.5466826"><ele>104.5</ele><time>2026-04-25T15:20:03.499Z</time></trkpt><trkpt lat="45.1960352" lon="8.5467044"><ele>104.0</ele><time>2026-04-25T15:20:04.499Z</time></trkpt><trkpt lat="45.1961765" lon="8.5467292"><ele>103.5</ele><time>2026-04-25T15:20:05.499Z</time></trkpt><trkpt lat="45.1963142" lon="8.5467446"><ele>103.0</ele><time>2026-04-25T15:20:06.499Z</time></trkpt><trkpt lat="45.1964554" lon="8.5467554"><ele>103.25</ele><time>2026-04-25T15:20:07.499Z</time></trkpt><trkpt lat="45.1965932" lon="8.5467548"><ele>103.5</ele><time>2026-04-25T15:20:08.498Z</time></trkpt><trkpt lat="45.19674" lon="8.5467411"><ele>103.75</ele><time>2026-04-25T15:20:09.499Z</time></trkpt><trkpt lat="45.1968926" lon="8.5467182"><ele>104.0</ele><time>2026-04-25T15:20:10.499Z</time></trkpt><trkpt lat="45.1970439" lon="8.5466913"><ele>104.0</ele><time>2026-04-25T15:20:11.499Z</time></trkpt><trkpt lat="45.1972034" lon="8.5466586"><ele>104.0</ele><time>2026-04-25T15:20:12.499Z</time></trkpt><trkpt lat="45.1973721" lon="8.5466186"><ele>104.0</ele><time>2026-04-25T15:20:13.498Z</time></trkpt><trkpt lat="45.197553" lon="8.5465818"><ele>104.66666666666666</ele><time>2026-04-25T15:20:14.499Z</time></trkpt><trkpt lat="45.1977399" lon="8.546546"><ele>105.33333333333334</ele><time>2026-04-25T15:20:15.499Z</time></trkpt><trkpt lat="45.1979237" lon="8.5465064"><ele>106.0</ele><time>2026-04-25T15:20:16.499Z</time></trkpt><trkpt lat="45.1981115" lon="8.5464717"><ele>106.0</ele><time>2026-04-25T15:20:17.499Z</time></trkpt><trkpt lat="45.1982967" lon="8.5464338"><ele>106.0</ele><time>2026-04-25T15:20:18.498Z</time></trkpt><trkpt lat="45.1984781" lon="8.5463943"><ele>106.0</ele><time>2026-04-25T15:20:19.499Z</time></trkpt><trkpt lat="45.1986626" lon="8.5463548"><ele>106.0</ele><time>2026-04-25T15:20:20.499Z</time></trkpt><trkpt lat="45.1988495" lon="8.5463193"><ele>106.0</ele><time>2026-04-25T15:20:21.499Z</time></trkpt><trkpt lat="45.1990361" lon="8.5462821"><ele>106.0</ele><time>2026-04-25T15:20:22.499Z</time></trkpt><trkpt lat="45.1992126" lon="8.5462431"><ele>106.0</ele><time>2026-04-25T15:20:23.498Z</time></trkpt><trkpt lat="45.199377" lon="8.5462126"><ele>106.0</ele><time>2026-04-25T15:20:24.498Z</time></trkpt><trkpt lat="45.1995335" lon="8.5461809"><ele>106.0</ele><time>2026-04-25T15:20:25.499Z</time></trkpt><trkpt lat="45.1996861" lon="8.5461522"><ele>106.0</ele><time>2026-04-25T15:20:26.499Z</time></trkpt><trkpt lat="45.1998366" lon="8.5461159"><ele>106.0</ele><time>2026-04-25T15:20:27.498Z</time></trkpt><trkpt lat="45.1999806" lon="8.5460681"><ele>106.0</ele><time>2026-04-25T15:20:28.499Z</time></trkpt><trkpt lat="45.2001251" lon="8.5459978"><ele>106.0</ele><time>2026-04-25T15:20:29.499Z</time></trkpt><trkpt lat="45.200266" lon="8.5459131"><ele>106.0</ele><time>2026-04-25T15:20:30.499Z</time></trkpt><trkpt lat="45.2004076" lon="8.5458126"><ele>106.0</ele><time>2026-04-25T15:20:31.499Z</time></trkpt><trkpt lat="45.2005525" lon="8.5457079"><ele>105.66666666666667</ele><time>2026-04-25T15:20:32.499Z</time></trkpt><trkpt lat="45.2006955" lon="8.5455931"><ele>105.33333333333334</ele><time>2026-04-25T15:20:33.499Z</time></trkpt><trkpt lat="45.2008364" lon="8.545467"><ele>105.0</ele><time>2026-04-25T15:20:34.498Z</time></trkpt><trkpt lat="45.2009757" lon="8.5453276"><ele>104.33333333333334</ele><time>2026-04-25T15:20:35.499Z</time></trkpt><trkpt lat="45.2011114" lon="8.5451758"><ele>103.66666666666667</ele><time>2026-04-25T15:20:36.498Z</time></trkpt><trkpt lat="45.2012467" lon="8.5450091"><ele>103.0</ele><time>2026-04-25T15:20:37.498Z</time></trkpt><trkpt lat="45.2013809" lon="8.5448349"><ele>103.33333333333334</ele><time>2026-04-25T15:20:38.499Z</time></trkpt><trkpt lat="45.201514" lon="8.5446586"><ele>103.66666666666666</ele><time>2026-04-25T15:20:39.499Z</time></trkpt><trkpt lat="45.2016426" lon="8.5444819"><ele>104.0</ele><time>2026-04-25T15:20:40.499Z</time></trkpt><trkpt lat="45.2017675" lon="8.5443101"><ele>104.0</ele><time>2026-04-25T15:20:41.498Z</time></trkpt><trkpt lat="45.2018964" lon="8.5441371"><ele>104.0</ele><time>2026-04-25T15:20:42.499Z</time></trkpt><trkpt lat="45.2020278" lon="8.5439603"><ele>104.0</ele><time>2026-04-25T15:20:43.499Z</time></trkpt><trkpt lat="45.2021562" lon="8.5437811"><ele>104.0</ele><time>2026-04-25T15:20:44.499Z</time></trkpt><trkpt lat="45.2022869" lon="8.5435984"><ele>104.0</ele><time>2026-04-25T15:20:45.498Z</time></trkpt><trkpt lat="45.2024269" lon="8.5434078"><ele>104.0</ele><time>2026-04-25T15:20:46.499Z</time></trkpt><trkpt lat="45.2025639" lon="8.5432199"><ele>104.0</ele><time>2026-04-25T15:20:47.499Z</time></trkpt><trkpt lat="45.202701" lon="8.5430267"><ele>104.0</ele><time>2026-04-25T15:20:48.499Z</time></trkpt><trkpt lat="45.2028404" lon="8.5428288"><ele>104.0</ele><time>2026-04-25T15:20:49.498Z</time></trkpt><trkpt lat="45.2029833" lon="8.5426336"><ele>104.0</ele><time>2026-04-25T15:20:50.498Z</time></trkpt><trkpt lat="45.2031305" lon="8.5424383"><ele>104.0</ele><time>2026-04-25T15:20:51.498Z</time></trkpt><trkpt lat="45.203276" lon="8.5422409"><ele>104.0</ele><time>2026-04-25T15:20:52.498Z</time></trkpt><trkpt lat="45.2034177" lon="8.542042"><ele>104.0</ele><time>2026-04-25T15:20:53.498Z</time></trkpt><trkpt lat="45.2035592" lon="8.5418452"><ele>104.0</ele><time>2026-04-25T15:20:54.499Z</time></trkpt><trkpt lat="45.2037016" lon="8.5416513"><ele>104.0</ele><time>2026-04-25T15:20:55.498Z</time></trkpt><trkpt lat="45.2038416" lon="8.5414785"><ele>104.0</ele><time>2026-04-25T15:20:56.499Z</time></trkpt><trkpt lat="45.203973" lon="8.5413169"><ele>104.0</ele><time>2026-04-25T15:20:57.498Z</time></trkpt><trkpt lat="45.2040938" lon="8.5411658"><ele>104.0</ele><time>2026-04-25T15:20:58.499Z</time></trkpt><trkpt lat="45.2042092" lon="8.5410272"><ele>104.0</ele><time>2026-04-25T15:20:59.499Z</time></trkpt><trkpt lat="45.2043236" lon="8.5408989"><ele>104.0</ele><time>2026-04-25T15:21:00.499Z</time></trkpt><trkpt lat="45.2044312" lon="8.5407805"><ele>104.0</ele><time>2026-04-25T15:21:01.499Z</time></trkpt><trkpt lat="45.2045312" lon="8.5406668"><ele>104.0</ele><time>2026-04-25T15:21:02.499Z</time></trkpt><trkpt lat="45.2046156" lon="8.5405663"><ele>103.99999999999999</ele><time>2026-04-25T15:21:03.499Z</time></trkpt><trkpt lat="45.2046935" lon="8.5404832"><ele>104.0</ele><time>2026-04-25T15:21:04.498Z</time></trkpt><trkpt lat="45.2047692" lon="8.5404081"><ele>104.0</ele><time>2026-04-25T15:21:05.498Z</time></trkpt><trkpt lat="45.2048332" lon="8.5403406"><ele>104.0</ele><time>2026-04-25T15:21:06.498Z</time></trkpt><trkpt lat="45.2048862" lon="8.5402738"><ele>103.99999999999999</ele><time>2026-04-25T15:21:07.499Z</time></trkpt><trkpt lat="45.2049515" lon="8.5401512"><ele>104.0</ele><time>2026-04-25T15:21:09.498Z</time></trkpt><trkpt lat="45.2049753" lon="8.5400365"><ele>104.28571428571428</ele><time>2026-04-25T15:21:11.498Z</time></trkpt><trkpt lat="45.2049838" lon="8.5399368"><ele>104.57142857142858</ele><time>2026-04-25T15:21:13.499Z</time></trkpt><trkpt lat="45.2050031" lon="8.5398355"><ele>104.85714285714286</ele><time>2026-04-25T15:21:16.499Z</time></trkpt><trkpt lat="45.2050313" lon="8.5399256"><ele>105.14285714285714</ele><time>2026-04-25T15:21:42.498Z</time></trkpt><trkpt lat="45.2050247" lon="8.5400299"><ele>105.42857142857142</ele><time>2026-04-25T15:21:45.499Z</time></trkpt><trkpt lat="45.2050334" lon="8.540123"><ele>105.71428571428572</ele><time>2026-04-25T15:21:48.498Z</time></trkpt><trkpt lat="45.2050416" lon="8.5402348"><ele>106.0</ele><time>2026-04-25T15:21:51.498Z</time></trkpt><trkpt lat="45.2050558" lon="8.5403722"><ele>105.83333333333334</ele><time>2026-04-25T15:21:54.498Z</time></trkpt><trkpt lat="45.2050701" lon="8.540476"><ele>105.66666666666667</ele><time>2026-04-25T15:21:56.499Z</time></trkpt><trkpt lat="45.2050869" lon="8.5405864"><ele>105.5</ele><time>2026-04-25T15:21:58.498Z</time></trkpt><trkpt lat="45.2051038" lon="8.5406998"><ele>105.33333333333334</ele><time>2026-04-25T15:22:00.499Z</time></trkpt><trkpt lat="45.2051327" lon="8.5408272"><ele>105.16666666666667</ele><time>2026-04-25T15:22:02.499Z</time></trkpt><trkpt lat="45.2051578" lon="8.5409579"><ele>105.0</ele><time>2026-04-25T15:22:04.499Z</time></trkpt><trkpt lat="45.2051895" lon="8.5411201"><ele>105.0</ele><time>2026-04-25T15:22:06.499Z</time></trkpt><trkpt lat="45.2052107" lon="8.5412125"><ele>105.0</ele><time>2026-04-25T15:22:07.498Z</time></trkpt><trkpt lat="45.2052323" lon="8.5413095"><ele>105.0</ele><time>2026-04-25T15:22:08.499Z</time></trkpt><trkpt lat="45.2052588" lon="8.5414089"><ele>105.0</ele><time>2026-04-25T15:22:09.499Z</time></trkpt><trkpt lat="45.20529" lon="8.5415134"><ele>105.0</ele><time>2026-04-25T15:22:10.499Z</time></trkpt><trkpt lat="45.2053237" lon="8.5416257"><ele>105.0</ele><time>2026-04-25T15:22:11.499Z</time></trkpt><trkpt lat="45.2053688" lon="8.5417529"><ele>104.75</ele><time>2026-04-25T15:22:12.498Z</time></trkpt><trkpt lat="45.2054198" lon="8.5418886"><ele>104.5</ele><time>2026-04-25T15:22:13.499Z</time></trkpt><trkpt lat="45.2054765" lon="8.5420306"><ele>104.25</ele><time>2026-04-25T15:22:14.499Z</time></trkpt><trkpt lat="45.2055422" lon="8.54218"><ele>104.0</ele><time>2026-04-25T15:22:15.498Z</time></trkpt><trkpt lat="45.2056107" lon="8.5423352"><ele>103.75</ele><time>2026-04-25T15:22:16.498Z</time></trkpt><trkpt lat="45.2056826" lon="8.542489"><ele>103.5</ele><time>2026-04-25T15:22:17.499Z</time></trkpt><trkpt lat="45.2057546" lon="8.542631"><ele>103.25</ele><time>2026-04-25T15:22:18.498Z</time></trkpt><trkpt lat="45.2058253" lon="8.5427671"><ele>103.0</ele><time>2026-04-25T15:22:19.498Z</time></trkpt><trkpt lat="45.2058926" lon="8.5429"><ele>103.0</ele><time>2026-04-25T15:22:20.499Z</time></trkpt><trkpt lat="45.2059587" lon="8.543029"><ele>103.0</ele><time>2026-04-25T15:22:21.498Z</time></trkpt><trkpt lat="45.2060276" lon="8.5431574"><ele>103.0</ele><time>2026-04-25T15:22:22.499Z</time></trkpt><trkpt lat="45.2060939" lon="8.5432893"><ele>103.0</ele><time>2026-04-25T15:22:23.499Z</time></trkpt><trkpt lat="45.206163" lon="8.5434216"><ele>103.0</ele><time>2026-04-25T15:22:24.499Z</time></trkpt><trkpt lat="45.2062323" lon="8.5435602"><ele>103.0</ele><time>2026-04-25T15:22:25.499Z</time></trkpt><trkpt lat="45.2063076" lon="8.5437047"><ele>103.0</ele><time>2026-04-25T15:22:26.499Z</time></trkpt><trkpt lat="45.2063913" lon="8.5438609"><ele>103.0</ele><time>2026-04-25T15:22:27.498Z</time></trkpt><trkpt lat="45.2064776" lon="8.5440212"><ele>103.5</ele><time>2026-04-25T15:22:28.499Z</time></trkpt><trkpt lat="45.2065597" lon="8.5441715"><ele>104.0</ele><time>2026-04-25T15:22:29.498Z</time></trkpt><trkpt lat="45.2066406" lon="8.544323"><ele>104.5</ele><time>2026-04-25T15:22:30.499Z</time></trkpt><trkpt lat="45.2067301" lon="8.5445009"><ele>105.0</ele><time>2026-04-25T15:22:31.498Z</time></trkpt><trkpt lat="45.2068301" lon="8.5446983"><ele>105.33333333333334</ele><time>2026-04-25T15:22:32.499Z</time></trkpt><trkpt lat="45.2069395" lon="8.5449059"><ele>105.66666666666667</ele><time>2026-04-25T15:22:33.499Z</time></trkpt><trkpt lat="45.2070621" lon="8.5451376"><ele>106.0</ele><time>2026-04-25T15:22:34.498Z</time></trkpt><trkpt lat="45.2071924" lon="8.5453871"><ele>103.0</ele><time>2026-04-25T15:22:35.499Z</time></trkpt><trkpt lat="45.2073333" lon="8.5456566"><ele>100.0</ele><time>2026-04-25T15:22:36.499Z</time></trkpt><trkpt lat="45.2074808" lon="8.5459417"><ele>101.0</ele><time>2026-04-25T15:22:37.499Z</time></trkpt><trkpt lat="45.2076201" lon="8.5462139"><ele>102.0</ele><time>2026-04-25T15:22:38.498Z</time></trkpt><trkpt lat="45.2077509" lon="8.5464678"><ele>102.0</ele><time>2026-04-25T15:22:39.498Z</time></trkpt><trkpt lat="45.2078704" lon="8.546696"><ele>102.0</ele><time>2026-04-25T15:22:40.499Z</time></trkpt><trkpt lat="45.2079704" lon="8.5468859"><ele>102.0</ele><time>2026-04-25T15:22:41.499Z</time></trkpt><trkpt lat="45.2080484" lon="8.5470431"><ele>102.33333333333333</ele><time>2026-04-25T15:22:42.498Z</time></trkpt><trkpt lat="45.208102" lon="8.5471533"><ele>102.66666666666666</ele><time>2026-04-25T15:22:43.499Z</time></trkpt><trkpt lat="45.2081594" lon="8.5472427"><ele>103.0</ele><time>2026-04-25T15:22:45.499Z</time></trkpt><trkpt lat="45.2081715" lon="8.5471377"><ele>103.33333333333333</ele><time>2026-04-25T15:22:54.499Z</time></trkpt><trkpt lat="45.2081778" lon="8.5470487"><ele>103.66666666666666</ele><time>2026-04-25T15:22:57.499Z</time></trkpt><trkpt lat="45.2082522" lon="8.5469138"><ele>104.0</ele><time>2026-04-25T15:22:59.499Z</time></trkpt><trkpt lat="45.2083091" lon="8.5468315"><ele>104.0</ele><time>2026-04-25T15:23:00.499Z</time></trkpt><trkpt lat="45.2083804" lon="8.5467423"><ele>104.0</ele><time>2026-04-25T15:23:01.499Z</time></trkpt><trkpt lat="45.2084581" lon="8.5466426"><ele>104.0</ele><time>2026-04-25T15:23:02.499Z</time></trkpt><trkpt lat="45.2085421" lon="8.5465399"><ele>104.0</ele><time>2026-04-25T15:23:03.498Z</time></trkpt><trkpt lat="45.2086292" lon="8.5464265"><ele>104.0</ele><time>2026-04-25T15:23:04.498Z</time></trkpt><trkpt lat="45.2087193" lon="8.5463048"><ele>103.75</ele><time>2026-04-25T15:23:05.498Z</time></trkpt><trkpt lat="45.2088082" lon="8.5461846"><ele>103.5</ele><time>2026-04-25T15:23:06.499Z</time></trkpt><trkpt lat="45.2089021" lon="8.5460669"><ele>103.25</ele><time>2026-04-25T15:23:07.499Z</time></trkpt><trkpt lat="45.2089988" lon="8.5459446"><ele>103.0</ele><time>2026-04-25T15:23:08.499Z</time></trkpt><trkpt lat="45.209099" lon="8.545816"><ele>103.0</ele><time>2026-04-25T15:23:09.498Z</time></trkpt><trkpt lat="45.209196" lon="8.5456903"><ele>103.0</ele><time>2026-04-25T15:23:10.499Z</time></trkpt><trkpt lat="45.2092928" lon="8.545559"><ele>103.0</ele><time>2026-04-25T15:23:11.498Z</time></trkpt><trkpt lat="45.209389" lon="8.5454213"><ele>103.0</ele><time>2026-04-25T15:23:12.499Z</time></trkpt><trkpt lat="45.2094857" lon="8.5452733"><ele>102.5</ele><time>2026-04-25T15:23:13.499Z</time></trkpt><trkpt lat="45.2095877" lon="8.545127"><ele>102.0</ele><time>2026-04-25T15:23:14.498Z</time></trkpt><trkpt lat="45.2096937" lon="8.5449756"><ele>101.5</ele><time>2026-04-25T15:23:15.499Z</time></trkpt><trkpt lat="45.209797" lon="8.544826"><ele>101.0</ele><time>2026-04-25T15:23:16.498Z</time></trkpt><trkpt lat="45.2098992" lon="8.5446877"><ele>101.25</ele><time>2026-04-25T15:23:17.498Z</time></trkpt><trkpt lat="45.2099972" lon="8.5445512"><ele>101.5</ele><time>2026-04-25T15:23:18.499Z</time></trkpt><trkpt lat="45.2100904" lon="8.5444267"><ele>101.75</ele><time>2026-04-25T15:23:19.498Z</time></trkpt><trkpt lat="45.2101764" lon="8.5443239"><ele>102.0</ele><time>2026-04-25T15:23:20.499Z</time></trkpt><trkpt lat="45.2102739" lon="8.5442441"><ele>102.0</ele><time>2026-04-25T15:23:21.499Z</time></trkpt><trkpt lat="45.2103724" lon="8.5441763"><ele>102.0</ele><time>2026-04-25T15:23:22.499Z</time></trkpt><trkpt lat="45.2104516" lon="8.5440999"><ele>102.0</ele><time>2026-04-25T15:23:23.498Z</time></trkpt><trkpt lat="45.2105105" lon="8.5440095"><ele>102.0</ele><time>2026-04-25T15:23:24.499Z</time></trkpt><trkpt lat="45.2105473" lon="8.5439036"><ele>102.0</ele><time>2026-04-25T15:23:25.499Z</time></trkpt><trkpt lat="45.2105786" lon="8.543775"><ele>102.19999999999999</ele><time>2026-04-25T15:23:26.498Z</time></trkpt><trkpt lat="45.210601" lon="8.5436309"><ele>102.4</ele><time>2026-04-25T15:23:27.499Z</time></trkpt><trkpt lat="45.2106191" lon="8.5434759"><ele>102.6</ele><time>2026-04-25T15:23:28.499Z</time></trkpt><trkpt lat="45.2106271" lon="8.5433234"><ele>102.80000000000001</ele><time>2026-04-25T15:23:29.499Z</time></trkpt><trkpt lat="45.2106362" lon="8.5431775"><ele>103.0</ele><time>2026-04-25T15:23:30.499Z</time></trkpt><trkpt lat="45.2106664" lon="8.5430453"><ele>103.0</ele><time>2026-04-25T15:23:31.499Z</time></trkpt><trkpt lat="45.2107217" lon="8.5429083"><ele>103.0</ele><time>2026-04-25T15:23:32.499Z</time></trkpt><trkpt lat="45.2107947" lon="8.5427718"><ele>103.0</ele><time>2026-04-25T15:23:33.498Z</time></trkpt><trkpt lat="45.2108734" lon="8.5426205"><ele>103.0</ele><time>2026-04-25T15:23:34.499Z</time></trkpt><trkpt lat="45.2109534" lon="8.5424635"><ele>102.75</ele><time>2026-04-25T15:23:35.499Z</time></trkpt><trkpt lat="45.21104" lon="8.5422983"><ele>102.5</ele><time>2026-04-25T15:23:36.499Z</time></trkpt><trkpt lat="45.2111319" lon="8.5421366"><ele>102.25</ele><time>2026-04-25T15:23:37.499Z</time></trkpt><trkpt lat="45.2112207" lon="8.5419704"><ele>102.0</ele><time>2026-04-25T15:23:38.498Z</time></trkpt><trkpt lat="45.211308" lon="8.5418029"><ele>102.0</ele><time>2026-04-25T15:23:39.499Z</time></trkpt><trkpt lat="45.2113949" lon="8.5416381"><ele>102.0</ele><time>2026-04-25T15:23:40.498Z</time></trkpt><trkpt lat="45.2114903" lon="8.5414725"><ele>102.0</ele><time>2026-04-25T15:23:41.498Z</time></trkpt><trkpt lat="45.2115849" lon="8.5413063"><ele>102.0</ele><time>2026-04-25T15:23:42.499Z</time></trkpt><trkpt lat="45.2116793" lon="8.5411389"><ele>102.5</ele><time>2026-04-25T15:23:43.498Z</time></trkpt><trkpt lat="45.2117746" lon="8.540978"><ele>103.0</ele><time>2026-04-25T15:23:44.499Z</time></trkpt><trkpt lat="45.211866" lon="8.5408203"><ele>103.5</ele><time>2026-04-25T15:23:45.499Z</time></trkpt><trkpt lat="45.211957" lon="8.540658"><ele>104.0</ele><time>2026-04-25T15:23:46.499Z</time></trkpt><trkpt lat="45.2120474" lon="8.5404978"><ele>104.0</ele><time>2026-04-25T15:23:47.499Z</time></trkpt><trkpt lat="45.2121371" lon="8.5403352"><ele>104.0</ele><time>2026-04-25T15:23:48.499Z</time></trkpt><trkpt lat="45.212225" lon="8.540173"><ele>104.0</ele><time>2026-04-25T15:23:49.499Z</time></trkpt><trkpt lat="45.212314" lon="8.5400085"><ele>104.0</ele><time>2026-04-25T15:23:50.499Z</time></trkpt><trkpt lat="45.2123987" lon="8.5398391"><ele>103.75</ele><time>2026-04-25T15:23:51.499Z</time></trkpt><trkpt lat="45.2124828" lon="8.5396696"><ele>103.5</ele><time>2026-04-25T15:23:52.499Z</time></trkpt><trkpt lat="45.2125698" lon="8.5394979"><ele>103.25</ele><time>2026-04-25T15:23:53.498Z</time></trkpt><trkpt lat="45.2126493" lon="8.5393404"><ele>103.0</ele><time>2026-04-25T15:23:54.499Z</time></trkpt><trkpt lat="45.2127236" lon="8.539191"><ele>103.0</ele><time>2026-04-25T15:23:55.499Z</time></trkpt><trkpt lat="45.2127999" lon="8.5390408"><ele>103.0</ele><time>2026-04-25T15:23:56.499Z</time></trkpt><trkpt lat="45.2128764" lon="8.5388888"><ele>103.0</ele><time>2026-04-25T15:23:57.498Z</time></trkpt><trkpt lat="45.2129539" lon="8.5387325"><ele>103.0</ele><time>2026-04-25T15:23:58.499Z</time></trkpt><trkpt lat="45.2130308" lon="8.5385737"><ele>103.25</ele><time>2026-04-25T15:23:59.498Z</time></trkpt><trkpt lat="45.2131173" lon="8.5384131"><ele>103.5</ele><time>2026-04-25T15:24:00.498Z</time></trkpt><trkpt lat="45.2132065" lon="8.538248"><ele>103.75</ele><time>2026-04-25T15:24:01.499Z</time></trkpt><trkpt lat="45.213295" lon="8.5380937"><ele>104.0</ele><time>2026-04-25T15:24:02.499Z</time></trkpt><trkpt lat="45.2133798" lon="8.5379392"><ele>103.33333333333333</ele><time>2026-04-25T15:24:03.499Z</time></trkpt><trkpt lat="45.2134698" lon="8.5377731"><ele>102.66666666666666</ele><time>2026-04-25T15:24:04.499Z</time></trkpt><trkpt lat="45.2135643" lon="8.5375994"><ele>102.0</ele><time>2026-04-25T15:24:05.498Z</time></trkpt><trkpt lat="45.2136591" lon="8.5374287"><ele>102.0</ele><time>2026-04-25T15:24:06.498Z</time></trkpt><trkpt lat="45.2137543" lon="8.5372645"><ele>102.0</ele><time>2026-04-25T15:24:07.499Z</time></trkpt><trkpt lat="45.2138502" lon="8.5370974"><ele>102.0</ele><time>2026-04-25T15:24:08.499Z</time></trkpt><trkpt lat="45.2139487" lon="8.5369308"><ele>102.5</ele><time>2026-04-25T15:24:09.498Z</time></trkpt><trkpt lat="45.214044" lon="8.5367671"><ele>103.0</ele><time>2026-04-25T15:24:10.499Z</time></trkpt><trkpt lat="45.2141436" lon="8.5366114"><ele>103.5</ele><time>2026-04-25T15:24:11.499Z</time></trkpt><trkpt lat="45.2142429" lon="8.5364585"><ele>104.0</ele><time>2026-04-25T15:24:12.499Z</time></trkpt><trkpt lat="45.2143503" lon="8.5363187"><ele>104.66666666666666</ele><time>2026-04-25T15:24:13.499Z</time></trkpt><trkpt lat="45.2144719" lon="8.5361919"><ele>105.33333333333334</ele><time>2026-04-25T15:24:14.499Z</time></trkpt><trkpt lat="45.214595" lon="8.5360647"><ele>106.0</ele><time>2026-04-25T15:24:15.499Z</time></trkpt><trkpt lat="45.2147264" lon="8.535932"><ele>106.0</ele><time>2026-04-25T15:24:16.499Z</time></trkpt><trkpt lat="45.2148639" lon="8.5358001"><ele>106.0</ele><time>2026-04-25T15:24:17.499Z</time></trkpt><trkpt lat="45.2150058" lon="8.5356703"><ele>106.0</ele><time>2026-04-25T15:24:18.499Z</time></trkpt><trkpt lat="45.2151435" lon="8.5355451"><ele>106.0</ele><time>2026-04-25T15:24:19.499Z</time></trkpt><trkpt lat="45.2152861" lon="8.535417"><ele>106.0</ele><time>2026-04-25T15:24:20.499Z</time></trkpt><trkpt lat="45.2154289" lon="8.5352864"><ele>106.0</ele><time>2026-04-25T15:24:21.499Z</time></trkpt><trkpt lat="45.2155755" lon="8.5351607"><ele>106.0</ele><time>2026-04-25T15:24:22.498Z</time></trkpt><trkpt lat="45.2157172" lon="8.5350275"><ele>106.0</ele><time>2026-04-25T15:24:23.498Z</time></trkpt><trkpt lat="45.2158626" lon="8.5348991"><ele>106.0</ele><time>2026-04-25T15:24:24.499Z</time></trkpt><trkpt lat="45.2160071" lon="8.5347746"><ele>106.0</ele><time>2026-04-25T15:24:25.499Z</time></trkpt><trkpt lat="45.2161497" lon="8.5346525"><ele>106.0</ele><time>2026-04-25T15:24:26.499Z</time></trkpt><trkpt lat="45.2162866" lon="8.5345267"><ele>106.0</ele><time>2026-04-25T15:24:27.498Z</time></trkpt><trkpt lat="45.2164267" lon="8.5344028"><ele>106.33333333333334</ele><time>2026-04-25T15:24:28.498Z</time></trkpt><trkpt lat="45.2165687" lon="8.5342766"><ele>106.66666666666666</ele><time>2026-04-25T15:24:29.498Z</time></trkpt><trkpt lat="45.2167144" lon="8.5341443"><ele>107.0</ele><time>2026-04-25T15:24:30.498Z</time></trkpt><trkpt lat="45.2168619" lon="8.5340151"><ele>107.0</ele><time>2026-04-25T15:24:31.499Z</time></trkpt><trkpt lat="45.2170041" lon="8.5338878"><ele>107.0</ele><time>2026-04-25T15:24:32.499Z</time></trkpt><trkpt lat="45.2171406" lon="8.5337721"><ele>107.0</ele><time>2026-04-25T15:24:33.498Z</time></trkpt><trkpt lat="45.2172693" lon="8.533659"><ele>106.5</ele><time>2026-04-25T15:24:34.499Z</time></trkpt><trkpt lat="45.2173981" lon="8.5335423"><ele>106.0</ele><time>2026-04-25T15:24:35.499Z</time></trkpt><trkpt lat="45.2175228" lon="8.533427"><ele>105.5</ele><time>2026-04-25T15:24:36.499Z</time></trkpt><trkpt lat="45.2176471" lon="8.5333158"><ele>105.0</ele><time>2026-04-25T15:24:37.499Z</time></trkpt><trkpt lat="45.2177696" lon="8.5332013"><ele>105.0</ele><time>2026-04-25T15:24:38.499Z</time></trkpt><trkpt lat="45.2178969" lon="8.5330863"><ele>105.0</ele><time>2026-04-25T15:24:39.498Z</time></trkpt><trkpt lat="45.2180214" lon="8.5329738"><ele>105.0</ele><time>2026-04-25T15:24:40.499Z</time></trkpt><trkpt lat="45.2181508" lon="8.5328567"><ele>106.33333333333334</ele><time>2026-04-25T15:24:41.498Z</time></trkpt><trkpt lat="45.2182829" lon="8.5327329"><ele>107.66666666666667</ele><time>2026-04-25T15:24:42.498Z</time></trkpt><trkpt lat="45.2184177" lon="8.5326105"><ele>109.0</ele><time>2026-04-25T15:24:43.499Z</time></trkpt><trkpt lat="45.2185497" lon="8.5324911"><ele>109.0</ele><time>2026-04-25T15:24:44.499Z</time></trkpt><trkpt lat="45.2186882" lon="8.5323706"><ele>109.0</ele><time>2026-04-25T15:24:45.498Z</time></trkpt><trkpt lat="45.2188218" lon="8.5322479"><ele>109.0</ele><time>2026-04-25T15:24:46.499Z</time></trkpt><trkpt lat="45.2189586" lon="8.5321255"><ele>109.33333333333334</ele><time>2026-04-25T15:24:47.499Z</time></trkpt><trkpt lat="45.2190989" lon="8.5320094"><ele>109.66666666666666</ele><time>2026-04-25T15:24:48.499Z</time></trkpt><trkpt lat="45.2192464" lon="8.5318896"><ele>110.0</ele><time>2026-04-25T15:24:49.499Z</time></trkpt><trkpt lat="45.219395" lon="8.5317702"><ele>110.0</ele><time>2026-04-25T15:24:50.498Z</time></trkpt><trkpt lat="45.2195441" lon="8.5316464"><ele>110.0</ele><time>2026-04-25T15:24:51.498Z</time></trkpt><trkpt lat="45.2196907" lon="8.5315272"><ele>110.0</ele><time>2026-04-25T15:24:52.499Z</time></trkpt><trkpt lat="45.2198344" lon="8.5314137"><ele>108.66666666666666</ele><time>2026-04-25T15:24:53.498Z</time></trkpt><trkpt lat="45.219976" lon="8.5312972"><ele>107.33333333333334</ele><time>2026-04-25T15:24:54.499Z</time></trkpt><trkpt lat="45.220117" lon="8.531182"><ele>106.0</ele><time>2026-04-25T15:24:55.498Z</time></trkpt><trkpt lat="45.2202586" lon="8.5310705"><ele>106.0</ele><time>2026-04-25T15:24:56.499Z</time></trkpt><trkpt lat="45.220401" lon="8.5309583"><ele>106.0</ele><time>2026-04-25T15:24:57.498Z</time></trkpt><trkpt lat="45.2205452" lon="8.5308577"><ele>106.0</ele><time>2026-04-25T15:24:58.499Z</time></trkpt><trkpt lat="45.220694" lon="8.5307625"><ele>106.0</ele><time>2026-04-25T15:24:59.499Z</time></trkpt><trkpt lat="45.2208414" lon="8.5306847"><ele>106.0</ele><time>2026-04-25T15:25:00.498Z</time></trkpt><trkpt lat="45.2209882" lon="8.5306143"><ele>106.0</ele><time>2026-04-25T15:25:01.498Z</time></trkpt><trkpt lat="45.2211348" lon="8.5305511"><ele>106.0</ele><time>2026-04-25T15:25:02.499Z</time></trkpt><trkpt lat="45.221289" lon="8.5305"><ele>106.0</ele><time>2026-04-25T15:25:03.499Z</time></trkpt><trkpt lat="45.2214429" lon="8.5304604"><ele>106.0</ele><time>2026-04-25T15:25:04.499Z</time></trkpt><trkpt lat="45.2216024" lon="8.5304294"><ele>105.66666666666667</ele><time>2026-04-25T15:25:05.498Z</time></trkpt><trkpt lat="45.2217611" lon="8.5304102"><ele>105.33333333333334</ele><time>2026-04-25T15:25:06.499Z</time></trkpt><trkpt lat="45.2219241" lon="8.5303984"><ele>105.0</ele><time>2026-04-25T15:25:07.499Z</time></trkpt><trkpt lat="45.222085" lon="8.5304008"><ele>105.0</ele><time>2026-04-25T15:25:08.499Z</time></trkpt><trkpt lat="45.2222442" lon="8.5304111"><ele>105.0</ele><time>2026-04-25T15:25:09.499Z</time></trkpt><trkpt lat="45.2224079" lon="8.5304365"><ele>105.0</ele><time>2026-04-25T15:25:10.499Z</time></trkpt><trkpt lat="45.2225673" lon="8.5304748"><ele>104.33333333333334</ele><time>2026-04-25T15:25:11.498Z</time></trkpt><trkpt lat="45.2227248" lon="8.5305323"><ele>103.66666666666667</ele><time>2026-04-25T15:25:12.498Z</time></trkpt><trkpt lat="45.2228801" lon="8.5306046"><ele>103.0</ele><time>2026-04-25T15:25:13.499Z</time></trkpt><trkpt lat="45.2230325" lon="8.5306913"><ele>103.66666666666667</ele><time>2026-04-25T15:25:14.498Z</time></trkpt><trkpt lat="45.2231859" lon="8.5307853"><ele>104.33333333333334</ele><time>2026-04-25T15:25:15.499Z</time></trkpt><trkpt lat="45.2233393" lon="8.5308831"><ele>105.0</ele><time>2026-04-25T15:25:16.499Z</time></trkpt><trkpt lat="45.2234924" lon="8.5309857"><ele>105.0</ele><time>2026-04-25T15:25:17.498Z</time></trkpt><trkpt lat="45.2236467" lon="8.5310991"><ele>105.0</ele><time>2026-04-25T15:25:18.499Z</time></trkpt><trkpt lat="45.2237988" lon="8.5312176"><ele>105.0</ele><time>2026-04-25T15:25:19.498Z</time></trkpt><trkpt lat="45.2239496" lon="8.5313358"><ele>105.33333333333334</ele><time>2026-04-25T15:25:20.499Z</time></trkpt><trkpt lat="45.2241041" lon="8.5314558"><ele>105.66666666666667</ele><time>2026-04-25T15:25:21.499Z</time></trkpt><trkpt lat="45.2242623" lon="8.5315765"><ele>106.0</ele><time>2026-04-25T15:25:22.499Z</time></trkpt><trkpt lat="45.2244169" lon="8.5316925"><ele>106.0</ele><time>2026-04-25T15:25:23.499Z</time></trkpt><trkpt lat="45.2245717" lon="8.5318123"><ele>106.0</ele><time>2026-04-25T15:25:24.499Z</time></trkpt><trkpt lat="45.2247265" lon="8.531931"><ele>106.0</ele><time>2026-04-25T15:25:25.499Z</time></trkpt><trkpt lat="45.2248836" lon="8.5320434"><ele>106.0</ele><time>2026-04-25T15:25:26.499Z</time></trkpt><trkpt lat="45.2250418" lon="8.5321588"><ele>106.0</ele><time>2026-04-25T15:25:27.499Z</time></trkpt><trkpt lat="45.2251845" lon="8.5322764"><ele>106.0</ele><time>2026-04-25T15:25:28.499Z</time></trkpt><trkpt lat="45.2253177" lon="8.5323783"><ele>106.0</ele><time>2026-04-25T15:25:29.499Z</time></trkpt><trkpt lat="45.2254515" lon="8.5324784"><ele>106.0</ele><time>2026-04-25T15:25:30.498Z</time></trkpt><trkpt lat="45.2255876" lon="8.5325871"><ele>106.0</ele><time>2026-04-25T15:25:31.498Z</time></trkpt><trkpt lat="45.2257231" lon="8.532692"><ele>106.0</ele><time>2026-04-25T15:25:32.499Z</time></trkpt><trkpt lat="45.2258653" lon="8.5327962"><ele>106.0</ele><time>2026-04-25T15:25:33.499Z</time></trkpt><trkpt lat="45.2260054" lon="8.532899"><ele>106.0</ele><time>2026-04-25T15:25:34.499Z</time></trkpt><trkpt lat="45.2261445" lon="8.5330086"><ele>106.0</ele><time>2026-04-25T15:25:35.498Z</time></trkpt><trkpt lat="45.2262862" lon="8.5331173"><ele>106.0</ele><time>2026-04-25T15:25:36.498Z</time></trkpt><trkpt lat="45.2264288" lon="8.5332277"><ele>106.0</ele><time>2026-04-25T15:25:37.499Z</time></trkpt><trkpt lat="45.2265713" lon="8.5333356"><ele>106.0</ele><time>2026-04-25T15:25:38.499Z</time></trkpt><trkpt lat="45.226709" lon="8.5334447"><ele>106.0</ele><time>2026-04-25T15:25:39.499Z</time></trkpt><trkpt lat="45.226837" lon="8.5335418"><ele>106.0</ele><time>2026-04-25T15:25:40.499Z</time></trkpt><trkpt lat="45.2269558" lon="8.5336336"><ele>106.0</ele><time>2026-04-25T15:25:41.499Z</time></trkpt><trkpt lat="45.22706" lon="8.533724"><ele>106.0</ele><time>2026-04-25T15:25:42.498Z</time></trkpt><trkpt lat="45.2271493" lon="8.5338075"><ele>106.0</ele><time>2026-04-25T15:25:43.498Z</time></trkpt><trkpt lat="45.227226" lon="8.5339109"><ele>106.0</ele><time>2026-04-25T15:25:44.498Z</time></trkpt><trkpt lat="45.2272881" lon="8.534043"><ele>106.0</ele><time>2026-04-25T15:25:45.499Z</time></trkpt><trkpt lat="45.2273309" lon="8.53419"><ele>106.0</ele><time>2026-04-25T15:25:46.499Z</time></trkpt><trkpt lat="45.2273516" lon="8.534352"><ele>106.0</ele><time>2026-04-25T15:25:47.499Z</time></trkpt><trkpt lat="45.227361" lon="8.5345276"><ele>106.0</ele><time>2026-04-25T15:25:48.499Z</time></trkpt><trkpt lat="45.2273585" lon="8.5347088"><ele>106.0</ele><time>2026-04-25T15:25:49.499Z</time></trkpt><trkpt lat="45.2273585" lon="8.5349013"><ele>106.0</ele><time>2026-04-25T15:25:50.498Z</time></trkpt><trkpt lat="45.2273571" lon="8.5350935"><ele>106.0</ele><time>2026-04-25T15:25:51.499Z</time></trkpt><trkpt lat="45.2273564" lon="8.535289"><ele>106.0</ele><time>2026-04-25T15:25:52.498Z</time></trkpt><trkpt lat="45.2273528" lon="8.5354865"><ele>106.0</ele><time>2026-04-25T15:25:53.498Z</time></trkpt><trkpt lat="45.2273518" lon="8.5356855"><ele>106.0</ele><time>2026-04-25T15:25:54.498Z</time></trkpt><trkpt lat="45.2273483" lon="8.5358858"><ele>106.0</ele><time>2026-04-25T15:25:55.499Z</time></trkpt><trkpt lat="45.2273447" lon="8.5360854"><ele>106.0</ele><time>2026-04-25T15:25:56.499Z</time></trkpt><trkpt lat="45.2273409" lon="8.5362791"><ele>106.0</ele><time>2026-04-25T15:25:57.499Z</time></trkpt><trkpt lat="45.2273381" lon="8.5364708"><ele>106.0</ele><time>2026-04-25T15:25:58.499Z</time></trkpt><trkpt lat="45.2273362" lon="8.536659"><ele>106.0</ele><time>2026-04-25T15:25:59.498Z</time></trkpt><trkpt lat="45.2273351" lon="8.5368531"><ele>106.0</ele><time>2026-04-25T15:26:00.499Z</time></trkpt><trkpt lat="45.2273354" lon="8.5370457"><ele>106.0</ele><time>2026-04-25T15:26:01.499Z</time></trkpt><trkpt lat="45.2273316" lon="8.5372308"><ele>106.0</ele><time>2026-04-25T15:26:02.499Z</time></trkpt><trkpt lat="45.2273254" lon="8.5374075"><ele>106.0</ele><time>2026-04-25T15:26:03.499Z</time></trkpt><trkpt lat="45.2273225" lon="8.537577"><ele>106.0</ele><time>2026-04-25T15:26:04.499Z</time></trkpt><trkpt lat="45.2273181" lon="8.5377479"><ele>106.0</ele><time>2026-04-25T15:26:05.499Z</time></trkpt><trkpt lat="45.2273184" lon="8.5379188"><ele>106.0</ele><time>2026-04-25T15:26:06.498Z</time></trkpt><trkpt lat="45.2273169" lon="8.5380959"><ele>105.75</ele><time>2026-04-25T15:26:07.498Z</time></trkpt><trkpt lat="45.2273129" lon="8.538279"><ele>105.5</ele><time>2026-04-25T15:26:08.499Z</time></trkpt><trkpt lat="45.2273108" lon="8.5384573"><ele>105.25</ele><time>2026-04-25T15:26:09.499Z</time></trkpt><trkpt lat="45.2273117" lon="8.5386407"><ele>105.0</ele><time>2026-04-25T15:26:10.498Z</time></trkpt><trkpt lat="45.2273111" lon="8.5388223"><ele>105.0</ele><time>2026-04-25T15:26:11.498Z</time></trkpt><trkpt lat="45.2273109" lon="8.5389979"><ele>105.0</ele><time>2026-04-25T15:26:12.499Z</time></trkpt><trkpt lat="45.2273132" lon="8.5391719"><ele>105.0</ele><time>2026-04-25T15:26:13.499Z</time></trkpt><trkpt lat="45.2273103" lon="8.539346"><ele>105.0</ele><time>2026-04-25T15:26:14.499Z</time></trkpt><trkpt lat="45.227309" lon="8.5395187"><ele>104.8</ele><time>2026-04-25T15:26:15.498Z</time></trkpt><trkpt lat="45.2273081" lon="8.5396829"><ele>104.6</ele><time>2026-04-25T15:26:16.499Z</time></trkpt><trkpt lat="45.2273085" lon="8.5398421"><ele>104.4</ele><time>2026-04-25T15:26:17.498Z</time></trkpt><trkpt lat="45.2273118" lon="8.5399984"><ele>104.2</ele><time>2026-04-25T15:26:18.498Z</time></trkpt><trkpt lat="45.227313" lon="8.540155"><ele>104.0</ele><time>2026-04-25T15:26:19.499Z</time></trkpt><trkpt lat="45.22732" lon="8.5402953"><ele>104.66666666666666</ele><time>2026-04-25T15:26:20.499Z</time></trkpt><trkpt lat="45.2273362" lon="8.5404175"><ele>105.33333333333333</ele><time>2026-04-25T15:26:21.498Z</time></trkpt><trkpt lat="45.2273657" lon="8.540526"><ele>106.0</ele><time>2026-04-25T15:26:22.499Z</time></trkpt><trkpt lat="45.2274048" lon="8.5406189"><ele>106.66666666666666</ele><time>2026-04-25T15:26:23.499Z</time></trkpt><trkpt lat="45.2274583" lon="8.5407158"><ele>107.33333333333333</ele><time>2026-04-25T15:26:24.499Z</time></trkpt><trkpt lat="45.2275251" lon="8.5408112"><ele>108.0</ele><time>2026-04-25T15:26:25.498Z</time></trkpt><trkpt lat="45.2275991" lon="8.5409088"><ele>108.0</ele><time>2026-04-25T15:26:26.499Z</time></trkpt><trkpt lat="45.2276732" lon="8.5410085"><ele>108.00000000000001</ele><time>2026-04-25T15:26:27.498Z</time></trkpt><trkpt lat="45.2277517" lon="8.5411094"><ele>108.00000000000001</ele><time>2026-04-25T15:26:28.499Z</time></trkpt><trkpt lat="45.2278352" lon="8.541209"><ele>108.0</ele><time>2026-04-25T15:26:29.499Z</time></trkpt><trkpt lat="45.2279202" lon="8.54132"><ele>108.0</ele><time>2026-04-25T15:26:30.499Z</time></trkpt><trkpt lat="45.2280034" lon="8.5414337"><ele>107.5</ele><time>2026-04-25T15:26:31.499Z</time></trkpt><trkpt lat="45.2280941" lon="8.5415528"><ele>107.0</ele><time>2026-04-25T15:26:32.499Z</time></trkpt><trkpt lat="45.2281871" lon="8.5416741"><ele>106.5</ele><time>2026-04-25T15:26:33.499Z</time></trkpt><trkpt lat="45.2282853" lon="8.5417944"><ele>106.0</ele><time>2026-04-25T15:26:34.499Z</time></trkpt><trkpt lat="45.2283755" lon="8.5419186"><ele>106.0</ele><time>2026-04-25T15:26:35.499Z</time></trkpt><trkpt lat="45.2284625" lon="8.5420334"><ele>106.0</ele><time>2026-04-25T15:26:36.498Z</time></trkpt><trkpt lat="45.2285497" lon="8.5421482"><ele>106.0</ele><time>2026-04-25T15:26:37.499Z</time></trkpt><trkpt lat="45.2286369" lon="8.5422641"><ele>106.0</ele><time>2026-04-25T15:26:38.498Z</time></trkpt><trkpt lat="45.2287289" lon="8.5423858"><ele>106.0</ele><time>2026-04-25T15:26:39.499Z</time></trkpt><trkpt lat="45.2288229" lon="8.542508"><ele>106.0</ele><time>2026-04-25T15:26:40.499Z</time></trkpt><trkpt lat="45.228914" lon="8.5426345"><ele>106.0</ele><time>2026-04-25T15:26:41.499Z</time></trkpt><trkpt lat="45.2290095" lon="8.5427599"><ele>106.0</ele><time>2026-04-25T15:26:42.499Z</time></trkpt><trkpt lat="45.2290995" lon="8.542884"><ele>106.75</ele><time>2026-04-25T15:26:43.499Z</time></trkpt><trkpt lat="45.229188" lon="8.5430078"><ele>107.5</ele><time>2026-04-25T15:26:44.499Z</time></trkpt><trkpt lat="45.2292749" lon="8.543125"><ele>108.25</ele><time>2026-04-25T15:26:45.499Z</time></trkpt><trkpt lat="45.2293614" lon="8.5432348"><ele>109.0</ele><time>2026-04-25T15:26:46.499Z</time></trkpt><trkpt lat="45.2294441" lon="8.5433425"><ele>109.0</ele><time>2026-04-25T15:26:47.499Z</time></trkpt><trkpt lat="45.2295249" lon="8.5434501"><ele>109.0</ele><time>2026-04-25T15:26:48.499Z</time></trkpt><trkpt lat="45.2296045" lon="8.5435557"><ele>109.0</ele><time>2026-04-25T15:26:49.498Z</time></trkpt><trkpt lat="45.2296903" lon="8.5436694"><ele>109.0</ele><time>2026-04-25T15:26:50.499Z</time></trkpt><trkpt lat="45.2297804" lon="8.5437917"><ele>108.75</ele><time>2026-04-25T15:26:51.498Z</time></trkpt><trkpt lat="45.2298712" lon="8.5439186"><ele>108.5</ele><time>2026-04-25T15:26:52.499Z</time></trkpt><trkpt lat="45.2299614" lon="8.5440465"><ele>108.25</ele><time>2026-04-25T15:26:53.498Z</time></trkpt><trkpt lat="45.2300509" lon="8.544171"><ele>108.0</ele><time>2026-04-25T15:26:54.499Z</time></trkpt><trkpt lat="45.2301387" lon="8.544281"><ele>108.0</ele><time>2026-04-25T15:26:55.498Z</time></trkpt><trkpt lat="45.2302196" lon="8.5443848"><ele>108.00000000000001</ele><time>2026-04-25T15:26:56.499Z</time></trkpt><trkpt lat="45.2302914" lon="8.5444792"><ele>108.00000000000001</ele><time>2026-04-25T15:26:57.499Z</time></trkpt><trkpt lat="45.2303576" lon="8.5445711"><ele>108.0</ele><time>2026-04-25T15:26:58.498Z</time></trkpt><trkpt lat="45.2304178" lon="8.5446553"><ele>108.0</ele><time>2026-04-25T15:26:59.499Z</time></trkpt><trkpt lat="45.2304721" lon="8.5447307"><ele>107.60000000000001</ele><time>2026-04-25T15:27:00.499Z</time></trkpt><trkpt lat="45.2305507" lon="8.5448412"><ele>107.20000000000002</ele><time>2026-04-25T15:27:02.499Z</time></trkpt><trkpt lat="45.230592" lon="8.5449209"><ele>106.8</ele><time>2026-04-25T15:27:04.499Z</time></trkpt><trkpt lat="45.2305699" lon="8.5450172"><ele>106.4</ele><time>2026-04-25T15:27:08.499Z</time></trkpt><trkpt lat="45.2304737" lon="8.5450986"><ele>106.0</ele><time>2026-04-25T15:27:11.498Z</time></trkpt><trkpt lat="45.230379" lon="8.5451718"><ele>106.0</ele><time>2026-04-25T15:27:13.499Z</time></trkpt><trkpt lat="45.2302696" lon="8.5452547"><ele>106.0</ele><time>2026-04-25T15:27:15.499Z</time></trkpt><trkpt lat="45.2301671" lon="8.5453468"><ele>106.0</ele><time>2026-04-25T15:27:17.499Z</time></trkpt><trkpt lat="45.2300746" lon="8.5454576"><ele>106.0</ele><time>2026-04-25T15:27:19.498Z</time></trkpt><trkpt lat="45.2300216" lon="8.545531"><ele>106.0</ele><time>2026-04-25T15:27:20.498Z</time></trkpt><trkpt lat="45.2299639" lon="8.5456131"><ele>106.0</ele><time>2026-04-25T15:27:21.499Z</time></trkpt><trkpt lat="45.2299132" lon="8.5456941"><ele>106.0</ele><time>2026-04-25T15:27:22.499Z</time></trkpt><trkpt lat="45.2298663" lon="8.5457613"><ele>106.0</ele><time>2026-04-25T15:27:23.498Z</time></trkpt><trkpt lat="45.2298123" lon="8.5458162"><ele>106.0</ele><time>2026-04-25T15:27:24.498Z</time></trkpt><trkpt lat="45.2297434" lon="8.5458572"><ele>106.0</ele><time>2026-04-25T15:27:25.499Z</time></trkpt><trkpt lat="45.2296662" lon="8.5458846"><ele>106.0</ele><time>2026-04-25T15:27:26.498Z</time></trkpt><trkpt lat="45.2295891" lon="8.5459168"><ele>106.0</ele><time>2026-04-25T15:27:27.498Z</time></trkpt><trkpt lat="45.2295055" lon="8.5459458"><ele>106.16666666666667</ele><time>2026-04-25T15:27:28.499Z</time></trkpt><trkpt lat="45.2294192" lon="8.5459742"><ele>106.33333333333334</ele><time>2026-04-25T15:27:29.498Z</time></trkpt><trkpt lat="45.2293343" lon="8.5460033"><ele>106.5</ele><time>2026-04-25T15:27:30.498Z</time></trkpt><trkpt lat="45.2292532" lon="8.5460285"><ele>106.66666666666666</ele><time>2026-04-25T15:27:31.499Z</time></trkpt><trkpt lat="45.229172" lon="8.5460502"><ele>106.83333333333333</ele><time>2026-04-25T15:27:32.499Z</time></trkpt><trkpt lat="45.2290889" lon="8.5460771"><ele>107.0</ele><time>2026-04-25T15:27:33.498Z</time></trkpt><trkpt lat="45.229005" lon="8.5461093"><ele>107.0</ele><time>2026-04-25T15:27:34.499Z</time></trkpt><trkpt lat="45.2289313" lon="8.5461359"><ele>106.99999999999999</ele><time>2026-04-25T15:27:35.499Z</time></trkpt><trkpt lat="45.2288672" lon="8.546164"><ele>106.99999999999999</ele><time>2026-04-25T15:27:36.498Z</time></trkpt><trkpt lat="45.2287589" lon="8.5461983"><ele>107.0</ele><time>2026-04-25T15:27:38.498Z</time></trkpt><trkpt lat="45.2286281" lon="8.5462194"><ele>107.0</ele><time>2026-04-25T15:27:40.499Z</time></trkpt><trkpt lat="45.2285608" lon="8.5462199"><ele>106.99999999999999</ele><time>2026-04-25T15:27:41.499Z</time></trkpt><trkpt lat="45.2284346" lon="8.5461759"><ele>107.0</ele><time>2026-04-25T15:27:43.499Z</time></trkpt><trkpt lat="45.2283815" lon="8.5461208"><ele>107.0</ele><time>2026-04-25T15:27:44.499Z</time></trkpt><trkpt lat="45.2283294" lon="8.5460681"><ele>107.0</ele><time>2026-04-25T15:27:45.499Z</time></trkpt><trkpt lat="45.2282735" lon="8.5460139"><ele>106.99999999999999</ele><time>2026-04-25T15:27:46.498Z</time></trkpt><trkpt lat="45.2282154" lon="8.5459685"><ele>107.0</ele><time>2026-04-25T15:27:47.499Z</time></trkpt><trkpt lat="45.2281156" lon="8.5459304"><ele>107.16666666666666</ele><time>2026-04-25T15:27:49.499Z</time></trkpt><trkpt lat="45.2279982" lon="8.5459388"><ele>107.33333333333333</ele><time>2026-04-25T15:27:51.499Z</time></trkpt><trkpt lat="45.2279305" lon="8.5459567"><ele>107.5</ele><time>2026-04-25T15:27:52.499Z</time></trkpt><trkpt lat="45.2278542" lon="8.5459908"><ele>107.66666666666666</ele><time>2026-04-25T15:27:53.498Z</time></trkpt><trkpt lat="45.2277725" lon="8.546036"><ele>107.83333333333333</ele><time>2026-04-25T15:27:54.498Z</time></trkpt><trkpt lat="45.2276878" lon="8.5460913"><ele>108.0</ele><time>2026-04-25T15:27:55.499Z</time></trkpt><trkpt lat="45.2275932" lon="8.5461627"><ele>108.0</ele><time>2026-04-25T15:27:56.499Z</time></trkpt><trkpt lat="45.2274973" lon="8.546252"><ele>108.0</ele><time>2026-04-25T15:27:57.499Z</time></trkpt><trkpt lat="45.2273985" lon="8.5463522"><ele>108.0</ele><time>2026-04-25T15:27:58.499Z</time></trkpt><trkpt lat="45.2272987" lon="8.5464571"><ele>108.0</ele><time>2026-04-25T15:27:59.499Z</time></trkpt><trkpt lat="45.2271948" lon="8.5465682"><ele>107.75</ele><time>2026-04-25T15:28:00.498Z</time></trkpt><trkpt lat="45.2270851" lon="8.5466861"><ele>107.5</ele><time>2026-04-25T15:28:01.498Z</time></trkpt><trkpt lat="45.2269761" lon="8.546795"><ele>107.25</ele><time>2026-04-25T15:28:02.499Z</time></trkpt><trkpt lat="45.2268775" lon="8.546892"><ele>107.0</ele><time>2026-04-25T15:28:03.499Z</time></trkpt><trkpt lat="45.226787" lon="8.5469796"><ele>107.25</ele><time>2026-04-25T15:28:04.499Z</time></trkpt><trkpt lat="45.2266934" lon="8.547068"><ele>107.5</ele><time>2026-04-25T15:28:05.499Z</time></trkpt><trkpt lat="45.2266021" lon="8.5471588"><ele>107.75</ele><time>2026-04-25T15:28:06.498Z</time></trkpt><trkpt lat="45.2265155" lon="8.5472551"><ele>108.0</ele><time>2026-04-25T15:28:07.499Z</time></trkpt><trkpt lat="45.2264278" lon="8.5473625"><ele>107.5</ele><time>2026-04-25T15:28:08.499Z</time></trkpt><trkpt lat="45.2263496" lon="8.5474671"><ele>107.0</ele><time>2026-04-25T15:28:09.498Z</time></trkpt><trkpt lat="45.2262828" lon="8.5475661"><ele>106.5</ele><time>2026-04-25T15:28:10.499Z</time></trkpt><trkpt lat="45.2262396" lon="8.5476624"><ele>106.0</ele><time>2026-04-25T15:28:11.499Z</time></trkpt><trkpt lat="45.2262195" lon="8.5477591"><ele>105.5</ele><time>2026-04-25T15:28:12.498Z</time></trkpt><trkpt lat="45.2262205" lon="8.547872"><ele>105.0</ele><time>2026-04-25T15:28:13.499Z</time></trkpt><trkpt lat="45.2262359" lon="8.5480052"><ele>104.75</ele><time>2026-04-25T15:28:14.499Z</time></trkpt><trkpt lat="45.226259" lon="8.5481545"><ele>104.5</ele><time>2026-04-25T15:28:15.498Z</time></trkpt><trkpt lat="45.2262862" lon="8.5483115"><ele>104.25</ele><time>2026-04-25T15:28:16.498Z</time></trkpt><trkpt lat="45.2263083" lon="8.5484783"><ele>104.0</ele><time>2026-04-25T15:28:17.498Z</time></trkpt><trkpt lat="45.2263275" lon="8.5486495"><ele>104.25</ele><time>2026-04-25T15:28:18.498Z</time></trkpt><trkpt lat="45.2263487" lon="8.5488099"><ele>104.5</ele><time>2026-04-25T15:28:19.499Z</time></trkpt><trkpt lat="45.226375" lon="8.5489697"><ele>104.75</ele><time>2026-04-25T15:28:20.499Z</time></trkpt><trkpt lat="45.2264079" lon="8.5491288"><ele>105.0</ele><time>2026-04-25T15:28:21.499Z</time></trkpt><trkpt lat="45.2264484" lon="8.5492766"><ele>105.0</ele><time>2026-04-25T15:28:22.498Z</time></trkpt><trkpt lat="45.226494" lon="8.5494024"><ele>105.0</ele><time>2026-04-25T15:28:23.498Z</time></trkpt><trkpt lat="45.2265526" lon="8.5495232"><ele>105.0</ele><time>2026-04-25T15:28:24.498Z</time></trkpt><trkpt lat="45.2266264" lon="8.5496443"><ele>105.0</ele><time>2026-04-25T15:28:25.498Z</time></trkpt><trkpt lat="45.2267108" lon="8.5497628"><ele>105.0</ele><time>2026-04-25T15:28:26.498Z</time></trkpt><trkpt lat="45.2267802" lon="8.5498877"><ele>105.0</ele><time>2026-04-25T15:28:27.499Z</time></trkpt><trkpt lat="45.2268393" lon="8.5500127"><ele>105.0</ele><time>2026-04-25T15:28:28.498Z</time></trkpt><trkpt lat="45.226881" lon="8.5501442"><ele>105.0</ele><time>2026-04-25T15:28:29.498Z</time></trkpt><trkpt lat="45.2269082" lon="8.5502832"><ele>105.0</ele><time>2026-04-25T15:28:30.499Z</time></trkpt><trkpt lat="45.2269214" lon="8.5504139"><ele>105.0</ele><time>2026-04-25T15:28:31.498Z</time></trkpt><trkpt lat="45.2269376" lon="8.5505479"><ele>105.0</ele><time>2026-04-25T15:28:32.498Z</time></trkpt><trkpt lat="45.2269545" lon="8.5506832"><ele>105.0</ele><time>2026-04-25T15:28:33.499Z</time></trkpt><trkpt lat="45.2269747" lon="8.5508192"><ele>105.0</ele><time>2026-04-25T15:28:34.498Z</time></trkpt><trkpt lat="45.2270013" lon="8.5509731"><ele>105.0</ele><time>2026-04-25T15:28:35.499Z</time></trkpt><trkpt lat="45.2270255" lon="8.5511308"><ele>105.0</ele><time>2026-04-25T15:28:36.498Z</time></trkpt><trkpt lat="45.2270449" lon="8.5512943"><ele>105.0</ele><time>2026-04-25T15:28:37.498Z</time></trkpt><trkpt lat="45.2270724" lon="8.551469"><ele>105.0</ele><time>2026-04-25T15:28:38.499Z</time></trkpt><trkpt lat="45.2270945" lon="8.5516508"><ele>105.0</ele><time>2026-04-25T15:28:39.498Z</time></trkpt><trkpt lat="45.2271125" lon="8.5518287"><ele>105.0</ele><time>2026-04-25T15:28:40.499Z</time></trkpt><trkpt lat="45.2271179" lon="8.5519852"><ele>104.8</ele><time>2026-04-25T15:28:41.499Z</time></trkpt><trkpt lat="45.2271134" lon="8.5521369"><ele>104.6</ele><time>2026-04-25T15:28:42.499Z</time></trkpt><trkpt lat="45.2271061" lon="8.5522787"><ele>104.4</ele><time>2026-04-25T15:28:43.499Z</time></trkpt><trkpt lat="45.2271072" lon="8.5524311"><ele>104.2</ele><time>2026-04-25T15:28:44.499Z</time></trkpt><trkpt lat="45.2271074" lon="8.5525898"><ele>104.0</ele><time>2026-04-25T15:28:45.499Z</time></trkpt><trkpt lat="45.2271104" lon="8.5527512"><ele>104.0</ele><time>2026-04-25T15:28:46.498Z</time></trkpt><trkpt lat="45.2271119" lon="8.5529214"><ele>104.0</ele><time>2026-04-25T15:28:47.498Z</time></trkpt><trkpt lat="45.2271143" lon="8.5530954"><ele>104.0</ele><time>2026-04-25T15:28:48.499Z</time></trkpt><trkpt lat="45.2271101" lon="8.5532766"><ele>104.0</ele><time>2026-04-25T15:28:49.499Z</time></trkpt><trkpt lat="45.2270997" lon="8.5534618"><ele>104.0</ele><time>2026-04-25T15:28:50.499Z</time></trkpt><trkpt lat="45.2270881" lon="8.5536544"><ele>104.0</ele><time>2026-04-25T15:28:51.499Z</time></trkpt><trkpt lat="45.2270774" lon="8.5538433"><ele>104.0</ele><time>2026-04-25T15:28:52.499Z</time></trkpt><trkpt lat="45.2270631" lon="8.5540288"><ele>104.0</ele><time>2026-04-25T15:28:53.498Z</time></trkpt><trkpt lat="45.2270455" lon="8.5542094"><ele>104.0</ele><time>2026-04-25T15:28:54.499Z</time></trkpt><trkpt lat="45.227023" lon="8.5543853"><ele>104.0</ele><time>2026-04-25T15:28:55.499Z</time></trkpt><trkpt lat="45.2270075" lon="8.5545489"><ele>104.0</ele><time>2026-04-25T15:28:56.499Z</time></trkpt><trkpt lat="45.2269891" lon="8.5546867"><ele>104.0</ele><time>2026-04-25T15:28:57.498Z</time></trkpt><trkpt lat="45.2269695" lon="8.5548182"><ele>104.0</ele><time>2026-04-25T15:28:58.498Z</time></trkpt><trkpt lat="45.2269541" lon="8.5549413"><ele>104.16666666666666</ele><time>2026-04-25T15:28:59.499Z</time></trkpt><trkpt lat="45.2269484" lon="8.5550563"><ele>104.33333333333333</ele><time>2026-04-25T15:29:00.499Z</time></trkpt><trkpt lat="45.2269523" lon="8.5551697"><ele>104.5</ele><time>2026-04-25T15:29:01.499Z</time></trkpt><trkpt lat="45.2269748" lon="8.5552767"><ele>104.66666666666666</ele><time>2026-04-25T15:29:02.498Z</time></trkpt><trkpt lat="45.2270107" lon="8.5553878"><ele>104.83333333333333</ele><time>2026-04-25T15:29:03.498Z</time></trkpt><trkpt lat="45.2270653" lon="8.5555135"><ele>105.0</ele><time>2026-04-25T15:29:04.498Z</time></trkpt><trkpt lat="45.2271258" lon="8.5556407"><ele>105.0</ele><time>2026-04-25T15:29:05.498Z</time></trkpt><trkpt lat="45.2271859" lon="8.5557706"><ele>105.0</ele><time>2026-04-25T15:29:06.499Z</time></trkpt><trkpt lat="45.2272379" lon="8.5559032"><ele>105.0</ele><time>2026-04-25T15:29:07.499Z</time></trkpt><trkpt lat="45.2272816" lon="8.5560272"><ele>105.0</ele><time>2026-04-25T15:29:08.498Z</time></trkpt><trkpt lat="45.2273058" lon="8.5561392"><ele>105.0</ele><time>2026-04-25T15:29:09.499Z</time></trkpt><trkpt lat="45.2273122" lon="8.5562459"><ele>105.0</ele><time>2026-04-25T15:29:10.499Z</time></trkpt><trkpt lat="45.2272999" lon="8.5563504"><ele>105.0</ele><time>2026-04-25T15:29:11.499Z</time></trkpt><trkpt lat="45.2272846" lon="8.5564666"><ele>105.0</ele><time>2026-04-25T15:29:12.499Z</time></trkpt><trkpt lat="45.2272681" lon="8.5565868"><ele>105.0</ele><time>2026-04-25T15:29:13.498Z</time></trkpt><trkpt lat="45.2272573" lon="8.5566963"><ele>105.0</ele><time>2026-04-25T15:29:14.499Z</time></trkpt><trkpt lat="45.227247" lon="8.5567951"><ele>105.0</ele><time>2026-04-25T15:29:15.498Z</time></trkpt><trkpt lat="45.2272308" lon="8.5569646"><ele>104.83333333333333</ele><time>2026-04-25T15:29:17.499Z</time></trkpt><trkpt lat="45.2272068" lon="8.5571042"><ele>104.66666666666666</ele><time>2026-04-25T15:29:19.499Z</time></trkpt><trkpt lat="45.2271934" lon="8.5572251"><ele>104.5</ele><time>2026-04-25T15:29:21.499Z</time></trkpt><trkpt lat="45.227184" lon="8.557324"><ele>104.33333333333333</ele><time>2026-04-25T15:29:23.499Z</time></trkpt><trkpt lat="45.2271694" lon="8.5574435"><ele>104.16666666666666</ele><time>2026-04-25T15:29:26.498Z</time></trkpt><trkpt lat="45.2271548" lon="8.5575427"><ele>104.0</ele><time>2026-04-25T15:30:45.499Z</time></trkpt><trkpt lat="45.2271381" lon="8.5576918"><ele>103.99999999999999</ele><time>2026-04-25T15:30:47.499Z</time></trkpt><trkpt lat="45.2271276" lon="8.5577817"><ele>104.0</ele><time>2026-04-25T15:30:48.499Z</time></trkpt><trkpt lat="45.2271143" lon="8.5578801"><ele>104.0</ele><time>2026-04-25T15:30:49.499Z</time></trkpt><trkpt lat="45.2271011" lon="8.5579846"><ele>104.0</ele><time>2026-04-25T15:30:50.499Z</time></trkpt><trkpt lat="45.2270818" lon="8.5580956"><ele>103.99999999999999</ele><time>2026-04-25T15:30:51.499Z</time></trkpt><trkpt lat="45.2270654" lon="8.5582163"><ele>104.0</ele><time>2026-04-25T15:30:52.498Z</time></trkpt><trkpt lat="45.2270466" lon="8.5583486"><ele>104.0</ele><time>2026-04-25T15:30:53.498Z</time></trkpt><trkpt lat="45.2270277" lon="8.5584949"><ele>104.0</ele><time>2026-04-25T15:30:54.498Z</time></trkpt><trkpt lat="45.2270099" lon="8.5586486"><ele>104.0</ele><time>2026-04-25T15:30:55.498Z</time></trkpt><trkpt lat="45.2269904" lon="8.5588126"><ele>104.0</ele><time>2026-04-25T15:30:56.499Z</time></trkpt><trkpt lat="45.22697" lon="8.5589806"><ele>104.25</ele><time>2026-04-25T15:30:57.499Z</time></trkpt><trkpt lat="45.22695" lon="8.5591552"><ele>104.5</ele><time>2026-04-25T15:30:58.498Z</time></trkpt><trkpt lat="45.2269271" lon="8.5593302"><ele>104.75</ele><time>2026-04-25T15:30:59.499Z</time></trkpt><trkpt lat="45.2269032" lon="8.5595022"><ele>105.0</ele><time>2026-04-25T15:31:00.499Z</time></trkpt><trkpt lat="45.226882" lon="8.5596696"><ele>105.0</ele><time>2026-04-25T15:31:01.499Z</time></trkpt><trkpt lat="45.2268568" lon="8.559835"><ele>105.0</ele><time>2026-04-25T15:31:02.498Z</time></trkpt><trkpt lat="45.2268295" lon="8.5600029"><ele>105.0</ele><time>2026-04-25T15:31:03.499Z</time></trkpt><trkpt lat="45.2267897" lon="8.5601666"><ele>105.0</ele><time>2026-04-25T15:31:04.498Z</time></trkpt><trkpt lat="45.2267344" lon="8.5603247"><ele>105.0</ele><time>2026-04-25T15:31:05.499Z</time></trkpt><trkpt lat="45.2266641" lon="8.560476"><ele>105.0</ele><time>2026-04-25T15:31:06.498Z</time></trkpt><trkpt lat="45.226587" lon="8.5606107"><ele>105.0</ele><time>2026-04-25T15:31:07.499Z</time></trkpt><trkpt lat="45.2265124" lon="8.5607494"><ele>105.0</ele><time>2026-04-25T15:31:08.499Z</time></trkpt><trkpt lat="45.2264452" lon="8.5608717"><ele>105.0</ele><time>2026-04-25T15:31:09.499Z</time></trkpt><trkpt lat="45.2263849" lon="8.5609761"><ele>105.0</ele><time>2026-04-25T15:31:10.498Z</time></trkpt><trkpt lat="45.2263429" lon="8.5610577"><ele>105.0</ele><time>2026-04-25T15:31:11.499Z</time></trkpt><trkpt lat="45.2263122" lon="8.5611449"><ele>105.0</ele><time>2026-04-25T15:31:13.499Z</time></trkpt><trkpt lat="45.2263806" lon="8.5612293"><ele>105.0</ele><time>2026-04-25T15:31:18.498Z</time></trkpt><trkpt lat="45.2264814" lon="8.5612815"><ele>105.0</ele><time>2026-04-25T15:31:20.498Z</time></trkpt><trkpt lat="45.2265495" lon="8.5613138"><ele>105.83333333333333</ele><time>2026-04-25T15:31:21.498Z</time></trkpt><trkpt lat="45.226624" lon="8.5613509"><ele>106.66666666666666</ele><time>2026-04-25T15:31:22.499Z</time></trkpt><trkpt lat="45.2266974" lon="8.5613887"><ele>107.5</ele><time>2026-04-25T15:31:23.499Z</time></trkpt><trkpt lat="45.2267754" lon="8.5614333"><ele>108.33333333333333</ele><time>2026-04-25T15:31:24.499Z</time></trkpt><trkpt lat="45.2268622" lon="8.5614758"><ele>109.16666666666666</ele><time>2026-04-25T15:31:25.499Z</time></trkpt><trkpt lat="45.226951" lon="8.5615222"><ele>110.0</ele><time>2026-04-25T15:31:26.499Z</time></trkpt><trkpt lat="45.2270442" lon="8.5615748"><ele>110.0</ele><time>2026-04-25T15:31:27.499Z</time></trkpt><trkpt lat="45.2271365" lon="8.5616355"><ele>110.0</ele><time>2026-04-25T15:31:28.498Z</time></trkpt><trkpt lat="45.2272295" lon="8.5616971"><ele>110.0</ele><time>2026-04-25T15:31:29.499Z</time></trkpt><trkpt lat="45.2273242" lon="8.5617588"><ele>110.0</ele><time>2026-04-25T15:31:30.499Z</time></trkpt><trkpt lat="45.2274336" lon="8.561828"><ele>110.0</ele><time>2026-04-25T15:31:31.499Z</time></trkpt><trkpt lat="45.2275505" lon="8.5619012"><ele>110.0</ele><time>2026-04-25T15:31:32.499Z</time></trkpt><trkpt lat="45.2276542" lon="8.5619718"><ele>110.0</ele><time>2026-04-25T15:31:33.499Z</time></trkpt><trkpt lat="45.227749" lon="8.5620358"><ele>110.0</ele><time>2026-04-25T15:31:34.499Z</time></trkpt><trkpt lat="45.227847" lon="8.5621007"><ele>110.0</ele><time>2026-04-25T15:31:35.498Z</time></trkpt><trkpt lat="45.2279475" lon="8.5621735"><ele>110.0</ele><time>2026-04-25T15:31:36.499Z</time></trkpt><trkpt lat="45.2280512" lon="8.56225"><ele>109.6</ele><time>2026-04-25T15:31:37.499Z</time></trkpt><trkpt lat="45.2281534" lon="8.5623216"><ele>109.2</ele><time>2026-04-25T15:31:38.499Z</time></trkpt><trkpt lat="45.2282518" lon="8.5623907"><ele>108.80000000000001</ele><time>2026-04-25T15:31:39.498Z</time></trkpt><trkpt lat="45.2283459" lon="8.5624766"><ele>108.4</ele><time>2026-04-25T15:31:40.498Z</time></trkpt><trkpt lat="45.2284349" lon="8.5625767"><ele>108.0</ele><time>2026-04-25T15:31:41.499Z</time></trkpt><trkpt lat="45.2285056" lon="8.562685"><ele>108.0</ele><time>2026-04-25T15:31:42.498Z</time></trkpt><trkpt lat="45.2285585" lon="8.5627936"><ele>108.00000000000001</ele><time>2026-04-25T15:31:43.498Z</time></trkpt><trkpt lat="45.2286075" lon="8.5629067"><ele>108.00000000000001</ele><time>2026-04-25T15:31:44.499Z</time></trkpt><trkpt lat="45.2286499" lon="8.5630158"><ele>108.0</ele><time>2026-04-25T15:31:45.498Z</time></trkpt><trkpt lat="45.2286984" lon="8.5631288"><ele>108.0</ele><time>2026-04-25T15:31:46.498Z</time></trkpt><trkpt lat="45.2287534" lon="8.5632491"><ele>108.2</ele><time>2026-04-25T15:31:47.499Z</time></trkpt><trkpt lat="45.2288153" lon="8.563367"><ele>108.4</ele><time>2026-04-25T15:31:48.498Z</time></trkpt><trkpt lat="45.2288858" lon="8.5634791"><ele>108.60000000000001</ele><time>2026-04-25T15:31:49.498Z</time></trkpt><trkpt lat="45.2289743" lon="8.5635806"><ele>108.80000000000001</ele><time>2026-04-25T15:31:50.499Z</time></trkpt><trkpt lat="45.2290724" lon="8.5636735"><ele>109.0</ele><time>2026-04-25T15:31:51.498Z</time></trkpt><trkpt lat="45.2291762" lon="8.5637684"><ele>109.0</ele><time>2026-04-25T15:31:52.499Z</time></trkpt><trkpt lat="45.2292769" lon="8.5638653"><ele>109.0</ele><time>2026-04-25T15:31:53.498Z</time></trkpt><trkpt lat="45.229373" lon="8.5639508"><ele>109.0</ele><time>2026-04-25T15:31:54.498Z</time></trkpt><trkpt lat="45.2294643" lon="8.5640316"><ele>109.0</ele><time>2026-04-25T15:31:55.499Z</time></trkpt><trkpt lat="45.229553" lon="8.5641102"><ele>109.0</ele><time>2026-04-25T15:31:56.498Z</time></trkpt><trkpt lat="45.2296333" lon="8.5641823"><ele>109.00000000000001</ele><time>2026-04-25T15:31:57.499Z</time></trkpt><trkpt lat="45.229711" lon="8.5642466"><ele>109.0</ele><time>2026-04-25T15:31:58.499Z</time></trkpt><trkpt lat="45.2297797" lon="8.5643096"><ele>109.0</ele><time>2026-04-25T15:31:59.499Z</time></trkpt><trkpt lat="45.2298334" lon="8.564365"><ele>109.0</ele><time>2026-04-25T15:32:00.499Z</time></trkpt><trkpt lat="45.229886" lon="8.5644172"><ele>109.00000000000001</ele><time>2026-04-25T15:32:01.499Z</time></trkpt><trkpt lat="45.2298217" lon="8.5643629"><ele>109.0</ele><time>2026-04-25T15:32:49.498Z</time></trkpt><trkpt lat="45.2297885" lon="8.5644567"><ele>109.0</ele><time>2026-04-25T15:32:52.499Z</time></trkpt><trkpt lat="45.2297484" lon="8.5645264"><ele>109.0</ele><time>2026-04-25T15:32:54.498Z</time></trkpt><trkpt lat="45.2296927" lon="8.5646018"><ele>109.0</ele><time>2026-04-25T15:32:56.499Z</time></trkpt><trkpt lat="45.229644" lon="8.5646769"><ele>109.0</ele><time>2026-04-25T15:32:58.499Z</time></trkpt><trkpt lat="45.2296138" lon="8.564833"><ele>109.0</ele><time>2026-04-25T15:33:26.499Z</time></trkpt><trkpt lat="45.2295421" lon="8.5649844"><ele>109.00000000000001</ele><time>2026-04-25T15:33:29.499Z</time></trkpt><trkpt lat="45.2295052" lon="8.5650636"><ele>109.0</ele><time>2026-04-25T15:33:30.498Z</time></trkpt><trkpt lat="45.2294589" lon="8.5651567"><ele>109.0</ele><time>2026-04-25T15:33:31.498Z</time></trkpt><trkpt lat="45.2294064" lon="8.5652572"><ele>109.0</ele><time>2026-04-25T15:33:32.498Z</time></trkpt><trkpt lat="45.2293496" lon="8.565373"><ele>109.00000000000001</ele><time>2026-04-25T15:33:33.499Z</time></trkpt><trkpt lat="45.229292" lon="8.5654925"><ele>109.0</ele><time>2026-04-25T15:33:34.499Z</time></trkpt><trkpt lat="45.2292341" lon="8.5656124"><ele>109.0</ele><time>2026-04-25T15:33:35.498Z</time></trkpt><trkpt lat="45.2291778" lon="8.5657332"><ele>109.0</ele><time>2026-04-25T15:33:36.499Z</time></trkpt><trkpt lat="45.2291218" lon="8.5658501"><ele>109.0</ele><time>2026-04-25T15:33:37.499Z</time></trkpt><trkpt lat="45.2290606" lon="8.5659758"><ele>109.0</ele><time>2026-04-25T15:33:38.499Z</time></trkpt><trkpt lat="45.2289935" lon="8.5661052"><ele>109.0</ele><time>2026-04-25T15:33:39.499Z</time></trkpt><trkpt lat="45.2289279" lon="8.5662386"><ele>109.25</ele><time>2026-04-25T15:33:40.498Z</time></trkpt><trkpt lat="45.2288588" lon="8.5663746"><ele>109.5</ele><time>2026-04-25T15:33:41.498Z</time></trkpt><trkpt lat="45.2287885" lon="8.5665133"><ele>109.75</ele><time>2026-04-25T15:33:42.499Z</time></trkpt><trkpt lat="45.2287158" lon="8.5666563"><ele>110.0</ele><time>2026-04-25T15:33:43.499Z</time></trkpt><trkpt lat="45.2286387" lon="8.5668083"><ele>110.0</ele><time>2026-04-25T15:33:44.498Z</time></trkpt><trkpt lat="45.2285599" lon="8.5669594"><ele>110.0</ele><time>2026-04-25T15:33:45.499Z</time></trkpt><trkpt lat="45.2284847" lon="8.5671142"><ele>110.0</ele><time>2026-04-25T15:33:46.499Z</time></trkpt><trkpt lat="45.2284057" lon="8.5672792"><ele>110.0</ele><time>2026-04-25T15:33:47.498Z</time></trkpt><trkpt lat="45.2283276" lon="8.5674454"><ele>110.0</ele><time>2026-04-25T15:33:48.499Z</time></trkpt><trkpt lat="45.2282462" lon="8.5676157"><ele>110.0</ele><time>2026-04-25T15:33:49.499Z</time></trkpt><trkpt lat="45.2281622" lon="8.5677837"><ele>110.0</ele><time>2026-04-25T15:33:50.499Z</time></trkpt><trkpt lat="45.2280745" lon="8.5679551"><ele>110.0</ele><time>2026-04-25T15:33:51.499Z</time></trkpt><trkpt lat="45.2279887" lon="8.5681222"><ele>110.0</ele><time>2026-04-25T15:33:52.498Z</time></trkpt><trkpt lat="45.2279013" lon="8.5682889"><ele>110.0</ele><time>2026-04-25T15:33:53.499Z</time></trkpt><trkpt lat="45.2278158" lon="8.568456"><ele>110.0</ele><time>2026-04-25T15:33:54.499Z</time></trkpt><trkpt lat="45.2277241" lon="8.56863"><ele>110.0</ele><time>2026-04-25T15:33:55.498Z</time></trkpt><trkpt lat="45.2276315" lon="8.5688041"><ele>109.33333333333333</ele><time>2026-04-25T15:33:56.499Z</time></trkpt><trkpt lat="45.2275346" lon="8.5689704"><ele>108.66666666666666</ele><time>2026-04-25T15:33:57.498Z</time></trkpt><trkpt lat="45.2274409" lon="8.5691356"><ele>108.0</ele><time>2026-04-25T15:33:58.499Z</time></trkpt><trkpt lat="45.2273416" lon="8.5693051"><ele>108.25</ele><time>2026-04-25T15:33:59.498Z</time></trkpt><trkpt lat="45.2272438" lon="8.569477"><ele>108.5</ele><time>2026-04-25T15:34:00.498Z</time></trkpt><trkpt lat="45.2271504" lon="8.5696395"><ele>108.75</ele><time>2026-04-25T15:34:01.498Z</time></trkpt><trkpt lat="45.2270631" lon="8.5697886"><ele>109.0</ele><time>2026-04-25T15:34:02.499Z</time></trkpt><trkpt lat="45.2269859" lon="8.569923"><ele>109.00000000000001</ele><time>2026-04-25T15:34:03.499Z</time></trkpt><trkpt lat="45.2269075" lon="8.5700346"><ele>109.0</ele><time>2026-04-25T15:34:04.498Z</time></trkpt><trkpt lat="45.2268348" lon="8.5701256"><ele>109.0</ele><time>2026-04-25T15:34:05.498Z</time></trkpt><trkpt lat="45.2267619" lon="8.5701912"><ele>109.0</ele><time>2026-04-25T15:34:06.498Z</time></trkpt><trkpt lat="45.2266922" lon="8.5702366"><ele>109.00000000000001</ele><time>2026-04-25T15:34:07.498Z</time></trkpt><trkpt lat="45.2266322" lon="8.5702731"><ele>109.0</ele><time>2026-04-25T15:34:08.498Z</time></trkpt><trkpt lat="45.2265836" lon="8.5703374"><ele>109.0</ele><time>2026-04-25T15:34:15.498Z</time></trkpt><trkpt lat="45.2265613" lon="8.5704733"><ele>109.0</ele><time>2026-04-25T15:34:17.499Z</time></trkpt><trkpt lat="45.2265327" lon="8.570594"><ele>109.0</ele><time>2026-04-25T15:34:18.499Z</time></trkpt><trkpt lat="45.2264879" lon="8.5707358"><ele>109.0</ele><time>2026-04-25T15:34:19.499Z</time></trkpt><trkpt lat="45.2264367" lon="8.5708829"><ele>109.0</ele><time>2026-04-25T15:34:20.499Z</time></trkpt><trkpt lat="45.2263883" lon="8.5710277"><ele>109.16666666666667</ele><time>2026-04-25T15:34:21.499Z</time></trkpt><trkpt lat="45.2263445" lon="8.5711575"><ele>109.33333333333334</ele><time>2026-04-25T15:34:22.499Z</time></trkpt><trkpt lat="45.2263063" lon="8.5712633"><ele>109.5</ele><time>2026-04-25T15:34:23.498Z</time></trkpt><trkpt lat="45.2262416" lon="8.571387"><ele>109.66666666666666</ele><time>2026-04-25T15:34:25.499Z</time></trkpt><trkpt lat="45.2261633" lon="8.5714502"><ele>109.83333333333333</ele><time>2026-04-25T15:34:27.498Z</time></trkpt><trkpt lat="45.2260993" lon="8.5714626"><ele>110.0</ele><time>2026-04-25T15:34:29.499Z</time></trkpt><trkpt lat="45.2260249" lon="8.5714623"><ele>110.0</ele><time>2026-04-25T15:34:39.499Z</time></trkpt><trkpt lat="45.2259741" lon="8.5715224"><ele>110.0</ele><time>2026-04-25T15:34:41.499Z</time></trkpt><trkpt lat="45.2258932" lon="8.571691"><ele>110.0</ele><time>2026-04-25T15:34:43.499Z</time></trkpt><trkpt lat="45.2258398" lon="8.5718116"><ele>110.0</ele><time>2026-04-25T15:34:44.499Z</time></trkpt><trkpt lat="45.2257753" lon="8.571949"><ele>110.0</ele><time>2026-04-25T15:34:45.499Z</time></trkpt><trkpt lat="45.2257029" lon="8.5721001"><ele>110.0</ele><time>2026-04-25T15:34:46.499Z</time></trkpt><trkpt lat="45.2256207" lon="8.5722572"><ele>110.0</ele><time>2026-04-25T15:34:47.498Z</time></trkpt><trkpt lat="45.2255355" lon="8.5724195"><ele>110.0</ele><time>2026-04-25T15:34:48.499Z</time></trkpt><trkpt lat="45.2254468" lon="8.572592"><ele>110.0</ele><time>2026-04-25T15:34:49.499Z</time></trkpt><trkpt lat="45.2253552" lon="8.5727719"><ele>110.0</ele><time>2026-04-25T15:34:50.498Z</time></trkpt><trkpt lat="45.2252646" lon="8.5729528"><ele>110.0</ele><time>2026-04-25T15:34:51.499Z</time></trkpt><trkpt lat="45.2251693" lon="8.5731318"><ele>110.0</ele><time>2026-04-25T15:34:52.499Z</time></trkpt><trkpt lat="45.2250742" lon="8.5733094"><ele>110.0</ele><time>2026-04-25T15:34:53.498Z</time></trkpt><trkpt lat="45.2249832" lon="8.5734887"><ele>110.0</ele><time>2026-04-25T15:34:54.498Z</time></trkpt><trkpt lat="45.2248902" lon="8.5736624"><ele>110.0</ele><time>2026-04-25T15:34:55.498Z</time></trkpt><trkpt lat="45.2247978" lon="8.573836"><ele>109.66666666666666</ele><time>2026-04-25T15:34:56.499Z</time></trkpt><trkpt lat="45.2246988" lon="8.5740132"><ele>109.33333333333334</ele><time>2026-04-25T15:34:57.499Z</time></trkpt><trkpt lat="45.2246025" lon="8.5741935"><ele>109.0</ele><time>2026-04-25T15:34:58.499Z</time></trkpt><trkpt lat="45.2245065" lon="8.5743767"><ele>109.66666666666667</ele><time>2026-04-25T15:34:59.498Z</time></trkpt><trkpt lat="45.2244102" lon="8.5745611"><ele>110.33333333333334</ele><time>2026-04-25T15:35:00.498Z</time></trkpt><trkpt lat="45.2243111" lon="8.574743"><ele>111.0</ele><time>2026-04-25T15:35:01.499Z</time></trkpt><trkpt lat="45.2242101" lon="8.5749336"><ele>111.0</ele><time>2026-04-25T15:35:02.498Z</time></trkpt><trkpt lat="45.22411" lon="8.5751299"><ele>111.0</ele><time>2026-04-25T15:35:03.499Z</time></trkpt><trkpt lat="45.2240075" lon="8.5753217"><ele>111.0</ele><time>2026-04-25T15:35:04.498Z</time></trkpt><trkpt lat="45.2239059" lon="8.5755192"><ele>110.66666666666666</ele><time>2026-04-25T15:35:05.498Z</time></trkpt><trkpt lat="45.2238003" lon="8.5757165"><ele>110.33333333333333</ele><time>2026-04-25T15:35:06.499Z</time></trkpt><trkpt lat="45.2236955" lon="8.5759152"><ele>110.0</ele><time>2026-04-25T15:35:07.499Z</time></trkpt><trkpt lat="45.2235876" lon="8.5761067"><ele>109.66666666666666</ele><time>2026-04-25T15:35:08.498Z</time></trkpt><trkpt lat="45.2234825" lon="8.576299"><ele>109.33333333333334</ele><time>2026-04-25T15:35:09.498Z</time></trkpt><trkpt lat="45.2233854" lon="8.5764868"><ele>109.0</ele><time>2026-04-25T15:35:10.498Z</time></trkpt><trkpt lat="45.2232856" lon="8.5766642"><ele>109.0</ele><time>2026-04-25T15:35:11.499Z</time></trkpt><trkpt lat="45.2231887" lon="8.576818"><ele>109.0</ele><time>2026-04-25T15:35:12.498Z</time></trkpt><trkpt lat="45.2230989" lon="8.5769685"><ele>109.0</ele><time>2026-04-25T15:35:13.499Z</time></trkpt><trkpt lat="45.2230093" lon="8.577119"><ele>109.0</ele><time>2026-04-25T15:35:14.499Z</time></trkpt><trkpt lat="45.2229232" lon="8.5772728"><ele>109.0</ele><time>2026-04-25T15:35:15.498Z</time></trkpt><trkpt lat="45.2228473" lon="8.5774194"><ele>109.0</ele><time>2026-04-25T15:35:16.499Z</time></trkpt><trkpt lat="45.2227744" lon="8.5775737"><ele>109.0</ele><time>2026-04-25T15:35:17.499Z</time></trkpt><trkpt lat="45.2227056" lon="8.5777238"><ele>109.0</ele><time>2026-04-25T15:35:18.499Z</time></trkpt><trkpt lat="45.2226305" lon="8.5778722"><ele>109.0</ele><time>2026-04-25T15:35:19.499Z</time></trkpt><trkpt lat="45.2225549" lon="8.5780163"><ele>109.0</ele><time>2026-04-25T15:35:20.498Z</time></trkpt><trkpt lat="45.2224755" lon="8.5781623"><ele>109.0</ele><time>2026-04-25T15:35:21.499Z</time></trkpt><trkpt lat="45.2223902" lon="8.5783156"><ele>109.0</ele><time>2026-04-25T15:35:22.499Z</time></trkpt><trkpt lat="45.2223012" lon="8.578477"><ele>109.33333333333334</ele><time>2026-04-25T15:35:23.498Z</time></trkpt><trkpt lat="45.2222081" lon="8.5786467"><ele>109.66666666666666</ele><time>2026-04-25T15:35:24.499Z</time></trkpt><trkpt lat="45.2221134" lon="8.5788228"><ele>110.0</ele><time>2026-04-25T15:35:25.499Z</time></trkpt><trkpt lat="45.2220193" lon="8.5790033"><ele>110.0</ele><time>2026-04-25T15:35:26.499Z</time></trkpt><trkpt lat="45.2219204" lon="8.5791854"><ele>110.0</ele><time>2026-04-25T15:35:27.499Z</time></trkpt><trkpt lat="45.2218216" lon="8.579364"><ele>110.0</ele><time>2026-04-25T15:35:28.499Z</time></trkpt><trkpt lat="45.2217257" lon="8.5795424"><ele>110.0</ele><time>2026-04-25T15:35:29.499Z</time></trkpt><trkpt lat="45.2216331" lon="8.579726"><ele>110.0</ele><time>2026-04-25T15:35:30.499Z</time></trkpt><trkpt lat="45.2215393" lon="8.5799066"><ele>110.0</ele><time>2026-04-25T15:35:31.499Z</time></trkpt><trkpt lat="45.2214416" lon="8.5800846"><ele>109.66666666666666</ele><time>2026-04-25T15:35:32.499Z</time></trkpt><trkpt lat="45.221346" lon="8.5802628"><ele>109.33333333333334</ele><time>2026-04-25T15:35:33.499Z</time></trkpt><trkpt lat="45.2212489" lon="8.5804467"><ele>109.0</ele><time>2026-04-25T15:35:34.499Z</time></trkpt><trkpt lat="45.2211521" lon="8.5806306"><ele>109.0</ele><time>2026-04-25T15:35:35.499Z</time></trkpt><trkpt lat="45.2210527" lon="8.5808133"><ele>109.0</ele><time>2026-04-25T15:35:36.499Z</time></trkpt><trkpt lat="45.2209563" lon="8.5809988"><ele>109.0</ele><time>2026-04-25T15:35:37.499Z</time></trkpt><trkpt lat="45.2208574" lon="8.5811875"><ele>109.0</ele><time>2026-04-25T15:35:38.499Z</time></trkpt><trkpt lat="45.2207553" lon="8.581381"><ele>109.0</ele><time>2026-04-25T15:35:39.499Z</time></trkpt><trkpt lat="45.2206533" lon="8.5815733"><ele>109.0</ele><time>2026-04-25T15:35:40.499Z</time></trkpt><trkpt lat="45.2205548" lon="8.5817659"><ele>109.0</ele><time>2026-04-25T15:35:41.498Z</time></trkpt><trkpt lat="45.2204573" lon="8.5819584"><ele>109.0</ele><time>2026-04-25T15:35:42.499Z</time></trkpt><trkpt lat="45.2203616" lon="8.5821522"><ele>109.0</ele><time>2026-04-25T15:35:43.498Z</time></trkpt><trkpt lat="45.2202584" lon="8.5823478"><ele>109.0</ele><time>2026-04-25T15:35:44.498Z</time></trkpt><trkpt lat="45.2201503" lon="8.5825488"><ele>109.0</ele><time>2026-04-25T15:35:45.499Z</time></trkpt><trkpt lat="45.2200438" lon="8.5827584"><ele>109.0</ele><time>2026-04-25T15:35:46.499Z</time></trkpt><trkpt lat="45.2199342" lon="8.5829701"><ele>108.66666666666667</ele><time>2026-04-25T15:35:47.499Z</time></trkpt><trkpt lat="45.2198265" lon="8.5831831"><ele>108.33333333333334</ele><time>2026-04-25T15:35:48.499Z</time></trkpt><trkpt lat="45.2197177" lon="8.5833909"><ele>108.0</ele><time>2026-04-25T15:35:49.499Z</time></trkpt><trkpt lat="45.2196064" lon="8.5835987"><ele>108.0</ele><time>2026-04-25T15:35:50.498Z</time></trkpt><trkpt lat="45.2194968" lon="8.5838029"><ele>108.0</ele><time>2026-04-25T15:35:51.498Z</time></trkpt><trkpt lat="45.2193983" lon="8.5840011"><ele>108.0</ele><time>2026-04-25T15:35:52.499Z</time></trkpt><trkpt lat="45.219303" lon="8.5841883"><ele>108.0</ele><time>2026-04-25T15:35:53.499Z</time></trkpt><trkpt lat="45.2192145" lon="8.5843583"><ele>108.0</ele><time>2026-04-25T15:35:54.499Z</time></trkpt><trkpt lat="45.2191244" lon="8.5845217"><ele>108.0</ele><time>2026-04-25T15:35:55.499Z</time></trkpt><trkpt lat="45.2190363" lon="8.5846812"><ele>108.0</ele><time>2026-04-25T15:35:56.498Z</time></trkpt><trkpt lat="45.2189462" lon="8.5848421"><ele>108.0</ele><time>2026-04-25T15:35:57.499Z</time></trkpt><trkpt lat="45.2188539" lon="8.5849989"><ele>108.0</ele><time>2026-04-25T15:35:58.498Z</time></trkpt><trkpt lat="45.2187671" lon="8.5851503"><ele>108.0</ele><time>2026-04-25T15:35:59.499Z</time></trkpt><trkpt lat="45.2186885" lon="8.5853003"><ele>108.0</ele><time>2026-04-25T15:36:00.498Z</time></trkpt><trkpt lat="45.2186144" lon="8.5854464"><ele>108.0</ele><time>2026-04-25T15:36:01.498Z</time></trkpt><trkpt lat="45.2185424" lon="8.5855976"><ele>108.0</ele><time>2026-04-25T15:36:02.498Z</time></trkpt><trkpt lat="45.2184682" lon="8.5857578"><ele>108.0</ele><time>2026-04-25T15:36:03.498Z</time></trkpt><trkpt lat="45.2183866" lon="8.5859098"><ele>108.0</ele><time>2026-04-25T15:36:04.498Z</time></trkpt><trkpt lat="45.2183058" lon="8.5860597"><ele>108.25</ele><time>2026-04-25T15:36:05.498Z</time></trkpt><trkpt lat="45.2182271" lon="8.5862112"><ele>108.5</ele><time>2026-04-25T15:36:06.499Z</time></trkpt><trkpt lat="45.2181449" lon="8.5863676"><ele>108.75</ele><time>2026-04-25T15:36:07.498Z</time></trkpt><trkpt lat="45.2180602" lon="8.5865294"><ele>109.0</ele><time>2026-04-25T15:36:08.499Z</time></trkpt><trkpt lat="45.2179734" lon="8.586693"><ele>108.5</ele><time>2026-04-25T15:36:09.498Z</time></trkpt><trkpt lat="45.2178925" lon="8.5868513"><ele>108.0</ele><time>2026-04-25T15:36:10.499Z</time></trkpt><trkpt lat="45.2178106" lon="8.5870042"><ele>107.5</ele><time>2026-04-25T15:36:11.498Z</time></trkpt><trkpt lat="45.2177304" lon="8.5871544"><ele>107.0</ele><time>2026-04-25T15:36:12.499Z</time></trkpt><trkpt lat="45.2176571" lon="8.5872904"><ele>107.0</ele><time>2026-04-25T15:36:13.498Z</time></trkpt><trkpt lat="45.2175883" lon="8.5874163"><ele>106.99999999999999</ele><time>2026-04-25T15:36:14.499Z</time></trkpt><trkpt lat="45.2175228" lon="8.587537"><ele>106.99999999999999</ele><time>2026-04-25T15:36:15.499Z</time></trkpt><trkpt lat="45.2174512" lon="8.5876653"><ele>107.0</ele><time>2026-04-25T15:36:16.499Z</time></trkpt><trkpt lat="45.2173805" lon="8.587792"><ele>107.0</ele><time>2026-04-25T15:36:17.499Z</time></trkpt><trkpt lat="45.2173111" lon="8.5879197"><ele>106.75</ele><time>2026-04-25T15:36:18.499Z</time></trkpt><trkpt lat="45.2172369" lon="8.5880528"><ele>106.5</ele><time>2026-04-25T15:36:19.498Z</time></trkpt><trkpt lat="45.2171651" lon="8.5881814"><ele>106.25</ele><time>2026-04-25T15:36:20.498Z</time></trkpt><trkpt lat="45.2170874" lon="8.5883195"><ele>106.0</ele><time>2026-04-25T15:36:21.499Z</time></trkpt><trkpt lat="45.2169992" lon="8.5884592"><ele>106.0</ele><time>2026-04-25T15:36:22.499Z</time></trkpt><trkpt lat="45.21691" lon="8.5885782"><ele>106.0</ele><time>2026-04-25T15:36:23.498Z</time></trkpt><trkpt lat="45.216811" lon="8.5886854"><ele>106.0</ele><time>2026-04-25T15:36:24.499Z</time></trkpt><trkpt lat="45.2167001" lon="8.5887802"><ele>106.0</ele><time>2026-04-25T15:36:25.499Z</time></trkpt><trkpt lat="45.2165848" lon="8.588872"><ele>106.0</ele><time>2026-04-25T15:36:26.498Z</time></trkpt><trkpt lat="45.2164679" lon="8.5889663"><ele>106.0</ele><time>2026-04-25T15:36:27.498Z</time></trkpt><trkpt lat="45.216345" lon="8.589061"><ele>106.0</ele><time>2026-04-25T15:36:28.498Z</time></trkpt><trkpt lat="45.2162166" lon="8.5891607"><ele>106.0</ele><time>2026-04-25T15:36:29.498Z</time></trkpt><trkpt lat="45.2160858" lon="8.5892565"><ele>106.0</ele><time>2026-04-25T15:36:30.498Z</time></trkpt><trkpt lat="45.2159576" lon="8.5893561"><ele>106.0</ele><time>2026-04-25T15:36:31.498Z</time></trkpt><trkpt lat="45.2158263" lon="8.5894573"><ele>106.0</ele><time>2026-04-25T15:36:32.499Z</time></trkpt><trkpt lat="45.2156934" lon="8.5895573"><ele>106.0</ele><time>2026-04-25T15:36:33.499Z</time></trkpt><trkpt lat="45.2155639" lon="8.5896551"><ele>106.0</ele><time>2026-04-25T15:36:34.498Z</time></trkpt><trkpt lat="45.2154376" lon="8.5897546"><ele>106.0</ele><time>2026-04-25T15:36:35.498Z</time></trkpt><trkpt lat="45.2153179" lon="8.5898466"><ele>106.0</ele><time>2026-04-25T15:36:36.498Z</time></trkpt><trkpt lat="45.21521" lon="8.5899327"><ele>106.0</ele><time>2026-04-25T15:36:37.499Z</time></trkpt><trkpt lat="45.2151098" lon="8.5900168"><ele>106.0</ele><time>2026-04-25T15:36:38.499Z</time></trkpt><trkpt lat="45.2150177" lon="8.5900874"><ele>106.0</ele><time>2026-04-25T15:36:39.498Z</time></trkpt><trkpt lat="45.2149263" lon="8.5901573"><ele>106.0</ele><time>2026-04-25T15:36:40.498Z</time></trkpt><trkpt lat="45.2148387" lon="8.59023"><ele>106.0</ele><time>2026-04-25T15:36:41.498Z</time></trkpt><trkpt lat="45.2147513" lon="8.5902966"><ele>106.0</ele><time>2026-04-25T15:36:42.499Z</time></trkpt><trkpt lat="45.214668" lon="8.5903645"><ele>106.19999999999999</ele><time>2026-04-25T15:36:43.499Z</time></trkpt><trkpt lat="45.2145771" lon="8.5904325"><ele>106.39999999999999</ele><time>2026-04-25T15:36:44.498Z</time></trkpt><trkpt lat="45.2144873" lon="8.5905015"><ele>106.6</ele><time>2026-04-25T15:36:45.499Z</time></trkpt><trkpt lat="45.2144023" lon="8.5905682"><ele>106.8</ele><time>2026-04-25T15:36:46.498Z</time></trkpt><trkpt lat="45.2143154" lon="8.5906344"><ele>107.0</ele><time>2026-04-25T15:36:47.498Z</time></trkpt><trkpt lat="45.2142277" lon="8.590707"><ele>107.0</ele><time>2026-04-25T15:36:48.499Z</time></trkpt><trkpt lat="45.2141396" lon="8.5907781"><ele>106.99999999999999</ele><time>2026-04-25T15:36:49.499Z</time></trkpt><trkpt lat="45.2140523" lon="8.590848"><ele>106.99999999999999</ele><time>2026-04-25T15:36:50.499Z</time></trkpt><trkpt lat="45.2139566" lon="8.5909223"><ele>107.0</ele><time>2026-04-25T15:36:51.499Z</time></trkpt><trkpt lat="45.2138606" lon="8.5909949"><ele>107.0</ele><time>2026-04-25T15:36:52.498Z</time></trkpt><trkpt lat="45.2137681" lon="8.591067"><ele>106.75</ele><time>2026-04-25T15:36:53.499Z</time></trkpt><trkpt lat="45.2136701" lon="8.5911404"><ele>106.5</ele><time>2026-04-25T15:36:54.499Z</time></trkpt><trkpt lat="45.2135694" lon="8.5912152"><ele>106.25</ele><time>2026-04-25T15:36:55.499Z</time></trkpt><trkpt lat="45.2134627" lon="8.5912928"><ele>106.0</ele><time>2026-04-25T15:36:56.499Z</time></trkpt><trkpt lat="45.2133569" lon="8.5913718"><ele>106.0</ele><time>2026-04-25T15:36:57.499Z</time></trkpt><trkpt lat="45.2132503" lon="8.5914503"><ele>106.0</ele><time>2026-04-25T15:36:58.499Z</time></trkpt><trkpt lat="45.2131429" lon="8.5915307"><ele>106.0</ele><time>2026-04-25T15:36:59.499Z</time></trkpt><trkpt lat="45.2130361" lon="8.5916153"><ele>106.0</ele><time>2026-04-25T15:37:00.499Z</time></trkpt><trkpt lat="45.2129216" lon="8.5917002"><ele>106.25</ele><time>2026-04-25T15:37:01.499Z</time></trkpt><trkpt lat="45.2128111" lon="8.591785"><ele>106.5</ele><time>2026-04-25T15:37:02.498Z</time></trkpt><trkpt lat="45.212698" lon="8.5918714"><ele>106.75</ele><time>2026-04-25T15:37:03.499Z</time></trkpt><trkpt lat="45.212583" lon="8.591961"><ele>107.0</ele><time>2026-04-25T15:37:04.499Z</time></trkpt><trkpt lat="45.212469" lon="8.5920515"><ele>107.0</ele><time>2026-04-25T15:37:05.499Z</time></trkpt><trkpt lat="45.212359" lon="8.5921389"><ele>107.0</ele><time>2026-04-25T15:37:06.499Z</time></trkpt><trkpt lat="45.2122593" lon="8.5922173"><ele>107.0</ele><time>2026-04-25T15:37:07.498Z</time></trkpt><trkpt lat="45.2121674" lon="8.5922926"><ele>107.0</ele><time>2026-04-25T15:37:08.499Z</time></trkpt><trkpt lat="45.2120603" lon="8.5923737"><ele>106.75</ele><time>2026-04-25T15:37:09.498Z</time></trkpt><trkpt lat="45.2119475" lon="8.5924676"><ele>106.5</ele><time>2026-04-25T15:37:10.499Z</time></trkpt><trkpt lat="45.2118327" lon="8.5925579"><ele>106.25</ele><time>2026-04-25T15:37:11.499Z</time></trkpt><trkpt lat="45.211722" lon="8.592647"><ele>106.0</ele><time>2026-04-25T15:37:12.499Z</time></trkpt><trkpt lat="45.2116132" lon="8.5927336"><ele>106.0</ele><time>2026-04-25T15:37:13.498Z</time></trkpt><trkpt lat="45.2115158" lon="8.5928115"><ele>106.0</ele><time>2026-04-25T15:37:14.499Z</time></trkpt><trkpt lat="45.2114172" lon="8.5928913"><ele>106.0</ele><time>2026-04-25T15:37:15.498Z</time></trkpt><trkpt lat="45.2113307" lon="8.592964"><ele>106.0</ele><time>2026-04-25T15:37:16.499Z</time></trkpt><trkpt lat="45.2112561" lon="8.5930206"><ele>106.0</ele><time>2026-04-25T15:37:17.499Z</time></trkpt><trkpt lat="45.2111815" lon="8.5930764"><ele>106.0</ele><time>2026-04-25T15:37:18.499Z</time></trkpt><trkpt lat="45.2110988" lon="8.5931366"><ele>106.0</ele><time>2026-04-25T15:37:19.498Z</time></trkpt><trkpt lat="45.2110126" lon="8.5931969"><ele>106.0</ele><time>2026-04-25T15:37:20.499Z</time></trkpt><trkpt lat="45.2109252" lon="8.5932603"><ele>106.0</ele><time>2026-04-25T15:37:21.498Z</time></trkpt><trkpt lat="45.2108378" lon="8.5933247"><ele>106.0</ele><time>2026-04-25T15:37:22.499Z</time></trkpt><trkpt lat="45.210756" lon="8.5933863"><ele>106.0</ele><time>2026-04-25T15:37:23.498Z</time></trkpt><trkpt lat="45.2106833" lon="8.5934451"><ele>106.0</ele><time>2026-04-25T15:37:24.499Z</time></trkpt><trkpt lat="45.2106166" lon="8.5934991"><ele>106.0</ele><time>2026-04-25T15:37:25.498Z</time></trkpt><trkpt lat="45.2105577" lon="8.5935501"><ele>106.0</ele><time>2026-04-25T15:37:26.499Z</time></trkpt><trkpt lat="45.2104965" lon="8.593606"><ele>106.0</ele><time>2026-04-25T15:37:27.498Z</time></trkpt><trkpt lat="45.2104308" lon="8.5936599"><ele>106.0</ele><time>2026-04-25T15:37:28.499Z</time></trkpt><trkpt lat="45.2103722" lon="8.5937096"><ele>106.0</ele><time>2026-04-25T15:37:29.499Z</time></trkpt><trkpt lat="45.2103092" lon="8.5937686"><ele>106.00000000000001</ele><time>2026-04-25T15:37:30.498Z</time></trkpt><trkpt lat="45.2102475" lon="8.5938219"><ele>106.0</ele><time>2026-04-25T15:37:31.499Z</time></trkpt><trkpt lat="45.2101942" lon="8.5938741"><ele>106.0</ele><time>2026-04-25T15:37:32.499Z</time></trkpt><trkpt lat="45.2101225" lon="8.5939561"><ele>106.0</ele><time>2026-04-25T15:37:34.498Z</time></trkpt><trkpt lat="45.2101714" lon="8.5940344"><ele>106.00000000000001</ele><time>2026-04-25T15:37:39.499Z</time></trkpt><trkpt lat="45.2102562" lon="8.5940355"><ele>106.0</ele><time>2026-04-25T15:37:41.499Z</time></trkpt><trkpt lat="45.2103975" lon="8.5940552"><ele>106.0</ele><time>2026-04-25T15:37:43.499Z</time></trkpt><trkpt lat="45.210479" lon="8.5940726"><ele>106.0</ele><time>2026-04-25T15:37:44.499Z</time></trkpt><trkpt lat="45.2105631" lon="8.5940907"><ele>106.0</ele><time>2026-04-25T15:37:45.499Z</time></trkpt><trkpt lat="45.210655" lon="8.5941185"><ele>106.0</ele><time>2026-04-25T15:37:46.499Z</time></trkpt><trkpt lat="45.2107633" lon="8.5941482"><ele>106.0</ele><time>2026-04-25T15:37:47.499Z</time></trkpt><trkpt lat="45.2108677" lon="8.59418"><ele>106.0</ele><time>2026-04-25T15:37:48.498Z</time></trkpt><trkpt lat="45.2109684" lon="8.5942106"><ele>106.0</ele><time>2026-04-25T15:37:49.498Z</time></trkpt><trkpt lat="45.2110718" lon="8.5942387"><ele>106.0</ele><time>2026-04-25T15:37:50.498Z</time></trkpt><trkpt lat="45.2111805" lon="8.5942699"><ele>106.0</ele><time>2026-04-25T15:37:51.498Z</time></trkpt><trkpt lat="45.2112983" lon="8.5943001"><ele>106.0</ele><time>2026-04-25T15:37:52.498Z</time></trkpt><trkpt lat="45.2114129" lon="8.594324"><ele>106.25</ele><time>2026-04-25T15:37:53.499Z</time></trkpt><trkpt lat="45.2115311" lon="8.5943351"><ele>106.5</ele><time>2026-04-25T15:37:54.499Z</time></trkpt><trkpt lat="45.2116595" lon="8.5943339"><ele>106.75</ele><time>2026-04-25T15:37:55.499Z</time></trkpt><trkpt lat="45.2117927" lon="8.5943411"><ele>107.0</ele><time>2026-04-25T15:37:56.498Z</time></trkpt><trkpt lat="45.2119279" lon="8.5943568"><ele>107.0</ele><time>2026-04-25T15:37:57.498Z</time></trkpt><trkpt lat="45.2120644" lon="8.5943765"><ele>107.0</ele><time>2026-04-25T15:37:58.499Z</time></trkpt><trkpt lat="45.2121983" lon="8.5943941"><ele>107.0</ele><time>2026-04-25T15:37:59.499Z</time></trkpt><trkpt lat="45.2123412" lon="8.5944144"><ele>107.0</ele><time>2026-04-25T15:38:00.498Z</time></trkpt><trkpt lat="45.2124806" lon="8.594437"><ele>107.25</ele><time>2026-04-25T15:38:01.499Z</time></trkpt><trkpt lat="45.212615" lon="8.5944625"><ele>107.5</ele><time>2026-04-25T15:38:02.498Z</time></trkpt><trkpt lat="45.2127522" lon="8.5944895"><ele>107.75</ele><time>2026-04-25T15:38:03.499Z</time></trkpt><trkpt lat="45.2128924" lon="8.5945148"><ele>108.0</ele><time>2026-04-25T15:38:04.498Z</time></trkpt><trkpt lat="45.213034" lon="8.5945379"><ele>107.75</ele><time>2026-04-25T15:38:05.498Z</time></trkpt><trkpt lat="45.2131625" lon="8.5945601"><ele>107.5</ele><time>2026-04-25T15:38:06.499Z</time></trkpt><trkpt lat="45.213289" lon="8.5945856"><ele>107.25</ele><time>2026-04-25T15:38:07.499Z</time></trkpt><trkpt lat="45.2134125" lon="8.5946039"><ele>107.0</ele><time>2026-04-25T15:38:08.499Z</time></trkpt><trkpt lat="45.2135348" lon="8.5946246"><ele>107.0</ele><time>2026-04-25T15:38:09.498Z</time></trkpt><trkpt lat="45.2136643" lon="8.5946466"><ele>107.0</ele><time>2026-04-25T15:38:10.498Z</time></trkpt><trkpt lat="45.2137956" lon="8.5946669"><ele>107.0</ele><time>2026-04-25T15:38:11.498Z</time></trkpt><trkpt lat="45.213929" lon="8.5946853"><ele>107.0</ele><time>2026-04-25T15:38:12.499Z</time></trkpt><trkpt lat="45.2140629" lon="8.5947045"><ele>107.25</ele><time>2026-04-25T15:38:13.499Z</time></trkpt><trkpt lat="45.2142033" lon="8.5947233"><ele>107.5</ele><time>2026-04-25T15:38:14.499Z</time></trkpt><trkpt lat="45.2143445" lon="8.5947439"><ele>107.75</ele><time>2026-04-25T15:38:15.498Z</time></trkpt><trkpt lat="45.2144822" lon="8.5947663"><ele>108.0</ele><time>2026-04-25T15:38:16.499Z</time></trkpt><trkpt lat="45.2146138" lon="8.5947896"><ele>108.0</ele><time>2026-04-25T15:38:17.498Z</time></trkpt><trkpt lat="45.2147498" lon="8.5948144"><ele>108.0</ele><time>2026-04-25T15:38:18.499Z</time></trkpt><trkpt lat="45.2148857" lon="8.5948483"><ele>108.0</ele><time>2026-04-25T15:38:19.498Z</time></trkpt><trkpt lat="45.2150185" lon="8.5948904"><ele>108.0</ele><time>2026-04-25T15:38:20.499Z</time></trkpt><trkpt lat="45.2151455" lon="8.5949354"><ele>107.75</ele><time>2026-04-25T15:38:21.498Z</time></trkpt><trkpt lat="45.215272" lon="8.5949942"><ele>107.5</ele><time>2026-04-25T15:38:22.499Z</time></trkpt><trkpt lat="45.2153959" lon="8.5950594"><ele>107.25</ele><time>2026-04-25T15:38:23.499Z</time></trkpt><trkpt lat="45.2155153" lon="8.5951288"><ele>107.0</ele><time>2026-04-25T15:38:24.499Z</time></trkpt><trkpt lat="45.2156281" lon="8.5951984"><ele>107.0</ele><time>2026-04-25T15:38:25.498Z</time></trkpt><trkpt lat="45.2157335" lon="8.595265"><ele>106.99999999999999</ele><time>2026-04-25T15:38:26.499Z</time></trkpt><trkpt lat="45.2158325" lon="8.5953324"><ele>106.99999999999999</ele><time>2026-04-25T15:38:27.499Z</time></trkpt><trkpt lat="45.215928" lon="8.5954003"><ele>107.0</ele><time>2026-04-25T15:38:28.499Z</time></trkpt><trkpt lat="45.2160221" lon="8.5954652"><ele>107.0</ele><time>2026-04-25T15:38:29.499Z</time></trkpt><trkpt lat="45.2161193" lon="8.5955358"><ele>107.0</ele><time>2026-04-25T15:38:30.499Z</time></trkpt><trkpt lat="45.2162235" lon="8.5956055"><ele>106.99999999999999</ele><time>2026-04-25T15:38:31.498Z</time></trkpt><trkpt lat="45.2163193" lon="8.5956658"><ele>106.99999999999999</ele><time>2026-04-25T15:38:32.498Z</time></trkpt><trkpt lat="45.2164062" lon="8.5957219"><ele>107.0</ele><time>2026-04-25T15:38:33.498Z</time></trkpt><trkpt lat="45.2164826" lon="8.5957701"><ele>107.0</ele><time>2026-04-25T15:38:34.499Z</time></trkpt><trkpt lat="45.2165495" lon="8.5958105"><ele>107.19999999999999</ele><time>2026-04-25T15:38:35.498Z</time></trkpt><trkpt lat="45.2166584" lon="8.5958319"><ele>107.39999999999999</ele><time>2026-04-25T15:38:37.499Z</time></trkpt><trkpt lat="45.2167657" lon="8.5957572"><ele>107.60000000000001</ele><time>2026-04-25T15:38:39.499Z</time></trkpt><trkpt lat="45.2168283" lon="8.5956792"><ele>107.80000000000001</ele><time>2026-04-25T15:38:40.499Z</time></trkpt><trkpt lat="45.2168977" lon="8.595588"><ele>108.0</ele><time>2026-04-25T15:38:41.499Z</time></trkpt><trkpt lat="45.2169748" lon="8.5954884"><ele>108.0</ele><time>2026-04-25T15:38:42.498Z</time></trkpt><trkpt lat="45.2170506" lon="8.5953866"><ele>108.00000000000001</ele><time>2026-04-25T15:38:43.498Z</time></trkpt><trkpt lat="45.2171292" lon="8.5952833"><ele>108.00000000000001</ele><time>2026-04-25T15:38:44.499Z</time></trkpt><trkpt lat="45.2172133" lon="8.5951772"><ele>108.0</ele><time>2026-04-25T15:38:45.498Z</time></trkpt><trkpt lat="45.2173023" lon="8.5950692"><ele>108.0</ele><time>2026-04-25T15:38:46.499Z</time></trkpt><trkpt lat="45.2173901" lon="8.5949579"><ele>108.2</ele><time>2026-04-25T15:38:47.499Z</time></trkpt><trkpt lat="45.2174748" lon="8.5948514"><ele>108.4</ele><time>2026-04-25T15:38:48.498Z</time></trkpt><trkpt lat="45.2175541" lon="8.5947506"><ele>108.60000000000001</ele><time>2026-04-25T15:38:49.499Z</time></trkpt><trkpt lat="45.2176342" lon="8.594661"><ele>108.80000000000001</ele><time>2026-04-25T15:38:50.499Z</time></trkpt><trkpt lat="45.2177018" lon="8.5945743"><ele>109.0</ele><time>2026-04-25T15:38:51.499Z</time></trkpt><trkpt lat="45.2177632" lon="8.5944971"><ele>109.00000000000001</ele><time>2026-04-25T15:38:52.498Z</time></trkpt><trkpt lat="45.2178154" lon="8.5944462"><ele>109.0</ele><time>2026-04-25T15:38:53.499Z</time></trkpt><trkpt lat="45.2178982" lon="8.5944214"><ele>109.0</ele><time>2026-04-25T15:38:55.499Z</time></trkpt><trkpt lat="45.2179829" lon="8.5944769"><ele>109.0</ele><time>2026-04-25T15:38:57.499Z</time></trkpt><trkpt lat="45.218035" lon="8.5945611"><ele>109.00000000000001</ele><time>2026-04-25T15:38:58.499Z</time></trkpt><trkpt lat="45.2181012" lon="8.5946374"><ele>109.0</ele><time>2026-04-25T15:38:59.499Z</time></trkpt><trkpt lat="45.2181735" lon="8.5947204"><ele>108.80000000000001</ele><time>2026-04-25T15:39:00.498Z</time></trkpt><trkpt lat="45.2182501" lon="8.5948154"><ele>108.60000000000001</ele><time>2026-04-25T15:39:01.499Z</time></trkpt><trkpt lat="45.2183301" lon="8.5949175"><ele>108.4</ele><time>2026-04-25T15:39:02.498Z</time></trkpt><trkpt lat="45.2184158" lon="8.5950247"><ele>108.2</ele><time>2026-04-25T15:39:03.498Z</time></trkpt><trkpt lat="45.2185005" lon="8.5951303"><ele>108.0</ele><time>2026-04-25T15:39:04.499Z</time></trkpt><trkpt lat="45.2185874" lon="8.595247"><ele>108.0</ele><time>2026-04-25T15:39:05.499Z</time></trkpt><trkpt lat="45.2186861" lon="8.5953631"><ele>108.0</ele><time>2026-04-25T15:39:06.499Z</time></trkpt><trkpt lat="45.2187838" lon="8.5954854"><ele>108.0</ele><time>2026-04-25T15:39:07.499Z</time></trkpt><trkpt lat="45.2188876" lon="8.595606"><ele>108.0</ele><time>2026-04-25T15:39:08.498Z</time></trkpt><trkpt lat="45.2189905" lon="8.595729"><ele>107.75</ele><time>2026-04-25T15:39:09.499Z</time></trkpt><trkpt lat="45.2190892" lon="8.5958549"><ele>107.5</ele><time>2026-04-25T15:39:10.499Z</time></trkpt><trkpt lat="45.2191852" lon="8.595979"><ele>107.25</ele><time>2026-04-25T15:39:11.498Z</time></trkpt><trkpt lat="45.2192735" lon="8.5961063"><ele>107.0</ele><time>2026-04-25T15:39:12.499Z</time></trkpt><trkpt lat="45.2193609" lon="8.59623"><ele>107.0</ele><time>2026-04-25T15:39:13.499Z</time></trkpt><trkpt lat="45.2194373" lon="8.5963534"><ele>106.99999999999999</ele><time>2026-04-25T15:39:14.499Z</time></trkpt><trkpt lat="45.219509" lon="8.5964657"><ele>106.99999999999999</ele><time>2026-04-25T15:39:15.499Z</time></trkpt><trkpt lat="45.2195771" lon="8.596563"><ele>107.0</ele><time>2026-04-25T15:39:16.499Z</time></trkpt><trkpt lat="45.2196505" lon="8.5966369"><ele>107.0</ele><time>2026-04-25T15:39:17.499Z</time></trkpt><trkpt lat="45.2197425" lon="8.5967006"><ele>107.0</ele><time>2026-04-25T15:39:18.499Z</time></trkpt><trkpt lat="45.2198493" lon="8.5967517"><ele>107.0</ele><time>2026-04-25T15:39:19.499Z</time></trkpt><trkpt lat="45.219964" lon="8.5967888"><ele>107.0</ele><time>2026-04-25T15:39:20.499Z</time></trkpt><trkpt lat="45.2200832" lon="8.5968203"><ele>107.0</ele><time>2026-04-25T15:39:21.499Z</time></trkpt><trkpt lat="45.2201886" lon="8.5968578"><ele>107.0</ele><time>2026-04-25T15:39:22.498Z</time></trkpt><trkpt lat="45.2202831" lon="8.5969142"><ele>106.99999999999999</ele><time>2026-04-25T15:39:23.499Z</time></trkpt><trkpt lat="45.2203754" lon="8.5969936"><ele>106.99999999999999</ele><time>2026-04-25T15:39:24.499Z</time></trkpt><trkpt lat="45.2204695" lon="8.5970889"><ele>107.0</ele><time>2026-04-25T15:39:25.498Z</time></trkpt><trkpt lat="45.2205693" lon="8.59719"><ele>107.0</ele><time>2026-04-25T15:39:26.499Z</time></trkpt><trkpt lat="45.2206737" lon="8.5972964"><ele>106.25</ele><time>2026-04-25T15:39:27.499Z</time></trkpt><trkpt lat="45.2207852" lon="8.5974112"><ele>105.5</ele><time>2026-04-25T15:39:28.498Z</time></trkpt><trkpt lat="45.2208985" lon="8.597526"><ele>104.75</ele><time>2026-04-25T15:39:29.499Z</time></trkpt><trkpt lat="45.2210122" lon="8.5976423"><ele>104.0</ele><time>2026-04-25T15:39:30.499Z</time></trkpt><trkpt lat="45.2211326" lon="8.5977584"><ele>104.25</ele><time>2026-04-25T15:39:31.499Z</time></trkpt><trkpt lat="45.2212512" lon="8.5978769"><ele>104.5</ele><time>2026-04-25T15:39:32.499Z</time></trkpt><trkpt lat="45.2213674" lon="8.5979993"><ele>104.75</ele><time>2026-04-25T15:39:33.499Z</time></trkpt><trkpt lat="45.2214861" lon="8.5981272"><ele>105.0</ele><time>2026-04-25T15:39:34.499Z</time></trkpt><trkpt lat="45.2216087" lon="8.5982494"><ele>105.25</ele><time>2026-04-25T15:39:35.498Z</time></trkpt><trkpt lat="45.2217303" lon="8.5983774"><ele>105.5</ele><time>2026-04-25T15:39:36.499Z</time></trkpt><trkpt lat="45.2218529" lon="8.5985054"><ele>105.75</ele><time>2026-04-25T15:39:37.498Z</time></trkpt><trkpt lat="45.2219695" lon="8.5986232"><ele>106.0</ele><time>2026-04-25T15:39:38.498Z</time></trkpt><trkpt lat="45.2220767" lon="8.5987259"><ele>106.25</ele><time>2026-04-25T15:39:39.499Z</time></trkpt><trkpt lat="45.222183" lon="8.5988068"><ele>106.5</ele><time>2026-04-25T15:39:40.499Z</time></trkpt><trkpt lat="45.2222896" lon="8.598865"><ele>106.75</ele><time>2026-04-25T15:39:41.498Z</time></trkpt><trkpt lat="45.2223953" lon="8.598907"><ele>107.0</ele><time>2026-04-25T15:39:42.499Z</time></trkpt><trkpt lat="45.2225154" lon="8.5989485"><ele>107.25</ele><time>2026-04-25T15:39:43.499Z</time></trkpt><trkpt lat="45.2226398" lon="8.5989934"><ele>107.5</ele><time>2026-04-25T15:39:44.499Z</time></trkpt><trkpt lat="45.2227644" lon="8.599045"><ele>107.75</ele><time>2026-04-25T15:39:45.499Z</time></trkpt><trkpt lat="45.2229017" lon="8.599101"><ele>108.0</ele><time>2026-04-25T15:39:46.499Z</time></trkpt><trkpt lat="45.2230416" lon="8.5991578"><ele>107.66666666666666</ele><time>2026-04-25T15:39:47.499Z</time></trkpt><trkpt lat="45.2231897" lon="8.5992173"><ele>107.33333333333333</ele><time>2026-04-25T15:39:48.498Z</time></trkpt><trkpt lat="45.2233396" lon="8.5992718"><ele>107.0</ele><time>2026-04-25T15:39:49.498Z</time></trkpt><trkpt lat="45.2234895" lon="8.5993306"><ele>107.0</ele><time>2026-04-25T15:39:50.499Z</time></trkpt><trkpt lat="45.2236357" lon="8.5993907"><ele>107.0</ele><time>2026-04-25T15:39:51.499Z</time></trkpt><trkpt lat="45.2237768" lon="8.5994394"><ele>107.0</ele><time>2026-04-25T15:39:52.499Z</time></trkpt><trkpt lat="45.2239074" lon="8.5994852"><ele>107.0</ele><time>2026-04-25T15:39:53.499Z</time></trkpt><trkpt lat="45.2240383" lon="8.5995294"><ele>106.75</ele><time>2026-04-25T15:39:54.498Z</time></trkpt><trkpt lat="45.2241679" lon="8.5995694"><ele>106.5</ele><time>2026-04-25T15:39:55.499Z</time></trkpt><trkpt lat="45.2243005" lon="8.5996053"><ele>106.25</ele><time>2026-04-25T15:39:56.498Z</time></trkpt><trkpt lat="45.2244296" lon="8.5996266"><ele>106.0</ele><time>2026-04-25T15:39:57.499Z</time></trkpt><trkpt lat="45.2245589" lon="8.5996297"><ele>106.0</ele><time>2026-04-25T15:39:58.498Z</time></trkpt><trkpt lat="45.2246928" lon="8.5996211"><ele>106.0</ele><time>2026-04-25T15:39:59.499Z</time></trkpt><trkpt lat="45.2248278" lon="8.5995976"><ele>106.0</ele><time>2026-04-25T15:40:00.499Z</time></trkpt><trkpt lat="45.2249675" lon="8.5995608"><ele>106.0</ele><time>2026-04-25T15:40:01.498Z</time></trkpt><trkpt lat="45.225106" lon="8.5995067"><ele>106.0</ele><time>2026-04-25T15:40:02.498Z</time></trkpt><trkpt lat="45.2252391" lon="8.5994456"><ele>106.0</ele><time>2026-04-25T15:40:03.498Z</time></trkpt><trkpt lat="45.2253642" lon="8.5993772"><ele>106.0</ele><time>2026-04-25T15:40:04.499Z</time></trkpt><trkpt lat="45.2254759" lon="8.5993139"><ele>106.0</ele><time>2026-04-25T15:40:05.499Z</time></trkpt><trkpt lat="45.2255818" lon="8.5992551"><ele>106.00000000000001</ele><time>2026-04-25T15:40:06.498Z</time></trkpt><trkpt lat="45.2256763" lon="8.5992038"><ele>106.0</ele><time>2026-04-25T15:40:07.499Z</time></trkpt><trkpt lat="45.2257551" lon="8.5991686"><ele>106.0</ele><time>2026-04-25T15:40:08.498Z</time></trkpt><trkpt lat="45.2258503" lon="8.5991554"><ele>106.0</ele><time>2026-04-25T15:40:10.498Z</time></trkpt><trkpt lat="45.2259021" lon="8.5992136"><ele>106.00000000000001</ele><time>2026-04-25T15:40:12.498Z</time></trkpt><trkpt lat="45.2259189" lon="8.5993028"><ele>106.0</ele><time>2026-04-25T15:40:14.499Z</time></trkpt><trkpt lat="45.2259308" lon="8.5993916"><ele>106.0</ele><time>2026-04-25T15:40:17.499Z</time></trkpt><trkpt lat="45.225951" lon="8.5994833"><ele>106.0</ele><time>2026-04-25T15:41:32.499Z</time></trkpt><trkpt lat="45.2259742" lon="8.5995907"><ele>106.0</ele><time>2026-04-25T15:41:33.499Z</time></trkpt><trkpt lat="45.2260032" lon="8.599715"><ele>106.0</ele><time>2026-04-25T15:41:34.498Z</time></trkpt><trkpt lat="45.226041" lon="8.5998845"><ele>106.0</ele><time>2026-04-25T15:41:35.499Z</time></trkpt><trkpt lat="45.226082" lon="8.6000804"><ele>106.0</ele><time>2026-04-25T15:41:36.499Z</time></trkpt><trkpt lat="45.2261286" lon="8.6002921"><ele>106.0</ele><time>2026-04-25T15:41:37.499Z</time></trkpt><trkpt lat="45.2261843" lon="8.6005135"><ele>106.0</ele><time>2026-04-25T15:41:38.499Z</time></trkpt><trkpt lat="45.2262484" lon="8.6007161"><ele>106.0</ele><time>2026-04-25T15:41:39.499Z</time></trkpt><trkpt lat="45.2263245" lon="8.6009051"><ele>106.0</ele><time>2026-04-25T15:41:40.498Z</time></trkpt><trkpt lat="45.2264175" lon="8.601075"><ele>106.0</ele><time>2026-04-25T15:41:41.499Z</time></trkpt><trkpt lat="45.226512" lon="8.6012267"><ele>106.0</ele><time>2026-04-25T15:41:42.498Z</time></trkpt><trkpt lat="45.2266099" lon="8.6013458"><ele>106.5</ele><time>2026-04-25T15:41:43.498Z</time></trkpt><trkpt lat="45.2267117" lon="8.6014562"><ele>107.0</ele><time>2026-04-25T15:41:44.498Z</time></trkpt><trkpt lat="45.2268076" lon="8.6015478"><ele>107.5</ele><time>2026-04-25T15:41:45.499Z</time></trkpt><trkpt lat="45.2269002" lon="8.6016586"><ele>108.0</ele><time>2026-04-25T15:41:46.499Z</time></trkpt><trkpt lat="45.2269756" lon="8.6018"><ele>108.0</ele><time>2026-04-25T15:41:47.499Z</time></trkpt><trkpt lat="45.2270232" lon="8.6019456"><ele>108.00000000000001</ele><time>2026-04-25T15:41:48.498Z</time></trkpt><trkpt lat="45.2270602" lon="8.6020711"><ele>108.00000000000001</ele><time>2026-04-25T15:41:49.499Z</time></trkpt><trkpt lat="45.2270779" lon="8.6021749"><ele>108.0</ele><time>2026-04-25T15:41:50.498Z</time></trkpt><trkpt lat="45.2271169" lon="8.6023096"><ele>108.0</ele><time>2026-04-25T15:41:52.499Z</time></trkpt><trkpt lat="45.2271645" lon="8.6023778"><ele>108.0</ele><time>2026-04-25T15:41:53.499Z</time></trkpt><trkpt lat="45.2272245" lon="8.6024458"><ele>108.0</ele><time>2026-04-25T15:41:54.499Z</time></trkpt><trkpt lat="45.2272882" lon="8.6025061"><ele>108.0</ele><time>2026-04-25T15:41:55.498Z</time></trkpt><trkpt lat="45.2273673" lon="8.602563"><ele>108.0</ele><time>2026-04-25T15:41:56.499Z</time></trkpt><trkpt lat="45.2274467" lon="8.6026165"><ele>108.0</ele><time>2026-04-25T15:41:57.499Z</time></trkpt><trkpt lat="45.2275182" lon="8.6026599"><ele>108.0</ele><time>2026-04-25T15:41:58.499Z</time></trkpt><trkpt lat="45.22758" lon="8.6026998"><ele>108.0</ele><time>2026-04-25T15:41:59.498Z</time></trkpt><trkpt lat="45.2276487" lon="8.6027739"><ele>108.0</ele><time>2026-04-25T15:42:01.498Z</time></trkpt><trkpt lat="45.2276337" lon="8.6029155"><ele>108.0</ele><time>2026-04-25T15:42:03.498Z</time></trkpt><trkpt lat="45.2276079" lon="8.6030221"><ele>108.0</ele><time>2026-04-25T15:42:04.499Z</time></trkpt><trkpt lat="45.2275845" lon="8.6031313"><ele>108.0</ele><time>2026-04-25T15:42:05.499Z</time></trkpt><trkpt lat="45.2275729" lon="8.6032288"><ele>108.0</ele><time>2026-04-25T15:42:06.499Z</time></trkpt><trkpt lat="45.2275471" lon="8.6033542"><ele>108.0</ele><time>2026-04-25T15:42:08.499Z</time></trkpt><trkpt lat="45.2275267" lon="8.6034487"><ele>108.0</ele><time>2026-04-25T15:42:10.498Z</time></trkpt><trkpt lat="45.2274974" lon="8.6035736"><ele>108.0</ele><time>2026-04-25T15:42:12.498Z</time></trkpt><trkpt lat="45.2274737" lon="8.603667"><ele>108.0</ele><time>2026-04-25T15:42:13.499Z</time></trkpt><trkpt lat="45.2274519" lon="8.603776"><ele>108.0</ele><time>2026-04-25T15:42:14.498Z</time></trkpt><trkpt lat="45.2274396" lon="8.6039007"><ele>108.0</ele><time>2026-04-25T15:42:15.499Z</time></trkpt><trkpt lat="45.2274278" lon="8.6040351"><ele>107.80000000000001</ele><time>2026-04-25T15:42:16.498Z</time></trkpt><trkpt lat="45.2274244" lon="8.6041777"><ele>107.60000000000001</ele><time>2026-04-25T15:42:17.498Z</time></trkpt><trkpt lat="45.2274241" lon="8.6043269"><ele>107.39999999999999</ele><time>2026-04-25T15:42:18.498Z</time></trkpt><trkpt lat="45.2274214" lon="8.6044817"><ele>107.19999999999999</ele><time>2026-04-25T15:42:19.499Z</time></trkpt><trkpt lat="45.2274244" lon="8.6046461"><ele>107.0</ele><time>2026-04-25T15:42:20.498Z</time></trkpt><trkpt lat="45.227424" lon="8.60482"><ele>106.75</ele><time>2026-04-25T15:42:21.499Z</time></trkpt><trkpt lat="45.2274264" lon="8.6049994"><ele>106.5</ele><time>2026-04-25T15:42:22.498Z</time></trkpt><trkpt lat="45.2274294" lon="8.6051638"><ele>106.25</ele><time>2026-04-25T15:42:23.499Z</time></trkpt><trkpt lat="45.227437" lon="8.6053273"><ele>106.0</ele><time>2026-04-25T15:42:24.499Z</time></trkpt><trkpt lat="45.227442" lon="8.6054869"><ele>106.0</ele><time>2026-04-25T15:42:25.498Z</time></trkpt><trkpt lat="45.2274482" lon="8.6056516"><ele>106.0</ele><time>2026-04-25T15:42:26.499Z</time></trkpt><trkpt lat="45.2274605" lon="8.6058175"><ele>106.0</ele><time>2026-04-25T15:42:27.499Z</time></trkpt><trkpt lat="45.2274751" lon="8.6059885"><ele>106.0</ele><time>2026-04-25T15:42:28.498Z</time></trkpt><trkpt lat="45.2274919" lon="8.6061623"><ele>106.0</ele><time>2026-04-25T15:42:29.499Z</time></trkpt><trkpt lat="45.2275121" lon="8.6063402"><ele>106.0</ele><time>2026-04-25T15:42:30.498Z</time></trkpt><trkpt lat="45.2275326" lon="8.6065217"><ele>106.0</ele><time>2026-04-25T15:42:31.499Z</time></trkpt><trkpt lat="45.2275554" lon="8.6067066"><ele>106.0</ele><time>2026-04-25T15:42:32.499Z</time></trkpt><trkpt lat="45.2275779" lon="8.6068955"><ele>106.0</ele><time>2026-04-25T15:42:33.499Z</time></trkpt><trkpt lat="45.2276033" lon="8.607082"><ele>106.0</ele><time>2026-04-25T15:42:34.499Z</time></trkpt><trkpt lat="45.2276271" lon="8.6072668"><ele>106.0</ele><time>2026-04-25T15:42:35.499Z</time></trkpt><trkpt lat="45.2276455" lon="8.6074436"><ele>106.0</ele><time>2026-04-25T15:42:36.498Z</time></trkpt><trkpt lat="45.2276668" lon="8.6076265"><ele>106.0</ele><time>2026-04-25T15:42:37.499Z</time></trkpt><trkpt lat="45.2276926" lon="8.6078048"><ele>106.0</ele><time>2026-04-25T15:42:38.498Z</time></trkpt><trkpt lat="45.2277209" lon="8.6079861"><ele>106.0</ele><time>2026-04-25T15:42:39.499Z</time></trkpt><trkpt lat="45.2277503" lon="8.6081715"><ele>106.0</ele><time>2026-04-25T15:42:40.499Z</time></trkpt><trkpt lat="45.2277773" lon="8.6083534"><ele>105.75</ele><time>2026-04-25T15:42:41.498Z</time></trkpt><trkpt lat="45.2278081" lon="8.608536"><ele>105.5</ele><time>2026-04-25T15:42:42.499Z</time></trkpt><trkpt lat="45.2278394" lon="8.6087113"><ele>105.25</ele><time>2026-04-25T15:42:43.499Z</time></trkpt><trkpt lat="45.2278769" lon="8.6088882"><ele>105.0</ele><time>2026-04-25T15:42:44.498Z</time></trkpt><trkpt lat="45.2279202" lon="8.6090639"><ele>104.75</ele><time>2026-04-25T15:42:45.499Z</time></trkpt><trkpt lat="45.2279672" lon="8.6092354"><ele>104.5</ele><time>2026-04-25T15:42:46.498Z</time></trkpt><trkpt lat="45.2280198" lon="8.6094068"><ele>104.25</ele><time>2026-04-25T15:42:47.498Z</time></trkpt><trkpt lat="45.2280743" lon="8.6095854"><ele>104.0</ele><time>2026-04-25T15:42:48.499Z</time></trkpt><trkpt lat="45.2281352" lon="8.6097611"><ele>104.25</ele><time>2026-04-25T15:42:49.499Z</time></trkpt><trkpt lat="45.2281974" lon="8.6099439"><ele>104.5</ele><time>2026-04-25T15:42:50.498Z</time></trkpt><trkpt lat="45.2282595" lon="8.6101271"><ele>104.75</ele><time>2026-04-25T15:42:51.499Z</time></trkpt><trkpt lat="45.2283192" lon="8.6103113"><ele>105.0</ele><time>2026-04-25T15:42:52.498Z</time></trkpt><trkpt lat="45.2283755" lon="8.6104915"><ele>105.0</ele><time>2026-04-25T15:42:53.498Z</time></trkpt><trkpt lat="45.2284272" lon="8.6106723"><ele>105.0</ele><time>2026-04-25T15:42:54.498Z</time></trkpt><trkpt lat="45.2284693" lon="8.6108601"><ele>105.0</ele><time>2026-04-25T15:42:55.499Z</time></trkpt><trkpt lat="45.2285085" lon="8.6110467"><ele>105.0</ele><time>2026-04-25T15:42:56.499Z</time></trkpt><trkpt lat="45.2285461" lon="8.6112409"><ele>105.5</ele><time>2026-04-25T15:42:57.498Z</time></trkpt><trkpt lat="45.2285859" lon="8.6114375"><ele>106.0</ele><time>2026-04-25T15:42:58.499Z</time></trkpt><trkpt lat="45.2286207" lon="8.6116312"><ele>106.5</ele><time>2026-04-25T15:42:59.498Z</time></trkpt><trkpt lat="45.2286573" lon="8.6118267"><ele>107.0</ele><time>2026-04-25T15:43:00.499Z</time></trkpt><trkpt lat="45.2286945" lon="8.6120277"><ele>107.0</ele><time>2026-04-25T15:43:01.499Z</time></trkpt><trkpt lat="45.2287354" lon="8.6122297"><ele>107.0</ele><time>2026-04-25T15:43:02.498Z</time></trkpt><trkpt lat="45.2287766" lon="8.6124321"><ele>107.0</ele><time>2026-04-25T15:43:03.499Z</time></trkpt><trkpt lat="45.2288178" lon="8.6126395"><ele>107.0</ele><time>2026-04-25T15:43:04.498Z</time></trkpt><trkpt lat="45.2288594" lon="8.612849"><ele>106.66666666666666</ele><time>2026-04-25T15:43:05.499Z</time></trkpt><trkpt lat="45.2289013" lon="8.6130583"><ele>106.33333333333334</ele><time>2026-04-25T15:43:06.499Z</time></trkpt><trkpt lat="45.2289518" lon="8.6132702"><ele>106.0</ele><time>2026-04-25T15:43:07.499Z</time></trkpt><trkpt lat="45.2290091" lon="8.6134826"><ele>105.33333333333334</ele><time>2026-04-25T15:43:08.499Z</time></trkpt><trkpt lat="45.2290725" lon="8.6136958"><ele>104.66666666666666</ele><time>2026-04-25T15:43:09.499Z</time></trkpt><trkpt lat="45.2291412" lon="8.6139036"><ele>104.0</ele><time>2026-04-25T15:43:10.498Z</time></trkpt><trkpt lat="45.2292134" lon="8.6141126"><ele>104.0</ele><time>2026-04-25T15:43:11.499Z</time></trkpt><trkpt lat="45.2292855" lon="8.6143216"><ele>104.0</ele><time>2026-04-25T15:43:12.498Z</time></trkpt><trkpt lat="45.2293599" lon="8.6145369"><ele>104.0</ele><time>2026-04-25T15:43:13.499Z</time></trkpt><trkpt lat="45.2294334" lon="8.6147509"><ele>103.66666666666666</ele><time>2026-04-25T15:43:14.499Z</time></trkpt><trkpt lat="45.2295078" lon="8.6149636"><ele>103.33333333333334</ele><time>2026-04-25T15:43:15.499Z</time></trkpt><trkpt lat="45.2295827" lon="8.6151823"><ele>103.0</ele><time>2026-04-25T15:43:16.499Z</time></trkpt><trkpt lat="45.2296592" lon="8.6153973"><ele>103.66666666666667</ele><time>2026-04-25T15:43:17.499Z</time></trkpt><trkpt lat="45.2297339" lon="8.6156066"><ele>104.33333333333334</ele><time>2026-04-25T15:43:18.499Z</time></trkpt><trkpt lat="45.2298088" lon="8.6158248"><ele>105.0</ele><time>2026-04-25T15:43:19.499Z</time></trkpt><trkpt lat="45.2298816" lon="8.6160285"><ele>104.75</ele><time>2026-04-25T15:43:20.499Z</time></trkpt><trkpt lat="45.2299497" lon="8.6162271"><ele>104.5</ele><time>2026-04-25T15:43:21.498Z</time></trkpt><trkpt lat="45.2300106" lon="8.6164054"><ele>104.25</ele><time>2026-04-25T15:43:22.499Z</time></trkpt><trkpt lat="45.2300711" lon="8.6165722"><ele>104.0</ele><time>2026-04-25T15:43:23.499Z</time></trkpt><trkpt lat="45.2301385" lon="8.6167307"><ele>104.0</ele><time>2026-04-25T15:43:24.498Z</time></trkpt><trkpt lat="45.2302169" lon="8.6168868"><ele>104.0</ele><time>2026-04-25T15:43:25.498Z</time></trkpt><trkpt lat="45.2303045" lon="8.6170434"><ele>104.0</ele><time>2026-04-25T15:43:26.499Z</time></trkpt><trkpt lat="45.2304014" lon="8.6172044"><ele>104.0</ele><time>2026-04-25T15:43:27.499Z</time></trkpt><trkpt lat="45.2304983" lon="8.6173648"><ele>104.0</ele><time>2026-04-25T15:43:28.499Z</time></trkpt><trkpt lat="45.2305981" lon="8.6175271"><ele>104.0</ele><time>2026-04-25T15:43:29.499Z</time></trkpt><trkpt lat="45.2306933" lon="8.6176917"><ele>104.0</ele><time>2026-04-25T15:43:30.499Z</time></trkpt><trkpt lat="45.230791" lon="8.6178606"><ele>104.25</ele><time>2026-04-25T15:43:31.499Z</time></trkpt><trkpt lat="45.2308851" lon="8.6180309"><ele>104.5</ele><time>2026-04-25T15:43:32.498Z</time></trkpt><trkpt lat="45.2309674" lon="8.6181893"><ele>104.75</ele><time>2026-04-25T15:43:33.498Z</time></trkpt><trkpt lat="45.231045" lon="8.6183313"><ele>105.0</ele><time>2026-04-25T15:43:34.499Z</time></trkpt><trkpt lat="45.2311229" lon="8.6184733"><ele>105.0</ele><time>2026-04-25T15:43:35.499Z</time></trkpt><trkpt lat="45.2312023" lon="8.618617"><ele>105.0</ele><time>2026-04-25T15:43:36.499Z</time></trkpt><trkpt lat="45.2312797" lon="8.6187606"><ele>105.0</ele><time>2026-04-25T15:43:37.498Z</time></trkpt><trkpt lat="45.2313514" lon="8.6188986"><ele>105.0</ele><time>2026-04-25T15:43:38.499Z</time></trkpt><trkpt lat="45.2314123" lon="8.6190268"><ele>105.5</ele><time>2026-04-25T15:43:39.498Z</time></trkpt><trkpt lat="45.2314672" lon="8.6191439"><ele>106.0</ele><time>2026-04-25T15:43:40.498Z</time></trkpt><trkpt lat="45.2315122" lon="8.6192467"><ele>106.5</ele><time>2026-04-25T15:43:41.499Z</time></trkpt><trkpt lat="45.231554" lon="8.6193267"><ele>107.0</ele><time>2026-04-25T15:43:42.499Z</time></trkpt><trkpt lat="45.2316293" lon="8.6193775"><ele>107.5</ele><time>2026-04-25T15:43:44.499Z</time></trkpt><trkpt lat="45.2316916" lon="8.6193226"><ele>108.0</ele><time>2026-04-25T15:43:46.499Z</time></trkpt><trkpt lat="45.2317477" lon="8.6192807"><ele>108.0</ele><time>2026-04-25T15:43:47.499Z</time></trkpt><trkpt lat="45.2318169" lon="8.619233"><ele>108.0</ele><time>2026-04-25T15:43:48.499Z</time></trkpt><trkpt lat="45.2318881" lon="8.6191875"><ele>108.0</ele><time>2026-04-25T15:43:49.499Z</time></trkpt><trkpt lat="45.2319498" lon="8.619167"><ele>108.0</ele><time>2026-04-25T15:43:50.499Z</time></trkpt><trkpt lat="45.2320441" lon="8.6192076"><ele>108.0</ele><time>2026-04-25T15:43:52.499Z</time></trkpt><trkpt lat="45.2320801" lon="8.6193266"><ele>108.0</ele><time>2026-04-25T15:43:54.499Z</time></trkpt><trkpt lat="45.2320633" lon="8.6194883"><ele>107.80000000000001</ele><time>2026-04-25T15:43:56.499Z</time></trkpt><trkpt lat="45.2320403" lon="8.6195942"><ele>107.60000000000001</ele><time>2026-04-25T15:43:57.499Z</time></trkpt><trkpt lat="45.2320099" lon="8.6197245"><ele>107.39999999999999</ele><time>2026-04-25T15:43:58.499Z</time></trkpt><trkpt lat="45.23197" lon="8.6198829"><ele>107.19999999999999</ele><time>2026-04-25T15:43:59.498Z</time></trkpt><trkpt lat="45.2319294" lon="8.6200581"><ele>107.0</ele><time>2026-04-25T15:44:00.499Z</time></trkpt><trkpt lat="45.2318896" lon="8.6202407"><ele>107.0</ele><time>2026-04-25T15:44:01.498Z</time></trkpt><trkpt lat="45.2318535" lon="8.6204222"><ele>107.0</ele><time>2026-04-25T15:44:02.498Z</time></trkpt><trkpt lat="45.2318165" lon="8.6206011"><ele>107.0</ele><time>2026-04-25T15:44:03.499Z</time></trkpt><trkpt lat="45.2317807" lon="8.6207739"><ele>107.0</ele><time>2026-04-25T15:44:04.499Z</time></trkpt><trkpt lat="45.2317434" lon="8.6209373"><ele>107.0</ele><time>2026-04-25T15:44:05.498Z</time></trkpt><trkpt lat="45.2317103" lon="8.6210903"><ele>106.99999999999999</ele><time>2026-04-25T15:44:06.498Z</time></trkpt><trkpt lat="45.231681" lon="8.6212357"><ele>106.99999999999999</ele><time>2026-04-25T15:44:07.498Z</time></trkpt><trkpt lat="45.2316577" lon="8.6213741"><ele>107.0</ele><time>2026-04-25T15:44:08.499Z</time></trkpt><trkpt lat="45.2316317" lon="8.6215014"><ele>107.0</ele><time>2026-04-25T15:44:09.499Z</time></trkpt><trkpt lat="45.2316087" lon="8.621611"><ele>107.16666666666666</ele><time>2026-04-25T15:44:10.499Z</time></trkpt><trkpt lat="45.2315881" lon="8.6217089"><ele>107.33333333333333</ele><time>2026-04-25T15:44:11.498Z</time></trkpt><trkpt lat="45.2315818" lon="8.6218"><ele>107.5</ele><time>2026-04-25T15:44:12.498Z</time></trkpt><trkpt lat="45.2316073" lon="8.6219259"><ele>107.66666666666666</ele><time>2026-04-25T15:44:14.499Z</time></trkpt><trkpt lat="45.2316816" lon="8.6219529"><ele>107.83333333333333</ele><time>2026-04-25T15:44:18.499Z</time></trkpt><trkpt lat="45.231789" lon="8.6219266"><ele>108.0</ele><time>2026-04-25T15:44:20.499Z</time></trkpt><trkpt lat="45.2318658" lon="8.6219055"><ele>108.0</ele><time>2026-04-25T15:44:21.498Z</time></trkpt><trkpt lat="45.231947" lon="8.621885"><ele>108.00000000000001</ele><time>2026-04-25T15:44:22.499Z</time></trkpt><trkpt lat="45.2320322" lon="8.6218594"><ele>108.00000000000001</ele><time>2026-04-25T15:44:23.498Z</time></trkpt><trkpt lat="45.2321198" lon="8.621837"><ele>108.0</ele><time>2026-04-25T15:44:24.499Z</time></trkpt><trkpt lat="45.2322165" lon="8.6218136"><ele>108.0</ele><time>2026-04-25T15:44:25.498Z</time></trkpt><trkpt lat="45.2323211" lon="8.6217878"><ele>107.75</ele><time>2026-04-25T15:44:26.498Z</time></trkpt><trkpt lat="45.2324264" lon="8.6217582"><ele>107.5</ele><time>2026-04-25T15:44:27.499Z</time></trkpt><trkpt lat="45.2325401" lon="8.6217353"><ele>107.25</ele><time>2026-04-25T15:44:28.499Z</time></trkpt><trkpt lat="45.232655" lon="8.6217087"><ele>107.0</ele><time>2026-04-25T15:44:29.499Z</time></trkpt><trkpt lat="45.232776" lon="8.6216832"><ele>107.0</ele><time>2026-04-25T15:44:30.499Z</time></trkpt><trkpt lat="45.2329017" lon="8.6216549"><ele>107.0</ele><time>2026-04-25T15:44:31.499Z</time></trkpt><trkpt lat="45.233026" lon="8.621623"><ele>107.0</ele><time>2026-04-25T15:44:32.498Z</time></trkpt><trkpt lat="45.233151" lon="8.6215928"><ele>107.0</ele><time>2026-04-25T15:44:33.499Z</time></trkpt><trkpt lat="45.2332804" lon="8.6215583"><ele>107.25</ele><time>2026-04-25T15:44:34.499Z</time></trkpt><trkpt lat="45.2334111" lon="8.6215237"><ele>107.5</ele><time>2026-04-25T15:44:35.498Z</time></trkpt><trkpt lat="45.2335467" lon="8.6214873"><ele>107.75</ele><time>2026-04-25T15:44:36.499Z</time></trkpt><trkpt lat="45.2336977" lon="8.6214522"><ele>108.0</ele><time>2026-04-25T15:44:37.499Z</time></trkpt><trkpt lat="45.2338553" lon="8.6214168"><ele>108.33333333333334</ele><time>2026-04-25T15:44:38.499Z</time></trkpt><trkpt lat="45.2340217" lon="8.6213827"><ele>108.66666666666667</ele><time>2026-04-25T15:44:39.499Z</time></trkpt><trkpt lat="45.2341891" lon="8.6213487"><ele>109.0</ele><time>2026-04-25T15:44:40.498Z</time></trkpt><trkpt lat="45.2343549" lon="8.6213115"><ele>109.0</ele><time>2026-04-25T15:44:41.499Z</time></trkpt><trkpt lat="45.2345197" lon="8.6212736"><ele>109.0</ele><time>2026-04-25T15:44:42.498Z</time></trkpt><trkpt lat="45.234681" lon="8.6212339"><ele>109.0</ele><time>2026-04-25T15:44:43.499Z</time></trkpt><trkpt lat="45.2348435" lon="8.6211952"><ele>108.66666666666667</ele><time>2026-04-25T15:44:44.498Z</time></trkpt><trkpt lat="45.235003" lon="8.6211583"><ele>108.33333333333334</ele><time>2026-04-25T15:44:45.499Z</time></trkpt><trkpt lat="45.235162" lon="8.6211217"><ele>108.0</ele><time>2026-04-25T15:44:46.498Z</time></trkpt><trkpt lat="45.2353099" lon="8.6210899"><ele>107.75</ele><time>2026-04-25T15:44:47.499Z</time></trkpt><trkpt lat="45.2354416" lon="8.6210524"><ele>107.5</ele><time>2026-04-25T15:44:48.499Z</time></trkpt><trkpt lat="45.2355706" lon="8.6210194"><ele>107.25</ele><time>2026-04-25T15:44:49.499Z</time></trkpt><trkpt lat="45.2356772" lon="8.6209882"><ele>107.0</ele><time>2026-04-25T15:44:50.498Z</time></trkpt><trkpt lat="45.2357676" lon="8.6209585"><ele>107.0</ele><time>2026-04-25T15:44:51.499Z</time></trkpt><trkpt lat="45.2358428" lon="8.6209393"><ele>106.99999999999999</ele><time>2026-04-25T15:44:52.498Z</time></trkpt><trkpt lat="45.2359279" lon="8.620952"><ele>106.99999999999999</ele><time>2026-04-25T15:44:54.499Z</time></trkpt><trkpt lat="45.2359471" lon="8.6210787"><ele>107.0</ele><time>2026-04-25T15:44:57.499Z</time></trkpt><trkpt lat="45.2359326" lon="8.6212739"><ele>107.0</ele><time>2026-04-25T15:44:59.498Z</time></trkpt><trkpt lat="45.2359231" lon="8.6214118"><ele>107.25</ele><time>2026-04-25T15:45:00.498Z</time></trkpt><trkpt lat="45.2359105" lon="8.6215623"><ele>107.5</ele><time>2026-04-25T15:45:01.499Z</time></trkpt><trkpt lat="45.2358996" lon="8.6217209"><ele>107.75</ele><time>2026-04-25T15:45:02.499Z</time></trkpt><trkpt lat="45.2358872" lon="8.6218864"><ele>108.0</ele><time>2026-04-25T15:45:03.499Z</time></trkpt><trkpt lat="45.2358741" lon="8.622072"><ele>108.0</ele><time>2026-04-25T15:45:04.499Z</time></trkpt><trkpt lat="45.2358588" lon="8.6222653"><ele>108.0</ele><time>2026-04-25T15:45:05.499Z</time></trkpt><trkpt lat="45.2358415" lon="8.6224676"><ele>108.0</ele><time>2026-04-25T15:45:06.499Z</time></trkpt><trkpt lat="45.2358284" lon="8.6226737"><ele>108.0</ele><time>2026-04-25T15:45:07.499Z</time></trkpt><trkpt lat="45.235812" lon="8.622871"><ele>108.0</ele><time>2026-04-25T15:45:08.499Z</time></trkpt><trkpt lat="45.2357965" lon="8.6230757"><ele>108.0</ele><time>2026-04-25T15:45:09.499Z</time></trkpt><trkpt lat="45.2357835" lon="8.6232831"><ele>108.0</ele><time>2026-04-25T15:45:10.498Z</time></trkpt><trkpt lat="45.2357674" lon="8.6234953"><ele>108.0</ele><time>2026-04-25T15:45:11.499Z</time></trkpt><trkpt lat="45.2357532" lon="8.623704"><ele>108.0</ele><time>2026-04-25T15:45:12.498Z</time></trkpt><trkpt lat="45.2357411" lon="8.6239004"><ele>108.0</ele><time>2026-04-25T15:45:13.499Z</time></trkpt><trkpt lat="45.2357264" lon="8.6240949"><ele>108.0</ele><time>2026-04-25T15:45:14.498Z</time></trkpt><trkpt lat="45.2357143" lon="8.6242851"><ele>108.0</ele><time>2026-04-25T15:45:15.499Z</time></trkpt><trkpt lat="45.2356997" lon="8.6244787"><ele>108.0</ele><time>2026-04-25T15:45:16.499Z</time></trkpt><trkpt lat="45.235686" lon="8.6246708"><ele>108.0</ele><time>2026-04-25T15:45:17.499Z</time></trkpt><trkpt lat="45.2356688" lon="8.62485"><ele>108.0</ele><time>2026-04-25T15:45:18.499Z</time></trkpt><trkpt lat="45.2356498" lon="8.6250123"><ele>108.0</ele><time>2026-04-25T15:45:19.498Z</time></trkpt><trkpt lat="45.2356397" lon="8.6251669"><ele>108.2</ele><time>2026-04-25T15:45:20.498Z</time></trkpt><trkpt lat="45.2356368" lon="8.6253146"><ele>108.4</ele><time>2026-04-25T15:45:21.499Z</time></trkpt><trkpt lat="45.2356529" lon="8.6254456"><ele>108.60000000000001</ele><time>2026-04-25T15:45:22.499Z</time></trkpt><trkpt lat="45.2356819" lon="8.6255654"><ele>108.80000000000001</ele><time>2026-04-25T15:45:23.499Z</time></trkpt><trkpt lat="45.2357259" lon="8.6256638"><ele>109.0</ele><time>2026-04-25T15:45:24.499Z</time></trkpt><trkpt lat="45.2357793" lon="8.6257519"><ele>109.0</ele><time>2026-04-25T15:45:25.498Z</time></trkpt><trkpt lat="45.2358411" lon="8.6258349"><ele>109.0</ele><time>2026-04-25T15:45:26.499Z</time></trkpt><trkpt lat="45.235919" lon="8.6259235"><ele>109.0</ele><time>2026-04-25T15:45:27.499Z</time></trkpt><trkpt lat="45.2360055" lon="8.6260249"><ele>109.0</ele><time>2026-04-25T15:45:28.499Z</time></trkpt><trkpt lat="45.236099" lon="8.6261416"><ele>109.0</ele><time>2026-04-25T15:45:29.499Z</time></trkpt><trkpt lat="45.2361964" lon="8.6262667"><ele>109.0</ele><time>2026-04-25T15:45:30.499Z</time></trkpt><trkpt lat="45.2362909" lon="8.6264063"><ele>109.0</ele><time>2026-04-25T15:45:31.498Z</time></trkpt><trkpt lat="45.2363811" lon="8.6265617"><ele>109.0</ele><time>2026-04-25T15:45:32.499Z</time></trkpt><trkpt lat="45.2364676" lon="8.6267189"><ele>109.0</ele><time>2026-04-25T15:45:33.499Z</time></trkpt><trkpt lat="45.2365502" lon="8.6268793"><ele>108.75</ele><time>2026-04-25T15:45:34.499Z</time></trkpt><trkpt lat="45.2366296" lon="8.6270295"><ele>108.5</ele><time>2026-04-25T15:45:35.498Z</time></trkpt><trkpt lat="45.2367074" lon="8.6271715"><ele>108.25</ele><time>2026-04-25T15:45:36.499Z</time></trkpt><trkpt lat="45.2367752" lon="8.6273071"><ele>108.0</ele><time>2026-04-25T15:45:37.498Z</time></trkpt><trkpt lat="45.2368389" lon="8.6274438"><ele>108.0</ele><time>2026-04-25T15:45:38.499Z</time></trkpt><trkpt lat="45.2369115" lon="8.6275876"><ele>108.0</ele><time>2026-04-25T15:45:39.499Z</time></trkpt><trkpt lat="45.2369893" lon="8.6277349"><ele>108.0</ele><time>2026-04-25T15:45:40.499Z</time></trkpt><trkpt lat="45.237074" lon="8.6278818"><ele>108.0</ele><time>2026-04-25T15:45:41.499Z</time></trkpt><trkpt lat="45.2371621" lon="8.6280235"><ele>108.0</ele><time>2026-04-25T15:45:42.499Z</time></trkpt><trkpt lat="45.2372574" lon="8.628168"><ele>108.0</ele><time>2026-04-25T15:45:43.499Z</time></trkpt><trkpt lat="45.2373603" lon="8.6283163"><ele>108.0</ele><time>2026-04-25T15:45:44.498Z</time></trkpt><trkpt lat="45.2374653" lon="8.6284682"><ele>108.0</ele><time>2026-04-25T15:45:45.499Z</time></trkpt><trkpt lat="45.2375737" lon="8.6286287"><ele>108.0</ele><time>2026-04-25T15:45:46.499Z</time></trkpt><trkpt lat="45.2376842" lon="8.6287861"><ele>108.0</ele><time>2026-04-25T15:45:47.499Z</time></trkpt><trkpt lat="45.2377953" lon="8.6289474"><ele>108.0</ele><time>2026-04-25T15:45:48.498Z</time></trkpt><trkpt lat="45.2379047" lon="8.6291068"><ele>108.0</ele><time>2026-04-25T15:45:49.499Z</time></trkpt><trkpt lat="45.238013" lon="8.6292701"><ele>108.0</ele><time>2026-04-25T15:45:50.498Z</time></trkpt><trkpt lat="45.2381281" lon="8.6294332"><ele>108.0</ele><time>2026-04-25T15:45:51.499Z</time></trkpt><trkpt lat="45.2382397" lon="8.6295985"><ele>109.0</ele><time>2026-04-25T15:45:52.499Z</time></trkpt><trkpt lat="45.2383526" lon="8.6297692"><ele>110.0</ele><time>2026-04-25T15:45:53.499Z</time></trkpt><trkpt lat="45.2384639" lon="8.6299374"><ele>111.0</ele><time>2026-04-25T15:45:54.498Z</time></trkpt><trkpt lat="45.2385793" lon="8.6301032"><ele>111.0</ele><time>2026-04-25T15:45:55.499Z</time></trkpt><trkpt lat="45.2386937" lon="8.6302675"><ele>111.0</ele><time>2026-04-25T15:45:56.498Z</time></trkpt><trkpt lat="45.2388063" lon="8.6304283"><ele>111.0</ele><time>2026-04-25T15:45:57.499Z</time></trkpt><trkpt lat="45.2389185" lon="8.630589"><ele>110.66666666666666</ele><time>2026-04-25T15:45:58.499Z</time></trkpt><trkpt lat="45.2390287" lon="8.6307491"><ele>110.33333333333333</ele><time>2026-04-25T15:45:59.499Z</time></trkpt><trkpt lat="45.239139" lon="8.6309045"><ele>110.0</ele><time>2026-04-25T15:46:00.498Z</time></trkpt><trkpt lat="45.2392485" lon="8.6310644"><ele>109.66666666666666</ele><time>2026-04-25T15:46:01.499Z</time></trkpt><trkpt lat="45.2393571" lon="8.6312224"><ele>109.33333333333334</ele><time>2026-04-25T15:46:02.499Z</time></trkpt><trkpt lat="45.2394631" lon="8.6313806"><ele>109.0</ele><time>2026-04-25T15:46:03.499Z</time></trkpt><trkpt lat="45.2395711" lon="8.6315381"><ele>109.0</ele><time>2026-04-25T15:46:04.498Z</time></trkpt><trkpt lat="45.2396776" lon="8.6316965"><ele>109.0</ele><time>2026-04-25T15:46:05.499Z</time></trkpt><trkpt lat="45.2397763" lon="8.6318581"><ele>109.0</ele><time>2026-04-25T15:46:06.499Z</time></trkpt><trkpt lat="45.2398726" lon="8.6320225"><ele>109.33333333333334</ele><time>2026-04-25T15:46:07.499Z</time></trkpt><trkpt lat="45.2399652" lon="8.6321855"><ele>109.66666666666666</ele><time>2026-04-25T15:46:08.499Z</time></trkpt><trkpt lat="45.2400609" lon="8.6323468"><ele>110.0</ele><time>2026-04-25T15:46:09.499Z</time></trkpt><trkpt lat="45.2401589" lon="8.6325163"><ele>110.0</ele><time>2026-04-25T15:46:10.498Z</time></trkpt><trkpt lat="45.2402581" lon="8.6326859"><ele>110.0</ele><time>2026-04-25T15:46:11.499Z</time></trkpt><trkpt lat="45.2403481" lon="8.6328608"><ele>110.0</ele><time>2026-04-25T15:46:12.498Z</time></trkpt><trkpt lat="45.2404325" lon="8.6330415"><ele>110.0</ele><time>2026-04-25T15:46:13.499Z</time></trkpt><trkpt lat="45.2405105" lon="8.6332189"><ele>110.0</ele><time>2026-04-25T15:46:14.499Z</time></trkpt><trkpt lat="45.2405969" lon="8.6333915"><ele>110.0</ele><time>2026-04-25T15:46:15.498Z</time></trkpt><trkpt lat="45.2406781" lon="8.6335705"><ele>110.0</ele><time>2026-04-25T15:46:16.499Z</time></trkpt><trkpt lat="45.2407615" lon="8.6337502"><ele>109.66666666666666</ele><time>2026-04-25T15:46:17.499Z</time></trkpt><trkpt lat="45.2408466" lon="8.6339284"><ele>109.33333333333334</ele><time>2026-04-25T15:46:18.499Z</time></trkpt><trkpt lat="45.2409336" lon="8.6341139"><ele>109.0</ele><time>2026-04-25T15:46:19.499Z</time></trkpt><trkpt lat="45.2410199" lon="8.6342983"><ele>109.25</ele><time>2026-04-25T15:46:20.499Z</time></trkpt><trkpt lat="45.2411078" lon="8.634483"><ele>109.5</ele><time>2026-04-25T15:46:21.499Z</time></trkpt><trkpt lat="45.2411899" lon="8.6346588"><ele>109.75</ele><time>2026-04-25T15:46:22.499Z</time></trkpt><trkpt lat="45.2412671" lon="8.6348241"><ele>110.0</ele><time>2026-04-25T15:46:23.498Z</time></trkpt><trkpt lat="45.2413379" lon="8.6349902"><ele>110.0</ele><time>2026-04-25T15:46:24.499Z</time></trkpt><trkpt lat="45.2414044" lon="8.6351507"><ele>110.0</ele><time>2026-04-25T15:46:25.499Z</time></trkpt><trkpt lat="45.2414708" lon="8.6353067"><ele>110.0</ele><time>2026-04-25T15:46:26.499Z</time></trkpt><trkpt lat="45.2415431" lon="8.6354494"><ele>110.0</ele><time>2026-04-25T15:46:27.499Z</time></trkpt><trkpt lat="45.2416143" lon="8.6355861"><ele>109.5</ele><time>2026-04-25T15:46:28.499Z</time></trkpt><trkpt lat="45.2416891" lon="8.6357102"><ele>109.0</ele><time>2026-04-25T15:46:29.498Z</time></trkpt><trkpt lat="45.2417734" lon="8.6358187"><ele>108.5</ele><time>2026-04-25T15:46:30.499Z</time></trkpt><trkpt lat="45.241869" lon="8.6359119"><ele>108.0</ele><time>2026-04-25T15:46:31.499Z</time></trkpt><trkpt lat="45.2419746" lon="8.6359943"><ele>108.0</ele><time>2026-04-25T15:46:32.498Z</time></trkpt><trkpt lat="45.2420928" lon="8.6360733"><ele>108.0</ele><time>2026-04-25T15:46:33.499Z</time></trkpt><trkpt lat="45.2422213" lon="8.6361371"><ele>108.0</ele><time>2026-04-25T15:46:34.499Z</time></trkpt><trkpt lat="45.2423571" lon="8.6362032"><ele>108.0</ele><time>2026-04-25T15:46:35.498Z</time></trkpt><trkpt lat="45.2424961" lon="8.636266"><ele>108.25</ele><time>2026-04-25T15:46:36.499Z</time></trkpt><trkpt lat="45.2426376" lon="8.6363228"><ele>108.5</ele><time>2026-04-25T15:46:37.499Z</time></trkpt><trkpt lat="45.2427824" lon="8.6363859"><ele>108.75</ele><time>2026-04-25T15:46:38.499Z</time></trkpt><trkpt lat="45.2429181" lon="8.6364497"><ele>109.0</ele><time>2026-04-25T15:46:39.498Z</time></trkpt><trkpt lat="45.2430458" lon="8.6365129"><ele>109.25</ele><time>2026-04-25T15:46:40.499Z</time></trkpt><trkpt lat="45.2431641" lon="8.6365752"><ele>109.5</ele><time>2026-04-25T15:46:41.498Z</time></trkpt><trkpt lat="45.2432717" lon="8.636655"><ele>109.75</ele><time>2026-04-25T15:46:42.498Z</time></trkpt><trkpt lat="45.2433645" lon="8.6367478"><ele>110.0</ele><time>2026-04-25T15:46:43.499Z</time></trkpt><trkpt lat="45.243447" lon="8.6368625"><ele>110.25</ele><time>2026-04-25T15:46:44.498Z</time></trkpt><trkpt lat="45.2435247" lon="8.6369788"><ele>110.5</ele><time>2026-04-25T15:46:45.499Z</time></trkpt><trkpt lat="45.2436113" lon="8.6371086"><ele>110.75</ele><time>2026-04-25T15:46:46.498Z</time></trkpt><trkpt lat="45.2436975" lon="8.6372431"><ele>111.0</ele><time>2026-04-25T15:46:47.499Z</time></trkpt><trkpt lat="45.2437932" lon="8.6373763"><ele>111.0</ele><time>2026-04-25T15:46:48.499Z</time></trkpt><trkpt lat="45.2438874" lon="8.6375168"><ele>111.0</ele><time>2026-04-25T15:46:49.498Z</time></trkpt><trkpt lat="45.2439808" lon="8.6376484"><ele>111.0</ele><time>2026-04-25T15:46:50.499Z</time></trkpt><trkpt lat="45.2440681" lon="8.6377766"><ele>111.0</ele><time>2026-04-25T15:46:51.499Z</time></trkpt><trkpt lat="45.2441507" lon="8.6379018"><ele>111.19999999999999</ele><time>2026-04-25T15:46:52.498Z</time></trkpt><trkpt lat="45.2442337" lon="8.6380162"><ele>111.39999999999999</ele><time>2026-04-25T15:46:53.499Z</time></trkpt><trkpt lat="45.2443095" lon="8.6381206"><ele>111.6</ele><time>2026-04-25T15:46:54.498Z</time></trkpt><trkpt lat="45.2443763" lon="8.6382095"><ele>111.8</ele><time>2026-04-25T15:46:55.499Z</time></trkpt><trkpt lat="45.2444214" lon="8.6382886"><ele>112.0</ele><time>2026-04-25T15:46:56.499Z</time></trkpt><trkpt lat="45.2444413" lon="8.6383973"><ele>112.00000000000001</ele><time>2026-04-25T15:46:58.499Z</time></trkpt><trkpt lat="45.244392" lon="8.6384716"><ele>112.0</ele><time>2026-04-25T15:47:00.498Z</time></trkpt><trkpt lat="45.2443411" lon="8.63854"><ele>112.0</ele><time>2026-04-25T15:47:02.498Z</time></trkpt><trkpt lat="45.2442782" lon="8.6386303"><ele>112.0</ele><time>2026-04-25T15:47:04.498Z</time></trkpt><trkpt lat="45.2442103" lon="8.638731"><ele>112.00000000000001</ele><time>2026-04-25T15:47:06.498Z</time></trkpt><trkpt lat="45.2441459" lon="8.6388129"><ele>112.0</ele><time>2026-04-25T15:47:08.498Z</time></trkpt><trkpt lat="45.2440899" lon="8.6388908"><ele>112.00000000000001</ele><time>2026-04-25T15:47:10.498Z</time></trkpt><trkpt lat="45.2440432" lon="8.6389511"><ele>112.0</ele><time>2026-04-25T15:47:12.498Z</time></trkpt><trkpt lat="45.243994" lon="8.6390264"><ele>112.0</ele><time>2026-04-25T15:47:55.498Z</time></trkpt><trkpt lat="45.2439084" lon="8.6391674"><ele>112.0</ele><time>2026-04-25T15:47:58.498Z</time></trkpt><trkpt lat="45.243853" lon="8.6392605"><ele>112.00000000000001</ele><time>2026-04-25T15:47:59.498Z</time></trkpt><trkpt lat="45.2437935" lon="8.6393691"><ele>112.0</ele><time>2026-04-25T15:48:00.498Z</time></trkpt><trkpt lat="45.2437418" lon="8.6394795"><ele>111.83333333333334</ele><time>2026-04-25T15:48:01.499Z</time></trkpt><trkpt lat="45.2437" lon="8.6395954"><ele>111.66666666666667</ele><time>2026-04-25T15:48:02.499Z</time></trkpt><trkpt lat="45.2436694" lon="8.6397108"><ele>111.5</ele><time>2026-04-25T15:48:03.499Z</time></trkpt><trkpt lat="45.2436489" lon="8.6398241"><ele>111.33333333333334</ele><time>2026-04-25T15:48:04.498Z</time></trkpt><trkpt lat="45.2436357" lon="8.6399185"><ele>111.16666666666667</ele><time>2026-04-25T15:48:05.499Z</time></trkpt><trkpt lat="45.243655" lon="8.640048"><ele>111.0</ele><time>2026-04-25T15:48:07.499Z</time></trkpt><trkpt lat="45.2437408" lon="8.6401004"><ele>111.0</ele><time>2026-04-25T15:48:09.499Z</time></trkpt><trkpt lat="45.2438154" lon="8.6401034"><ele>111.0</ele><time>2026-04-25T15:48:10.499Z</time></trkpt><trkpt lat="45.2439246" lon="8.6400897"><ele>111.0</ele><time>2026-04-25T15:48:11.499Z</time></trkpt><trkpt lat="45.2440419" lon="8.6400632"><ele>111.0</ele><time>2026-04-25T15:48:12.499Z</time></trkpt><trkpt lat="45.2441544" lon="8.6400399"><ele>111.0</ele><time>2026-04-25T15:48:13.498Z</time></trkpt><trkpt lat="45.2442629" lon="8.6400284"><ele>111.4</ele><time>2026-04-25T15:48:14.499Z</time></trkpt><trkpt lat="45.2443635" lon="8.640037"><ele>111.8</ele><time>2026-04-25T15:48:15.499Z</time></trkpt><trkpt lat="45.2444602" lon="8.6400748"><ele>112.20000000000002</ele><time>2026-04-25T15:48:16.499Z</time></trkpt><trkpt lat="45.2445474" lon="8.6401487"><ele>112.60000000000001</ele><time>2026-04-25T15:48:17.498Z</time></trkpt><trkpt lat="45.2446287" lon="8.6402244"><ele>113.0</ele><time>2026-04-25T15:48:18.499Z</time></trkpt><trkpt lat="45.2446721" lon="8.6403403"><ele>113.0</ele><time>2026-04-25T15:48:19.499Z</time></trkpt><trkpt lat="45.2447161" lon="8.6404793"><ele>113.00000000000001</ele><time>2026-04-25T15:48:20.499Z</time></trkpt><trkpt lat="45.2447502" lon="8.6406456"><ele>113.00000000000001</ele><time>2026-04-25T15:48:21.499Z</time></trkpt><trkpt lat="45.2447842" lon="8.6407903"><ele>113.0</ele><time>2026-04-25T15:48:22.499Z</time></trkpt><trkpt lat="45.2448288" lon="8.6409188"><ele>113.0</ele><time>2026-04-25T15:48:23.499Z</time></trkpt><trkpt lat="45.2448858" lon="8.6410249"><ele>113.0</ele><time>2026-04-25T15:48:24.499Z</time></trkpt><trkpt lat="45.2449514" lon="8.641122"><ele>113.00000000000001</ele><time>2026-04-25T15:48:25.499Z</time></trkpt><trkpt lat="45.2450065" lon="8.6412177"><ele>113.00000000000001</ele><time>2026-04-25T15:48:26.499Z</time></trkpt><trkpt lat="45.2450631" lon="8.6413279"><ele>113.0</ele><time>2026-04-25T15:48:27.499Z</time></trkpt><trkpt lat="45.2451215" lon="8.6414488"><ele>113.0</ele><time>2026-04-25T15:48:28.499Z</time></trkpt><trkpt lat="45.2451756" lon="8.6415822"><ele>113.0</ele><time>2026-04-25T15:48:29.499Z</time></trkpt><trkpt lat="45.2452326" lon="8.6417242"><ele>113.0</ele><time>2026-04-25T15:48:30.499Z</time></trkpt><trkpt lat="45.2452847" lon="8.6418739"><ele>113.0</ele><time>2026-04-25T15:48:31.499Z</time></trkpt><trkpt lat="45.2453397" lon="8.6420358"><ele>113.0</ele><time>2026-04-25T15:48:32.498Z</time></trkpt><trkpt lat="45.2453997" lon="8.6422169"><ele>113.0</ele><time>2026-04-25T15:48:33.499Z</time></trkpt><trkpt lat="45.2454588" lon="8.6424095"><ele>113.0</ele><time>2026-04-25T15:48:34.499Z</time></trkpt><trkpt lat="45.2455207" lon="8.6426089"><ele>113.0</ele><time>2026-04-25T15:48:35.498Z</time></trkpt><trkpt lat="45.245577" lon="8.6427944"><ele>113.0</ele><time>2026-04-25T15:48:36.498Z</time></trkpt><trkpt lat="45.2456318" lon="8.6429512"><ele>113.0</ele><time>2026-04-25T15:48:37.499Z</time></trkpt><trkpt lat="45.2456827" lon="8.6430947"><ele>113.00000000000001</ele><time>2026-04-25T15:48:38.499Z</time></trkpt><trkpt lat="45.245724" lon="8.6432269"><ele>113.00000000000001</ele><time>2026-04-25T15:48:39.499Z</time></trkpt><trkpt lat="45.245771" lon="8.6433529"><ele>113.0</ele><time>2026-04-25T15:48:40.499Z</time></trkpt><trkpt lat="45.2458083" lon="8.6434689"><ele>113.0</ele><time>2026-04-25T15:48:41.498Z</time></trkpt><trkpt lat="45.2458466" lon="8.6435701"><ele>112.83333333333333</ele><time>2026-04-25T15:48:42.499Z</time></trkpt><trkpt lat="45.2458762" lon="8.6436672"><ele>112.66666666666666</ele><time>2026-04-25T15:48:43.499Z</time></trkpt><trkpt lat="45.2459069" lon="8.6437625"><ele>112.5</ele><time>2026-04-25T15:48:44.499Z</time></trkpt><trkpt lat="45.2459397" lon="8.6438561"><ele>112.33333333333334</ele><time>2026-04-25T15:48:45.499Z</time></trkpt><trkpt lat="45.2459814" lon="8.6439732"><ele>112.16666666666667</ele><time>2026-04-25T15:48:47.499Z</time></trkpt><trkpt lat="45.24601" lon="8.6440601"><ele>112.0</ele><time>2026-04-25T15:48:49.498Z</time></trkpt><trkpt lat="45.2460837" lon="8.6441033"><ele>112.0</ele><time>2026-04-25T15:48:53.498Z</time></trkpt><trkpt lat="45.2461686" lon="8.6440037"><ele>111.99999999999999</ele><time>2026-04-25T15:48:55.499Z</time></trkpt><trkpt lat="45.2462213" lon="8.6439528"><ele>111.99999999999999</ele><time>2026-04-25T15:48:57.499Z</time></trkpt><trkpt lat="45.2462639" lon="8.6438398"><ele>112.0</ele><time>2026-04-25T15:49:09.498Z</time></trkpt><trkpt lat="45.2463308" lon="8.6437993"><ele>112.0</ele><time>2026-04-25T15:49:11.498Z</time></trkpt><trkpt lat="45.2464527" lon="8.6438236"><ele>112.0</ele><time>2026-04-25T15:49:13.498Z</time></trkpt><trkpt lat="45.2465403" lon="8.6438422"><ele>111.99999999999999</ele><time>2026-04-25T15:49:14.499Z</time></trkpt><trkpt lat="45.2466293" lon="8.6438618"><ele>111.99999999999999</ele><time>2026-04-25T15:49:15.499Z</time></trkpt><trkpt lat="45.2467485" lon="8.6438891"><ele>112.0</ele><time>2026-04-25T15:49:16.499Z</time></trkpt><trkpt lat="45.246889" lon="8.6439093"><ele>112.0</ele><time>2026-04-25T15:49:17.499Z</time></trkpt><trkpt lat="45.2470421" lon="8.6439235"><ele>112.0</ele><time>2026-04-25T15:49:18.498Z</time></trkpt><trkpt lat="45.2472062" lon="8.6439364"><ele>112.0</ele><time>2026-04-25T15:49:19.498Z</time></trkpt><trkpt lat="45.2473745" lon="8.6439615"><ele>112.0</ele><time>2026-04-25T15:49:20.499Z</time></trkpt><trkpt lat="45.2475434" lon="8.6439925"><ele>112.0</ele><time>2026-04-25T15:49:21.498Z</time></trkpt><trkpt lat="45.2477089" lon="8.6440274"><ele>112.0</ele><time>2026-04-25T15:49:22.499Z</time></trkpt><trkpt lat="45.2478602" lon="8.644058"><ele>112.0</ele><time>2026-04-25T15:49:23.498Z</time></trkpt><trkpt lat="45.247992" lon="8.6440996"><ele>112.0</ele><time>2026-04-25T15:49:24.498Z</time></trkpt><trkpt lat="45.2481108" lon="8.644143"><ele>112.0</ele><time>2026-04-25T15:49:25.499Z</time></trkpt><trkpt lat="45.2482209" lon="8.6441829"><ele>112.0</ele><time>2026-04-25T15:49:26.499Z</time></trkpt><trkpt lat="45.2483398" lon="8.6442324"><ele>112.0</ele><time>2026-04-25T15:49:27.499Z</time></trkpt><trkpt lat="45.2484591" lon="8.6442992"><ele>112.0</ele><time>2026-04-25T15:49:28.499Z</time></trkpt><trkpt lat="45.2485853" lon="8.6443799"><ele>112.0</ele><time>2026-04-25T15:49:29.498Z</time></trkpt><trkpt lat="45.2487146" lon="8.6444667"><ele>112.0</ele><time>2026-04-25T15:49:30.499Z</time></trkpt><trkpt lat="45.2488451" lon="8.6445542"><ele>112.0</ele><time>2026-04-25T15:49:31.499Z</time></trkpt><trkpt lat="45.2489669" lon="8.6446318"><ele>112.19999999999999</ele><time>2026-04-25T15:49:32.498Z</time></trkpt><trkpt lat="45.2490799" lon="8.6447055"><ele>112.39999999999999</ele><time>2026-04-25T15:49:33.498Z</time></trkpt><trkpt lat="45.2491876" lon="8.6447735"><ele>112.60000000000001</ele><time>2026-04-25T15:49:34.498Z</time></trkpt><trkpt lat="45.249283" lon="8.6448404"><ele>112.80000000000001</ele><time>2026-04-25T15:49:35.499Z</time></trkpt><trkpt lat="45.2493733" lon="8.6449012"><ele>113.0</ele><time>2026-04-25T15:49:36.499Z</time></trkpt><trkpt lat="45.2494557" lon="8.6449579"><ele>112.99999999999999</ele><time>2026-04-25T15:49:37.499Z</time></trkpt><trkpt lat="45.2495239" lon="8.6450057"><ele>113.0</ele><time>2026-04-25T15:49:38.499Z</time></trkpt><trkpt lat="45.24959" lon="8.6450505"><ele>113.0</ele><time>2026-04-25T15:49:39.498Z</time></trkpt><trkpt lat="45.2496676" lon="8.6450922"><ele>113.0</ele><time>2026-04-25T15:49:40.498Z</time></trkpt><trkpt lat="45.249744" lon="8.6451372"><ele>112.99999999999999</ele><time>2026-04-25T15:49:41.499Z</time></trkpt><trkpt lat="45.2498326" lon="8.6451908"><ele>113.0</ele><time>2026-04-25T15:49:42.498Z</time></trkpt><trkpt lat="45.2499461" lon="8.6452487"><ele>113.33333333333333</ele><time>2026-04-25T15:49:43.499Z</time></trkpt><trkpt lat="45.2500752" lon="8.6453191"><ele>113.66666666666666</ele><time>2026-04-25T15:49:44.499Z</time></trkpt><trkpt lat="45.2502152" lon="8.6453976"><ele>114.0</ele><time>2026-04-25T15:49:45.499Z</time></trkpt><trkpt lat="45.2503663" lon="8.6454815"><ele>114.0</ele><time>2026-04-25T15:49:46.498Z</time></trkpt><trkpt lat="45.250518" lon="8.645577"><ele>114.0</ele><time>2026-04-25T15:49:47.499Z</time></trkpt><trkpt lat="45.2506683" lon="8.6456727"><ele>114.0</ele><time>2026-04-25T15:49:48.499Z</time></trkpt><trkpt lat="45.2508091" lon="8.6457629"><ele>113.33333333333334</ele><time>2026-04-25T15:49:49.499Z</time></trkpt><trkpt lat="45.2509452" lon="8.6458485"><ele>112.66666666666667</ele><time>2026-04-25T15:49:50.498Z</time></trkpt><trkpt lat="45.2510887" lon="8.6459365"><ele>112.0</ele><time>2026-04-25T15:49:51.498Z</time></trkpt><trkpt lat="45.2512325" lon="8.646022"><ele>112.0</ele><time>2026-04-25T15:49:52.498Z</time></trkpt><trkpt lat="45.2513743" lon="8.6461165"><ele>112.0</ele><time>2026-04-25T15:49:53.499Z</time></trkpt><trkpt lat="45.2515182" lon="8.6462129"><ele>112.0</ele><time>2026-04-25T15:49:54.499Z</time></trkpt><trkpt lat="45.2516621" lon="8.6463212"><ele>112.66666666666667</ele><time>2026-04-25T15:49:55.498Z</time></trkpt><trkpt lat="45.2518007" lon="8.6464349"><ele>113.33333333333334</ele><time>2026-04-25T15:49:56.498Z</time></trkpt><trkpt lat="45.2519371" lon="8.6465566"><ele>114.0</ele><time>2026-04-25T15:49:57.498Z</time></trkpt><trkpt lat="45.2520628" lon="8.6466735"><ele>114.0</ele><time>2026-04-25T15:49:58.498Z</time></trkpt><trkpt lat="45.2521729" lon="8.6467905"><ele>114.0</ele><time>2026-04-25T15:49:59.499Z</time></trkpt><trkpt lat="45.2522794" lon="8.6468993"><ele>114.0</ele><time>2026-04-25T15:50:00.499Z</time></trkpt><trkpt lat="45.2523749" lon="8.647"><ele>114.0</ele><time>2026-04-25T15:50:01.498Z</time></trkpt><trkpt lat="45.2524737" lon="8.6471024"><ele>114.5</ele><time>2026-04-25T15:50:02.499Z</time></trkpt><trkpt lat="45.2525791" lon="8.6472021"><ele>115.0</ele><time>2026-04-25T15:50:03.498Z</time></trkpt><trkpt lat="45.2526832" lon="8.6473047"><ele>115.5</ele><time>2026-04-25T15:50:04.499Z</time></trkpt><trkpt lat="45.2527882" lon="8.6474048"><ele>116.0</ele><time>2026-04-25T15:50:05.498Z</time></trkpt><trkpt lat="45.2528959" lon="8.6475091"><ele>116.0</ele><time>2026-04-25T15:50:06.499Z</time></trkpt><trkpt lat="45.253003" lon="8.6476198"><ele>116.0</ele><time>2026-04-25T15:50:07.499Z</time></trkpt><trkpt lat="45.2531069" lon="8.6477359"><ele>116.0</ele><time>2026-04-25T15:50:08.498Z</time></trkpt><trkpt lat="45.2532106" lon="8.6478616"><ele>116.0</ele><time>2026-04-25T15:50:09.499Z</time></trkpt><trkpt lat="45.2533091" lon="8.6479996"><ele>114.75</ele><time>2026-04-25T15:50:10.499Z</time></trkpt><trkpt lat="45.2533974" lon="8.6481401"><ele>113.5</ele><time>2026-04-25T15:50:11.499Z</time></trkpt><trkpt lat="45.253481" lon="8.6482833"><ele>112.25</ele><time>2026-04-25T15:50:12.499Z</time></trkpt><trkpt lat="45.2535619" lon="8.6484318"><ele>111.0</ele><time>2026-04-25T15:50:13.499Z</time></trkpt><trkpt lat="45.253638" lon="8.6485827"><ele>111.0</ele><time>2026-04-25T15:50:14.499Z</time></trkpt><trkpt lat="45.2537152" lon="8.6487362"><ele>111.0</ele><time>2026-04-25T15:50:15.499Z</time></trkpt><trkpt lat="45.2537892" lon="8.6488879"><ele>111.0</ele><time>2026-04-25T15:50:16.499Z</time></trkpt><trkpt lat="45.2538556" lon="8.6490354"><ele>111.0</ele><time>2026-04-25T15:50:17.499Z</time></trkpt><trkpt lat="45.2539195" lon="8.6491793"><ele>111.19999999999999</ele><time>2026-04-25T15:50:18.498Z</time></trkpt><trkpt lat="45.2539847" lon="8.6493143"><ele>111.39999999999999</ele><time>2026-04-25T15:50:19.499Z</time></trkpt><trkpt lat="45.2540441" lon="8.6494442"><ele>111.6</ele><time>2026-04-25T15:50:20.499Z</time></trkpt><trkpt lat="45.254105" lon="8.6495662"><ele>111.8</ele><time>2026-04-25T15:50:21.499Z</time></trkpt><trkpt lat="45.2541642" lon="8.6496929"><ele>112.0</ele><time>2026-04-25T15:50:22.499Z</time></trkpt><trkpt lat="45.2542264" lon="8.6498179"><ele>112.0</ele><time>2026-04-25T15:50:23.499Z</time></trkpt><trkpt lat="45.2542875" lon="8.6499471"><ele>111.99999999999999</ele><time>2026-04-25T15:50:24.499Z</time></trkpt><trkpt lat="45.2543439" lon="8.6500696"><ele>111.99999999999999</ele><time>2026-04-25T15:50:25.499Z</time></trkpt><trkpt lat="45.2543956" lon="8.6501818"><ele>112.0</ele><time>2026-04-25T15:50:26.498Z</time></trkpt><trkpt lat="45.2544489" lon="8.6502871"><ele>112.0</ele><time>2026-04-25T15:50:27.499Z</time></trkpt><trkpt lat="45.2544956" lon="8.6503914"><ele>112.00000000000001</ele><time>2026-04-25T15:50:28.499Z</time></trkpt><trkpt lat="45.2545405" lon="8.6504935"><ele>112.0</ele><time>2026-04-25T15:50:29.498Z</time></trkpt><trkpt lat="45.2545867" lon="8.6505931"><ele>112.0</ele><time>2026-04-25T15:50:30.498Z</time></trkpt><trkpt lat="45.2546324" lon="8.6506862"><ele>112.0</ele><time>2026-04-25T15:50:31.498Z</time></trkpt><trkpt lat="45.254673" lon="8.6507704"><ele>112.00000000000001</ele><time>2026-04-25T15:50:32.498Z</time></trkpt><trkpt lat="45.2547108" lon="8.6508466"><ele>112.0</ele><time>2026-04-25T15:50:33.498Z</time></trkpt><trkpt lat="45.2547772" lon="8.6509742"><ele>111.66666666666667</ele><time>2026-04-25T15:50:35.499Z</time></trkpt><trkpt lat="45.2548269" lon="8.6510866"><ele>111.33333333333334</ele><time>2026-04-25T15:50:37.498Z</time></trkpt><trkpt lat="45.2548675" lon="8.6511838"><ele>111.0</ele><time>2026-04-25T15:50:39.498Z</time></trkpt><trkpt lat="45.254919" lon="8.6513045"><ele>110.66666666666666</ele><time>2026-04-25T15:50:41.499Z</time></trkpt><trkpt lat="45.2549591" lon="8.651394"><ele>110.33333333333333</ele><time>2026-04-25T15:50:42.498Z</time></trkpt><trkpt lat="45.2550096" lon="8.6514943"><ele>110.0</ele><time>2026-04-25T15:50:43.499Z</time></trkpt><trkpt lat="45.2550741" lon="8.6516037"><ele>110.0</ele><time>2026-04-25T15:50:44.498Z</time></trkpt><trkpt lat="45.2551554" lon="8.6517098"><ele>110.0</ele><time>2026-04-25T15:50:45.499Z</time></trkpt><trkpt lat="45.2552425" lon="8.6518197"><ele>110.0</ele><time>2026-04-25T15:50:46.499Z</time></trkpt><trkpt lat="45.2553429" lon="8.6519328"><ele>110.0</ele><time>2026-04-25T15:50:47.499Z</time></trkpt><trkpt lat="45.2554491" lon="8.6520471"><ele>109.66666666666666</ele><time>2026-04-25T15:50:48.499Z</time></trkpt><trkpt lat="45.2555615" lon="8.6521674"><ele>109.33333333333334</ele><time>2026-04-25T15:50:49.499Z</time></trkpt><trkpt lat="45.2556861" lon="8.6522893"><ele>109.0</ele><time>2026-04-25T15:50:50.499Z</time></trkpt><trkpt lat="45.2558197" lon="8.6524147"><ele>109.66666666666667</ele><time>2026-04-25T15:50:51.499Z</time></trkpt><trkpt lat="45.2559554" lon="8.6525397"><ele>110.33333333333334</ele><time>2026-04-25T15:50:52.498Z</time></trkpt><trkpt lat="45.2560959" lon="8.6526775"><ele>111.0</ele><time>2026-04-25T15:50:53.499Z</time></trkpt><trkpt lat="45.2562347" lon="8.6528129"><ele>111.0</ele><time>2026-04-25T15:50:54.498Z</time></trkpt><trkpt lat="45.2563762" lon="8.6529488"><ele>111.0</ele><time>2026-04-25T15:50:55.499Z</time></trkpt><trkpt lat="45.2565144" lon="8.6530885"><ele>111.0</ele><time>2026-04-25T15:50:56.499Z</time></trkpt><trkpt lat="45.2566498" lon="8.6532332"><ele>111.0</ele><time>2026-04-25T15:50:57.499Z</time></trkpt><trkpt lat="45.2567799" lon="8.6533768"><ele>111.0</ele><time>2026-04-25T15:50:58.499Z</time></trkpt><trkpt lat="45.2569095" lon="8.6535181"><ele>111.0</ele><time>2026-04-25T15:50:59.499Z</time></trkpt><trkpt lat="45.2570425" lon="8.6536608"><ele>111.0</ele><time>2026-04-25T15:51:00.499Z</time></trkpt><trkpt lat="45.2571738" lon="8.6538082"><ele>111.0</ele><time>2026-04-25T15:51:01.499Z</time></trkpt><trkpt lat="45.2573164" lon="8.653951"><ele>111.0</ele><time>2026-04-25T15:51:02.499Z</time></trkpt><trkpt lat="45.2574634" lon="8.6540902"><ele>111.33333333333334</ele><time>2026-04-25T15:51:03.499Z</time></trkpt><trkpt lat="45.2576099" lon="8.6542215"><ele>111.66666666666667</ele><time>2026-04-25T15:51:04.498Z</time></trkpt><trkpt lat="45.2577551" lon="8.6543568"><ele>112.0</ele><time>2026-04-25T15:51:05.499Z</time></trkpt><trkpt lat="45.2579042" lon="8.654487"><ele>112.0</ele><time>2026-04-25T15:51:06.499Z</time></trkpt><trkpt lat="45.2580558" lon="8.6546144"><ele>112.0</ele><time>2026-04-25T15:51:07.498Z</time></trkpt><trkpt lat="45.2581958" lon="8.6547367"><ele>112.0</ele><time>2026-04-25T15:51:08.499Z</time></trkpt><trkpt lat="45.258333" lon="8.654846"><ele>112.0</ele><time>2026-04-25T15:51:09.498Z</time></trkpt><trkpt lat="45.2584648" lon="8.6549514"><ele>112.0</ele><time>2026-04-25T15:51:10.499Z</time></trkpt><trkpt lat="45.2586014" lon="8.6550626"><ele>112.0</ele><time>2026-04-25T15:51:11.498Z</time></trkpt><trkpt lat="45.2587312" lon="8.6551873"><ele>112.0</ele><time>2026-04-25T15:51:12.499Z</time></trkpt><trkpt lat="45.2588623" lon="8.6553231"><ele>112.0</ele><time>2026-04-25T15:51:13.499Z</time></trkpt><trkpt lat="45.2589937" lon="8.6554621"><ele>112.0</ele><time>2026-04-25T15:51:14.498Z</time></trkpt><trkpt lat="45.2591258" lon="8.6556058"><ele>112.0</ele><time>2026-04-25T15:51:15.498Z</time></trkpt><trkpt lat="45.2592599" lon="8.6557492"><ele>112.0</ele><time>2026-04-25T15:51:16.498Z</time></trkpt><trkpt lat="45.2593961" lon="8.6558891"><ele>112.0</ele><time>2026-04-25T15:51:17.499Z</time></trkpt><trkpt lat="45.2595309" lon="8.6560349"><ele>111.66666666666667</ele><time>2026-04-25T15:51:18.499Z</time></trkpt><trkpt lat="45.259665" lon="8.6561765"><ele>111.33333333333334</ele><time>2026-04-25T15:51:19.499Z</time></trkpt><trkpt lat="45.2598053" lon="8.6563094"><ele>111.0</ele><time>2026-04-25T15:51:20.498Z</time></trkpt><trkpt lat="45.259948" lon="8.6564365"><ele>111.0</ele><time>2026-04-25T15:51:21.499Z</time></trkpt><trkpt lat="45.2600923" lon="8.6565648"><ele>111.0</ele><time>2026-04-25T15:51:22.499Z</time></trkpt><trkpt lat="45.2602383" lon="8.6566942"><ele>111.0</ele><time>2026-04-25T15:51:23.498Z</time></trkpt><trkpt lat="45.2603825" lon="8.6568265"><ele>111.33333333333334</ele><time>2026-04-25T15:51:24.499Z</time></trkpt><trkpt lat="45.2605157" lon="8.656961"><ele>111.66666666666667</ele><time>2026-04-25T15:51:25.499Z</time></trkpt><trkpt lat="45.2606413" lon="8.657095"><ele>112.0</ele><time>2026-04-25T15:51:26.499Z</time></trkpt><trkpt lat="45.2607569" lon="8.6572395"><ele>112.33333333333334</ele><time>2026-04-25T15:51:27.499Z</time></trkpt><trkpt lat="45.2608556" lon="8.6574022"><ele>112.66666666666666</ele><time>2026-04-25T15:51:28.498Z</time></trkpt><trkpt lat="45.2609365" lon="8.6575758"><ele>113.0</ele><time>2026-04-25T15:51:29.499Z</time></trkpt><trkpt lat="45.261012" lon="8.6577651"><ele>112.66666666666666</ele><time>2026-04-25T15:51:30.499Z</time></trkpt><trkpt lat="45.2610806" lon="8.6579681"><ele>112.33333333333334</ele><time>2026-04-25T15:51:31.499Z</time></trkpt><trkpt lat="45.2611438" lon="8.6581783"><ele>112.0</ele><time>2026-04-25T15:51:32.499Z</time></trkpt><trkpt lat="45.2611922" lon="8.6583946"><ele>112.0</ele><time>2026-04-25T15:51:33.499Z</time></trkpt><trkpt lat="45.2612442" lon="8.6586215"><ele>112.0</ele><time>2026-04-25T15:51:34.499Z</time></trkpt><trkpt lat="45.2612994" lon="8.6588485"><ele>112.0</ele><time>2026-04-25T15:51:35.498Z</time></trkpt><trkpt lat="45.2613482" lon="8.6590663"><ele>112.0</ele><time>2026-04-25T15:51:36.498Z</time></trkpt><trkpt lat="45.2614015" lon="8.6592648"><ele>112.0</ele><time>2026-04-25T15:51:37.499Z</time></trkpt><trkpt lat="45.2614516" lon="8.6594471"><ele>112.0</ele><time>2026-04-25T15:51:38.498Z</time></trkpt><trkpt lat="45.2615013" lon="8.6596149"><ele>112.0</ele><time>2026-04-25T15:51:39.499Z</time></trkpt><trkpt lat="45.26155" lon="8.6597696"><ele>112.0</ele><time>2026-04-25T15:51:40.499Z</time></trkpt><trkpt lat="45.2616001" lon="8.6599238"><ele>112.0</ele><time>2026-04-25T15:51:41.498Z</time></trkpt><trkpt lat="45.2616543" lon="8.6600789"><ele>112.0</ele><time>2026-04-25T15:51:42.499Z</time></trkpt><trkpt lat="45.2617076" lon="8.6602352"><ele>112.0</ele><time>2026-04-25T15:51:43.498Z</time></trkpt><trkpt lat="45.2617595" lon="8.6603989"><ele>112.0</ele><time>2026-04-25T15:51:44.499Z</time></trkpt><trkpt lat="45.2618059" lon="8.6605553"><ele>111.99999999999999</ele><time>2026-04-25T15:51:45.498Z</time></trkpt><trkpt lat="45.2618445" lon="8.6607055"><ele>111.99999999999999</ele><time>2026-04-25T15:51:46.498Z</time></trkpt><trkpt lat="45.2618776" lon="8.6608492"><ele>112.0</ele><time>2026-04-25T15:51:47.498Z</time></trkpt><trkpt lat="45.2619031" lon="8.6609841"><ele>112.0</ele><time>2026-04-25T15:51:48.499Z</time></trkpt><trkpt lat="45.2619296" lon="8.6611128"><ele>111.8</ele><time>2026-04-25T15:51:49.499Z</time></trkpt><trkpt lat="45.26196" lon="8.6612471"><ele>111.6</ele><time>2026-04-25T15:51:50.499Z</time></trkpt><trkpt lat="45.2619974" lon="8.6613886"><ele>111.39999999999999</ele><time>2026-04-25T15:51:51.499Z</time></trkpt><trkpt lat="45.2620412" lon="8.6615425"><ele>111.19999999999999</ele><time>2026-04-25T15:51:52.499Z</time></trkpt><trkpt lat="45.2620865" lon="8.6616952"><ele>111.0</ele><time>2026-04-25T15:51:53.498Z</time></trkpt><trkpt lat="45.2621321" lon="8.6618453"><ele>111.4</ele><time>2026-04-25T15:51:54.499Z</time></trkpt><trkpt lat="45.262175" lon="8.6619866"><ele>111.8</ele><time>2026-04-25T15:51:55.499Z</time></trkpt><trkpt lat="45.2622172" lon="8.6621178"><ele>112.20000000000002</ele><time>2026-04-25T15:51:56.499Z</time></trkpt><trkpt lat="45.2622578" lon="8.6622417"><ele>112.60000000000001</ele><time>2026-04-25T15:51:57.499Z</time></trkpt><trkpt lat="45.2622966" lon="8.6623538"><ele>113.0</ele><time>2026-04-25T15:51:58.498Z</time></trkpt><trkpt lat="45.2623288" lon="8.6624564"><ele>112.99999999999999</ele><time>2026-04-25T15:51:59.499Z</time></trkpt><trkpt lat="45.2623497" lon="8.6625502"><ele>113.0</ele><time>2026-04-25T15:52:00.498Z</time></trkpt><trkpt lat="45.2623346" lon="8.6626936"><ele>113.0</ele><time>2026-04-25T15:52:02.499Z</time></trkpt><trkpt lat="45.2622546" lon="8.6627654"><ele>113.0</ele><time>2026-04-25T15:52:04.499Z</time></trkpt><trkpt lat="45.2621893" lon="8.6627857"><ele>112.99999999999999</ele><time>2026-04-25T15:52:05.499Z</time></trkpt><trkpt lat="45.2621139" lon="8.6627926"><ele>113.0</ele><time>2026-04-25T15:52:06.498Z</time></trkpt><trkpt lat="45.2620354" lon="8.662793"><ele>113.2</ele><time>2026-04-25T15:52:07.499Z</time></trkpt><trkpt lat="45.2619498" lon="8.6628067"><ele>113.4</ele><time>2026-04-25T15:52:08.498Z</time></trkpt><trkpt lat="45.2618638" lon="8.6628314"><ele>113.60000000000001</ele><time>2026-04-25T15:52:09.499Z</time></trkpt><trkpt lat="45.2617665" lon="8.6628614"><ele>113.80000000000001</ele><time>2026-04-25T15:52:10.498Z</time></trkpt><trkpt lat="45.2616612" lon="8.6628986"><ele>114.0</ele><time>2026-04-25T15:52:11.498Z</time></trkpt><trkpt lat="45.2615486" lon="8.6629446"><ele>113.75</ele><time>2026-04-25T15:52:12.498Z</time></trkpt><trkpt lat="45.2614311" lon="8.6629968"><ele>113.5</ele><time>2026-04-25T15:52:13.498Z</time></trkpt><trkpt lat="45.2613046" lon="8.6630506"><ele>113.25</ele><time>2026-04-25T15:52:14.498Z</time></trkpt><trkpt lat="45.2611734" lon="8.6631009"><ele>113.0</ele><time>2026-04-25T15:52:15.499Z</time></trkpt><trkpt lat="45.2610437" lon="8.6631527"><ele>113.0</ele><time>2026-04-25T15:52:16.499Z</time></trkpt><trkpt lat="45.2609171" lon="8.6632048"><ele>113.0</ele><time>2026-04-25T15:52:17.499Z</time></trkpt><trkpt lat="45.260794" lon="8.6632496"><ele>113.0</ele><time>2026-04-25T15:52:18.499Z</time></trkpt><trkpt lat="45.2606802" lon="8.6632926"><ele>113.0</ele><time>2026-04-25T15:52:19.499Z</time></trkpt><trkpt lat="45.2605688" lon="8.6633399"><ele>112.75</ele><time>2026-04-25T15:52:20.499Z</time></trkpt><trkpt lat="45.2604527" lon="8.6633882"><ele>112.5</ele><time>2026-04-25T15:52:21.498Z</time></trkpt><trkpt lat="45.2603324" lon="8.6634398"><ele>112.25</ele><time>2026-04-25T15:52:22.498Z</time></trkpt><trkpt lat="45.2602081" lon="8.663492"><ele>112.0</ele><time>2026-04-25T15:52:23.499Z</time></trkpt><trkpt lat="45.2600869" lon="8.6635342"><ele>112.0</ele><time>2026-04-25T15:52:24.499Z</time></trkpt><trkpt lat="45.2599642" lon="8.6635828"><ele>112.0</ele><time>2026-04-25T15:52:25.498Z</time></trkpt><trkpt lat="45.2598402" lon="8.6636345"><ele>112.0</ele><time>2026-04-25T15:52:26.499Z</time></trkpt><trkpt lat="45.2597093" lon="8.6636862"><ele>112.0</ele><time>2026-04-25T15:52:27.498Z</time></trkpt><trkpt lat="45.2595788" lon="8.6637406"><ele>111.75</ele><time>2026-04-25T15:52:28.498Z</time></trkpt><trkpt lat="45.2594468" lon="8.6637964"><ele>111.5</ele><time>2026-04-25T15:52:29.498Z</time></trkpt><trkpt lat="45.2593142" lon="8.663854"><ele>111.25</ele><time>2026-04-25T15:52:30.498Z</time></trkpt><trkpt lat="45.2591797" lon="8.6639086"><ele>111.0</ele><time>2026-04-25T15:52:31.499Z</time></trkpt><trkpt lat="45.2590476" lon="8.6639629"><ele>111.25</ele><time>2026-04-25T15:52:32.499Z</time></trkpt><trkpt lat="45.2589105" lon="8.6640163"><ele>111.5</ele><time>2026-04-25T15:52:33.498Z</time></trkpt><trkpt lat="45.2587703" lon="8.6640734"><ele>111.75</ele><time>2026-04-25T15:52:34.499Z</time></trkpt><trkpt lat="45.2586236" lon="8.6641331"><ele>112.0</ele><time>2026-04-25T15:52:35.499Z</time></trkpt><trkpt lat="45.2584727" lon="8.6641936"><ele>112.0</ele><time>2026-04-25T15:52:36.499Z</time></trkpt><trkpt lat="45.2583213" lon="8.6642543"><ele>112.0</ele><time>2026-04-25T15:52:37.499Z</time></trkpt><trkpt lat="45.2581668" lon="8.6643134"><ele>112.0</ele><time>2026-04-25T15:52:38.499Z</time></trkpt><trkpt lat="45.258012" lon="8.6643793"><ele>111.66666666666667</ele><time>2026-04-25T15:52:39.499Z</time></trkpt><trkpt lat="45.2578587" lon="8.6644451"><ele>111.33333333333334</ele><time>2026-04-25T15:52:40.499Z</time></trkpt><trkpt lat="45.2577075" lon="8.6645079"><ele>111.0</ele><time>2026-04-25T15:52:41.499Z</time></trkpt><trkpt lat="45.2575574" lon="8.6645655"><ele>111.0</ele><time>2026-04-25T15:52:42.499Z</time></trkpt><trkpt lat="45.2574084" lon="8.6646243"><ele>111.0</ele><time>2026-04-25T15:52:43.499Z</time></trkpt><trkpt lat="45.2572551" lon="8.6646857"><ele>111.0</ele><time>2026-04-25T15:52:44.499Z</time></trkpt><trkpt lat="45.2571067" lon="8.6647473"><ele>111.0</ele><time>2026-04-25T15:52:45.499Z</time></trkpt><trkpt lat="45.2569696" lon="8.6648064"><ele>111.0</ele><time>2026-04-25T15:52:46.499Z</time></trkpt><trkpt lat="45.2568471" lon="8.6648644"><ele>111.0</ele><time>2026-04-25T15:52:47.498Z</time></trkpt><trkpt lat="45.256733" lon="8.6649303"><ele>111.0</ele><time>2026-04-25T15:52:48.498Z</time></trkpt><trkpt lat="45.2566227" lon="8.6650003"><ele>111.0</ele><time>2026-04-25T15:52:49.499Z</time></trkpt><trkpt lat="45.2565138" lon="8.665079"><ele>111.0</ele><time>2026-04-25T15:52:50.498Z</time></trkpt><trkpt lat="45.2564058" lon="8.665162"><ele>111.0</ele><time>2026-04-25T15:52:51.499Z</time></trkpt><trkpt lat="45.2562858" lon="8.6652511"><ele>111.0</ele><time>2026-04-25T15:52:52.498Z</time></trkpt><trkpt lat="45.2561586" lon="8.6653436"><ele>111.25</ele><time>2026-04-25T15:52:53.498Z</time></trkpt><trkpt lat="45.256031" lon="8.6654395"><ele>111.5</ele><time>2026-04-25T15:52:54.499Z</time></trkpt><trkpt lat="45.2559021" lon="8.6655419"><ele>111.75</ele><time>2026-04-25T15:52:55.499Z</time></trkpt><trkpt lat="45.2557729" lon="8.6656416"><ele>112.0</ele><time>2026-04-25T15:52:56.499Z</time></trkpt><trkpt lat="45.2556389" lon="8.6657433"><ele>111.33333333333334</ele><time>2026-04-25T15:52:57.499Z</time></trkpt><trkpt lat="45.255502" lon="8.6658465"><ele>110.66666666666666</ele><time>2026-04-25T15:52:58.499Z</time></trkpt><trkpt lat="45.2553666" lon="8.665954"><ele>110.0</ele><time>2026-04-25T15:52:59.499Z</time></trkpt><trkpt lat="45.2552397" lon="8.6660554"><ele>109.75</ele><time>2026-04-25T15:53:00.499Z</time></trkpt><trkpt lat="45.255124" lon="8.6661542"><ele>109.5</ele><time>2026-04-25T15:53:01.499Z</time></trkpt><trkpt lat="45.2550146" lon="8.6662434"><ele>109.25</ele><time>2026-04-25T15:53:02.498Z</time></trkpt><trkpt lat="45.2549189" lon="8.666324"><ele>109.0</ele><time>2026-04-25T15:53:03.499Z</time></trkpt><trkpt lat="45.2548342" lon="8.6663804"><ele>108.4</ele><time>2026-04-25T15:53:04.499Z</time></trkpt><trkpt lat="45.2547595" lon="8.6664073"><ele>107.80000000000001</ele><time>2026-04-25T15:53:05.499Z</time></trkpt><trkpt lat="45.2546634" lon="8.6663581"><ele>107.19999999999999</ele><time>2026-04-25T15:53:07.499Z</time></trkpt><trkpt lat="45.2545901" lon="8.6661999"><ele>106.6</ele><time>2026-04-25T15:53:09.499Z</time></trkpt><trkpt lat="45.2545543" lon="8.6660915"><ele>106.0</ele><time>2026-04-25T15:53:10.499Z</time></trkpt><trkpt lat="45.254516" lon="8.6659593"><ele>106.0</ele><time>2026-04-25T15:53:11.499Z</time></trkpt><trkpt lat="45.2544704" lon="8.6658196"><ele>106.0</ele><time>2026-04-25T15:53:12.499Z</time></trkpt><trkpt lat="45.2544173" lon="8.6656617"><ele>106.0</ele><time>2026-04-25T15:53:13.499Z</time></trkpt><trkpt lat="45.2543603" lon="8.6654987"><ele>106.0</ele><time>2026-04-25T15:53:14.498Z</time></trkpt><trkpt lat="45.2542982" lon="8.6653277"><ele>106.25</ele><time>2026-04-25T15:53:15.499Z</time></trkpt><trkpt lat="45.2542335" lon="8.6651574"><ele>106.5</ele><time>2026-04-25T15:53:16.498Z</time></trkpt><trkpt lat="45.25416" lon="8.664997"><ele>106.75</ele><time>2026-04-25T15:53:17.499Z</time></trkpt><trkpt lat="45.2540829" lon="8.6648471"><ele>107.0</ele><time>2026-04-25T15:53:18.499Z</time></trkpt><trkpt lat="45.2539992" lon="8.6647021"><ele>106.75</ele><time>2026-04-25T15:53:19.499Z</time></trkpt><trkpt lat="45.2539099" lon="8.6645579"><ele>106.5</ele><time>2026-04-25T15:53:20.498Z</time></trkpt><trkpt lat="45.2538049" lon="8.6644024"><ele>106.25</ele><time>2026-04-25T15:53:21.499Z</time></trkpt><trkpt lat="45.253708" lon="8.6642588"><ele>106.0</ele><time>2026-04-25T15:53:22.498Z</time></trkpt><trkpt lat="45.2536212" lon="8.664132"><ele>106.0</ele><time>2026-04-25T15:53:23.498Z</time></trkpt><trkpt lat="45.2535401" lon="8.6640119"><ele>106.0</ele><time>2026-04-25T15:53:24.499Z</time></trkpt><trkpt lat="45.2534624" lon="8.6639085"><ele>106.0</ele><time>2026-04-25T15:53:25.499Z</time></trkpt><trkpt lat="45.2533823" lon="8.663823"><ele>106.0</ele><time>2026-04-25T15:53:26.498Z</time></trkpt><trkpt lat="45.2532936" lon="8.663753"><ele>106.0</ele><time>2026-04-25T15:53:27.499Z</time></trkpt><trkpt lat="45.253201" lon="8.6636982"><ele>106.19999999999999</ele><time>2026-04-25T15:53:28.498Z</time></trkpt><trkpt lat="45.2531059" lon="8.6636696"><ele>106.39999999999999</ele><time>2026-04-25T15:53:29.499Z</time></trkpt><trkpt lat="45.2530072" lon="8.6636758"><ele>106.6</ele><time>2026-04-25T15:53:30.499Z</time></trkpt><trkpt lat="45.2529025" lon="8.6637059"><ele>106.8</ele><time>2026-04-25T15:53:31.498Z</time></trkpt><trkpt lat="45.2527929" lon="8.6637506"><ele>107.0</ele><time>2026-04-25T15:53:32.499Z</time></trkpt><trkpt lat="45.2526905" lon="8.6638099"><ele>107.0</ele><time>2026-04-25T15:53:33.499Z</time></trkpt><trkpt lat="45.2525945" lon="8.6638867"><ele>107.0</ele><time>2026-04-25T15:53:34.498Z</time></trkpt><trkpt lat="45.2524958" lon="8.6639712"><ele>107.0</ele><time>2026-04-25T15:53:35.499Z</time></trkpt><trkpt lat="45.2523904" lon="8.6640438"><ele>107.0</ele><time>2026-04-25T15:53:36.498Z</time></trkpt><trkpt lat="45.2522737" lon="8.6640964"><ele>107.25</ele><time>2026-04-25T15:53:37.498Z</time></trkpt><trkpt lat="45.2521475" lon="8.6641426"><ele>107.5</ele><time>2026-04-25T15:53:38.499Z</time></trkpt><trkpt lat="45.2520189" lon="8.6641957"><ele>107.75</ele><time>2026-04-25T15:53:39.499Z</time></trkpt><trkpt lat="45.2518923" lon="8.6642598"><ele>108.0</ele><time>2026-04-25T15:53:40.499Z</time></trkpt><trkpt lat="45.2517738" lon="8.6643196"><ele>108.0</ele><time>2026-04-25T15:53:41.498Z</time></trkpt><trkpt lat="45.2516623" lon="8.664371"><ele>108.00000000000001</ele><time>2026-04-25T15:53:42.499Z</time></trkpt><trkpt lat="45.2515557" lon="8.6644123"><ele>108.00000000000001</ele><time>2026-04-25T15:53:43.499Z</time></trkpt><trkpt lat="45.2514629" lon="8.6644502"><ele>108.0</ele><time>2026-04-25T15:53:44.499Z</time></trkpt><trkpt lat="45.2513745" lon="8.6644889"><ele>108.0</ele><time>2026-04-25T15:53:45.499Z</time></trkpt><trkpt lat="45.2512926" lon="8.6645261"><ele>107.4</ele><time>2026-04-25T15:53:46.498Z</time></trkpt><trkpt lat="45.251209" lon="8.6645657"><ele>106.80000000000001</ele><time>2026-04-25T15:53:47.499Z</time></trkpt><trkpt lat="45.2511206" lon="8.6646104"><ele>106.2</ele><time>2026-04-25T15:53:48.499Z</time></trkpt><trkpt lat="45.2510327" lon="8.6646545"><ele>105.6</ele><time>2026-04-25T15:53:49.498Z</time></trkpt><trkpt lat="45.2509448" lon="8.6647033"><ele>105.0</ele><time>2026-04-25T15:53:50.498Z</time></trkpt><trkpt lat="45.250862" lon="8.6647559"><ele>105.0</ele><time>2026-04-25T15:53:51.499Z</time></trkpt><trkpt lat="45.2507894" lon="8.6647987"><ele>105.0</ele><time>2026-04-25T15:53:52.499Z</time></trkpt><trkpt lat="45.2507189" lon="8.6648379"><ele>105.0</ele><time>2026-04-25T15:53:53.499Z</time></trkpt><trkpt lat="45.2506482" lon="8.6648699"><ele>105.0</ele><time>2026-04-25T15:53:54.499Z</time></trkpt><trkpt lat="45.2505757" lon="8.664899"><ele>105.0</ele><time>2026-04-25T15:53:55.499Z</time></trkpt><trkpt lat="45.2505042" lon="8.6649297"><ele>105.0</ele><time>2026-04-25T15:53:56.499Z</time></trkpt><trkpt lat="45.2504341" lon="8.6649731"><ele>105.2</ele><time>2026-04-25T15:53:57.498Z</time></trkpt><trkpt lat="45.2503602" lon="8.6650307"><ele>105.4</ele><time>2026-04-25T15:53:58.499Z</time></trkpt><trkpt lat="45.2502857" lon="8.6651104"><ele>105.6</ele><time>2026-04-25T15:53:59.499Z</time></trkpt><trkpt lat="45.2502024" lon="8.6652077"><ele>105.8</ele><time>2026-04-25T15:54:00.498Z</time></trkpt><trkpt lat="45.25012" lon="8.6653188"><ele>106.0</ele><time>2026-04-25T15:54:01.499Z</time></trkpt><trkpt lat="45.2500285" lon="8.6654365"><ele>106.0</ele><time>2026-04-25T15:54:02.499Z</time></trkpt><trkpt lat="45.2499255" lon="8.6655599"><ele>106.0</ele><time>2026-04-25T15:54:03.498Z</time></trkpt><trkpt lat="45.2498196" lon="8.6656847"><ele>106.0</ele><time>2026-04-25T15:54:04.499Z</time></trkpt><trkpt lat="45.2497096" lon="8.6658102"><ele>106.0</ele><time>2026-04-25T15:54:05.498Z</time></trkpt><trkpt lat="45.2495989" lon="8.6659342"><ele>106.5</ele><time>2026-04-25T15:54:06.499Z</time></trkpt><trkpt lat="45.2494881" lon="8.6660505"><ele>107.0</ele><time>2026-04-25T15:54:07.498Z</time></trkpt><trkpt lat="45.2493775" lon="8.666174"><ele>107.5</ele><time>2026-04-25T15:54:08.499Z</time></trkpt><trkpt lat="45.2492569" lon="8.6663043"><ele>108.0</ele><time>2026-04-25T15:54:09.499Z</time></trkpt><trkpt lat="45.249135" lon="8.6664327"><ele>108.0</ele><time>2026-04-25T15:54:10.499Z</time></trkpt><trkpt lat="45.2490062" lon="8.6665673"><ele>108.0</ele><time>2026-04-25T15:54:11.499Z</time></trkpt><trkpt lat="45.2488782" lon="8.6667005"><ele>108.0</ele><time>2026-04-25T15:54:12.499Z</time></trkpt><trkpt lat="45.2487589" lon="8.6668284"><ele>108.75</ele><time>2026-04-25T15:54:13.498Z</time></trkpt><trkpt lat="45.2486448" lon="8.6669444"><ele>109.5</ele><time>2026-04-25T15:54:14.498Z</time></trkpt><trkpt lat="45.248535" lon="8.6670582"><ele>110.25</ele><time>2026-04-25T15:54:15.499Z</time></trkpt><trkpt lat="45.2484251" lon="8.6671737"><ele>111.0</ele><time>2026-04-25T15:54:16.499Z</time></trkpt><trkpt lat="45.2483225" lon="8.6672759"><ele>111.0</ele><time>2026-04-25T15:54:17.499Z</time></trkpt><trkpt lat="45.2482167" lon="8.6673703"><ele>111.0</ele><time>2026-04-25T15:54:18.499Z</time></trkpt><trkpt lat="45.2481133" lon="8.6674524"><ele>111.0</ele><time>2026-04-25T15:54:19.499Z</time></trkpt><trkpt lat="45.248009" lon="8.6675246"><ele>111.0</ele><time>2026-04-25T15:54:20.499Z</time></trkpt><trkpt lat="45.2479125" lon="8.6675852"><ele>111.0</ele><time>2026-04-25T15:54:21.499Z</time></trkpt><trkpt lat="45.2478236" lon="8.6676386"><ele>111.0</ele><time>2026-04-25T15:54:22.499Z</time></trkpt><trkpt lat="45.2477405" lon="8.6676842"><ele>111.0</ele><time>2026-04-25T15:54:23.498Z</time></trkpt><trkpt lat="45.2476724" lon="8.6677205"><ele>111.0</ele><time>2026-04-25T15:54:24.498Z</time></trkpt><trkpt lat="45.2475903" lon="8.6677686"><ele>111.0</ele><time>2026-04-25T15:54:26.498Z</time></trkpt><trkpt lat="45.247534" lon="8.6678172"><ele>111.0</ele><time>2026-04-25T15:55:25.499Z</time></trkpt><trkpt lat="45.2474931" lon="8.6679531"><ele>111.0</ele><time>2026-04-25T15:55:27.498Z</time></trkpt><trkpt lat="45.2474911" lon="8.6680691"><ele>111.0</ele><time>2026-04-25T15:55:28.498Z</time></trkpt><trkpt lat="45.2475001" lon="8.6682164"><ele>111.0</ele><time>2026-04-25T15:55:29.498Z</time></trkpt><trkpt lat="45.2475186" lon="8.6683923"><ele>111.0</ele><time>2026-04-25T15:55:30.499Z</time></trkpt><trkpt lat="45.2475402" lon="8.6685941"><ele>109.66666666666666</ele><time>2026-04-25T15:55:31.498Z</time></trkpt><trkpt lat="45.2475621" lon="8.6688396"><ele>108.33333333333333</ele><time>2026-04-25T15:55:32.499Z</time></trkpt><trkpt lat="45.2475871" lon="8.6691102"><ele>107.0</ele><time>2026-04-25T15:55:33.499Z</time></trkpt><trkpt lat="45.2476136" lon="8.6693966"><ele>107.0</ele><time>2026-04-25T15:55:34.499Z</time></trkpt><trkpt lat="45.2476365" lon="8.6696935"><ele>107.0</ele><time>2026-04-25T15:55:35.499Z</time></trkpt><trkpt lat="45.2476661" lon="8.6700042"><ele>107.0</ele><time>2026-04-25T15:55:36.499Z</time></trkpt><trkpt lat="45.2476938" lon="8.6703198"><ele>107.0</ele><time>2026-04-25T15:55:37.498Z</time></trkpt><trkpt lat="45.2477239" lon="8.670637"><ele>107.0</ele><time>2026-04-25T15:55:38.499Z</time></trkpt><trkpt lat="45.2477482" lon="8.6709579"><ele>108.0</ele><time>2026-04-25T15:55:39.498Z</time></trkpt><trkpt lat="45.2477741" lon="8.671285"><ele>109.0</ele><time>2026-04-25T15:55:40.499Z</time></trkpt><trkpt lat="45.2478025" lon="8.6716147"><ele>108.5</ele><time>2026-04-25T15:55:41.499Z</time></trkpt><trkpt lat="45.2478299" lon="8.6719442"><ele>108.0</ele><time>2026-04-25T15:55:42.499Z</time></trkpt><trkpt lat="45.2478579" lon="8.6722793"><ele>108.0</ele><time>2026-04-25T15:55:43.498Z</time></trkpt><trkpt lat="45.2478848" lon="8.6726141"><ele>108.0</ele><time>2026-04-25T15:55:44.499Z</time></trkpt><trkpt lat="45.2479147" lon="8.6729451"><ele>109.0</ele><time>2026-04-25T15:55:45.499Z</time></trkpt><trkpt lat="45.2479439" lon="8.6732684"><ele>110.0</ele><time>2026-04-25T15:55:46.499Z</time></trkpt><trkpt lat="45.2479743" lon="8.6735906"><ele>109.0</ele><time>2026-04-25T15:55:47.499Z</time></trkpt><trkpt lat="45.2480026" lon="8.6739087"><ele>108.0</ele><time>2026-04-25T15:55:48.499Z</time></trkpt><trkpt lat="45.2480345" lon="8.6742346"><ele>108.0</ele><time>2026-04-25T15:55:49.499Z</time></trkpt><trkpt lat="45.2480606" lon="8.6745623"><ele>108.0</ele><time>2026-04-25T15:55:50.498Z</time></trkpt><trkpt lat="45.2480903" lon="8.6748934"><ele>108.0</ele><time>2026-04-25T15:55:51.498Z</time></trkpt><trkpt lat="45.2481225" lon="8.6752313"><ele>108.0</ele><time>2026-04-25T15:55:52.499Z</time></trkpt><trkpt lat="45.2481593" lon="8.6755718"><ele>108.0</ele><time>2026-04-25T15:55:53.499Z</time></trkpt><trkpt lat="45.2481911" lon="8.6759168"><ele>108.0</ele><time>2026-04-25T15:55:54.499Z</time></trkpt><trkpt lat="45.2482275" lon="8.6762693"><ele>107.0</ele><time>2026-04-25T15:55:55.499Z</time></trkpt><trkpt lat="45.2482615" lon="8.676624"><ele>106.0</ele><time>2026-04-25T15:55:56.498Z</time></trkpt><trkpt lat="45.248294" lon="8.6769825"><ele>106.0</ele><time>2026-04-25T15:55:57.499Z</time></trkpt><trkpt lat="45.2483272" lon="8.6773442"><ele>106.0</ele><time>2026-04-25T15:55:58.499Z</time></trkpt><trkpt lat="45.2483601" lon="8.6777093"><ele>105.5</ele><time>2026-04-25T15:55:59.499Z</time></trkpt><trkpt lat="45.2483952" lon="8.678074"><ele>105.0</ele><time>2026-04-25T15:56:00.499Z</time></trkpt><trkpt lat="45.248434" lon="8.6784356"><ele>106.0</ele><time>2026-04-25T15:56:01.499Z</time></trkpt><trkpt lat="45.2484787" lon="8.6787976"><ele>107.0</ele><time>2026-04-25T15:56:02.499Z</time></trkpt><trkpt lat="45.2485294" lon="8.679163"><ele>107.0</ele><time>2026-04-25T15:56:03.499Z</time></trkpt><trkpt lat="45.2485834" lon="8.6795312"><ele>107.0</ele><time>2026-04-25T15:56:04.499Z</time></trkpt><trkpt lat="45.2486398" lon="8.6798958"><ele>107.0</ele><time>2026-04-25T15:56:05.498Z</time></trkpt><trkpt lat="45.2487029" lon="8.6802617"><ele>107.0</ele><time>2026-04-25T15:56:06.498Z</time></trkpt><trkpt lat="45.2487695" lon="8.6806323"><ele>107.0</ele><time>2026-04-25T15:56:07.498Z</time></trkpt><trkpt lat="45.2488327" lon="8.6810233"><ele>107.0</ele><time>2026-04-25T15:56:08.499Z</time></trkpt><trkpt lat="45.2488903" lon="8.6814076"><ele>106.5</ele><time>2026-04-25T15:56:09.499Z</time></trkpt><trkpt lat="45.24895" lon="8.6817855"><ele>106.0</ele><time>2026-04-25T15:56:10.499Z</time></trkpt><trkpt lat="45.2490112" lon="8.6821398"><ele>106.0</ele><time>2026-04-25T15:56:11.499Z</time></trkpt><trkpt lat="45.2490702" lon="8.6824824"><ele>106.0</ele><time>2026-04-25T15:56:12.499Z</time></trkpt><trkpt lat="45.249128" lon="8.6828157"><ele>106.5</ele><time>2026-04-25T15:56:13.499Z</time></trkpt><trkpt lat="45.2491884" lon="8.6831458"><ele>107.0</ele><time>2026-04-25T15:56:14.499Z</time></trkpt><trkpt lat="45.2492454" lon="8.683472"><ele>107.0</ele><time>2026-04-25T15:56:15.499Z</time></trkpt><trkpt lat="45.2493023" lon="8.6837959"><ele>107.0</ele><time>2026-04-25T15:56:16.499Z</time></trkpt><trkpt lat="45.2493583" lon="8.684123"><ele>107.5</ele><time>2026-04-25T15:56:17.499Z</time></trkpt><trkpt lat="45.2494124" lon="8.6844497"><ele>108.0</ele><time>2026-04-25T15:56:18.499Z</time></trkpt><trkpt lat="45.2494677" lon="8.6847757"><ele>108.0</ele><time>2026-04-25T15:56:19.499Z</time></trkpt><trkpt lat="45.2495179" lon="8.6850986"><ele>108.0</ele><time>2026-04-25T15:56:20.499Z</time></trkpt><trkpt lat="45.2495653" lon="8.6854111"><ele>108.0</ele><time>2026-04-25T15:56:21.499Z</time></trkpt><trkpt lat="45.2496155" lon="8.6857208"><ele>108.0</ele><time>2026-04-25T15:56:22.499Z</time></trkpt><trkpt lat="45.2496575" lon="8.6860242"><ele>108.0</ele><time>2026-04-25T15:56:23.499Z</time></trkpt><trkpt lat="45.2496938" lon="8.6863291"><ele>107.66666666666666</ele><time>2026-04-25T15:56:24.499Z</time></trkpt><trkpt lat="45.2497244" lon="8.686631"><ele>107.33333333333333</ele><time>2026-04-25T15:56:25.499Z</time></trkpt><trkpt lat="45.2497478" lon="8.6869339"><ele>107.0</ele><time>2026-04-25T15:56:26.499Z</time></trkpt><trkpt lat="45.2497633" lon="8.6872381"><ele>107.0</ele><time>2026-04-25T15:56:27.499Z</time></trkpt><trkpt lat="45.2497753" lon="8.6875481"><ele>107.0</ele><time>2026-04-25T15:56:28.499Z</time></trkpt><trkpt lat="45.2497864" lon="8.687863"><ele>107.0</ele><time>2026-04-25T15:56:29.498Z</time></trkpt><trkpt lat="45.2497943" lon="8.6881693"><ele>107.33333333333333</ele><time>2026-04-25T15:56:30.499Z</time></trkpt><trkpt lat="45.2498002" lon="8.688483"><ele>107.66666666666666</ele><time>2026-04-25T15:56:31.499Z</time></trkpt><trkpt lat="45.2498076" lon="8.6887986"><ele>108.0</ele><time>2026-04-25T15:56:32.498Z</time></trkpt><trkpt lat="45.2498114" lon="8.6891173"><ele>109.0</ele><time>2026-04-25T15:56:33.498Z</time></trkpt><trkpt lat="45.2498129" lon="8.6894387"><ele>110.0</ele><time>2026-04-25T15:56:34.499Z</time></trkpt><trkpt lat="45.2498149" lon="8.6897565"><ele>110.0</ele><time>2026-04-25T15:56:35.499Z</time></trkpt><trkpt lat="45.2498116" lon="8.6900736"><ele>110.0</ele><time>2026-04-25T15:56:36.498Z</time></trkpt><trkpt lat="45.2498037" lon="8.6903913"><ele>110.0</ele><time>2026-04-25T15:56:37.498Z</time></trkpt><trkpt lat="45.2497969" lon="8.6907128"><ele>109.0</ele><time>2026-04-25T15:56:38.499Z</time></trkpt><trkpt lat="45.249793" lon="8.6910358"><ele>108.0</ele><time>2026-04-25T15:56:39.499Z</time></trkpt><trkpt lat="45.2497863" lon="8.6913577"><ele>107.5</ele><time>2026-04-25T15:56:40.499Z</time></trkpt><trkpt lat="45.2497746" lon="8.6916831"><ele>107.0</ele><time>2026-04-25T15:56:41.499Z</time></trkpt><trkpt lat="45.2497521" lon="8.6920104"><ele>107.0</ele><time>2026-04-25T15:56:42.499Z</time></trkpt><trkpt lat="45.2497249" lon="8.6923397"><ele>107.0</ele><time>2026-04-25T15:56:43.499Z</time></trkpt><trkpt lat="45.2496968" lon="8.6926743"><ele>106.5</ele><time>2026-04-25T15:56:44.499Z</time></trkpt><trkpt lat="45.2496621" lon="8.6930264"><ele>106.0</ele><time>2026-04-25T15:56:45.499Z</time></trkpt><trkpt lat="45.2496192" lon="8.6933805"><ele>105.5</ele><time>2026-04-25T15:56:46.498Z</time></trkpt><trkpt lat="45.2495766" lon="8.6937431"><ele>105.0</ele><time>2026-04-25T15:56:47.498Z</time></trkpt><trkpt lat="45.2495295" lon="8.6941087"><ele>106.0</ele><time>2026-04-25T15:56:48.499Z</time></trkpt><trkpt lat="45.2494857" lon="8.6944808"><ele>107.0</ele><time>2026-04-25T15:56:49.499Z</time></trkpt><trkpt lat="45.2494387" lon="8.6948541"><ele>107.0</ele><time>2026-04-25T15:56:50.499Z</time></trkpt><trkpt lat="45.2493952" lon="8.695231"><ele>107.0</ele><time>2026-04-25T15:56:51.498Z</time></trkpt><trkpt lat="45.2493522" lon="8.6956048"><ele>107.0</ele><time>2026-04-25T15:56:52.499Z</time></trkpt><trkpt lat="45.2493095" lon="8.6959807"><ele>107.0</ele><time>2026-04-25T15:56:53.498Z</time></trkpt><trkpt lat="45.2492665" lon="8.6963512"><ele>106.5</ele><time>2026-04-25T15:56:54.499Z</time></trkpt><trkpt lat="45.2492223" lon="8.6967255"><ele>106.0</ele><time>2026-04-25T15:56:55.499Z</time></trkpt><trkpt lat="45.2491803" lon="8.6971004"><ele>106.0</ele><time>2026-04-25T15:56:56.498Z</time></trkpt><trkpt lat="45.2491362" lon="8.6974733"><ele>106.0</ele><time>2026-04-25T15:56:57.499Z</time></trkpt><trkpt lat="45.249094" lon="8.6978479"><ele>106.0</ele><time>2026-04-25T15:56:58.499Z</time></trkpt><trkpt lat="45.2490478" lon="8.6982214"><ele>106.0</ele><time>2026-04-25T15:56:59.499Z</time></trkpt><trkpt lat="45.2490065" lon="8.6985956"><ele>105.5</ele><time>2026-04-25T15:57:00.499Z</time></trkpt><trkpt lat="45.2489685" lon="8.6989723"><ele>105.0</ele><time>2026-04-25T15:57:01.498Z</time></trkpt><trkpt lat="45.2489342" lon="8.6993537"><ele>106.5</ele><time>2026-04-25T15:57:02.499Z</time></trkpt><trkpt lat="45.2489055" lon="8.6997347"><ele>108.0</ele><time>2026-04-25T15:57:03.498Z</time></trkpt><trkpt lat="45.2488849" lon="8.7001181"><ele>108.0</ele><time>2026-04-25T15:57:04.499Z</time></trkpt><trkpt lat="45.2488677" lon="8.7004987"><ele>108.0</ele><time>2026-04-25T15:57:05.499Z</time></trkpt><trkpt lat="45.2488574" lon="8.7008832"><ele>107.0</ele><time>2026-04-25T15:57:06.499Z</time></trkpt><trkpt lat="45.248853" lon="8.7012662"><ele>106.0</ele><time>2026-04-25T15:57:07.499Z</time></trkpt><trkpt lat="45.2488543" lon="8.7016479"><ele>105.5</ele><time>2026-04-25T15:57:08.498Z</time></trkpt><trkpt lat="45.2488556" lon="8.7020272"><ele>105.0</ele><time>2026-04-25T15:57:09.499Z</time></trkpt><trkpt lat="45.2488575" lon="8.7024045"><ele>105.5</ele><time>2026-04-25T15:57:10.498Z</time></trkpt><trkpt lat="45.2488554" lon="8.7027784"><ele>106.0</ele><time>2026-04-25T15:57:11.499Z</time></trkpt><trkpt lat="45.2488469" lon="8.7031469"><ele>106.0</ele><time>2026-04-25T15:57:12.499Z</time></trkpt><trkpt lat="45.2488343" lon="8.7035126"><ele>106.0</ele><time>2026-04-25T15:57:13.499Z</time></trkpt><trkpt lat="45.2488161" lon="8.703876"><ele>106.0</ele><time>2026-04-25T15:57:14.498Z</time></trkpt><trkpt lat="45.2487915" lon="8.704237"><ele>106.0</ele><time>2026-04-25T15:57:15.499Z</time></trkpt><trkpt lat="45.248764" lon="8.7045962"><ele>106.5</ele><time>2026-04-25T15:57:16.499Z</time></trkpt><trkpt lat="45.2487413" lon="8.7049542"><ele>107.0</ele><time>2026-04-25T15:57:17.498Z</time></trkpt><trkpt lat="45.2487189" lon="8.7053048"><ele>107.0</ele><time>2026-04-25T15:57:18.499Z</time></trkpt><trkpt lat="45.2486971" lon="8.705652"><ele>107.0</ele><time>2026-04-25T15:57:19.498Z</time></trkpt><trkpt lat="45.2486781" lon="8.7059785"><ele>106.5</ele><time>2026-04-25T15:57:20.498Z</time></trkpt><trkpt lat="45.2486598" lon="8.7063067"><ele>106.0</ele><time>2026-04-25T15:57:21.499Z</time></trkpt><trkpt lat="45.2486407" lon="8.7066431"><ele>107.5</ele><time>2026-04-25T15:57:22.499Z</time></trkpt><trkpt lat="45.2486183" lon="8.7069841"><ele>109.0</ele><time>2026-04-25T15:57:23.499Z</time></trkpt><trkpt lat="45.2485964" lon="8.7073398"><ele>109.0</ele><time>2026-04-25T15:57:24.499Z</time></trkpt><trkpt lat="45.2485602" lon="8.7076969"><ele>109.0</ele><time>2026-04-25T15:57:25.499Z</time></trkpt><trkpt lat="45.2485197" lon="8.7080553"><ele>108.5</ele><time>2026-04-25T15:57:26.498Z</time></trkpt><trkpt lat="45.2484768" lon="8.7084168"><ele>108.0</ele><time>2026-04-25T15:57:27.499Z</time></trkpt><trkpt lat="45.2484376" lon="8.7087795"><ele>108.0</ele><time>2026-04-25T15:57:28.499Z</time></trkpt><trkpt lat="45.2483985" lon="8.7091438"><ele>108.0</ele><time>2026-04-25T15:57:29.499Z</time></trkpt><trkpt lat="45.2483589" lon="8.7094983"><ele>109.0</ele><time>2026-04-25T15:57:30.498Z</time></trkpt><trkpt lat="45.2483219" lon="8.7098304"><ele>110.0</ele><time>2026-04-25T15:57:31.499Z</time></trkpt><trkpt lat="45.2482849" lon="8.7101689"><ele>110.0</ele><time>2026-04-25T15:57:32.499Z</time></trkpt><trkpt lat="45.2482495" lon="8.7105033"><ele>110.0</ele><time>2026-04-25T15:57:33.498Z</time></trkpt><trkpt lat="45.2482145" lon="8.7108199"><ele>110.66666666666666</ele><time>2026-04-25T15:57:34.499Z</time></trkpt><trkpt lat="45.2481849" lon="8.7111224"><ele>111.33333333333334</ele><time>2026-04-25T15:57:35.499Z</time></trkpt><trkpt lat="45.2481579" lon="8.7114091"><ele>112.0</ele><time>2026-04-25T15:57:36.498Z</time></trkpt><trkpt lat="45.2481443" lon="8.7116889"><ele>112.33333333333334</ele><time>2026-04-25T15:57:37.499Z</time></trkpt><trkpt lat="45.2481522" lon="8.7119676"><ele>112.66666666666666</ele><time>2026-04-25T15:57:38.498Z</time></trkpt><trkpt lat="45.2482019" lon="8.7122452"><ele>113.0</ele><time>2026-04-25T15:57:39.499Z</time></trkpt><trkpt lat="45.2482851" lon="8.7124923"><ele>113.0</ele><time>2026-04-25T15:57:40.498Z</time></trkpt><trkpt lat="45.2483909" lon="8.7127055"><ele>113.0</ele><time>2026-04-25T15:57:41.499Z</time></trkpt><trkpt lat="45.248512" lon="8.712879"><ele>113.0</ele><time>2026-04-25T15:57:42.498Z</time></trkpt><trkpt lat="45.248625" lon="8.7130226"><ele>112.75</ele><time>2026-04-25T15:57:43.499Z</time></trkpt><trkpt lat="45.24872" lon="8.7131642"><ele>112.5</ele><time>2026-04-25T15:57:44.499Z</time></trkpt><trkpt lat="45.248781" lon="8.7133098"><ele>112.25</ele><time>2026-04-25T15:57:45.499Z</time></trkpt><trkpt lat="45.2488047" lon="8.7134593"><ele>112.0</ele><time>2026-04-25T15:57:46.499Z</time></trkpt><trkpt lat="45.2487896" lon="8.7136136"><ele>111.39999999999999</ele><time>2026-04-25T15:57:47.498Z</time></trkpt><trkpt lat="45.2487485" lon="8.7137342"><ele>110.79999999999998</ele><time>2026-04-25T15:57:48.499Z</time></trkpt><trkpt lat="45.2486788" lon="8.7138225"><ele>110.2</ele><time>2026-04-25T15:57:49.499Z</time></trkpt><trkpt lat="45.2485814" lon="8.7138729"><ele>109.6</ele><time>2026-04-25T15:57:50.498Z</time></trkpt><trkpt lat="45.2484673" lon="8.7139025"><ele>109.0</ele><time>2026-04-25T15:57:51.499Z</time></trkpt><trkpt lat="45.2483546" lon="8.7139558"><ele>109.0</ele><time>2026-04-25T15:57:52.499Z</time></trkpt><trkpt lat="45.2482568" lon="8.714052"><ele>109.0</ele><time>2026-04-25T15:57:53.499Z</time></trkpt><trkpt lat="45.2481885" lon="8.7141781"><ele>109.0</ele><time>2026-04-25T15:57:54.499Z</time></trkpt><trkpt lat="45.2481548" lon="8.7143268"><ele>109.0</ele><time>2026-04-25T15:57:55.499Z</time></trkpt><trkpt lat="45.2481574" lon="8.7144781"><ele>109.0</ele><time>2026-04-25T15:57:56.499Z</time></trkpt><trkpt lat="45.2481998" lon="8.7146164"><ele>108.75</ele><time>2026-04-25T15:57:57.499Z</time></trkpt><trkpt lat="45.248271" lon="8.7147329"><ele>108.5</ele><time>2026-04-25T15:57:58.499Z</time></trkpt><trkpt lat="45.2483671" lon="8.714814"><ele>108.25</ele><time>2026-04-25T15:57:59.499Z</time></trkpt><trkpt lat="45.2484779" lon="8.7148442"><ele>108.0</ele><time>2026-04-25T15:58:00.499Z</time></trkpt><trkpt lat="45.2485937" lon="8.7148228"><ele>108.0</ele><time>2026-04-25T15:58:01.498Z</time></trkpt><trkpt lat="45.2487018" lon="8.7147738"><ele>108.00000000000001</ele><time>2026-04-25T15:58:02.498Z</time></trkpt><trkpt lat="45.2488023" lon="8.7147289"><ele>108.00000000000001</ele><time>2026-04-25T15:58:03.499Z</time></trkpt><trkpt lat="45.2488927" lon="8.7146912"><ele>108.0</ele><time>2026-04-25T15:58:04.499Z</time></trkpt><trkpt lat="45.248983" lon="8.714684"><ele>108.0</ele><time>2026-04-25T15:58:05.499Z</time></trkpt><trkpt lat="45.2490746" lon="8.7146994"><ele>108.0</ele><time>2026-04-25T15:58:06.498Z</time></trkpt><trkpt lat="45.2491659" lon="8.7147186"><ele>108.00000000000001</ele><time>2026-04-25T15:58:07.499Z</time></trkpt><trkpt lat="45.2492599" lon="8.7147348"><ele>108.00000000000001</ele><time>2026-04-25T15:58:08.499Z</time></trkpt><trkpt lat="45.24935" lon="8.7147421"><ele>108.0</ele><time>2026-04-25T15:58:09.499Z</time></trkpt><trkpt lat="45.2494438" lon="8.7147439"><ele>108.0</ele><time>2026-04-25T15:58:10.499Z</time></trkpt><trkpt lat="45.2495352" lon="8.7147371"><ele>108.0</ele><time>2026-04-25T15:58:11.499Z</time></trkpt><trkpt lat="45.2496213" lon="8.7147153"><ele>108.0</ele><time>2026-04-25T15:58:12.499Z</time></trkpt><trkpt lat="45.2496975" lon="8.714689"><ele>108.0</ele><time>2026-04-25T15:58:13.498Z</time></trkpt><trkpt lat="45.2497714" lon="8.7146672"><ele>108.0</ele><time>2026-04-25T15:58:14.498Z</time></trkpt><trkpt lat="45.2498374" lon="8.7146554"><ele>108.0</ele><time>2026-04-25T15:58:15.499Z</time></trkpt><trkpt lat="45.2499519" lon="8.7146363"><ele>108.0</ele><time>2026-04-25T15:58:17.498Z</time></trkpt><trkpt lat="45.2500517" lon="8.7146401"><ele>107.66666666666667</ele><time>2026-04-25T15:58:19.499Z</time></trkpt><trkpt lat="45.2501357" lon="8.7146468"><ele>107.33333333333334</ele><time>2026-04-25T15:58:21.499Z</time></trkpt><trkpt lat="45.2502069" lon="8.7146287"><ele>107.0</ele><time>2026-04-25T15:58:23.499Z</time></trkpt><trkpt lat="45.2502972" lon="8.7146227"><ele>106.66666666666667</ele><time>2026-04-25T15:58:26.498Z</time></trkpt><trkpt lat="45.25039" lon="8.7146187"><ele>106.33333333333334</ele><time>2026-04-25T15:58:29.499Z</time></trkpt><trkpt lat="45.2504572" lon="8.7146127"><ele>106.0</ele><time>2026-04-25T15:58:31.499Z</time></trkpt><trkpt lat="45.2505225" lon="8.7145958"><ele>106.0</ele><time>2026-04-25T15:58:35.498Z</time></trkpt><trkpt lat="45.2504337" lon="8.7145376"><ele>106.0</ele><time>2026-04-25T15:58:39.498Z</time></trkpt><trkpt lat="45.2503353" lon="8.7145561"><ele>106.0</ele><time>2026-04-25T15:58:40.498Z</time></trkpt><trkpt lat="45.2502028" lon="8.7145792"><ele>106.0</ele><time>2026-04-25T15:58:41.498Z</time></trkpt><trkpt lat="45.2500415" lon="8.7146086"><ele>106.0</ele><time>2026-04-25T15:58:42.499Z</time></trkpt><trkpt lat="45.2498609" lon="8.7146366"><ele>106.0</ele><time>2026-04-25T15:58:43.499Z</time></trkpt><trkpt lat="45.249672" lon="8.7146674"><ele>106.0</ele><time>2026-04-25T15:58:44.498Z</time></trkpt><trkpt lat="45.2494998" lon="8.7146889"><ele>106.66666666666667</ele><time>2026-04-25T15:58:45.499Z</time></trkpt><trkpt lat="45.2493358" lon="8.7146898"><ele>107.33333333333334</ele><time>2026-04-25T15:58:46.499Z</time></trkpt><trkpt lat="45.2491874" lon="8.7146595"><ele>108.0</ele><time>2026-04-25T15:58:47.498Z</time></trkpt><trkpt lat="45.2490547" lon="8.7146065"><ele>108.0</ele><time>2026-04-25T15:58:48.499Z</time></trkpt><trkpt lat="45.2489493" lon="8.7145346"><ele>108.0</ele><time>2026-04-25T15:58:49.499Z</time></trkpt><trkpt lat="45.2488759" lon="8.7144323"><ele>108.0</ele><time>2026-04-25T15:58:50.498Z</time></trkpt><trkpt lat="45.2488199" lon="8.7142911"><ele>108.0</ele><time>2026-04-25T15:58:51.499Z</time></trkpt><trkpt lat="45.2487578" lon="8.7141441"><ele>108.2</ele><time>2026-04-25T15:58:52.498Z</time></trkpt><trkpt lat="45.2486782" lon="8.7140258"><ele>108.4</ele><time>2026-04-25T15:58:53.499Z</time></trkpt><trkpt lat="45.2485859" lon="8.7139523"><ele>108.60000000000001</ele><time>2026-04-25T15:58:54.499Z</time></trkpt><trkpt lat="45.2484735" lon="8.7139281"><ele>108.80000000000001</ele><time>2026-04-25T15:58:55.499Z</time></trkpt><trkpt lat="45.2483654" lon="8.7139468"><ele>109.0</ele><time>2026-04-25T15:58:56.499Z</time></trkpt><trkpt lat="45.2482669" lon="8.714028"><ele>109.0</ele><time>2026-04-25T15:58:57.498Z</time></trkpt><trkpt lat="45.2481945" lon="8.714158"><ele>109.0</ele><time>2026-04-25T15:58:58.499Z</time></trkpt><trkpt lat="45.2481525" lon="8.7143129"><ele>109.0</ele><time>2026-04-25T15:58:59.499Z</time></trkpt><trkpt lat="45.2481541" lon="8.7144748"><ele>109.0</ele><time>2026-04-25T15:59:00.498Z</time></trkpt><trkpt lat="45.2481994" lon="8.7146305"><ele>108.75</ele><time>2026-04-25T15:59:01.499Z</time></trkpt><trkpt lat="45.2482814" lon="8.7147652"><ele>108.5</ele><time>2026-04-25T15:59:02.498Z</time></trkpt><trkpt lat="45.2483813" lon="8.7148649"><ele>108.25</ele><time>2026-04-25T15:59:03.498Z</time></trkpt><trkpt lat="45.2484715" lon="8.7149533"><ele>108.0</ele><time>2026-04-25T15:59:04.498Z</time></trkpt><trkpt lat="45.2485506" lon="8.7150796"><ele>107.5</ele><time>2026-04-25T15:59:05.499Z</time></trkpt><trkpt lat="45.2486185" lon="8.7152475"><ele>107.0</ele><time>2026-04-25T15:59:06.498Z</time></trkpt><trkpt lat="45.2486732" lon="8.7154536"><ele>106.5</ele><time>2026-04-25T15:59:07.499Z</time></trkpt><trkpt lat="45.248714" lon="8.7156614"><ele>106.0</ele><time>2026-04-25T15:59:08.499Z</time></trkpt><trkpt lat="45.2487551" lon="8.7158762"><ele>107.33333333333334</ele><time>2026-04-25T15:59:09.499Z</time></trkpt><trkpt lat="45.2487973" lon="8.7160959"><ele>108.66666666666666</ele><time>2026-04-25T15:59:10.499Z</time></trkpt><trkpt lat="45.2488403" lon="8.716323"><ele>110.0</ele><time>2026-04-25T15:59:11.499Z</time></trkpt><trkpt lat="45.2488792" lon="8.7165327"><ele>110.0</ele><time>2026-04-25T15:59:12.499Z</time></trkpt><trkpt lat="45.2489148" lon="8.7167412"><ele>110.0</ele><time>2026-04-25T15:59:13.499Z</time></trkpt><trkpt lat="45.2489518" lon="8.7169496"><ele>110.0</ele><time>2026-04-25T15:59:14.498Z</time></trkpt><trkpt lat="45.2489926" lon="8.7171688"><ele>109.66666666666666</ele><time>2026-04-25T15:59:15.498Z</time></trkpt><trkpt lat="45.2490331" lon="8.7173841"><ele>109.33333333333334</ele><time>2026-04-25T15:59:16.499Z</time></trkpt><trkpt lat="45.2490748" lon="8.7176056"><ele>109.0</ele><time>2026-04-25T15:59:17.499Z</time></trkpt><trkpt lat="45.2491164" lon="8.7178249"><ele>109.0</ele><time>2026-04-25T15:59:18.499Z</time></trkpt><trkpt lat="45.2491584" lon="8.7180316"><ele>109.0</ele><time>2026-04-25T15:59:19.498Z</time></trkpt><trkpt lat="45.2491997" lon="8.7182374"><ele>109.0</ele><time>2026-04-25T15:59:20.498Z</time></trkpt><trkpt lat="45.2492295" lon="8.718411"><ele>109.0</ele><time>2026-04-25T15:59:21.499Z</time></trkpt><trkpt lat="45.2492586" lon="8.7185745"><ele>108.6</ele><time>2026-04-25T15:59:22.498Z</time></trkpt><trkpt lat="45.2492858" lon="8.7187249"><ele>108.2</ele><time>2026-04-25T15:59:23.499Z</time></trkpt><trkpt lat="45.2493071" lon="8.7188762"><ele>107.79999999999998</ele><time>2026-04-25T15:59:24.499Z</time></trkpt><trkpt lat="45.2493263" lon="8.7190256"><ele>107.39999999999999</ele><time>2026-04-25T15:59:25.499Z</time></trkpt><trkpt lat="45.249335" lon="8.7191616"><ele>107.0</ele><time>2026-04-25T15:59:26.499Z</time></trkpt><trkpt lat="45.2493262" lon="8.7192914"><ele>107.25</ele><time>2026-04-25T15:59:27.498Z</time></trkpt><trkpt lat="45.2493098" lon="8.7194201"><ele>107.5</ele><time>2026-04-25T15:59:28.498Z</time></trkpt><trkpt lat="45.2492975" lon="8.7195574"><ele>107.75</ele><time>2026-04-25T15:59:29.499Z</time></trkpt><trkpt lat="45.2492858" lon="8.7197353"><ele>108.0</ele><time>2026-04-25T15:59:30.499Z</time></trkpt><trkpt lat="45.2492582" lon="8.7199434"><ele>108.0</ele><time>2026-04-25T15:59:31.499Z</time></trkpt><trkpt lat="45.2491988" lon="8.7201727"><ele>108.0</ele><time>2026-04-25T15:59:32.499Z</time></trkpt><trkpt lat="45.249122" lon="8.7204073"><ele>108.0</ele><time>2026-04-25T15:59:33.498Z</time></trkpt><trkpt lat="45.2490215" lon="8.7206637"><ele>108.0</ele><time>2026-04-25T15:59:34.498Z</time></trkpt><trkpt lat="45.2489161" lon="8.7209412"><ele>108.0</ele><time>2026-04-25T15:59:35.499Z</time></trkpt><trkpt lat="45.2487995" lon="8.7212351"><ele>108.0</ele><time>2026-04-25T15:59:36.499Z</time></trkpt><trkpt lat="45.2486825" lon="8.7215388"><ele>108.0</ele><time>2026-04-25T15:59:37.499Z</time></trkpt><trkpt lat="45.2485659" lon="8.721854"><ele>108.0</ele><time>2026-04-25T15:59:38.498Z</time></trkpt><trkpt lat="45.2484517" lon="8.7221735"><ele>108.0</ele><time>2026-04-25T15:59:39.499Z</time></trkpt><trkpt lat="45.248342" lon="8.7224972"><ele>109.0</ele><time>2026-04-25T15:59:40.499Z</time></trkpt><trkpt lat="45.2482386" lon="8.7228295"><ele>110.0</ele><time>2026-04-25T15:59:41.499Z</time></trkpt><trkpt lat="45.2481402" lon="8.7231506"><ele>110.0</ele><time>2026-04-25T15:59:42.499Z</time></trkpt><trkpt lat="45.2480485" lon="8.7234562"><ele>110.0</ele><time>2026-04-25T15:59:43.499Z</time></trkpt><trkpt lat="45.2479633" lon="8.7237357"><ele>110.0</ele><time>2026-04-25T15:59:44.499Z</time></trkpt><trkpt lat="45.2478861" lon="8.7239774"><ele>110.0</ele><time>2026-04-25T15:59:45.499Z</time></trkpt><trkpt lat="45.2478189" lon="8.7241928"><ele>110.0</ele><time>2026-04-25T15:59:46.499Z</time></trkpt><trkpt lat="45.2477612" lon="8.7243806"><ele>110.0</ele><time>2026-04-25T15:59:47.499Z</time></trkpt><trkpt lat="45.2477118" lon="8.7245416"><ele>110.0</ele><time>2026-04-25T15:59:48.499Z</time></trkpt><trkpt lat="45.2476726" lon="8.7246692"><ele>109.8</ele><time>2026-04-25T15:59:49.499Z</time></trkpt><trkpt lat="45.2476491" lon="8.7247538"><ele>109.6</ele><time>2026-04-25T15:59:50.499Z</time></trkpt><trkpt lat="45.2476087" lon="8.7248595"><ele>109.4</ele><time>2026-04-25T16:00:01.499Z</time></trkpt><trkpt lat="45.2475548" lon="8.7250187"><ele>109.2</ele><time>2026-04-25T16:00:03.499Z</time></trkpt><trkpt lat="45.2475231" lon="8.7251371"><ele>109.0</ele><time>2026-04-25T16:00:04.498Z</time></trkpt><trkpt lat="45.2474879" lon="8.725263"><ele>108.5</ele><time>2026-04-25T16:00:05.499Z</time></trkpt><trkpt lat="45.2474486" lon="8.7254007"><ele>108.0</ele><time>2026-04-25T16:00:06.498Z</time></trkpt><trkpt lat="45.2473993" lon="8.7255649"><ele>107.5</ele><time>2026-04-25T16:00:07.499Z</time></trkpt><trkpt lat="45.2473445" lon="8.7257518"><ele>107.0</ele><time>2026-04-25T16:00:08.499Z</time></trkpt><trkpt lat="45.2472851" lon="8.7259522"><ele>107.33333333333333</ele><time>2026-04-25T16:00:09.499Z</time></trkpt><trkpt lat="45.2472235" lon="8.7261575"><ele>107.66666666666666</ele><time>2026-04-25T16:00:10.499Z</time></trkpt><trkpt lat="45.2471659" lon="8.7263557"><ele>108.0</ele><time>2026-04-25T16:00:11.499Z</time></trkpt><trkpt lat="45.24711" lon="8.726542"><ele>108.0</ele><time>2026-04-25T16:00:12.499Z</time></trkpt><trkpt lat="45.2470632" lon="8.726715"><ele>108.00000000000001</ele><time>2026-04-25T16:00:13.498Z</time></trkpt><trkpt lat="45.247017" lon="8.7268674"><ele>108.00000000000001</ele><time>2026-04-25T16:00:14.499Z</time></trkpt><trkpt lat="45.2469849" lon="8.7269929"><ele>108.0</ele><time>2026-04-25T16:00:15.499Z</time></trkpt><trkpt lat="45.2469715" lon="8.7270832"><ele>108.0</ele><time>2026-04-25T16:00:16.498Z</time></trkpt><trkpt lat="45.2469953" lon="8.7271793"><ele>108.0</ele><time>2026-04-25T16:00:18.499Z</time></trkpt><trkpt lat="45.2470835" lon="8.7271847"><ele>108.00000000000001</ele><time>2026-04-25T16:00:20.498Z</time></trkpt><trkpt lat="45.2471519" lon="8.7271641"><ele>108.00000000000001</ele><time>2026-04-25T16:00:21.498Z</time></trkpt><trkpt lat="45.2472342" lon="8.7271299"><ele>108.0</ele><time>2026-04-25T16:00:22.498Z</time></trkpt><trkpt lat="45.2473332" lon="8.7270917"><ele>108.0</ele><time>2026-04-25T16:00:23.499Z</time></trkpt><trkpt lat="45.2474535" lon="8.7270497"><ele>108.33333333333334</ele><time>2026-04-25T16:00:24.499Z</time></trkpt><trkpt lat="45.2475872" lon="8.7270009"><ele>108.66666666666667</ele><time>2026-04-25T16:00:25.498Z</time></trkpt><trkpt lat="45.2477391" lon="8.7269474"><ele>109.0</ele><time>2026-04-25T16:00:26.499Z</time></trkpt><trkpt lat="45.2479114" lon="8.7268801"><ele>109.0</ele><time>2026-04-25T16:00:27.499Z</time></trkpt><trkpt lat="45.248093" lon="8.7268112"><ele>109.0</ele><time>2026-04-25T16:00:28.499Z</time></trkpt><trkpt lat="45.2482756" lon="8.7267461"><ele>109.0</ele><time>2026-04-25T16:00:29.499Z</time></trkpt><trkpt lat="45.2484522" lon="8.7266831"><ele>109.0</ele><time>2026-04-25T16:00:30.499Z</time></trkpt><trkpt lat="45.2486177" lon="8.7266182"><ele>109.0</ele><time>2026-04-25T16:00:31.499Z</time></trkpt><trkpt lat="45.2487801" lon="8.726552"><ele>109.0</ele><time>2026-04-25T16:00:32.498Z</time></trkpt><trkpt lat="45.2489403" lon="8.7264829"><ele>109.0</ele><time>2026-04-25T16:00:33.498Z</time></trkpt><trkpt lat="45.2491054" lon="8.7264135"><ele>109.0</ele><time>2026-04-25T16:00:34.499Z</time></trkpt><trkpt lat="45.2492731" lon="8.7263439"><ele>109.0</ele><time>2026-04-25T16:00:35.499Z</time></trkpt><trkpt lat="45.2494357" lon="8.7262767"><ele>109.0</ele><time>2026-04-25T16:00:36.499Z</time></trkpt><trkpt lat="45.2495899" lon="8.7262078"><ele>109.0</ele><time>2026-04-25T16:00:37.499Z</time></trkpt><trkpt lat="45.2497292" lon="8.7261626"><ele>109.0</ele><time>2026-04-25T16:00:38.499Z</time></trkpt><trkpt lat="45.2498531" lon="8.7261315"><ele>109.0</ele><time>2026-04-25T16:00:39.498Z</time></trkpt><trkpt lat="45.2499584" lon="8.7261075"><ele>109.33333333333334</ele><time>2026-04-25T16:00:40.498Z</time></trkpt><trkpt lat="45.2500401" lon="8.7260985"><ele>109.66666666666667</ele><time>2026-04-25T16:00:41.499Z</time></trkpt><trkpt lat="45.2501055" lon="8.7260976"><ele>110.0</ele><time>2026-04-25T16:00:42.499Z</time></trkpt><trkpt lat="45.2501878" lon="8.7261058"><ele>110.33333333333334</ele><time>2026-04-25T16:00:44.499Z</time></trkpt><trkpt lat="45.2502749" lon="8.7261216"><ele>110.66666666666667</ele><time>2026-04-25T16:00:47.499Z</time></trkpt><trkpt lat="45.2503374" lon="8.7261371"><ele>111.0</ele><time>2026-04-25T16:00:54.499Z</time></trkpt><trkpt lat="45.2504113" lon="8.7261224"><ele>111.0</ele><time>2026-04-25T16:02:10.499Z</time></trkpt><trkpt lat="45.2504377" lon="8.7260389"><ele>111.0</ele><time>2026-04-25T16:02:11.499Z</time></trkpt><trkpt lat="45.2504447" lon="8.7259308"><ele>111.0</ele><time>2026-04-25T16:02:12.499Z</time></trkpt><trkpt lat="45.2504408" lon="8.7257853"><ele>111.0</ele><time>2026-04-25T16:02:13.499Z</time></trkpt><trkpt lat="45.2504263" lon="8.7255977"><ele>111.0</ele><time>2026-04-25T16:02:14.499Z</time></trkpt><trkpt lat="45.2504054" lon="8.725382"><ele>110.33333333333334</ele><time>2026-04-25T16:02:15.498Z</time></trkpt><trkpt lat="45.2503803" lon="8.7251462"><ele>109.66666666666667</ele><time>2026-04-25T16:02:16.499Z</time></trkpt><trkpt lat="45.2503602" lon="8.7248965"><ele>109.0</ele><time>2026-04-25T16:02:17.499Z</time></trkpt><trkpt lat="45.2503389" lon="8.7246391"><ele>108.66666666666667</ele><time>2026-04-25T16:02:18.499Z</time></trkpt><trkpt lat="45.2503197" lon="8.7243851"><ele>108.33333333333334</ele><time>2026-04-25T16:02:19.499Z</time></trkpt><trkpt lat="45.2502993" lon="8.7241529"><ele>108.0</ele><time>2026-04-25T16:02:20.498Z</time></trkpt><trkpt lat="45.2502842" lon="8.7239326"><ele>108.0</ele><time>2026-04-25T16:02:21.499Z</time></trkpt><trkpt lat="45.2502653" lon="8.7237022"><ele>108.0</ele><time>2026-04-25T16:02:22.499Z</time></trkpt><trkpt lat="45.2502461" lon="8.7234703"><ele>108.0</ele><time>2026-04-25T16:02:23.498Z</time></trkpt><trkpt lat="45.2502275" lon="8.7232578"><ele>108.66666666666666</ele><time>2026-04-25T16:02:24.498Z</time></trkpt><trkpt lat="45.2502114" lon="8.7230518"><ele>109.33333333333333</ele><time>2026-04-25T16:02:25.499Z</time></trkpt><trkpt lat="45.2501944" lon="8.7228222"><ele>110.0</ele><time>2026-04-25T16:02:26.499Z</time></trkpt><trkpt lat="45.250174" lon="8.7225774"><ele>110.0</ele><time>2026-04-25T16:02:27.499Z</time></trkpt><trkpt lat="45.2501516" lon="8.7223223"><ele>110.0</ele><time>2026-04-25T16:02:28.499Z</time></trkpt><trkpt lat="45.2501264" lon="8.7220761"><ele>110.0</ele><time>2026-04-25T16:02:29.499Z</time></trkpt><trkpt lat="45.2501026" lon="8.7218452"><ele>109.66666666666666</ele><time>2026-04-25T16:02:30.499Z</time></trkpt><trkpt lat="45.2500717" lon="8.7216238"><ele>109.33333333333334</ele><time>2026-04-25T16:02:31.498Z</time></trkpt><trkpt lat="45.2500332" lon="8.7214009"><ele>109.0</ele><time>2026-04-25T16:02:32.499Z</time></trkpt><trkpt lat="45.2499788" lon="8.7211668"><ele>109.0</ele><time>2026-04-25T16:02:33.499Z</time></trkpt><trkpt lat="45.2499149" lon="8.7209089"><ele>109.0</ele><time>2026-04-25T16:02:34.499Z</time></trkpt><trkpt lat="45.2498507" lon="8.7206636"><ele>109.0</ele><time>2026-04-25T16:02:35.499Z</time></trkpt><trkpt lat="45.2497956" lon="8.720451"><ele>109.0</ele><time>2026-04-25T16:02:36.498Z</time></trkpt><trkpt lat="45.2497517" lon="8.7202671"><ele>109.0</ele><time>2026-04-25T16:02:37.498Z</time></trkpt><trkpt lat="45.249712" lon="8.7200957"><ele>109.0</ele><time>2026-04-25T16:02:38.499Z</time></trkpt><trkpt lat="45.2496898" lon="8.7199273"><ele>109.0</ele><time>2026-04-25T16:02:39.498Z</time></trkpt><trkpt lat="45.2496936" lon="8.71976"><ele>108.80000000000001</ele><time>2026-04-25T16:02:40.499Z</time></trkpt><trkpt lat="45.2497047" lon="8.7196116"><ele>108.60000000000001</ele><time>2026-04-25T16:02:41.498Z</time></trkpt><trkpt lat="45.2496994" lon="8.7194812"><ele>108.4</ele><time>2026-04-25T16:02:42.499Z</time></trkpt><trkpt lat="45.2496738" lon="8.7193693"><ele>108.2</ele><time>2026-04-25T16:02:43.499Z</time></trkpt><trkpt lat="45.2496068" lon="8.7192565"><ele>108.0</ele><time>2026-04-25T16:02:44.499Z</time></trkpt><trkpt lat="45.2495092" lon="8.7191355"><ele>107.66666666666666</ele><time>2026-04-25T16:02:45.498Z</time></trkpt><trkpt lat="45.2494193" lon="8.7189871"><ele>107.33333333333333</ele><time>2026-04-25T16:02:46.499Z</time></trkpt><trkpt lat="45.249344" lon="8.7187957"><ele>107.0</ele><time>2026-04-25T16:02:47.498Z</time></trkpt><trkpt lat="45.2492889" lon="8.7185818"><ele>107.66666666666666</ele><time>2026-04-25T16:02:48.498Z</time></trkpt><trkpt lat="45.2492481" lon="8.7183714"><ele>108.33333333333334</ele><time>2026-04-25T16:02:49.499Z</time></trkpt><trkpt lat="45.2492084" lon="8.7181539"><ele>109.0</ele><time>2026-04-25T16:02:50.498Z</time></trkpt><trkpt lat="45.2491674" lon="8.7179352"><ele>108.33333333333334</ele><time>2026-04-25T16:02:51.498Z</time></trkpt><trkpt lat="45.2491255" lon="8.7177108"><ele>107.66666666666666</ele><time>2026-04-25T16:02:52.499Z</time></trkpt><trkpt lat="45.2490799" lon="8.7174756"><ele>107.0</ele><time>2026-04-25T16:02:53.499Z</time></trkpt><trkpt lat="45.2490342" lon="8.7172302"><ele>107.0</ele><time>2026-04-25T16:02:54.498Z</time></trkpt><trkpt lat="45.2489879" lon="8.7169739"><ele>107.0</ele><time>2026-04-25T16:02:55.499Z</time></trkpt><trkpt lat="45.2489375" lon="8.7167041"><ele>107.0</ele><time>2026-04-25T16:02:56.498Z</time></trkpt><trkpt lat="45.248885" lon="8.7164225"><ele>106.66666666666666</ele><time>2026-04-25T16:02:57.499Z</time></trkpt><trkpt lat="45.2488295" lon="8.7161441"><ele>106.33333333333334</ele><time>2026-04-25T16:02:58.499Z</time></trkpt><trkpt lat="45.2487772" lon="8.7158818"><ele>106.0</ele><time>2026-04-25T16:02:59.498Z</time></trkpt><trkpt lat="45.2487275" lon="8.7156357"><ele>106.0</ele><time>2026-04-25T16:03:00.498Z</time></trkpt><trkpt lat="45.2486877" lon="8.7154207"><ele>106.0</ele><time>2026-04-25T16:03:01.499Z</time></trkpt><trkpt lat="45.2486594" lon="8.7152397"><ele>106.0</ele><time>2026-04-25T16:03:02.499Z</time></trkpt><trkpt lat="45.2486506" lon="8.7150852"><ele>106.0</ele><time>2026-04-25T16:03:03.499Z</time></trkpt><trkpt lat="45.2486609" lon="8.7149659"><ele>106.4</ele><time>2026-04-25T16:03:04.498Z</time></trkpt><trkpt lat="45.2486986" lon="8.7148456"><ele>106.8</ele><time>2026-04-25T16:03:05.499Z</time></trkpt><trkpt lat="45.2487636" lon="8.714747"><ele>107.20000000000002</ele><time>2026-04-25T16:03:06.499Z</time></trkpt><trkpt lat="45.2488547" lon="8.7146929"><ele>107.60000000000001</ele><time>2026-04-25T16:03:07.499Z</time></trkpt><trkpt lat="45.2489714" lon="8.7146779"><ele>108.0</ele><time>2026-04-25T16:03:08.499Z</time></trkpt><trkpt lat="45.2491048" lon="8.7146971"><ele>108.0</ele><time>2026-04-25T16:03:09.498Z</time></trkpt><trkpt lat="45.2492411" lon="8.7147217"><ele>108.0</ele><time>2026-04-25T16:03:10.499Z</time></trkpt><trkpt lat="45.2493813" lon="8.7147309"><ele>108.0</ele><time>2026-04-25T16:03:11.499Z</time></trkpt><trkpt lat="45.2495249" lon="8.714723"><ele>108.0</ele><time>2026-04-25T16:03:12.499Z</time></trkpt><trkpt lat="45.2496659" lon="8.714704"><ele>107.5</ele><time>2026-04-25T16:03:13.499Z</time></trkpt><trkpt lat="45.249805" lon="8.7146853"><ele>107.0</ele><time>2026-04-25T16:03:14.499Z</time></trkpt><trkpt lat="45.2499393" lon="8.7146654"><ele>106.5</ele><time>2026-04-25T16:03:15.499Z</time></trkpt><trkpt lat="45.2500753" lon="8.7146445"><ele>106.0</ele><time>2026-04-25T16:03:16.499Z</time></trkpt><trkpt lat="45.250215" lon="8.7146242"><ele>106.0</ele><time>2026-04-25T16:03:17.499Z</time></trkpt><trkpt lat="45.2503561" lon="8.7146138"><ele>106.0</ele><time>2026-04-25T16:03:18.499Z</time></trkpt><trkpt lat="45.2505004" lon="8.7146002"><ele>106.0</ele><time>2026-04-25T16:03:19.498Z</time></trkpt><trkpt lat="45.2506465" lon="8.7145954"><ele>106.0</ele><time>2026-04-25T16:03:20.498Z</time></trkpt><trkpt lat="45.2507957" lon="8.714595"><ele>106.0</ele><time>2026-04-25T16:03:21.498Z</time></trkpt><trkpt lat="45.2509419" lon="8.7145947"><ele>106.0</ele><time>2026-04-25T16:03:22.499Z</time></trkpt><trkpt lat="45.2510855" lon="8.7145956"><ele>106.0</ele><time>2026-04-25T16:03:23.499Z</time></trkpt><trkpt lat="45.2512263" lon="8.714593"><ele>106.0</ele><time>2026-04-25T16:03:24.499Z</time></trkpt><trkpt lat="45.251368" lon="8.7145928"><ele>106.5</ele><time>2026-04-25T16:03:25.499Z</time></trkpt><trkpt lat="45.25151" lon="8.7145896"><ele>107.0</ele><time>2026-04-25T16:03:26.499Z</time></trkpt><trkpt lat="45.2516547" lon="8.7145954"><ele>107.5</ele><time>2026-04-25T16:03:27.499Z</time></trkpt><trkpt lat="45.2517961" lon="8.7145945"><ele>108.0</ele><time>2026-04-25T16:03:28.499Z</time></trkpt><trkpt lat="45.251939" lon="8.7145947"><ele>108.0</ele><time>2026-04-25T16:03:29.499Z</time></trkpt><trkpt lat="45.2520844" lon="8.7145945"><ele>108.0</ele><time>2026-04-25T16:03:30.499Z</time></trkpt><trkpt lat="45.2522262" lon="8.7145906"><ele>108.0</ele><time>2026-04-25T16:03:31.498Z</time></trkpt><trkpt lat="45.252376" lon="8.7145932"><ele>108.0</ele><time>2026-04-25T16:03:32.499Z</time></trkpt><trkpt lat="45.2525246" lon="8.7145911"><ele>108.0</ele><time>2026-04-25T16:03:33.498Z</time></trkpt><trkpt lat="45.2526728" lon="8.7145911"><ele>108.0</ele><time>2026-04-25T16:03:34.499Z</time></trkpt><trkpt lat="45.2528134" lon="8.7145883"><ele>108.0</ele><time>2026-04-25T16:03:35.499Z</time></trkpt><trkpt lat="45.2529475" lon="8.7145899"><ele>108.0</ele><time>2026-04-25T16:03:36.499Z</time></trkpt><trkpt lat="45.2530747" lon="8.7145919"><ele>107.75</ele><time>2026-04-25T16:03:37.499Z</time></trkpt><trkpt lat="45.253189" lon="8.7145942"><ele>107.5</ele><time>2026-04-25T16:03:38.499Z</time></trkpt><trkpt lat="45.2533036" lon="8.7145968"><ele>107.25</ele><time>2026-04-25T16:03:39.499Z</time></trkpt><trkpt lat="45.2534277" lon="8.7145981"><ele>107.0</ele><time>2026-04-25T16:03:40.498Z</time></trkpt><trkpt lat="45.2535592" lon="8.7145959"><ele>107.0</ele><time>2026-04-25T16:03:41.498Z</time></trkpt><trkpt lat="45.253694" lon="8.7145987"><ele>107.0</ele><time>2026-04-25T16:03:42.499Z</time></trkpt><trkpt lat="45.2538282" lon="8.7145991"><ele>107.0</ele><time>2026-04-25T16:03:43.499Z</time></trkpt><trkpt lat="45.2539618" lon="8.7145949"><ele>107.0</ele><time>2026-04-25T16:03:44.498Z</time></trkpt><trkpt lat="45.2541075" lon="8.7145916"><ele>106.66666666666666</ele><time>2026-04-25T16:03:45.498Z</time></trkpt><trkpt lat="45.2542649" lon="8.714596"><ele>106.33333333333334</ele><time>2026-04-25T16:03:46.499Z</time></trkpt><trkpt lat="45.2544288" lon="8.7145941"><ele>106.0</ele><time>2026-04-25T16:03:47.499Z</time></trkpt><trkpt lat="45.2545986" lon="8.7145951"><ele>106.0</ele><time>2026-04-25T16:03:48.498Z</time></trkpt><trkpt lat="45.2547782" lon="8.714596"><ele>106.0</ele><time>2026-04-25T16:03:49.499Z</time></trkpt><trkpt lat="45.2549657" lon="8.7145958"><ele>106.0</ele><time>2026-04-25T16:03:50.499Z</time></trkpt><trkpt lat="45.2551547" lon="8.7145998"><ele>106.0</ele><time>2026-04-25T16:03:51.499Z</time></trkpt><trkpt lat="45.2553421" lon="8.7145967"><ele>106.0</ele><time>2026-04-25T16:03:52.499Z</time></trkpt><trkpt lat="45.2555251" lon="8.7145992"><ele>106.0</ele><time>2026-04-25T16:03:53.499Z</time></trkpt><trkpt lat="45.2557041" lon="8.7145963"><ele>106.33333333333334</ele><time>2026-04-25T16:03:54.498Z</time></trkpt><trkpt lat="45.2558834" lon="8.7145988"><ele>106.66666666666666</ele><time>2026-04-25T16:03:55.499Z</time></trkpt><trkpt lat="45.2560609" lon="8.7146069"><ele>107.0</ele><time>2026-04-25T16:03:56.498Z</time></trkpt><trkpt lat="45.2562341" lon="8.7146178"><ele>107.0</ele><time>2026-04-25T16:03:57.499Z</time></trkpt><trkpt lat="45.2564032" lon="8.7146336"><ele>107.0</ele><time>2026-04-25T16:03:58.499Z</time></trkpt><trkpt lat="45.256567" lon="8.7146572"><ele>107.0</ele><time>2026-04-25T16:03:59.499Z</time></trkpt><trkpt lat="45.2567233" lon="8.7146861"><ele>107.0</ele><time>2026-04-25T16:04:00.499Z</time></trkpt><trkpt lat="45.2568756" lon="8.714727"><ele>107.0</ele><time>2026-04-25T16:04:01.498Z</time></trkpt><trkpt lat="45.2570232" lon="8.7147763"><ele>107.0</ele><time>2026-04-25T16:04:02.498Z</time></trkpt><trkpt lat="45.2571683" lon="8.7148334"><ele>107.5</ele><time>2026-04-25T16:04:03.498Z</time></trkpt><trkpt lat="45.2573114" lon="8.7148963"><ele>108.0</ele><time>2026-04-25T16:04:04.499Z</time></trkpt><trkpt lat="45.2574493" lon="8.7149663"><ele>108.5</ele><time>2026-04-25T16:04:05.499Z</time></trkpt><trkpt lat="45.2575868" lon="8.715045"><ele>109.0</ele><time>2026-04-25T16:04:06.499Z</time></trkpt><trkpt lat="45.2577205" lon="8.7151395"><ele>109.0</ele><time>2026-04-25T16:04:07.499Z</time></trkpt><trkpt lat="45.2578591" lon="8.7152386"><ele>109.0</ele><time>2026-04-25T16:04:08.498Z</time></trkpt><trkpt lat="45.2579917" lon="8.7153522"><ele>109.0</ele><time>2026-04-25T16:04:09.498Z</time></trkpt><trkpt lat="45.2581204" lon="8.7154667"><ele>109.0</ele><time>2026-04-25T16:04:10.499Z</time></trkpt><trkpt lat="45.2582275" lon="8.7155638"><ele>109.0</ele><time>2026-04-25T16:04:11.499Z</time></trkpt><trkpt lat="45.2583159" lon="8.7156508"><ele>109.0</ele><time>2026-04-25T16:04:12.498Z</time></trkpt><trkpt lat="45.258388" lon="8.7157204"><ele>109.0</ele><time>2026-04-25T16:04:13.499Z</time></trkpt><trkpt lat="45.258452" lon="8.7157715"><ele>109.0</ele><time>2026-04-25T16:04:14.499Z</time></trkpt><trkpt lat="45.2585374" lon="8.7158124"><ele>109.0</ele><time>2026-04-25T16:04:16.499Z</time></trkpt><trkpt lat="45.2586224" lon="8.7158559"><ele>109.0</ele><time>2026-04-25T16:04:24.499Z</time></trkpt><trkpt lat="45.2587181" lon="8.7159217"><ele>109.0</ele><time>2026-04-25T16:04:26.498Z</time></trkpt><trkpt lat="45.2587778" lon="8.7159839"><ele>109.0</ele><time>2026-04-25T16:04:27.499Z</time></trkpt><trkpt lat="45.2588433" lon="8.7160659"><ele>109.0</ele><time>2026-04-25T16:04:28.498Z</time></trkpt><trkpt lat="45.2589288" lon="8.7161638"><ele>108.5</ele><time>2026-04-25T16:04:29.498Z</time></trkpt><trkpt lat="45.2590187" lon="8.7162831"><ele>108.0</ele><time>2026-04-25T16:04:30.498Z</time></trkpt><trkpt lat="45.2591068" lon="8.7163931"><ele>107.5</ele><time>2026-04-25T16:04:31.499Z</time></trkpt><trkpt lat="45.2591871" lon="8.7164936"><ele>107.0</ele><time>2026-04-25T16:04:32.498Z</time></trkpt><trkpt lat="45.2592651" lon="8.7165989"><ele>107.0</ele><time>2026-04-25T16:04:33.499Z</time></trkpt><trkpt lat="45.2593468" lon="8.7167069"><ele>106.99999999999999</ele><time>2026-04-25T16:04:34.499Z</time></trkpt><trkpt lat="45.2594285" lon="8.7168117"><ele>106.99999999999999</ele><time>2026-04-25T16:04:35.499Z</time></trkpt><trkpt lat="45.25951" lon="8.7169143"><ele>107.0</ele><time>2026-04-25T16:04:36.499Z</time></trkpt><trkpt lat="45.2595931" lon="8.7170106"><ele>107.0</ele><time>2026-04-25T16:04:37.498Z</time></trkpt><trkpt lat="45.2596742" lon="8.7171141"><ele>107.0</ele><time>2026-04-25T16:04:38.499Z</time></trkpt><trkpt lat="45.2597574" lon="8.7172192"><ele>106.99999999999999</ele><time>2026-04-25T16:04:39.498Z</time></trkpt><trkpt lat="45.2598389" lon="8.7173244"><ele>106.99999999999999</ele><time>2026-04-25T16:04:40.498Z</time></trkpt><trkpt lat="45.2599225" lon="8.7174294"><ele>107.0</ele><time>2026-04-25T16:04:41.499Z</time></trkpt><trkpt lat="45.2600099" lon="8.7175297"><ele>107.0</ele><time>2026-04-25T16:04:42.498Z</time></trkpt><trkpt lat="45.2600917" lon="8.7176318"><ele>107.19999999999999</ele><time>2026-04-25T16:04:43.499Z</time></trkpt><trkpt lat="45.2601735" lon="8.7177436"><ele>107.39999999999999</ele><time>2026-04-25T16:04:44.499Z</time></trkpt><trkpt lat="45.260255" lon="8.7178543"><ele>107.60000000000001</ele><time>2026-04-25T16:04:45.498Z</time></trkpt><trkpt lat="45.2603333" lon="8.7179597"><ele>107.80000000000001</ele><time>2026-04-25T16:04:46.499Z</time></trkpt><trkpt lat="45.2604089" lon="8.7180644"><ele>108.0</ele><time>2026-04-25T16:04:47.498Z</time></trkpt><trkpt lat="45.2604812" lon="8.7181729"><ele>108.0</ele><time>2026-04-25T16:04:48.491Z</time></trkpt><trkpt lat="45.260559" lon="8.7182903"><ele>108.0</ele><time>2026-04-25T16:04:49.49Z</time></trkpt><trkpt lat="45.2606369" lon="8.718414"><ele>108.0</ele><time>2026-04-25T16:04:50.493Z</time></trkpt><trkpt lat="45.2607083" lon="8.718537"><ele>108.0</ele><time>2026-04-25T16:04:51.491Z</time></trkpt><trkpt lat="45.2607767" lon="8.718663"><ele>107.75</ele><time>2026-04-25T16:04:52.492Z</time></trkpt><trkpt lat="45.2608488" lon="8.7187828"><ele>107.5</ele><time>2026-04-25T16:04:53.491Z</time></trkpt><trkpt lat="45.2609245" lon="8.7189051"><ele>107.25</ele><time>2026-04-25T16:04:54.491Z</time></trkpt><trkpt lat="45.2609967" lon="8.7190313"><ele>107.0</ele><time>2026-04-25T16:04:55.491Z</time></trkpt><trkpt lat="45.2610629" lon="8.7191558"><ele>107.0</ele><time>2026-04-25T16:04:56.49Z</time></trkpt><trkpt lat="45.2611225" lon="8.7192772"><ele>106.99999999999999</ele><time>2026-04-25T16:04:57.491Z</time></trkpt><trkpt lat="45.2611845" lon="8.719403"><ele>106.99999999999999</ele><time>2026-04-25T16:04:58.491Z</time></trkpt><trkpt lat="45.2612404" lon="8.7195198"><ele>107.0</ele><time>2026-04-25T16:04:59.49Z</time></trkpt><trkpt lat="45.2612871" lon="8.7196334"><ele>107.0</ele><time>2026-04-25T16:05:00.491Z</time></trkpt><trkpt lat="45.2613317" lon="8.7197519"><ele>106.8</ele><time>2026-04-25T16:05:01.491Z</time></trkpt><trkpt lat="45.2613795" lon="8.7198718"><ele>106.6</ele><time>2026-04-25T16:05:02.491Z</time></trkpt><trkpt lat="45.2614349" lon="8.7199958"><ele>106.39999999999999</ele><time>2026-04-25T16:05:03.49Z</time></trkpt><trkpt lat="45.261486" lon="8.7201251"><ele>106.19999999999999</ele><time>2026-04-25T16:05:04.49Z</time></trkpt><trkpt lat="45.2615342" lon="8.7202478"><ele>106.0</ele><time>2026-04-25T16:05:05.49Z</time></trkpt><trkpt lat="45.2615779" lon="8.7203646"><ele>106.6</ele><time>2026-04-25T16:05:06.49Z</time></trkpt><trkpt lat="45.2616206" lon="8.720472"><ele>107.19999999999999</ele><time>2026-04-25T16:05:07.491Z</time></trkpt><trkpt lat="45.2616666" lon="8.7205809"><ele>107.80000000000001</ele><time>2026-04-25T16:05:08.49Z</time></trkpt><trkpt lat="45.2617092" lon="8.720685"><ele>108.4</ele><time>2026-04-25T16:05:09.49Z</time></trkpt><trkpt lat="45.2617538" lon="8.7207717"><ele>109.0</ele><time>2026-04-25T16:05:10.491Z</time></trkpt><trkpt lat="45.2618427" lon="8.7208827"><ele>109.0</ele><time>2026-04-25T16:05:12.491Z</time></trkpt><trkpt lat="45.2619195" lon="8.7209028"><ele>109.0</ele><time>2026-04-25T16:05:14.49Z</time></trkpt><trkpt lat="45.2619762" lon="8.7208493"><ele>109.0</ele><time>2026-04-25T16:05:16.49Z</time></trkpt><trkpt lat="45.2620431" lon="8.7207298"><ele>109.0</ele><time>2026-04-25T16:05:18.491Z</time></trkpt><trkpt lat="45.2621351" lon="8.720648"><ele>109.0</ele><time>2026-04-25T16:05:20.491Z</time></trkpt><trkpt lat="45.2622335" lon="8.7206131"><ele>109.0</ele><time>2026-04-25T16:05:22.49Z</time></trkpt><trkpt lat="45.2623055" lon="8.7207046"><ele>109.0</ele><time>2026-04-25T16:05:24.491Z</time></trkpt><trkpt lat="45.2623349" lon="8.7208294"><ele>109.0</ele><time>2026-04-25T16:05:25.491Z</time></trkpt><trkpt lat="45.2623732" lon="8.7209856"><ele>109.0</ele><time>2026-04-25T16:05:26.491Z</time></trkpt><trkpt lat="45.2624166" lon="8.7211531"><ele>109.0</ele><time>2026-04-25T16:05:27.491Z</time></trkpt><trkpt lat="45.2624654" lon="8.7213289"><ele>109.0</ele><time>2026-04-25T16:05:28.491Z</time></trkpt><trkpt lat="45.2625179" lon="8.7215179"><ele>109.0</ele><time>2026-04-25T16:05:29.491Z</time></trkpt><trkpt lat="45.2625762" lon="8.7217183"><ele>109.0</ele><time>2026-04-25T16:05:30.49Z</time></trkpt><trkpt lat="45.2626377" lon="8.7219237"><ele>108.66666666666667</ele><time>2026-04-25T16:05:31.491Z</time></trkpt><trkpt lat="45.2626976" lon="8.7221263"><ele>108.33333333333334</ele><time>2026-04-25T16:05:32.491Z</time></trkpt><trkpt lat="45.2627579" lon="8.7223241"><ele>108.0</ele><time>2026-04-25T16:05:33.491Z</time></trkpt><trkpt lat="45.2628167" lon="8.7225224"><ele>108.0</ele><time>2026-04-25T16:05:34.491Z</time></trkpt><trkpt lat="45.2628747" lon="8.7227172"><ele>108.0</ele><time>2026-04-25T16:05:35.49Z</time></trkpt><trkpt lat="45.2629291" lon="8.722906"><ele>108.0</ele><time>2026-04-25T16:05:36.49Z</time></trkpt><trkpt lat="45.2629825" lon="8.7230813"><ele>108.0</ele><time>2026-04-25T16:05:37.491Z</time></trkpt><trkpt lat="45.2630342" lon="8.7232442"><ele>108.0</ele><time>2026-04-25T16:05:38.49Z</time></trkpt><trkpt lat="45.2630779" lon="8.7233969"><ele>108.0</ele><time>2026-04-25T16:05:39.491Z</time></trkpt><trkpt lat="45.263123" lon="8.7235493"><ele>108.0</ele><time>2026-04-25T16:05:40.49Z</time></trkpt><trkpt lat="45.263173" lon="8.7237051"><ele>108.0</ele><time>2026-04-25T16:05:41.491Z</time></trkpt><trkpt lat="45.2632231" lon="8.7238598"><ele>108.0</ele><time>2026-04-25T16:05:42.49Z</time></trkpt><trkpt lat="45.263276" lon="8.7240276"><ele>108.0</ele><time>2026-04-25T16:05:43.491Z</time></trkpt><trkpt lat="45.2633326" lon="8.7242008"><ele>108.0</ele><time>2026-04-25T16:05:44.491Z</time></trkpt><trkpt lat="45.2633842" lon="8.7243793"><ele>108.0</ele><time>2026-04-25T16:05:45.491Z</time></trkpt><trkpt lat="45.2634391" lon="8.7245674"><ele>108.0</ele><time>2026-04-25T16:05:46.49Z</time></trkpt><trkpt lat="45.2634983" lon="8.7247621"><ele>108.0</ele><time>2026-04-25T16:05:47.491Z</time></trkpt><trkpt lat="45.2635576" lon="8.7249581"><ele>108.0</ele><time>2026-04-25T16:05:48.491Z</time></trkpt><trkpt lat="45.2636184" lon="8.7251582"><ele>108.0</ele><time>2026-04-25T16:05:49.49Z</time></trkpt><trkpt lat="45.2636829" lon="8.7253671"><ele>108.0</ele><time>2026-04-25T16:05:50.491Z</time></trkpt><trkpt lat="45.2637502" lon="8.7255818"><ele>108.0</ele><time>2026-04-25T16:05:51.49Z</time></trkpt><trkpt lat="45.2638224" lon="8.7258014"><ele>108.0</ele><time>2026-04-25T16:05:52.49Z</time></trkpt><trkpt lat="45.2638935" lon="8.7260253"><ele>108.0</ele><time>2026-04-25T16:05:53.491Z</time></trkpt><trkpt lat="45.2639652" lon="8.7262518"><ele>108.0</ele><time>2026-04-25T16:05:54.491Z</time></trkpt><trkpt lat="45.2640362" lon="8.7264794"><ele>108.33333333333334</ele><time>2026-04-25T16:05:55.491Z</time></trkpt><trkpt lat="45.2641043" lon="8.7266932"><ele>108.66666666666667</ele><time>2026-04-25T16:05:56.491Z</time></trkpt><trkpt lat="45.2641714" lon="8.7268907"><ele>109.0</ele><time>2026-04-25T16:05:57.491Z</time></trkpt><trkpt lat="45.2642328" lon="8.7270754"><ele>109.0</ele><time>2026-04-25T16:05:58.49Z</time></trkpt><trkpt lat="45.2642869" lon="8.7272485"><ele>109.0</ele><time>2026-04-25T16:05:59.491Z</time></trkpt><trkpt lat="45.2643356" lon="8.7274036"><ele>109.0</ele><time>2026-04-25T16:06:00.49Z</time></trkpt><trkpt lat="45.2643781" lon="8.7275449"><ele>109.0</ele><time>2026-04-25T16:06:01.491Z</time></trkpt><trkpt lat="45.2644052" lon="8.7276665"><ele>109.0</ele><time>2026-04-25T16:06:02.491Z</time></trkpt><trkpt lat="45.2644098" lon="8.7277678"><ele>109.0</ele><time>2026-04-25T16:06:03.491Z</time></trkpt><trkpt lat="45.2643956" lon="8.7278581"><ele>109.0</ele><time>2026-04-25T16:06:04.491Z</time></trkpt><trkpt lat="45.264356" lon="8.7279327"><ele>109.0</ele><time>2026-04-25T16:06:05.491Z</time></trkpt><trkpt lat="45.264301" lon="8.7279782"><ele>109.0</ele><time>2026-04-25T16:06:06.491Z</time></trkpt><trkpt lat="45.2642344" lon="8.7280065"><ele>109.0</ele><time>2026-04-25T16:06:07.491Z</time></trkpt><trkpt lat="45.2641703" lon="8.7280346"><ele>109.0</ele><time>2026-04-25T16:06:08.491Z</time></trkpt><trkpt lat="45.2640546" lon="8.72808"><ele>109.16666666666667</ele><time>2026-04-25T16:06:10.49Z</time></trkpt><trkpt lat="45.2639316" lon="8.7280997"><ele>109.33333333333334</ele><time>2026-04-25T16:06:12.49Z</time></trkpt><trkpt lat="45.2638559" lon="8.7280984"><ele>109.5</ele><time>2026-04-25T16:06:13.491Z</time></trkpt><trkpt lat="45.2637779" lon="8.7281118"><ele>109.66666666666666</ele><time>2026-04-25T16:06:14.49Z</time></trkpt><trkpt lat="45.2637048" lon="8.7281493"><ele>109.83333333333333</ele><time>2026-04-25T16:06:15.491Z</time></trkpt><trkpt lat="45.2636398" lon="8.7282142"><ele>110.0</ele><time>2026-04-25T16:06:16.491Z</time></trkpt><trkpt lat="45.2635949" lon="8.7283027"><ele>109.99999999999999</ele><time>2026-04-25T16:06:17.49Z</time></trkpt><trkpt lat="45.2635692" lon="8.7283955"><ele>110.0</ele><time>2026-04-25T16:06:18.491Z</time></trkpt><trkpt lat="45.2635662" lon="8.728492"><ele>110.0</ele><time>2026-04-25T16:06:19.49Z</time></trkpt><trkpt lat="45.2635846" lon="8.7285908"><ele>110.0</ele><time>2026-04-25T16:06:20.49Z</time></trkpt><trkpt lat="45.263625" lon="8.7286802"><ele>110.0</ele><time>2026-04-25T16:06:21.49Z</time></trkpt><trkpt lat="45.2636874" lon="8.7287487"><ele>109.99999999999999</ele><time>2026-04-25T16:06:22.491Z</time></trkpt><trkpt lat="45.2637627" lon="8.7287875"><ele>110.0</ele><time>2026-04-25T16:06:23.491Z</time></trkpt><trkpt lat="45.263847" lon="8.7287885"><ele>109.99999999999999</ele><time>2026-04-25T16:06:24.491Z</time></trkpt><trkpt lat="45.2639285" lon="8.7287533"><ele>110.0</ele><time>2026-04-25T16:06:25.49Z</time></trkpt><trkpt lat="45.2640068" lon="8.7287037"><ele>110.0</ele><time>2026-04-25T16:06:26.491Z</time></trkpt><trkpt lat="45.2640839" lon="8.7286575"><ele>110.0</ele><time>2026-04-25T16:06:27.491Z</time></trkpt><trkpt lat="45.2641694" lon="8.7286277"><ele>109.99999999999999</ele><time>2026-04-25T16:06:28.49Z</time></trkpt><trkpt lat="45.2642683" lon="8.728625"><ele>110.0</ele><time>2026-04-25T16:06:29.49Z</time></trkpt><trkpt lat="45.2643723" lon="8.7286295"><ele>109.8</ele><time>2026-04-25T16:06:30.491Z</time></trkpt><trkpt lat="45.2644784" lon="8.7286094"><ele>109.6</ele><time>2026-04-25T16:06:31.491Z</time></trkpt><trkpt lat="45.2645769" lon="8.728543"><ele>109.4</ele><time>2026-04-25T16:06:32.491Z</time></trkpt><trkpt lat="45.2646641" lon="8.7284477"><ele>109.2</ele><time>2026-04-25T16:06:33.491Z</time></trkpt><trkpt lat="45.26474" lon="8.7283258"><ele>109.0</ele><time>2026-04-25T16:06:34.491Z</time></trkpt><trkpt lat="45.2648154" lon="8.7281885"><ele>108.75</ele><time>2026-04-25T16:06:35.49Z</time></trkpt><trkpt lat="45.2648905" lon="8.7280414"><ele>108.5</ele><time>2026-04-25T16:06:36.491Z</time></trkpt><trkpt lat="45.2649682" lon="8.7278946"><ele>108.25</ele><time>2026-04-25T16:06:37.491Z</time></trkpt><trkpt lat="45.2650562" lon="8.7277548"><ele>108.0</ele><time>2026-04-25T16:06:38.49Z</time></trkpt><trkpt lat="45.2651601" lon="8.7276237"><ele>108.0</ele><time>2026-04-25T16:06:39.49Z</time></trkpt><trkpt lat="45.2652739" lon="8.7275153"><ele>108.0</ele><time>2026-04-25T16:06:40.49Z</time></trkpt><trkpt lat="45.2654007" lon="8.7274196"><ele>108.0</ele><time>2026-04-25T16:06:41.49Z</time></trkpt><trkpt lat="45.2655298" lon="8.7273238"><ele>108.0</ele><time>2026-04-25T16:06:42.491Z</time></trkpt><trkpt lat="45.2656569" lon="8.7272331"><ele>108.0</ele><time>2026-04-25T16:06:43.491Z</time></trkpt><trkpt lat="45.265788" lon="8.7271394"><ele>108.0</ele><time>2026-04-25T16:06:44.491Z</time></trkpt><trkpt lat="45.2659183" lon="8.727045"><ele>108.0</ele><time>2026-04-25T16:06:45.49Z</time></trkpt><trkpt lat="45.2660508" lon="8.7269557"><ele>108.0</ele><time>2026-04-25T16:06:46.491Z</time></trkpt><trkpt lat="45.2661858" lon="8.72686"><ele>108.0</ele><time>2026-04-25T16:06:47.491Z</time></trkpt><trkpt lat="45.2663273" lon="8.7267611"><ele>108.0</ele><time>2026-04-25T16:06:48.491Z</time></trkpt><trkpt lat="45.2664731" lon="8.726658"><ele>108.0</ele><time>2026-04-25T16:06:49.49Z</time></trkpt><trkpt lat="45.2666223" lon="8.7265512"><ele>108.0</ele><time>2026-04-25T16:06:50.491Z</time></trkpt><trkpt lat="45.2667741" lon="8.7264381"><ele>108.0</ele><time>2026-04-25T16:06:51.49Z</time></trkpt><trkpt lat="45.2669315" lon="8.7263309"><ele>108.0</ele><time>2026-04-25T16:06:52.491Z</time></trkpt><trkpt lat="45.2670926" lon="8.7262197"><ele>108.0</ele><time>2026-04-25T16:06:53.491Z</time></trkpt><trkpt lat="45.2672553" lon="8.7261009"><ele>108.0</ele><time>2026-04-25T16:06:54.491Z</time></trkpt><trkpt lat="45.2674232" lon="8.7259846"><ele>108.0</ele><time>2026-04-25T16:06:55.491Z</time></trkpt><trkpt lat="45.2675919" lon="8.7258656"><ele>108.0</ele><time>2026-04-25T16:06:56.49Z</time></trkpt><trkpt lat="45.2677622" lon="8.7257423"><ele>108.0</ele><time>2026-04-25T16:06:57.491Z</time></trkpt><trkpt lat="45.2679335" lon="8.7256208"><ele>108.0</ele><time>2026-04-25T16:06:58.491Z</time></trkpt><trkpt lat="45.2681088" lon="8.7255009"><ele>108.0</ele><time>2026-04-25T16:06:59.49Z</time></trkpt><trkpt lat="45.2682737" lon="8.7253791"><ele>108.0</ele><time>2026-04-25T16:07:00.49Z</time></trkpt><trkpt lat="45.2684281" lon="8.725264"><ele>108.0</ele><time>2026-04-25T16:07:01.491Z</time></trkpt><trkpt lat="45.2685786" lon="8.725163"><ele>108.0</ele><time>2026-04-25T16:07:02.491Z</time></trkpt><trkpt lat="45.2687145" lon="8.7250647"><ele>108.0</ele><time>2026-04-25T16:07:03.491Z</time></trkpt><trkpt lat="45.2688355" lon="8.7249778"><ele>108.0</ele><time>2026-04-25T16:07:04.491Z</time></trkpt><trkpt lat="45.2689384" lon="8.7249074"><ele>108.0</ele><time>2026-04-25T16:07:05.49Z</time></trkpt><trkpt lat="45.2690163" lon="8.724846"><ele>108.0</ele><time>2026-04-25T16:07:06.491Z</time></trkpt><trkpt lat="45.2690765" lon="8.7248005"><ele>108.0</ele><time>2026-04-25T16:07:07.491Z</time></trkpt><trkpt lat="45.2691582" lon="8.7247763"><ele>108.0</ele><time>2026-04-25T16:07:09.491Z</time></trkpt><trkpt lat="45.2692356" lon="8.7248609"><ele>108.0</ele><time>2026-04-25T16:07:12.49Z</time></trkpt><trkpt lat="45.269292" lon="8.725003"><ele>108.0</ele><time>2026-04-25T16:07:14.491Z</time></trkpt><trkpt lat="45.2693208" lon="8.7251047"><ele>108.0</ele><time>2026-04-25T16:07:15.491Z</time></trkpt><trkpt lat="45.2693588" lon="8.7252203"><ele>107.80000000000001</ele><time>2026-04-25T16:07:16.491Z</time></trkpt><trkpt lat="45.2693999" lon="8.7253431"><ele>107.60000000000001</ele><time>2026-04-25T16:07:17.491Z</time></trkpt><trkpt lat="45.269441" lon="8.7254718"><ele>107.39999999999999</ele><time>2026-04-25T16:07:18.491Z</time></trkpt><trkpt lat="45.2694852" lon="8.7256104"><ele>107.19999999999999</ele><time>2026-04-25T16:07:19.491Z</time></trkpt><trkpt lat="45.2695313" lon="8.7257543"><ele>107.0</ele><time>2026-04-25T16:07:20.49Z</time></trkpt><trkpt lat="45.2695832" lon="8.725906"><ele>107.0</ele><time>2026-04-25T16:07:21.49Z</time></trkpt><trkpt lat="45.2696346" lon="8.726067"><ele>107.0</ele><time>2026-04-25T16:07:22.49Z</time></trkpt><trkpt lat="45.2696881" lon="8.7262272"><ele>107.0</ele><time>2026-04-25T16:07:23.49Z</time></trkpt><trkpt lat="45.2697411" lon="8.7263924"><ele>107.0</ele><time>2026-04-25T16:07:24.491Z</time></trkpt><trkpt lat="45.2697921" lon="8.7265615"><ele>107.0</ele><time>2026-04-25T16:07:25.49Z</time></trkpt><trkpt lat="45.2698496" lon="8.726739"><ele>107.0</ele><time>2026-04-25T16:07:26.491Z</time></trkpt><trkpt lat="45.2699064" lon="8.7269161"><ele>107.0</ele><time>2026-04-25T16:07:27.491Z</time></trkpt><trkpt lat="45.2699648" lon="8.7270922"><ele>107.0</ele><time>2026-04-25T16:07:28.491Z</time></trkpt><trkpt lat="45.2700216" lon="8.7272645"><ele>107.25</ele><time>2026-04-25T16:07:29.491Z</time></trkpt><trkpt lat="45.2700756" lon="8.7274246"><ele>107.5</ele><time>2026-04-25T16:07:30.491Z</time></trkpt><trkpt lat="45.2701239" lon="8.7275742"><ele>107.75</ele><time>2026-04-25T16:07:31.491Z</time></trkpt><trkpt lat="45.2701683" lon="8.7277165"><ele>108.0</ele><time>2026-04-25T16:07:32.491Z</time></trkpt><trkpt lat="45.2702082" lon="8.7278554"><ele>108.0</ele><time>2026-04-25T16:07:33.49Z</time></trkpt><trkpt lat="45.2702492" lon="8.7280014"><ele>108.00000000000001</ele><time>2026-04-25T16:07:34.491Z</time></trkpt><trkpt lat="45.2702849" lon="8.7281453"><ele>108.00000000000001</ele><time>2026-04-25T16:07:35.49Z</time></trkpt><trkpt lat="45.2703247" lon="8.7282947"><ele>108.0</ele><time>2026-04-25T16:07:36.491Z</time></trkpt><trkpt lat="45.2703652" lon="8.7284454"><ele>108.0</ele><time>2026-04-25T16:07:37.49Z</time></trkpt><trkpt lat="45.2704025" lon="8.728593"><ele>108.0</ele><time>2026-04-25T16:07:38.491Z</time></trkpt><trkpt lat="45.2704409" lon="8.7287316"><ele>108.00000000000001</ele><time>2026-04-25T16:07:39.49Z</time></trkpt><trkpt lat="45.2704733" lon="8.7288629"><ele>108.00000000000001</ele><time>2026-04-25T16:07:40.491Z</time></trkpt><trkpt lat="45.2705013" lon="8.7289921"><ele>108.0</ele><time>2026-04-25T16:07:41.491Z</time></trkpt><trkpt lat="45.2705134" lon="8.7291154"><ele>108.0</ele><time>2026-04-25T16:07:42.491Z</time></trkpt><trkpt lat="45.2705104" lon="8.7292386"><ele>108.0</ele><time>2026-04-25T16:07:43.491Z</time></trkpt><trkpt lat="45.2704977" lon="8.7293686"><ele>108.00000000000001</ele><time>2026-04-25T16:07:44.49Z</time></trkpt><trkpt lat="45.2704881" lon="8.7295098"><ele>108.00000000000001</ele><time>2026-04-25T16:07:45.491Z</time></trkpt><trkpt lat="45.270476" lon="8.7296496"><ele>108.0</ele><time>2026-04-25T16:07:46.491Z</time></trkpt><trkpt lat="45.2704642" lon="8.7297962"><ele>108.0</ele><time>2026-04-25T16:07:47.49Z</time></trkpt><trkpt lat="45.2704525" lon="8.729953"><ele>108.0</ele><time>2026-04-25T16:07:48.491Z</time></trkpt><trkpt lat="45.2704394" lon="8.7301238"><ele>108.0</ele><time>2026-04-25T16:07:49.491Z</time></trkpt><trkpt lat="45.2704301" lon="8.730292"><ele>108.0</ele><time>2026-04-25T16:07:50.491Z</time></trkpt><trkpt lat="45.2704159" lon="8.7304644"><ele>108.0</ele><time>2026-04-25T16:07:51.491Z</time></trkpt><trkpt lat="45.2704019" lon="8.7306436"><ele>108.0</ele><time>2026-04-25T16:07:52.491Z</time></trkpt><trkpt lat="45.2703895" lon="8.7308247"><ele>108.0</ele><time>2026-04-25T16:07:53.491Z</time></trkpt><trkpt lat="45.2703764" lon="8.7310074"><ele>108.0</ele><time>2026-04-25T16:07:54.49Z</time></trkpt><trkpt lat="45.270364" lon="8.7311832"><ele>108.0</ele><time>2026-04-25T16:07:55.491Z</time></trkpt><trkpt lat="45.2703505" lon="8.7313592"><ele>108.0</ele><time>2026-04-25T16:07:56.491Z</time></trkpt><trkpt lat="45.270339" lon="8.7315361"><ele>108.0</ele><time>2026-04-25T16:07:57.491Z</time></trkpt><trkpt lat="45.2703244" lon="8.7317068"><ele>108.0</ele><time>2026-04-25T16:07:58.49Z</time></trkpt><trkpt lat="45.2703117" lon="8.7318605"><ele>108.0</ele><time>2026-04-25T16:07:59.491Z</time></trkpt><trkpt lat="45.2703042" lon="8.7319982"><ele>107.80000000000001</ele><time>2026-04-25T16:08:00.49Z</time></trkpt><trkpt lat="45.2703063" lon="8.7321171"><ele>107.60000000000001</ele><time>2026-04-25T16:08:01.491Z</time></trkpt><trkpt lat="45.2703196" lon="8.732234"><ele>107.39999999999999</ele><time>2026-04-25T16:08:02.491Z</time></trkpt><trkpt lat="45.2703452" lon="8.7323653"><ele>107.19999999999999</ele><time>2026-04-25T16:08:03.491Z</time></trkpt><trkpt lat="45.2703723" lon="8.7325098"><ele>107.0</ele><time>2026-04-25T16:08:04.491Z</time></trkpt><trkpt lat="45.2704014" lon="8.7326623"><ele>107.0</ele><time>2026-04-25T16:08:05.491Z</time></trkpt><trkpt lat="45.2704288" lon="8.7328209"><ele>107.0</ele><time>2026-04-25T16:08:06.491Z</time></trkpt><trkpt lat="45.2704555" lon="8.7329845"><ele>107.0</ele><time>2026-04-25T16:08:07.49Z</time></trkpt><trkpt lat="45.2704849" lon="8.733147"><ele>107.0</ele><time>2026-04-25T16:08:08.491Z</time></trkpt><trkpt lat="45.2705144" lon="8.7333113"><ele>107.0</ele><time>2026-04-25T16:08:09.491Z</time></trkpt><trkpt lat="45.2705425" lon="8.7334778"><ele>107.0</ele><time>2026-04-25T16:08:10.491Z</time></trkpt><trkpt lat="45.2705724" lon="8.7336495"><ele>107.0</ele><time>2026-04-25T16:08:11.491Z</time></trkpt><trkpt lat="45.2706023" lon="8.7338384"><ele>107.0</ele><time>2026-04-25T16:08:12.491Z</time></trkpt><trkpt lat="45.2706342" lon="8.7340307"><ele>106.75</ele><time>2026-04-25T16:08:13.491Z</time></trkpt><trkpt lat="45.2706649" lon="8.7342086"><ele>106.5</ele><time>2026-04-25T16:08:14.491Z</time></trkpt><trkpt lat="45.2706945" lon="8.7343686"><ele>106.25</ele><time>2026-04-25T16:08:15.49Z</time></trkpt><trkpt lat="45.2707242" lon="8.7345156"><ele>106.0</ele><time>2026-04-25T16:08:16.491Z</time></trkpt><trkpt lat="45.2707487" lon="8.7346524"><ele>106.00000000000001</ele><time>2026-04-25T16:08:17.491Z</time></trkpt><trkpt lat="45.27076" lon="8.7347741"><ele>106.0</ele><time>2026-04-25T16:08:18.49Z</time></trkpt><trkpt lat="45.2707572" lon="8.7348916"><ele>106.0</ele><time>2026-04-25T16:08:19.491Z</time></trkpt><trkpt lat="45.2707326" lon="8.734994"><ele>106.0</ele><time>2026-04-25T16:08:20.49Z</time></trkpt><trkpt lat="45.2706838" lon="8.7350885"><ele>106.00000000000001</ele><time>2026-04-25T16:08:21.491Z</time></trkpt><trkpt lat="45.2706176" lon="8.735178"><ele>106.0</ele><time>2026-04-25T16:08:22.491Z</time></trkpt><trkpt lat="45.2705562" lon="8.7352599"><ele>106.50000000000001</ele><time>2026-04-25T16:08:23.491Z</time></trkpt><trkpt lat="45.2705096" lon="8.7353398"><ele>107.0</ele><time>2026-04-25T16:08:24.49Z</time></trkpt><trkpt lat="45.2704825" lon="8.7354302"><ele>107.5</ele><time>2026-04-25T16:08:25.491Z</time></trkpt><trkpt lat="45.2704725" lon="8.7355275"><ele>108.0</ele><time>2026-04-25T16:08:26.491Z</time></trkpt><trkpt lat="45.270477" lon="8.7356428"><ele>108.50000000000001</ele><time>2026-04-25T16:08:27.491Z</time></trkpt><trkpt lat="45.2704971" lon="8.7357652"><ele>109.0</ele><time>2026-04-25T16:08:28.491Z</time></trkpt><trkpt lat="45.2705324" lon="8.73591"><ele>108.75</ele><time>2026-04-25T16:08:29.491Z</time></trkpt><trkpt lat="45.2705646" lon="8.7360628"><ele>108.5</ele><time>2026-04-25T16:08:30.491Z</time></trkpt><trkpt lat="45.2706048" lon="8.7362262"><ele>108.25</ele><time>2026-04-25T16:08:31.49Z</time></trkpt><trkpt lat="45.2706422" lon="8.7363891"><ele>108.0</ele><time>2026-04-25T16:08:32.491Z</time></trkpt><trkpt lat="45.2706776" lon="8.7365667"><ele>108.0</ele><time>2026-04-25T16:08:33.491Z</time></trkpt><trkpt lat="45.2707118" lon="8.736747"><ele>108.0</ele><time>2026-04-25T16:08:34.491Z</time></trkpt><trkpt lat="45.2707449" lon="8.7369245"><ele>108.0</ele><time>2026-04-25T16:08:35.49Z</time></trkpt><trkpt lat="45.270782" lon="8.7370927"><ele>108.0</ele><time>2026-04-25T16:08:36.49Z</time></trkpt><trkpt lat="45.2708126" lon="8.7372418"><ele>107.80000000000001</ele><time>2026-04-25T16:08:37.491Z</time></trkpt><trkpt lat="45.2708393" lon="8.7373666"><ele>107.60000000000001</ele><time>2026-04-25T16:08:38.491Z</time></trkpt><trkpt lat="45.2708692" lon="8.7374653"><ele>107.39999999999999</ele><time>2026-04-25T16:08:39.491Z</time></trkpt><trkpt lat="45.2709314" lon="8.7375632"><ele>107.19999999999999</ele><time>2026-04-25T16:08:41.491Z</time></trkpt><trkpt lat="45.2710391" lon="8.7375923"><ele>107.0</ele><time>2026-04-25T16:08:43.491Z</time></trkpt><trkpt lat="45.2711216" lon="8.7375951"><ele>107.0</ele><time>2026-04-25T16:08:44.491Z</time></trkpt><trkpt lat="45.2712301" lon="8.7376022"><ele>107.0</ele><time>2026-04-25T16:08:45.491Z</time></trkpt><trkpt lat="45.2713502" lon="8.7376115"><ele>107.0</ele><time>2026-04-25T16:08:46.491Z</time></trkpt><trkpt lat="45.2714782" lon="8.7376229"><ele>107.0</ele><time>2026-04-25T16:08:47.491Z</time></trkpt><trkpt lat="45.2716019" lon="8.7376326"><ele>107.25</ele><time>2026-04-25T16:08:48.491Z</time></trkpt><trkpt lat="45.2717299" lon="8.7376398"><ele>107.5</ele><time>2026-04-25T16:08:49.491Z</time></trkpt><trkpt lat="45.2718609" lon="8.7376484"><ele>107.75</ele><time>2026-04-25T16:08:50.49Z</time></trkpt><trkpt lat="45.2719921" lon="8.7376559"><ele>108.0</ele><time>2026-04-25T16:08:51.49Z</time></trkpt><trkpt lat="45.2721247" lon="8.7376672"><ele>108.0</ele><time>2026-04-25T16:08:52.491Z</time></trkpt><trkpt lat="45.2722611" lon="8.7376826"><ele>108.0</ele><time>2026-04-25T16:08:53.49Z</time></trkpt><trkpt lat="45.2724018" lon="8.7377"><ele>108.0</ele><time>2026-04-25T16:08:54.49Z</time></trkpt><trkpt lat="45.2725453" lon="8.7377266"><ele>108.0</ele><time>2026-04-25T16:08:55.491Z</time></trkpt><trkpt lat="45.2726968" lon="8.7377593"><ele>108.33333333333334</ele><time>2026-04-25T16:08:56.491Z</time></trkpt><trkpt lat="45.2728551" lon="8.7377926"><ele>108.66666666666667</ele><time>2026-04-25T16:08:57.491Z</time></trkpt><trkpt lat="45.2730224" lon="8.7378317"><ele>109.0</ele><time>2026-04-25T16:08:58.49Z</time></trkpt><trkpt lat="45.2731938" lon="8.7378663"><ele>109.33333333333334</ele><time>2026-04-25T16:08:59.491Z</time></trkpt><trkpt lat="45.273359" lon="8.737894"><ele>109.66666666666666</ele><time>2026-04-25T16:09:00.49Z</time></trkpt><trkpt lat="45.273519" lon="8.7379265"><ele>110.0</ele><time>2026-04-25T16:09:01.491Z</time></trkpt><trkpt lat="45.2736756" lon="8.737954"><ele>110.0</ele><time>2026-04-25T16:09:02.491Z</time></trkpt><trkpt lat="45.2738267" lon="8.7379805"><ele>110.0</ele><time>2026-04-25T16:09:03.49Z</time></trkpt><trkpt lat="45.2739785" lon="8.738011"><ele>110.0</ele><time>2026-04-25T16:09:04.49Z</time></trkpt><trkpt lat="45.2741308" lon="8.7380321"><ele>109.0</ele><time>2026-04-25T16:09:05.491Z</time></trkpt><trkpt lat="45.2742823" lon="8.7380507"><ele>108.0</ele><time>2026-04-25T16:09:06.49Z</time></trkpt><trkpt lat="45.2744307" lon="8.7380747"><ele>107.0</ele><time>2026-04-25T16:09:07.491Z</time></trkpt><trkpt lat="45.2745689" lon="8.7380988"><ele>106.0</ele><time>2026-04-25T16:09:08.491Z</time></trkpt><trkpt lat="45.2747053" lon="8.7381263"><ele>105.75</ele><time>2026-04-25T16:09:09.491Z</time></trkpt><trkpt lat="45.2748424" lon="8.7381595"><ele>105.5</ele><time>2026-04-25T16:09:10.49Z</time></trkpt><trkpt lat="45.2749886" lon="8.7382009"><ele>105.25</ele><time>2026-04-25T16:09:11.491Z</time></trkpt><trkpt lat="45.2751338" lon="8.7382437"><ele>105.0</ele><time>2026-04-25T16:09:12.491Z</time></trkpt><trkpt lat="45.2752675" lon="8.7382909"><ele>105.0</ele><time>2026-04-25T16:09:13.49Z</time></trkpt><trkpt lat="45.2753914" lon="8.738328"><ele>105.0</ele><time>2026-04-25T16:09:14.49Z</time></trkpt><trkpt lat="45.2755059" lon="8.7383691"><ele>105.0</ele><time>2026-04-25T16:09:15.491Z</time></trkpt><trkpt lat="45.2756058" lon="8.7384081"><ele>105.0</ele><time>2026-04-25T16:09:16.491Z</time></trkpt><trkpt lat="45.2756955" lon="8.7384489"><ele>105.0</ele><time>2026-04-25T16:09:17.491Z</time></trkpt><trkpt lat="45.2757677" lon="8.7384994"><ele>105.2</ele><time>2026-04-25T16:09:18.491Z</time></trkpt><trkpt lat="45.2758223" lon="8.7385572"><ele>105.4</ele><time>2026-04-25T16:09:19.491Z</time></trkpt><trkpt lat="45.2758656" lon="8.7386999"><ele>105.6</ele><time>2026-04-25T16:09:21.49Z</time></trkpt><trkpt lat="45.2758652" lon="8.7388088"><ele>105.8</ele><time>2026-04-25T16:09:22.491Z</time></trkpt><trkpt lat="45.2758598" lon="8.7389496"><ele>106.0</ele><time>2026-04-25T16:09:23.491Z</time></trkpt><trkpt lat="45.2758555" lon="8.7391061"><ele>106.0</ele><time>2026-04-25T16:09:24.491Z</time></trkpt><trkpt lat="45.275851" lon="8.7392664"><ele>106.0</ele><time>2026-04-25T16:09:25.491Z</time></trkpt><trkpt lat="45.2758517" lon="8.7394334"><ele>106.0</ele><time>2026-04-25T16:09:26.491Z</time></trkpt><trkpt lat="45.2758559" lon="8.7396037"><ele>106.0</ele><time>2026-04-25T16:09:27.491Z</time></trkpt><trkpt lat="45.2758518" lon="8.739784"><ele>106.19999999999999</ele><time>2026-04-25T16:09:28.491Z</time></trkpt><trkpt lat="45.2758478" lon="8.7399598"><ele>106.39999999999999</ele><time>2026-04-25T16:09:29.49Z</time></trkpt><trkpt lat="45.2758447" lon="8.7401252"><ele>106.6</ele><time>2026-04-25T16:09:30.491Z</time></trkpt><trkpt lat="45.2758415" lon="8.7402725"><ele>106.8</ele><time>2026-04-25T16:09:31.491Z</time></trkpt><trkpt lat="45.2758468" lon="8.7404147"><ele>107.0</ele><time>2026-04-25T16:09:32.49Z</time></trkpt><trkpt lat="45.275867" lon="8.7405371"><ele>107.16666666666666</ele><time>2026-04-25T16:09:33.491Z</time></trkpt><trkpt lat="45.275899" lon="8.7406436"><ele>107.33333333333333</ele><time>2026-04-25T16:09:34.49Z</time></trkpt><trkpt lat="45.2759428" lon="8.7407342"><ele>107.5</ele><time>2026-04-25T16:09:35.491Z</time></trkpt><trkpt lat="45.2759944" lon="8.740802"><ele>107.66666666666666</ele><time>2026-04-25T16:09:36.491Z</time></trkpt><trkpt lat="45.2760593" lon="8.7408551"><ele>107.83333333333333</ele><time>2026-04-25T16:09:37.491Z</time></trkpt><trkpt lat="45.2761317" lon="8.7408864"><ele>108.0</ele><time>2026-04-25T16:09:38.491Z</time></trkpt><trkpt lat="45.2762188" lon="8.7408951"><ele>108.0</ele><time>2026-04-25T16:09:39.49Z</time></trkpt><trkpt lat="45.2763158" lon="8.7409043"><ele>108.00000000000001</ele><time>2026-04-25T16:09:40.49Z</time></trkpt><trkpt lat="45.2764258" lon="8.7409139"><ele>108.00000000000001</ele><time>2026-04-25T16:09:41.491Z</time></trkpt><trkpt lat="45.2765458" lon="8.7409181"><ele>108.0</ele><time>2026-04-25T16:09:42.491Z</time></trkpt><trkpt lat="45.2766658" lon="8.7409248"><ele>108.0</ele><time>2026-04-25T16:09:43.491Z</time></trkpt><trkpt lat="45.276779" lon="8.7409394"><ele>107.75</ele><time>2026-04-25T16:09:44.49Z</time></trkpt><trkpt lat="45.2768898" lon="8.7409629"><ele>107.5</ele><time>2026-04-25T16:09:45.491Z</time></trkpt><trkpt lat="45.2770033" lon="8.7409963"><ele>107.25</ele><time>2026-04-25T16:09:46.491Z</time></trkpt><trkpt lat="45.2771134" lon="8.7410413"><ele>107.0</ele><time>2026-04-25T16:09:47.49Z</time></trkpt><trkpt lat="45.2772286" lon="8.7410823"><ele>107.25</ele><time>2026-04-25T16:09:48.49Z</time></trkpt><trkpt lat="45.2773439" lon="8.7411147"><ele>107.5</ele><time>2026-04-25T16:09:49.49Z</time></trkpt><trkpt lat="45.2774663" lon="8.7411332"><ele>107.75</ele><time>2026-04-25T16:09:50.491Z</time></trkpt><trkpt lat="45.2775913" lon="8.7411318"><ele>108.0</ele><time>2026-04-25T16:09:51.491Z</time></trkpt><trkpt lat="45.2777173" lon="8.7411173"><ele>108.0</ele><time>2026-04-25T16:09:52.491Z</time></trkpt><trkpt lat="45.2778519" lon="8.7411028"><ele>108.0</ele><time>2026-04-25T16:09:53.491Z</time></trkpt><trkpt lat="45.2779928" lon="8.741087"><ele>108.0</ele><time>2026-04-25T16:09:54.491Z</time></trkpt><trkpt lat="45.278128" lon="8.7410727"><ele>108.0</ele><time>2026-04-25T16:09:55.49Z</time></trkpt><trkpt lat="45.2782515" lon="8.7410599"><ele>108.2</ele><time>2026-04-25T16:09:56.491Z</time></trkpt><trkpt lat="45.2783652" lon="8.7410505"><ele>108.4</ele><time>2026-04-25T16:09:57.491Z</time></trkpt><trkpt lat="45.2784718" lon="8.7410493"><ele>108.60000000000001</ele><time>2026-04-25T16:09:58.49Z</time></trkpt><trkpt lat="45.2785628" lon="8.7410613"><ele>108.80000000000001</ele><time>2026-04-25T16:09:59.49Z</time></trkpt><trkpt lat="45.2786433" lon="8.7410913"><ele>109.0</ele><time>2026-04-25T16:10:00.491Z</time></trkpt><trkpt lat="45.2787071" lon="8.7411446"><ele>109.0</ele><time>2026-04-25T16:10:01.491Z</time></trkpt><trkpt lat="45.2787595" lon="8.7412232"><ele>109.0</ele><time>2026-04-25T16:10:02.49Z</time></trkpt><trkpt lat="45.2788046" lon="8.7413278"><ele>109.0</ele><time>2026-04-25T16:10:03.49Z</time></trkpt><trkpt lat="45.2788554" lon="8.7414576"><ele>109.0</ele><time>2026-04-25T16:10:04.491Z</time></trkpt><trkpt lat="45.2789094" lon="8.7415806"><ele>109.0</ele><time>2026-04-25T16:10:05.49Z</time></trkpt><trkpt lat="45.2789582" lon="8.7416967"><ele>109.0</ele><time>2026-04-25T16:10:06.491Z</time></trkpt><trkpt lat="45.2790038" lon="8.7418166"><ele>109.0</ele><time>2026-04-25T16:10:07.491Z</time></trkpt><trkpt lat="45.2790483" lon="8.7419396"><ele>109.0</ele><time>2026-04-25T16:10:08.49Z</time></trkpt><trkpt lat="45.2790903" lon="8.7420689"><ele>109.0</ele><time>2026-04-25T16:10:09.491Z</time></trkpt><trkpt lat="45.2791225" lon="8.7421948"><ele>109.0</ele><time>2026-04-25T16:10:10.491Z</time></trkpt><trkpt lat="45.2791529" lon="8.7423125"><ele>108.80000000000001</ele><time>2026-04-25T16:10:11.491Z</time></trkpt><trkpt lat="45.2791809" lon="8.7424375"><ele>108.60000000000001</ele><time>2026-04-25T16:10:12.491Z</time></trkpt><trkpt lat="45.2792039" lon="8.7425624"><ele>108.4</ele><time>2026-04-25T16:10:13.49Z</time></trkpt><trkpt lat="45.2792248" lon="8.7426865"><ele>108.2</ele><time>2026-04-25T16:10:14.491Z</time></trkpt><trkpt lat="45.2792416" lon="8.7428161"><ele>108.0</ele><time>2026-04-25T16:10:15.491Z</time></trkpt><trkpt lat="45.2792601" lon="8.7429548"><ele>108.0</ele><time>2026-04-25T16:10:16.491Z</time></trkpt><trkpt lat="45.2792709" lon="8.7431004"><ele>108.0</ele><time>2026-04-25T16:10:17.491Z</time></trkpt><trkpt lat="45.2792739" lon="8.7432636"><ele>108.0</ele><time>2026-04-25T16:10:18.491Z</time></trkpt><trkpt lat="45.2792759" lon="8.743435"><ele>108.0</ele><time>2026-04-25T16:10:19.491Z</time></trkpt><trkpt lat="45.2792777" lon="8.7436038"><ele>108.0</ele><time>2026-04-25T16:10:20.491Z</time></trkpt><trkpt lat="45.2792814" lon="8.743774"><ele>108.0</ele><time>2026-04-25T16:10:21.491Z</time></trkpt><trkpt lat="45.2792866" lon="8.7439467"><ele>108.0</ele><time>2026-04-25T16:10:22.491Z</time></trkpt><trkpt lat="45.2792995" lon="8.7441123"><ele>108.0</ele><time>2026-04-25T16:10:23.49Z</time></trkpt><trkpt lat="45.2793121" lon="8.7442646"><ele>107.80000000000001</ele><time>2026-04-25T16:10:24.491Z</time></trkpt><trkpt lat="45.2793222" lon="8.7443971"><ele>107.60000000000001</ele><time>2026-04-25T16:10:25.491Z</time></trkpt><trkpt lat="45.2793321" lon="8.7445379"><ele>107.39999999999999</ele><time>2026-04-25T16:10:26.491Z</time></trkpt><trkpt lat="45.279343" lon="8.7446856"><ele>107.19999999999999</ele><time>2026-04-25T16:10:27.491Z</time></trkpt><trkpt lat="45.2793537" lon="8.7448287"><ele>107.0</ele><time>2026-04-25T16:10:28.491Z</time></trkpt><trkpt lat="45.2793652" lon="8.7449662"><ele>106.99999999999999</ele><time>2026-04-25T16:10:29.491Z</time></trkpt><trkpt lat="45.2793726" lon="8.7450947"><ele>107.0</ele><time>2026-04-25T16:10:30.491Z</time></trkpt><trkpt lat="45.2793793" lon="8.7452228"><ele>107.0</ele><time>2026-04-25T16:10:31.491Z</time></trkpt><trkpt lat="45.2793844" lon="8.7453483"><ele>107.0</ele><time>2026-04-25T16:10:32.491Z</time></trkpt><trkpt lat="45.279391" lon="8.7454741"><ele>106.99999999999999</ele><time>2026-04-25T16:10:33.49Z</time></trkpt><trkpt lat="45.2793975" lon="8.7455978"><ele>107.0</ele><time>2026-04-25T16:10:34.491Z</time></trkpt><trkpt lat="45.2794038" lon="8.7457193"><ele>106.99999999999999</ele><time>2026-04-25T16:10:35.49Z</time></trkpt><trkpt lat="45.2794106" lon="8.7458418"><ele>107.0</ele><time>2026-04-25T16:10:36.49Z</time></trkpt><trkpt lat="45.279416" lon="8.7459581"><ele>107.0</ele><time>2026-04-25T16:10:37.491Z</time></trkpt><trkpt lat="45.2794212" lon="8.7460733"><ele>107.0</ele><time>2026-04-25T16:10:38.491Z</time></trkpt><trkpt lat="45.2794276" lon="8.7461862"><ele>106.99999999999999</ele><time>2026-04-25T16:10:39.491Z</time></trkpt><trkpt lat="45.2794332" lon="8.746299"><ele>107.0</ele><time>2026-04-25T16:10:40.491Z</time></trkpt><trkpt lat="45.2794362" lon="8.7464081"><ele>107.16666666666666</ele><time>2026-04-25T16:10:41.491Z</time></trkpt><trkpt lat="45.2794382" lon="8.7465175"><ele>107.33333333333333</ele><time>2026-04-25T16:10:42.491Z</time></trkpt><trkpt lat="45.2794383" lon="8.7466163"><ele>107.5</ele><time>2026-04-25T16:10:43.491Z</time></trkpt><trkpt lat="45.2794362" lon="8.746756"><ele>107.66666666666666</ele><time>2026-04-25T16:10:45.491Z</time></trkpt><trkpt lat="45.2794384" lon="8.7468942"><ele>107.83333333333333</ele><time>2026-04-25T16:10:48.491Z</time></trkpt><trkpt lat="45.2794265" lon="8.7469914"><ele>108.0</ele><time>2026-04-25T16:10:50.491Z</time></trkpt><trkpt lat="45.2794292" lon="8.7470849"><ele>108.4</ele><time>2026-04-25T16:10:54.491Z</time></trkpt><trkpt lat="45.2794389" lon="8.7471769"><ele>108.80000000000001</ele><time>2026-04-25T16:11:26.491Z</time></trkpt><trkpt lat="45.2794565" lon="8.747374"><ele>109.2</ele><time>2026-04-25T16:11:28.491Z</time></trkpt><trkpt lat="45.2794627" lon="8.7475117"><ele>109.6</ele><time>2026-04-25T16:11:29.491Z</time></trkpt><trkpt lat="45.2794744" lon="8.7476713"><ele>110.0</ele><time>2026-04-25T16:11:30.491Z</time></trkpt><trkpt lat="45.2794875" lon="8.7478444"><ele>110.2</ele><time>2026-04-25T16:11:31.491Z</time></trkpt><trkpt lat="45.279498" lon="8.748007"><ele>110.4</ele><time>2026-04-25T16:11:32.491Z</time></trkpt><trkpt lat="45.2795097" lon="8.7481555"><ele>110.6</ele><time>2026-04-25T16:11:33.491Z</time></trkpt><trkpt lat="45.2795115" lon="8.7482924"><ele>110.8</ele><time>2026-04-25T16:11:34.491Z</time></trkpt><trkpt lat="45.279513" lon="8.7484145"><ele>111.0</ele><time>2026-04-25T16:11:35.49Z</time></trkpt><trkpt lat="45.2795131" lon="8.7485174"><ele>111.0</ele><time>2026-04-25T16:11:36.491Z</time></trkpt><trkpt lat="45.2795094" lon="8.7486215"><ele>111.0</ele><time>2026-04-25T16:11:38.491Z</time></trkpt><trkpt lat="45.2795053" lon="8.7487142"><ele>111.0</ele><time>2026-04-25T16:11:42.491Z</time></trkpt><trkpt lat="45.2795845" lon="8.7487705"><ele>111.0</ele><time>2026-04-25T16:11:44.49Z</time></trkpt><trkpt lat="45.2796659" lon="8.7487933"><ele>111.0</ele><time>2026-04-25T16:11:45.491Z</time></trkpt><trkpt lat="45.2797824" lon="8.7488201"><ele>111.0</ele><time>2026-04-25T16:11:46.491Z</time></trkpt><trkpt lat="45.2799122" lon="8.7488568"><ele>111.0</ele><time>2026-04-25T16:11:47.491Z</time></trkpt><trkpt lat="45.2800811" lon="8.7488937"><ele>111.0</ele><time>2026-04-25T16:11:48.491Z</time></trkpt><trkpt lat="45.2802456" lon="8.7489383"><ele>111.0</ele><time>2026-04-25T16:11:49.491Z</time></trkpt><trkpt lat="45.280425" lon="8.7489812"><ele>111.0</ele><time>2026-04-25T16:11:50.491Z</time></trkpt><trkpt lat="45.2805861" lon="8.7490178"><ele>111.0</ele><time>2026-04-25T16:11:51.491Z</time></trkpt><trkpt lat="45.2807382" lon="8.7490604"><ele>111.0</ele><time>2026-04-25T16:11:52.491Z</time></trkpt><trkpt lat="45.2808687" lon="8.7490951"><ele>111.25</ele><time>2026-04-25T16:11:53.491Z</time></trkpt><trkpt lat="45.2809969" lon="8.7491241"><ele>111.5</ele><time>2026-04-25T16:11:54.49Z</time></trkpt><trkpt lat="45.2811408" lon="8.7491664"><ele>111.75</ele><time>2026-04-25T16:11:55.491Z</time></trkpt><trkpt lat="45.2812993" lon="8.7491983"><ele>112.0</ele><time>2026-04-25T16:11:56.491Z</time></trkpt><trkpt lat="45.2814715" lon="8.7492374"><ele>112.0</ele><time>2026-04-25T16:11:57.49Z</time></trkpt><trkpt lat="45.2816265" lon="8.7492702"><ele>112.0</ele><time>2026-04-25T16:11:58.491Z</time></trkpt><trkpt lat="45.2817692" lon="8.7493056"><ele>112.0</ele><time>2026-04-25T16:11:59.491Z</time></trkpt><trkpt lat="45.2819028" lon="8.7493435"><ele>112.0</ele><time>2026-04-25T16:12:00.49Z</time></trkpt><trkpt lat="45.2820197" lon="8.7493817"><ele>112.00000000000001</ele><time>2026-04-25T16:12:01.49Z</time></trkpt><trkpt lat="45.2821314" lon="8.7494113"><ele>112.0</ele><time>2026-04-25T16:12:02.491Z</time></trkpt><trkpt lat="45.2822194" lon="8.7494391"><ele>112.0</ele><time>2026-04-25T16:12:03.49Z</time></trkpt><trkpt lat="45.2823027" lon="8.7494602"><ele>112.0</ele><time>2026-04-25T16:12:04.49Z</time></trkpt><trkpt lat="45.2823782" lon="8.74948"><ele>112.00000000000001</ele><time>2026-04-25T16:12:05.491Z</time></trkpt><trkpt lat="45.2824414" lon="8.7495002"><ele>112.0</ele><time>2026-04-25T16:12:06.491Z</time></trkpt><trkpt lat="45.2825245" lon="8.7495221"><ele>112.00000000000001</ele><time>2026-04-25T16:12:08.49Z</time></trkpt><trkpt lat="45.2825569" lon="8.7496114"><ele>112.0</ele><time>2026-04-25T16:12:10.491Z</time></trkpt><trkpt lat="45.2825445" lon="8.7497363"><ele>112.0</ele><time>2026-04-25T16:12:12.49Z</time></trkpt><trkpt lat="45.2825145" lon="8.74984"><ele>112.0</ele><time>2026-04-25T16:12:20.491Z</time></trkpt><trkpt lat="45.2825143" lon="8.7499526"><ele>112.00000000000001</ele><time>2026-04-25T16:12:23.491Z</time></trkpt><trkpt lat="45.2824953" lon="8.7500646"><ele>112.0</ele><time>2026-04-25T16:12:28.491Z</time></trkpt><trkpt lat="45.282456" lon="8.7502316"><ele>111.83333333333334</ele><time>2026-04-25T16:12:30.49Z</time></trkpt><trkpt lat="45.2824389" lon="8.7503279"><ele>111.66666666666667</ele><time>2026-04-25T16:12:31.491Z</time></trkpt><trkpt lat="45.2824257" lon="8.7504298"><ele>111.5</ele><time>2026-04-25T16:12:32.491Z</time></trkpt><trkpt lat="45.2824133" lon="8.7505419"><ele>111.33333333333334</ele><time>2026-04-25T16:12:33.49Z</time></trkpt><trkpt lat="45.2823969" lon="8.7506748"><ele>111.16666666666667</ele><time>2026-04-25T16:12:34.491Z</time></trkpt><trkpt lat="45.2823757" lon="8.7508166"><ele>111.0</ele><time>2026-04-25T16:12:35.491Z</time></trkpt><trkpt lat="45.2823506" lon="8.7509703"><ele>111.0</ele><time>2026-04-25T16:12:36.49Z</time></trkpt><trkpt lat="45.282328" lon="8.7511276"><ele>111.0</ele><time>2026-04-25T16:12:37.491Z</time></trkpt><trkpt lat="45.2823049" lon="8.7512965"><ele>111.0</ele><time>2026-04-25T16:12:38.49Z</time></trkpt><trkpt lat="45.2822795" lon="8.7514659"><ele>111.0</ele><time>2026-04-25T16:12:39.491Z</time></trkpt><trkpt lat="45.2822639" lon="8.7516252"><ele>111.0</ele><time>2026-04-25T16:12:40.491Z</time></trkpt><trkpt lat="45.282242" lon="8.7517764"><ele>111.0</ele><time>2026-04-25T16:12:41.491Z</time></trkpt><trkpt lat="45.2822208" lon="8.7519229"><ele>111.0</ele><time>2026-04-25T16:12:42.491Z</time></trkpt><trkpt lat="45.2822006" lon="8.7520566"><ele>111.0</ele><time>2026-04-25T16:12:43.491Z</time></trkpt><trkpt lat="45.2821855" lon="8.7521891"><ele>111.0</ele><time>2026-04-25T16:12:44.491Z</time></trkpt><trkpt lat="45.2821691" lon="8.7523291"><ele>111.0</ele><time>2026-04-25T16:12:45.491Z</time></trkpt><trkpt lat="45.2821485" lon="8.7524867"><ele>111.0</ele><time>2026-04-25T16:12:46.491Z</time></trkpt><trkpt lat="45.2821207" lon="8.7526708"><ele>111.0</ele><time>2026-04-25T16:12:47.491Z</time></trkpt><trkpt lat="45.282089" lon="8.7528665"><ele>111.0</ele><time>2026-04-25T16:12:48.491Z</time></trkpt><trkpt lat="45.2820525" lon="8.7530577"><ele>111.0</ele><time>2026-04-25T16:12:49.491Z</time></trkpt><trkpt lat="45.2820254" lon="8.7532419"><ele>111.0</ele><time>2026-04-25T16:12:50.49Z</time></trkpt><trkpt lat="45.2820043" lon="8.7534127"><ele>111.0</ele><time>2026-04-25T16:12:51.49Z</time></trkpt><trkpt lat="45.2819841" lon="8.7535667"><ele>111.0</ele><time>2026-04-25T16:12:52.49Z</time></trkpt><trkpt lat="45.2819594" lon="8.7537124"><ele>111.0</ele><time>2026-04-25T16:12:53.491Z</time></trkpt><trkpt lat="45.2819411" lon="8.7538517"><ele>111.0</ele><time>2026-04-25T16:12:54.49Z</time></trkpt><trkpt lat="45.2819196" lon="8.7539934"><ele>111.0</ele><time>2026-04-25T16:12:55.491Z</time></trkpt><trkpt lat="45.2818996" lon="8.754137"><ele>111.0</ele><time>2026-04-25T16:12:56.491Z</time></trkpt><trkpt lat="45.2818807" lon="8.7542683"><ele>111.0</ele><time>2026-04-25T16:12:57.49Z</time></trkpt><trkpt lat="45.2818646" lon="8.7543887"><ele>111.0</ele><time>2026-04-25T16:12:58.491Z</time></trkpt><trkpt lat="45.2818484" lon="8.7544971"><ele>111.0</ele><time>2026-04-25T16:12:59.49Z</time></trkpt><trkpt lat="45.2818443" lon="8.7545953"><ele>111.0</ele><time>2026-04-25T16:13:00.491Z</time></trkpt><trkpt lat="45.2818732" lon="8.7547532"><ele>111.0</ele><time>2026-04-25T16:13:02.491Z</time></trkpt><trkpt lat="45.2819171" lon="8.7548455"><ele>111.0</ele><time>2026-04-25T16:13:04.49Z</time></trkpt><trkpt lat="45.2819549" lon="8.7549583"><ele>111.0</ele><time>2026-04-25T16:13:06.491Z</time></trkpt><trkpt lat="45.2819874" lon="8.7550803"><ele>111.0</ele><time>2026-04-25T16:13:08.491Z</time></trkpt><trkpt lat="45.2820229" lon="8.7552011"><ele>111.0</ele><time>2026-04-25T16:13:10.49Z</time></trkpt><trkpt lat="45.2820765" lon="8.755388"><ele>111.0</ele><time>2026-04-25T16:13:12.49Z</time></trkpt><trkpt lat="45.2821132" lon="8.7555298"><ele>111.0</ele><time>2026-04-25T16:13:13.491Z</time></trkpt><trkpt lat="45.2821553" lon="8.7556918"><ele>111.0</ele><time>2026-04-25T16:13:14.491Z</time></trkpt><trkpt lat="45.2822002" lon="8.7558621"><ele>111.0</ele><time>2026-04-25T16:13:15.491Z</time></trkpt><trkpt lat="45.2822424" lon="8.7560388"><ele>111.0</ele><time>2026-04-25T16:13:16.491Z</time></trkpt><trkpt lat="45.2822857" lon="8.756213"><ele>111.0</ele><time>2026-04-25T16:13:17.491Z</time></trkpt><trkpt lat="45.2823315" lon="8.7563869"><ele>111.0</ele><time>2026-04-25T16:13:18.491Z</time></trkpt><trkpt lat="45.2823732" lon="8.7565546"><ele>111.0</ele><time>2026-04-25T16:13:19.49Z</time></trkpt><trkpt lat="45.282416" lon="8.7567189"><ele>111.0</ele><time>2026-04-25T16:13:20.49Z</time></trkpt><trkpt lat="45.2824627" lon="8.7568851"><ele>111.0</ele><time>2026-04-25T16:13:21.49Z</time></trkpt><trkpt lat="45.2825093" lon="8.757061"><ele>111.0</ele><time>2026-04-25T16:13:22.491Z</time></trkpt><trkpt lat="45.2825637" lon="8.7572501"><ele>111.0</ele><time>2026-04-25T16:13:23.491Z</time></trkpt><trkpt lat="45.2826146" lon="8.7574581"><ele>111.0</ele><time>2026-04-25T16:13:24.491Z</time></trkpt><trkpt lat="45.282663" lon="8.7576627"><ele>111.0</ele><time>2026-04-25T16:13:25.491Z</time></trkpt><trkpt lat="45.2827073" lon="8.7578564"><ele>111.0</ele><time>2026-04-25T16:13:26.491Z</time></trkpt><trkpt lat="45.2827503" lon="8.758039"><ele>111.0</ele><time>2026-04-25T16:13:27.491Z</time></trkpt><trkpt lat="45.2827967" lon="8.7582219"><ele>111.0</ele><time>2026-04-25T16:13:28.491Z</time></trkpt><trkpt lat="45.282842" lon="8.7584011"><ele>110.5</ele><time>2026-04-25T16:13:29.49Z</time></trkpt><trkpt lat="45.2828899" lon="8.7585819"><ele>110.0</ele><time>2026-04-25T16:13:30.491Z</time></trkpt><trkpt lat="45.282935" lon="8.7587735"><ele>109.5</ele><time>2026-04-25T16:13:31.491Z</time></trkpt><trkpt lat="45.2829758" lon="8.7589541"><ele>109.0</ele><time>2026-04-25T16:13:32.491Z</time></trkpt><trkpt lat="45.2830116" lon="8.7591159"><ele>109.0</ele><time>2026-04-25T16:13:33.49Z</time></trkpt><trkpt lat="45.2830432" lon="8.7592596"><ele>109.0</ele><time>2026-04-25T16:13:34.49Z</time></trkpt><trkpt lat="45.2830764" lon="8.7594038"><ele>109.0</ele><time>2026-04-25T16:13:35.49Z</time></trkpt><trkpt lat="45.2831108" lon="8.7595568"><ele>109.0</ele><time>2026-04-25T16:13:36.49Z</time></trkpt><trkpt lat="45.2831396" lon="8.7596966"><ele>109.0</ele><time>2026-04-25T16:13:37.49Z</time></trkpt><trkpt lat="45.2831692" lon="8.7598317"><ele>109.4</ele><time>2026-04-25T16:13:38.49Z</time></trkpt><trkpt lat="45.2832035" lon="8.7599733"><ele>109.80000000000001</ele><time>2026-04-25T16:13:39.491Z</time></trkpt><trkpt lat="45.283241" lon="8.7601187"><ele>110.19999999999999</ele><time>2026-04-25T16:13:40.491Z</time></trkpt><trkpt lat="45.2832786" lon="8.7602657"><ele>110.6</ele><time>2026-04-25T16:13:41.49Z</time></trkpt><trkpt lat="45.2833203" lon="8.7604209"><ele>111.0</ele><time>2026-04-25T16:13:42.49Z</time></trkpt><trkpt lat="45.2833568" lon="8.7605808"><ele>111.0</ele><time>2026-04-25T16:13:43.491Z</time></trkpt><trkpt lat="45.2833954" lon="8.7607424"><ele>111.0</ele><time>2026-04-25T16:13:44.491Z</time></trkpt><trkpt lat="45.2834382" lon="8.7609148"><ele>111.0</ele><time>2026-04-25T16:13:45.49Z</time></trkpt><trkpt lat="45.2834798" lon="8.7610882"><ele>111.0</ele><time>2026-04-25T16:13:46.49Z</time></trkpt><trkpt lat="45.2835271" lon="8.7612545"><ele>110.75</ele><time>2026-04-25T16:13:47.49Z</time></trkpt><trkpt lat="45.2835723" lon="8.7614106"><ele>110.5</ele><time>2026-04-25T16:13:48.491Z</time></trkpt><trkpt lat="45.2836194" lon="8.7615644"><ele>110.25</ele><time>2026-04-25T16:13:49.491Z</time></trkpt><trkpt lat="45.2836634" lon="8.7617161"><ele>110.0</ele><time>2026-04-25T16:13:50.49Z</time></trkpt><trkpt lat="45.2837086" lon="8.7618697"><ele>110.0</ele><time>2026-04-25T16:13:51.491Z</time></trkpt><trkpt lat="45.283751" lon="8.7620215"><ele>110.0</ele><time>2026-04-25T16:13:52.49Z</time></trkpt><trkpt lat="45.2837945" lon="8.7621756"><ele>110.0</ele><time>2026-04-25T16:13:53.491Z</time></trkpt><trkpt lat="45.283837" lon="8.7623312"><ele>110.0</ele><time>2026-04-25T16:13:54.491Z</time></trkpt><trkpt lat="45.2838798" lon="8.7624861"><ele>110.0</ele><time>2026-04-25T16:13:55.491Z</time></trkpt><trkpt lat="45.283917" lon="8.7626404"><ele>110.0</ele><time>2026-04-25T16:13:56.491Z</time></trkpt><trkpt lat="45.2839524" lon="8.7627871"><ele>110.0</ele><time>2026-04-25T16:13:57.491Z</time></trkpt><trkpt lat="45.2839883" lon="8.7629341"><ele>110.0</ele><time>2026-04-25T16:13:58.49Z</time></trkpt><trkpt lat="45.2840272" lon="8.7630808"><ele>110.0</ele><time>2026-04-25T16:13:59.491Z</time></trkpt><trkpt lat="45.2840612" lon="8.7632306"><ele>110.0</ele><time>2026-04-25T16:14:00.49Z</time></trkpt><trkpt lat="45.2840996" lon="8.763376"><ele>110.0</ele><time>2026-04-25T16:14:01.491Z</time></trkpt><trkpt lat="45.2841392" lon="8.7635173"><ele>110.0</ele><time>2026-04-25T16:14:02.49Z</time></trkpt><trkpt lat="45.2841791" lon="8.7636575"><ele>110.0</ele><time>2026-04-25T16:14:03.491Z</time></trkpt><trkpt lat="45.2842192" lon="8.7637954"><ele>110.0</ele><time>2026-04-25T16:14:04.491Z</time></trkpt><trkpt lat="45.2842521" lon="8.7639305"><ele>110.25</ele><time>2026-04-25T16:14:05.491Z</time></trkpt><trkpt lat="45.284277" lon="8.7640832"><ele>110.5</ele><time>2026-04-25T16:14:06.491Z</time></trkpt><trkpt lat="45.2843016" lon="8.764249"><ele>110.75</ele><time>2026-04-25T16:14:07.491Z</time></trkpt><trkpt lat="45.2843409" lon="8.7644186"><ele>111.0</ele><time>2026-04-25T16:14:08.491Z</time></trkpt><trkpt lat="45.284392" lon="8.7645998"><ele>111.0</ele><time>2026-04-25T16:14:09.491Z</time></trkpt><trkpt lat="45.2844478" lon="8.7647909"><ele>111.0</ele><time>2026-04-25T16:14:10.49Z</time></trkpt><trkpt lat="45.2845008" lon="8.764967"><ele>111.0</ele><time>2026-04-25T16:14:11.491Z</time></trkpt><trkpt lat="45.2845498" lon="8.765145"><ele>111.0</ele><time>2026-04-25T16:14:12.49Z</time></trkpt><trkpt lat="45.2845985" lon="8.7653286"><ele>110.5</ele><time>2026-04-25T16:14:13.491Z</time></trkpt><trkpt lat="45.2846454" lon="8.7655048"><ele>110.0</ele><time>2026-04-25T16:14:14.491Z</time></trkpt><trkpt lat="45.2846888" lon="8.7656747"><ele>109.5</ele><time>2026-04-25T16:14:15.491Z</time></trkpt><trkpt lat="45.2847332" lon="8.7658364"><ele>109.0</ele><time>2026-04-25T16:14:16.491Z</time></trkpt><trkpt lat="45.2847809" lon="8.7659987"><ele>109.5</ele><time>2026-04-25T16:14:17.49Z</time></trkpt><trkpt lat="45.28483" lon="8.7661662"><ele>110.0</ele><time>2026-04-25T16:14:18.49Z</time></trkpt><trkpt lat="45.2848759" lon="8.7663282"><ele>110.5</ele><time>2026-04-25T16:14:19.491Z</time></trkpt><trkpt lat="45.2849239" lon="8.766495"><ele>111.0</ele><time>2026-04-25T16:14:20.491Z</time></trkpt><trkpt lat="45.2849685" lon="8.7666514"><ele>111.0</ele><time>2026-04-25T16:14:21.49Z</time></trkpt><trkpt lat="45.2850064" lon="8.7667996"><ele>111.0</ele><time>2026-04-25T16:14:22.491Z</time></trkpt><trkpt lat="45.2850411" lon="8.7669383"><ele>111.0</ele><time>2026-04-25T16:14:23.491Z</time></trkpt><trkpt lat="45.2850736" lon="8.7670645"><ele>111.0</ele><time>2026-04-25T16:14:24.491Z</time></trkpt><trkpt lat="45.2851026" lon="8.7671866"><ele>111.0</ele><time>2026-04-25T16:14:25.491Z</time></trkpt><trkpt lat="45.2851276" lon="8.7672985"><ele>111.0</ele><time>2026-04-25T16:14:26.491Z</time></trkpt><trkpt lat="45.2851453" lon="8.7674007"><ele>111.0</ele><time>2026-04-25T16:14:27.491Z</time></trkpt><trkpt lat="45.2851439" lon="8.7675618"><ele>111.0</ele><time>2026-04-25T16:14:29.491Z</time></trkpt><trkpt lat="45.2851254" lon="8.767667"><ele>111.0</ele><time>2026-04-25T16:14:31.49Z</time></trkpt><trkpt lat="45.2850713" lon="8.7677777"><ele>111.0</ele><time>2026-04-25T16:14:34.491Z</time></trkpt><trkpt lat="45.2849686" lon="8.7678345"><ele>110.83333333333333</ele><time>2026-04-25T16:14:36.491Z</time></trkpt><trkpt lat="45.2848875" lon="8.7679148"><ele>110.66666666666666</ele><time>2026-04-25T16:14:38.49Z</time></trkpt><trkpt lat="45.2848481" lon="8.7680757"><ele>110.5</ele><time>2026-04-25T16:14:40.491Z</time></trkpt><trkpt lat="45.2848549" lon="8.7681728"><ele>110.33333333333333</ele><time>2026-04-25T16:14:41.491Z</time></trkpt><trkpt lat="45.2848617" lon="8.7682665"><ele>110.16666666666666</ele><time>2026-04-25T16:14:42.491Z</time></trkpt><trkpt lat="45.2848996" lon="8.7683838"><ele>110.0</ele><time>2026-04-25T16:14:44.491Z</time></trkpt><trkpt lat="45.2849671" lon="8.768436"><ele>110.0</ele><time>2026-04-25T16:15:01.491Z</time></trkpt><trkpt lat="45.2850567" lon="8.76845"><ele>110.0</ele><time>2026-04-25T16:15:03.49Z</time></trkpt><trkpt lat="45.2851795" lon="8.7684245"><ele>110.0</ele><time>2026-04-25T16:15:05.49Z</time></trkpt><trkpt lat="45.2853006" lon="8.768463"><ele>110.0</ele><time>2026-04-25T16:15:07.491Z</time></trkpt><trkpt lat="45.2853599" lon="8.7685494"><ele>110.0</ele><time>2026-04-25T16:15:08.49Z</time></trkpt><trkpt lat="45.285407" lon="8.7686812"><ele>109.25</ele><time>2026-04-25T16:15:09.49Z</time></trkpt><trkpt lat="45.2854463" lon="8.7688448"><ele>108.5</ele><time>2026-04-25T16:15:10.491Z</time></trkpt><trkpt lat="45.2854841" lon="8.7690338"><ele>107.75</ele><time>2026-04-25T16:15:11.491Z</time></trkpt><trkpt lat="45.2855215" lon="8.7692412"><ele>107.0</ele><time>2026-04-25T16:15:12.491Z</time></trkpt><trkpt lat="45.2855682" lon="8.7694673"><ele>107.0</ele><time>2026-04-25T16:15:13.49Z</time></trkpt><trkpt lat="45.2856155" lon="8.7697043"><ele>107.0</ele><time>2026-04-25T16:15:14.491Z</time></trkpt><trkpt lat="45.2856679" lon="8.7699517"><ele>107.0</ele><time>2026-04-25T16:15:15.491Z</time></trkpt><trkpt lat="45.2857256" lon="8.7702074"><ele>107.33333333333333</ele><time>2026-04-25T16:15:16.49Z</time></trkpt><trkpt lat="45.2857832" lon="8.770469"><ele>107.66666666666666</ele><time>2026-04-25T16:15:17.491Z</time></trkpt><trkpt lat="45.2858396" lon="8.7707375"><ele>108.0</ele><time>2026-04-25T16:15:18.491Z</time></trkpt><trkpt lat="45.2858991" lon="8.7710137"><ele>108.0</ele><time>2026-04-25T16:15:19.491Z</time></trkpt><trkpt lat="45.285964" lon="8.7712981"><ele>108.0</ele><time>2026-04-25T16:15:20.49Z</time></trkpt><trkpt lat="45.2860353" lon="8.7716054"><ele>108.0</ele><time>2026-04-25T16:15:21.49Z</time></trkpt><trkpt lat="45.2861039" lon="8.7719149"><ele>108.0</ele><time>2026-04-25T16:15:22.491Z</time></trkpt><trkpt lat="45.2861676" lon="8.772205"><ele>108.0</ele><time>2026-04-25T16:15:23.491Z</time></trkpt><trkpt lat="45.2862252" lon="8.7724794"><ele>108.0</ele><time>2026-04-25T16:15:24.49Z</time></trkpt><trkpt lat="45.2862728" lon="8.7727382"><ele>108.0</ele><time>2026-04-25T16:15:25.491Z</time></trkpt><trkpt lat="45.2863176" lon="8.7729749"><ele>108.0</ele><time>2026-04-25T16:15:26.491Z</time></trkpt><trkpt lat="45.286357" lon="8.7731981"><ele>108.0</ele><time>2026-04-25T16:15:27.491Z</time></trkpt><trkpt lat="45.2863882" lon="8.7733907"><ele>108.0</ele><time>2026-04-25T16:15:28.49Z</time></trkpt><trkpt lat="45.2864142" lon="8.7735473"><ele>108.0</ele><time>2026-04-25T16:15:29.491Z</time></trkpt><trkpt lat="45.2864348" lon="8.7736415"><ele>108.0</ele><time>2026-04-25T16:15:30.49Z</time></trkpt><trkpt lat="45.2865016" lon="8.7736767"><ele>108.0</ele><time>2026-04-25T16:15:40.491Z</time></trkpt><trkpt lat="45.2865547" lon="8.7736245"><ele>108.0</ele><time>2026-04-25T16:15:42.491Z</time></trkpt><trkpt lat="45.286608" lon="8.7735523"><ele>108.0</ele><time>2026-04-25T16:15:44.491Z</time></trkpt><trkpt lat="45.2865972" lon="8.7734449"><ele>107.83333333333333</ele><time>2026-04-25T16:15:45.491Z</time></trkpt><trkpt lat="45.2865919" lon="8.7733533"><ele>107.66666666666666</ele><time>2026-04-25T16:15:46.491Z</time></trkpt><trkpt lat="45.2865996" lon="8.7732232"><ele>107.5</ele><time>2026-04-25T16:15:48.491Z</time></trkpt><trkpt lat="45.2866585" lon="8.7731407"><ele>107.33333333333333</ele><time>2026-04-25T16:15:51.491Z</time></trkpt><trkpt lat="45.2867379" lon="8.773197"><ele>107.16666666666666</ele><time>2026-04-25T16:15:54.49Z</time></trkpt><trkpt lat="45.2868324" lon="8.7732499"><ele>107.0</ele><time>2026-04-25T16:15:57.491Z</time></trkpt><trkpt lat="45.2869508" lon="8.7733134"><ele>106.99999999999999</ele><time>2026-04-25T16:15:59.49Z</time></trkpt><trkpt lat="45.2870126" lon="8.7733579"><ele>107.0</ele><time>2026-04-25T16:16:00.491Z</time></trkpt><trkpt lat="45.2870759" lon="8.7734188"><ele>107.0</ele><time>2026-04-25T16:16:01.49Z</time></trkpt><trkpt lat="45.2871398" lon="8.7734994"><ele>107.0</ele><time>2026-04-25T16:16:02.491Z</time></trkpt><trkpt lat="45.2872177" lon="8.7736038"><ele>106.99999999999999</ele><time>2026-04-25T16:16:03.491Z</time></trkpt><trkpt lat="45.2872888" lon="8.7737115"><ele>107.0</ele><time>2026-04-25T16:16:04.491Z</time></trkpt><trkpt lat="45.2873706" lon="8.7738296"><ele>107.0</ele><time>2026-04-25T16:16:05.491Z</time></trkpt><trkpt lat="45.2874585" lon="8.7739687"><ele>107.0</ele><time>2026-04-25T16:16:06.491Z</time></trkpt><trkpt lat="45.2875489" lon="8.7741195"><ele>107.0</ele><time>2026-04-25T16:16:07.491Z</time></trkpt><trkpt lat="45.2876375" lon="8.7742868"><ele>107.0</ele><time>2026-04-25T16:16:08.491Z</time></trkpt><trkpt lat="45.2877192" lon="8.7744572"><ele>107.0</ele><time>2026-04-25T16:16:09.491Z</time></trkpt><trkpt lat="45.2878001" lon="8.7746227"><ele>107.0</ele><time>2026-04-25T16:16:10.491Z</time></trkpt><trkpt lat="45.2878809" lon="8.7747942"><ele>107.0</ele><time>2026-04-25T16:16:11.491Z</time></trkpt><trkpt lat="45.2879559" lon="8.7749644"><ele>107.0</ele><time>2026-04-25T16:16:12.491Z</time></trkpt><trkpt lat="45.288022" lon="8.7751248"><ele>107.25</ele><time>2026-04-25T16:16:13.491Z</time></trkpt><trkpt lat="45.2880713" lon="8.775288"><ele>107.5</ele><time>2026-04-25T16:16:14.491Z</time></trkpt><trkpt lat="45.2881079" lon="8.7754618"><ele>107.75</ele><time>2026-04-25T16:16:15.491Z</time></trkpt><trkpt lat="45.2881276" lon="8.7756497"><ele>108.0</ele><time>2026-04-25T16:16:16.491Z</time></trkpt><trkpt lat="45.2881365" lon="8.7758555"><ele>109.33333333333334</ele><time>2026-04-25T16:16:17.491Z</time></trkpt><trkpt lat="45.2881434" lon="8.7760804"><ele>110.66666666666667</ele><time>2026-04-25T16:16:18.491Z</time></trkpt><trkpt lat="45.2881531" lon="8.7763263"><ele>112.0</ele><time>2026-04-25T16:16:19.49Z</time></trkpt><trkpt lat="45.2881652" lon="8.7765921"><ele>111.0</ele><time>2026-04-25T16:16:20.491Z</time></trkpt><trkpt lat="45.2881789" lon="8.7768528"><ele>110.0</ele><time>2026-04-25T16:16:21.491Z</time></trkpt><trkpt lat="45.2881916" lon="8.7770964"><ele>109.0</ele><time>2026-04-25T16:16:22.491Z</time></trkpt><trkpt lat="45.2882051" lon="8.7773303"><ele>109.0</ele><time>2026-04-25T16:16:23.491Z</time></trkpt><trkpt lat="45.2882174" lon="8.7775411"><ele>109.0</ele><time>2026-04-25T16:16:24.49Z</time></trkpt><trkpt lat="45.2882263" lon="8.7777324"><ele>109.0</ele><time>2026-04-25T16:16:25.49Z</time></trkpt><trkpt lat="45.2882332" lon="8.7778912"><ele>109.0</ele><time>2026-04-25T16:16:26.49Z</time></trkpt><trkpt lat="45.2882408" lon="8.7780136"><ele>109.0</ele><time>2026-04-25T16:16:27.491Z</time></trkpt><trkpt lat="45.2882637" lon="8.7781539"><ele>109.0</ele><time>2026-04-25T16:16:29.491Z</time></trkpt><trkpt lat="45.2883527" lon="8.7781836"><ele>109.0</ele><time>2026-04-25T16:16:31.491Z</time></trkpt><trkpt lat="45.2884332" lon="8.7781721"><ele>109.0</ele><time>2026-04-25T16:16:32.49Z</time></trkpt><trkpt lat="45.2885082" lon="8.778154"><ele>109.0</ele><time>2026-04-25T16:16:33.49Z</time></trkpt><trkpt lat="45.2886127" lon="8.778188"><ele>109.0</ele><time>2026-04-25T16:16:35.49Z</time></trkpt><trkpt lat="45.2886775" lon="8.7783152"><ele>109.0</ele><time>2026-04-25T16:16:37.491Z</time></trkpt><trkpt lat="45.2887103" lon="8.7784175"><ele>109.0</ele><time>2026-04-25T16:16:38.491Z</time></trkpt><trkpt lat="45.2887413" lon="8.7785385"><ele>109.0</ele><time>2026-04-25T16:16:39.49Z</time></trkpt><trkpt lat="45.2887673" lon="8.7786755"><ele>109.0</ele><time>2026-04-25T16:16:40.49Z</time></trkpt><trkpt lat="45.2887937" lon="8.77883"><ele>109.0</ele><time>2026-04-25T16:16:41.491Z</time></trkpt><trkpt lat="45.2888203" lon="8.7789953"><ele>109.0</ele><time>2026-04-25T16:16:42.49Z</time></trkpt><trkpt lat="45.2888467" lon="8.7791679"><ele>109.0</ele><time>2026-04-25T16:16:43.49Z</time></trkpt><trkpt lat="45.2888828" lon="8.7793418"><ele>109.0</ele><time>2026-04-25T16:16:44.491Z</time></trkpt><trkpt lat="45.2889157" lon="8.7795204"><ele>109.0</ele><time>2026-04-25T16:16:45.49Z</time></trkpt><trkpt lat="45.2889503" lon="8.7797042"><ele>109.0</ele><time>2026-04-25T16:16:46.491Z</time></trkpt><trkpt lat="45.2889828" lon="8.779893"><ele>109.0</ele><time>2026-04-25T16:16:47.49Z</time></trkpt><trkpt lat="45.2890177" lon="8.7800875"><ele>109.0</ele><time>2026-04-25T16:16:48.491Z</time></trkpt><trkpt lat="45.2890526" lon="8.7802828"><ele>108.75</ele><time>2026-04-25T16:16:49.491Z</time></trkpt><trkpt lat="45.2890916" lon="8.7804849"><ele>108.5</ele><time>2026-04-25T16:16:50.491Z</time></trkpt><trkpt lat="45.2891276" lon="8.7806884"><ele>108.25</ele><time>2026-04-25T16:16:51.491Z</time></trkpt><trkpt lat="45.2891684" lon="8.7808995"><ele>108.0</ele><time>2026-04-25T16:16:52.49Z</time></trkpt><trkpt lat="45.2892118" lon="8.7811161"><ele>108.0</ele><time>2026-04-25T16:16:53.49Z</time></trkpt><trkpt lat="45.2892566" lon="8.7813349"><ele>108.0</ele><time>2026-04-25T16:16:54.491Z</time></trkpt><trkpt lat="45.2893035" lon="8.7815572"><ele>108.0</ele><time>2026-04-25T16:16:55.49Z</time></trkpt><trkpt lat="45.2893507" lon="8.7817795"><ele>108.33333333333334</ele><time>2026-04-25T16:16:56.491Z</time></trkpt><trkpt lat="45.2893994" lon="8.7820034"><ele>108.66666666666667</ele><time>2026-04-25T16:16:57.49Z</time></trkpt><trkpt lat="45.2894458" lon="8.7822282"><ele>109.0</ele><time>2026-04-25T16:16:58.491Z</time></trkpt><trkpt lat="45.2894951" lon="8.7824508"><ele>109.0</ele><time>2026-04-25T16:16:59.49Z</time></trkpt><trkpt lat="45.2895391" lon="8.7826698"><ele>109.0</ele><time>2026-04-25T16:17:00.491Z</time></trkpt><trkpt lat="45.2895833" lon="8.7828711"><ele>109.0</ele><time>2026-04-25T16:17:01.491Z</time></trkpt><trkpt lat="45.2896301" lon="8.7830548"><ele>109.0</ele><time>2026-04-25T16:17:02.491Z</time></trkpt><trkpt lat="45.2896723" lon="8.7832261"><ele>109.0</ele><time>2026-04-25T16:17:03.491Z</time></trkpt><trkpt lat="45.2897026" lon="8.7833816"><ele>109.0</ele><time>2026-04-25T16:17:04.49Z</time></trkpt><trkpt lat="45.2897211" lon="8.7835251"><ele>109.0</ele><time>2026-04-25T16:17:05.49Z</time></trkpt><trkpt lat="45.2897395" lon="8.7836811"><ele>109.0</ele><time>2026-04-25T16:17:06.49Z</time></trkpt><trkpt lat="45.2897732" lon="8.7838501"><ele>109.0</ele><time>2026-04-25T16:17:07.491Z</time></trkpt><trkpt lat="45.289815" lon="8.7840322"><ele>109.0</ele><time>2026-04-25T16:17:08.491Z</time></trkpt><trkpt lat="45.289859" lon="8.7842212"><ele>109.0</ele><time>2026-04-25T16:17:09.491Z</time></trkpt><trkpt lat="45.2899064" lon="8.7844062"><ele>109.0</ele><time>2026-04-25T16:17:10.491Z</time></trkpt><trkpt lat="45.2899536" lon="8.7845884"><ele>109.0</ele><time>2026-04-25T16:17:11.491Z</time></trkpt><trkpt lat="45.2899921" lon="8.7847687"><ele>109.0</ele><time>2026-04-25T16:17:12.491Z</time></trkpt><trkpt lat="45.2900283" lon="8.7849531"><ele>109.0</ele><time>2026-04-25T16:17:13.491Z</time></trkpt><trkpt lat="45.2900672" lon="8.7851395"><ele>109.0</ele><time>2026-04-25T16:17:14.491Z</time></trkpt><trkpt lat="45.290106" lon="8.7853346"><ele>109.33333333333334</ele><time>2026-04-25T16:17:15.491Z</time></trkpt><trkpt lat="45.2901523" lon="8.7855328"><ele>109.66666666666666</ele><time>2026-04-25T16:17:16.491Z</time></trkpt><trkpt lat="45.2901984" lon="8.785735"><ele>110.0</ele><time>2026-04-25T16:17:17.49Z</time></trkpt><trkpt lat="45.2902464" lon="8.7859461"><ele>109.33333333333333</ele><time>2026-04-25T16:17:18.491Z</time></trkpt><trkpt lat="45.2902966" lon="8.7861597"><ele>108.66666666666666</ele><time>2026-04-25T16:17:19.491Z</time></trkpt><trkpt lat="45.2903457" lon="8.7863825"><ele>108.0</ele><time>2026-04-25T16:17:20.491Z</time></trkpt><trkpt lat="45.290397" lon="8.7866158"><ele>107.0</ele><time>2026-04-25T16:17:21.491Z</time></trkpt><trkpt lat="45.290452" lon="8.7868484"><ele>106.0</ele><time>2026-04-25T16:17:22.49Z</time></trkpt><trkpt lat="45.2905024" lon="8.7870826"><ele>105.0</ele><time>2026-04-25T16:17:23.49Z</time></trkpt><trkpt lat="45.2905513" lon="8.7873181"><ele>105.33333333333334</ele><time>2026-04-25T16:17:24.491Z</time></trkpt><trkpt lat="45.2905989" lon="8.7875539"><ele>105.66666666666667</ele><time>2026-04-25T16:17:25.49Z</time></trkpt><trkpt lat="45.2906442" lon="8.7877883"><ele>106.0</ele><time>2026-04-25T16:17:26.49Z</time></trkpt><trkpt lat="45.2906846" lon="8.7880178"><ele>106.0</ele><time>2026-04-25T16:17:27.491Z</time></trkpt><trkpt lat="45.2907273" lon="8.7882449"><ele>106.0</ele><time>2026-04-25T16:17:28.491Z</time></trkpt><trkpt lat="45.290768" lon="8.7884702"><ele>106.0</ele><time>2026-04-25T16:17:29.49Z</time></trkpt><trkpt lat="45.2908085" lon="8.7886939"><ele>106.66666666666667</ele><time>2026-04-25T16:17:30.491Z</time></trkpt><trkpt lat="45.2908467" lon="8.788919"><ele>107.33333333333334</ele><time>2026-04-25T16:17:31.491Z</time></trkpt><trkpt lat="45.2908804" lon="8.7891477"><ele>108.0</ele><time>2026-04-25T16:17:32.491Z</time></trkpt><trkpt lat="45.2909145" lon="8.7893779"><ele>109.0</ele><time>2026-04-25T16:17:33.491Z</time></trkpt><trkpt lat="45.2909477" lon="8.7896147"><ele>110.0</ele><time>2026-04-25T16:17:34.491Z</time></trkpt><trkpt lat="45.2909858" lon="8.7898516"><ele>111.0</ele><time>2026-04-25T16:17:35.49Z</time></trkpt><trkpt lat="45.2910247" lon="8.7900859"><ele>110.66666666666666</ele><time>2026-04-25T16:17:36.491Z</time></trkpt><trkpt lat="45.2910706" lon="8.7903324"><ele>110.33333333333333</ele><time>2026-04-25T16:17:37.491Z</time></trkpt><trkpt lat="45.2911224" lon="8.790581"><ele>110.0</ele><time>2026-04-25T16:17:38.491Z</time></trkpt><trkpt lat="45.291175" lon="8.7908326"><ele>110.66666666666666</ele><time>2026-04-25T16:17:39.491Z</time></trkpt><trkpt lat="45.2912308" lon="8.7910884"><ele>111.33333333333334</ele><time>2026-04-25T16:17:40.491Z</time></trkpt><trkpt lat="45.29129" lon="8.7913396"><ele>112.0</ele><time>2026-04-25T16:17:41.491Z</time></trkpt><trkpt lat="45.2913516" lon="8.7915988"><ele>112.33333333333334</ele><time>2026-04-25T16:17:42.491Z</time></trkpt><trkpt lat="45.2914137" lon="8.7918576"><ele>112.66666666666666</ele><time>2026-04-25T16:17:43.49Z</time></trkpt><trkpt lat="45.291475" lon="8.7921163"><ele>113.0</ele><time>2026-04-25T16:17:44.491Z</time></trkpt><trkpt lat="45.2915321" lon="8.7923639"><ele>112.0</ele><time>2026-04-25T16:17:45.49Z</time></trkpt><trkpt lat="45.2915815" lon="8.7925921"><ele>111.0</ele><time>2026-04-25T16:17:46.491Z</time></trkpt><trkpt lat="45.2916305" lon="8.7928006"><ele>110.0</ele><time>2026-04-25T16:17:47.491Z</time></trkpt><trkpt lat="45.291673" lon="8.7929982"><ele>110.0</ele><time>2026-04-25T16:17:48.491Z</time></trkpt><trkpt lat="45.2917125" lon="8.7931783"><ele>110.0</ele><time>2026-04-25T16:17:49.491Z</time></trkpt><trkpt lat="45.291746" lon="8.7933437"><ele>110.0</ele><time>2026-04-25T16:17:50.49Z</time></trkpt><trkpt lat="45.2917741" lon="8.7934756"><ele>110.0</ele><time>2026-04-25T16:17:51.49Z</time></trkpt><trkpt lat="45.2918015" lon="8.7935753"><ele>110.0</ele><time>2026-04-25T16:17:52.491Z</time></trkpt><trkpt lat="45.2918761" lon="8.793695"><ele>109.99999999999999</ele><time>2026-04-25T16:17:54.491Z</time></trkpt><trkpt lat="45.291936" lon="8.793725"><ele>110.0</ele><time>2026-04-25T16:17:55.491Z</time></trkpt><trkpt lat="45.2920013" lon="8.7937329"><ele>110.0</ele><time>2026-04-25T16:17:56.491Z</time></trkpt><trkpt lat="45.2920696" lon="8.7937271"><ele>110.0</ele><time>2026-04-25T16:17:57.491Z</time></trkpt><trkpt lat="45.2921785" lon="8.7937138"><ele>109.99999999999999</ele><time>2026-04-25T16:17:59.491Z</time></trkpt><trkpt lat="45.2922817" lon="8.7937005"><ele>110.0</ele><time>2026-04-25T16:18:01.491Z</time></trkpt><trkpt lat="45.292382" lon="8.7936846"><ele>109.8</ele><time>2026-04-25T16:18:03.491Z</time></trkpt><trkpt lat="45.2924771" lon="8.7936667"><ele>109.6</ele><time>2026-04-25T16:18:05.491Z</time></trkpt><trkpt lat="45.2925632" lon="8.7936427"><ele>109.4</ele><time>2026-04-25T16:18:07.491Z</time></trkpt><trkpt lat="45.2926546" lon="8.7936166"><ele>109.2</ele><time>2026-04-25T16:18:09.49Z</time></trkpt><trkpt lat="45.2927355" lon="8.7936054"><ele>109.0</ele><time>2026-04-25T16:18:11.491Z</time></trkpt><trkpt lat="45.2928305" lon="8.7935988"><ele>109.0</ele><time>2026-04-25T16:18:41.491Z</time></trkpt><trkpt lat="45.2929062" lon="8.7935828"><ele>109.0</ele><time>2026-04-25T16:18:42.491Z</time></trkpt><trkpt lat="45.2929855" lon="8.7935701"><ele>109.0</ele><time>2026-04-25T16:18:43.49Z</time></trkpt><trkpt lat="45.2930795" lon="8.7935592"><ele>109.0</ele><time>2026-04-25T16:18:44.491Z</time></trkpt><trkpt lat="45.2931854" lon="8.7935478"><ele>109.0</ele><time>2026-04-25T16:18:45.491Z</time></trkpt><trkpt lat="45.2933037" lon="8.7935337"><ele>109.25</ele><time>2026-04-25T16:18:46.491Z</time></trkpt><trkpt lat="45.2934296" lon="8.793522"><ele>109.5</ele><time>2026-04-25T16:18:47.49Z</time></trkpt><trkpt lat="45.2935669" lon="8.7935053"><ele>109.75</ele><time>2026-04-25T16:18:48.49Z</time></trkpt><trkpt lat="45.2937301" lon="8.7934847"><ele>110.0</ele><time>2026-04-25T16:18:49.491Z</time></trkpt><trkpt lat="45.2939039" lon="8.793477"><ele>109.66666666666666</ele><time>2026-04-25T16:18:50.49Z</time></trkpt><trkpt lat="45.2940861" lon="8.7934799"><ele>109.33333333333334</ele><time>2026-04-25T16:18:51.491Z</time></trkpt><trkpt lat="45.2942826" lon="8.7934787"><ele>109.0</ele><time>2026-04-25T16:18:52.491Z</time></trkpt><trkpt lat="45.2944861" lon="8.7934798"><ele>109.0</ele><time>2026-04-25T16:18:53.491Z</time></trkpt><trkpt lat="45.2947011" lon="8.7934817"><ele>109.0</ele><time>2026-04-25T16:18:54.491Z</time></trkpt><trkpt lat="45.2949216" lon="8.7934883"><ele>109.0</ele><time>2026-04-25T16:18:55.491Z</time></trkpt><trkpt lat="45.295139" lon="8.7934957"><ele>108.66666666666667</ele><time>2026-04-25T16:18:56.49Z</time></trkpt><trkpt lat="45.2953438" lon="8.7935081"><ele>108.33333333333334</ele><time>2026-04-25T16:18:57.491Z</time></trkpt><trkpt lat="45.2955346" lon="8.7935166"><ele>108.0</ele><time>2026-04-25T16:18:58.491Z</time></trkpt><trkpt lat="45.295715" lon="8.7935272"><ele>108.0</ele><time>2026-04-25T16:18:59.49Z</time></trkpt><trkpt lat="45.2958855" lon="8.7935356"><ele>108.0</ele><time>2026-04-25T16:19:00.49Z</time></trkpt><trkpt lat="45.2960471" lon="8.7935509"><ele>108.0</ele><time>2026-04-25T16:19:01.491Z</time></trkpt><trkpt lat="45.296217" lon="8.7935822"><ele>108.0</ele><time>2026-04-25T16:19:02.491Z</time></trkpt><trkpt lat="45.2963998" lon="8.7936263"><ele>108.0</ele><time>2026-04-25T16:19:03.491Z</time></trkpt><trkpt lat="45.2965916" lon="8.7936783"><ele>108.0</ele><time>2026-04-25T16:19:04.491Z</time></trkpt><trkpt lat="45.2967979" lon="8.7937386"><ele>108.0</ele><time>2026-04-25T16:19:05.491Z</time></trkpt><trkpt lat="45.2970108" lon="8.7938036"><ele>108.0</ele><time>2026-04-25T16:19:06.49Z</time></trkpt><trkpt lat="45.2972151" lon="8.7938691"><ele>108.0</ele><time>2026-04-25T16:19:07.491Z</time></trkpt><trkpt lat="45.2974051" lon="8.7939253"><ele>108.0</ele><time>2026-04-25T16:19:08.491Z</time></trkpt><trkpt lat="45.2975867" lon="8.7939815"><ele>108.0</ele><time>2026-04-25T16:19:09.491Z</time></trkpt><trkpt lat="45.2977561" lon="8.7940306"><ele>108.0</ele><time>2026-04-25T16:19:10.49Z</time></trkpt><trkpt lat="45.2979198" lon="8.7940743"><ele>108.0</ele><time>2026-04-25T16:19:11.491Z</time></trkpt><trkpt lat="45.2980608" lon="8.7941175"><ele>108.0</ele><time>2026-04-25T16:19:12.491Z</time></trkpt><trkpt lat="45.2981829" lon="8.7941536"><ele>108.0</ele><time>2026-04-25T16:19:13.49Z</time></trkpt><trkpt lat="45.2982799" lon="8.7941879"><ele>108.0</ele><time>2026-04-25T16:19:14.49Z</time></trkpt><trkpt lat="45.2983553" lon="8.7942339"><ele>108.4</ele><time>2026-04-25T16:19:15.491Z</time></trkpt><trkpt lat="45.2984012" lon="8.7942976"><ele>108.80000000000001</ele><time>2026-04-25T16:19:16.49Z</time></trkpt><trkpt lat="45.2984223" lon="8.7944881"><ele>109.2</ele><time>2026-04-25T16:19:18.49Z</time></trkpt><trkpt lat="45.2984264" lon="8.7946319"><ele>109.6</ele><time>2026-04-25T16:19:19.491Z</time></trkpt><trkpt lat="45.2984408" lon="8.7948077"><ele>110.0</ele><time>2026-04-25T16:19:20.491Z</time></trkpt><trkpt lat="45.2984643" lon="8.7949932"><ele>110.0</ele><time>2026-04-25T16:19:21.491Z</time></trkpt><trkpt lat="45.2984894" lon="8.7951621"><ele>110.0</ele><time>2026-04-25T16:19:22.491Z</time></trkpt><trkpt lat="45.2985216" lon="8.7953198"><ele>110.0</ele><time>2026-04-25T16:19:23.49Z</time></trkpt><trkpt lat="45.2985603" lon="8.7954685"><ele>110.0</ele><time>2026-04-25T16:19:24.491Z</time></trkpt><trkpt lat="45.2986282" lon="8.7955956"><ele>110.0</ele><time>2026-04-25T16:19:25.491Z</time></trkpt><trkpt lat="45.2987247" lon="8.7956957"><ele>110.0</ele><time>2026-04-25T16:19:26.491Z</time></trkpt><trkpt lat="45.2988574" lon="8.7957836"><ele>110.0</ele><time>2026-04-25T16:19:27.491Z</time></trkpt><trkpt lat="45.2990091" lon="8.7958782"><ele>110.0</ele><time>2026-04-25T16:19:28.491Z</time></trkpt><trkpt lat="45.29917" lon="8.7960039"><ele>110.0</ele><time>2026-04-25T16:19:29.491Z</time></trkpt><trkpt lat="45.2993275" lon="8.7961499"><ele>110.0</ele><time>2026-04-25T16:19:30.491Z</time></trkpt><trkpt lat="45.2994789" lon="8.7963153"><ele>110.0</ele><time>2026-04-25T16:19:31.49Z</time></trkpt><trkpt lat="45.2996251" lon="8.7964818"><ele>109.33333333333333</ele><time>2026-04-25T16:19:32.491Z</time></trkpt><trkpt lat="45.2997633" lon="8.7966431"><ele>108.66666666666666</ele><time>2026-04-25T16:19:33.491Z</time></trkpt><trkpt lat="45.299895" lon="8.7968038"><ele>108.0</ele><time>2026-04-25T16:19:34.491Z</time></trkpt><trkpt lat="45.300015" lon="8.7969524"><ele>108.0</ele><time>2026-04-25T16:19:35.49Z</time></trkpt><trkpt lat="45.3001283" lon="8.7970913"><ele>108.0</ele><time>2026-04-25T16:19:36.491Z</time></trkpt><trkpt lat="45.3002273" lon="8.7972116"><ele>108.0</ele><time>2026-04-25T16:19:37.491Z</time></trkpt><trkpt lat="45.300312" lon="8.7973043"><ele>108.0</ele><time>2026-04-25T16:19:38.491Z</time></trkpt><trkpt lat="45.300384" lon="8.7973793"><ele>108.0</ele><time>2026-04-25T16:19:39.49Z</time></trkpt><trkpt lat="45.3004503" lon="8.7974435"><ele>108.0</ele><time>2026-04-25T16:19:40.491Z</time></trkpt><trkpt lat="45.3005125" lon="8.7975057"><ele>108.0</ele><time>2026-04-25T16:19:41.491Z</time></trkpt><trkpt lat="45.300572" lon="8.7975721"><ele>108.0</ele><time>2026-04-25T16:19:42.49Z</time></trkpt><trkpt lat="45.3006265" lon="8.7976389"><ele>108.0</ele><time>2026-04-25T16:19:43.491Z</time></trkpt><trkpt lat="45.3006787" lon="8.7977014"><ele>108.0</ele><time>2026-04-25T16:19:44.49Z</time></trkpt><trkpt lat="45.3007345" lon="8.7977595"><ele>108.0</ele><time>2026-04-25T16:19:45.491Z</time></trkpt><trkpt lat="45.3007874" lon="8.7978138"><ele>108.0</ele><time>2026-04-25T16:19:46.491Z</time></trkpt><trkpt lat="45.3008456" lon="8.7978739"><ele>108.0</ele><time>2026-04-25T16:19:47.491Z</time></trkpt><trkpt lat="45.300902" lon="8.7979382"><ele>108.0</ele><time>2026-04-25T16:19:48.49Z</time></trkpt><trkpt lat="45.3009604" lon="8.7980066"><ele>108.0</ele><time>2026-04-25T16:19:49.491Z</time></trkpt><trkpt lat="45.3010289" lon="8.7980856"><ele>108.0</ele><time>2026-04-25T16:19:50.491Z</time></trkpt><trkpt lat="45.30111" lon="8.7981798"><ele>108.0</ele><time>2026-04-25T16:19:51.49Z</time></trkpt><trkpt lat="45.3012019" lon="8.798297"><ele>108.0</ele><time>2026-04-25T16:19:52.49Z</time></trkpt><trkpt lat="45.301304" lon="8.7984222"><ele>108.0</ele><time>2026-04-25T16:19:53.49Z</time></trkpt><trkpt lat="45.3014116" lon="8.7985417"><ele>108.0</ele><time>2026-04-25T16:19:54.491Z</time></trkpt><trkpt lat="45.3015159" lon="8.7986489"><ele>108.0</ele><time>2026-04-25T16:19:55.491Z</time></trkpt><trkpt lat="45.3016166" lon="8.7987409"><ele>108.25</ele><time>2026-04-25T16:19:56.49Z</time></trkpt><trkpt lat="45.3017239" lon="8.798808"><ele>108.5</ele><time>2026-04-25T16:19:57.491Z</time></trkpt><trkpt lat="45.3018444" lon="8.7988613"><ele>108.75</ele><time>2026-04-25T16:19:58.491Z</time></trkpt><trkpt lat="45.3019724" lon="8.7989132"><ele>109.0</ele><time>2026-04-25T16:19:59.49Z</time></trkpt><trkpt lat="45.3021009" lon="8.7989772"><ele>109.0</ele><time>2026-04-25T16:20:00.491Z</time></trkpt><trkpt lat="45.3022181" lon="8.7990456"><ele>109.0</ele><time>2026-04-25T16:20:01.491Z</time></trkpt><trkpt lat="45.3023243" lon="8.7991166"><ele>109.0</ele><time>2026-04-25T16:20:02.491Z</time></trkpt><trkpt lat="45.3024247" lon="8.7991948"><ele>109.0</ele><time>2026-04-25T16:20:03.49Z</time></trkpt><trkpt lat="45.3025286" lon="8.7992905"><ele>108.0</ele><time>2026-04-25T16:20:04.491Z</time></trkpt><trkpt lat="45.3026302" lon="8.7993869"><ele>107.0</ele><time>2026-04-25T16:20:05.491Z</time></trkpt><trkpt lat="45.3027226" lon="8.799479"><ele>106.0</ele><time>2026-04-25T16:20:06.49Z</time></trkpt><trkpt lat="45.3028152" lon="8.7995682"><ele>105.0</ele><time>2026-04-25T16:20:07.491Z</time></trkpt><trkpt lat="45.3029052" lon="8.7996559"><ele>105.0</ele><time>2026-04-25T16:20:08.491Z</time></trkpt><trkpt lat="45.3030108" lon="8.7997609"><ele>105.0</ele><time>2026-04-25T16:20:09.491Z</time></trkpt><trkpt lat="45.3031093" lon="8.7998605"><ele>105.0</ele><time>2026-04-25T16:20:10.491Z</time></trkpt><trkpt lat="45.3032188" lon="8.799967"><ele>105.0</ele><time>2026-04-25T16:20:11.49Z</time></trkpt><trkpt lat="45.303359" lon="8.8001136"><ele>105.0</ele><time>2026-04-25T16:20:12.49Z</time></trkpt><trkpt lat="45.3035028" lon="8.8002615"><ele>105.0</ele><time>2026-04-25T16:20:13.491Z</time></trkpt><trkpt lat="45.303649" lon="8.8004126"><ele>105.0</ele><time>2026-04-25T16:20:14.491Z</time></trkpt><trkpt lat="45.3038016" lon="8.8005644"><ele>105.0</ele><time>2026-04-25T16:20:15.491Z</time></trkpt><trkpt lat="45.3039599" lon="8.8007206"><ele>105.0</ele><time>2026-04-25T16:20:16.491Z</time></trkpt><trkpt lat="45.3041178" lon="8.8008707"><ele>105.0</ele><time>2026-04-25T16:20:17.491Z</time></trkpt><trkpt lat="45.3042718" lon="8.8010214"><ele>105.33333333333334</ele><time>2026-04-25T16:20:18.491Z</time></trkpt><trkpt lat="45.3044114" lon="8.8011681"><ele>105.66666666666667</ele><time>2026-04-25T16:20:19.491Z</time></trkpt><trkpt lat="45.3045419" lon="8.8013166"><ele>106.0</ele><time>2026-04-25T16:20:20.491Z</time></trkpt><trkpt lat="45.3046615" lon="8.801479"><ele>106.0</ele><time>2026-04-25T16:20:21.49Z</time></trkpt><trkpt lat="45.3047742" lon="8.8016503"><ele>106.0</ele><time>2026-04-25T16:20:22.491Z</time></trkpt><trkpt lat="45.3048822" lon="8.8018279"><ele>106.0</ele><time>2026-04-25T16:20:23.49Z</time></trkpt><trkpt lat="45.3049894" lon="8.8020062"><ele>106.66666666666667</ele><time>2026-04-25T16:20:24.491Z</time></trkpt><trkpt lat="45.3050857" lon="8.8021942"><ele>107.33333333333334</ele><time>2026-04-25T16:20:25.49Z</time></trkpt><trkpt lat="45.3051793" lon="8.8023926"><ele>108.0</ele><time>2026-04-25T16:20:26.49Z</time></trkpt><trkpt lat="45.3052764" lon="8.8025869"><ele>107.66666666666666</ele><time>2026-04-25T16:20:27.491Z</time></trkpt><trkpt lat="45.3053774" lon="8.8027859"><ele>107.33333333333333</ele><time>2026-04-25T16:20:28.491Z</time></trkpt><trkpt lat="45.3054835" lon="8.8029801"><ele>107.0</ele><time>2026-04-25T16:20:29.49Z</time></trkpt><trkpt lat="45.3055866" lon="8.8031675"><ele>106.5</ele><time>2026-04-25T16:20:30.491Z</time></trkpt><trkpt lat="45.3056849" lon="8.8033379"><ele>106.0</ele><time>2026-04-25T16:20:31.49Z</time></trkpt><trkpt lat="45.3057748" lon="8.8035003"><ele>105.5</ele><time>2026-04-25T16:20:32.49Z</time></trkpt><trkpt lat="45.3058621" lon="8.8036678"><ele>105.0</ele><time>2026-04-25T16:20:33.491Z</time></trkpt><trkpt lat="45.3059507" lon="8.8038349"><ele>104.66666666666666</ele><time>2026-04-25T16:20:34.491Z</time></trkpt><trkpt lat="45.3060429" lon="8.8040049"><ele>104.33333333333333</ele><time>2026-04-25T16:20:35.491Z</time></trkpt><trkpt lat="45.3061417" lon="8.8041745"><ele>104.0</ele><time>2026-04-25T16:20:36.49Z</time></trkpt><trkpt lat="45.3062414" lon="8.8043445"><ele>104.0</ele><time>2026-04-25T16:20:37.49Z</time></trkpt><trkpt lat="45.3063444" lon="8.8045181"><ele>104.0</ele><time>2026-04-25T16:20:38.49Z</time></trkpt><trkpt lat="45.3064461" lon="8.804695"><ele>104.0</ele><time>2026-04-25T16:20:39.491Z</time></trkpt><trkpt lat="45.30655" lon="8.8048753"><ele>104.0</ele><time>2026-04-25T16:20:40.49Z</time></trkpt><trkpt lat="45.3066494" lon="8.8050573"><ele>104.0</ele><time>2026-04-25T16:20:41.491Z</time></trkpt><trkpt lat="45.3067509" lon="8.8052458"><ele>104.0</ele><time>2026-04-25T16:20:42.491Z</time></trkpt><trkpt lat="45.3068588" lon="8.8054377"><ele>104.0</ele><time>2026-04-25T16:20:43.49Z</time></trkpt><trkpt lat="45.3069728" lon="8.8056395"><ele>104.0</ele><time>2026-04-25T16:20:44.49Z</time></trkpt><trkpt lat="45.3070893" lon="8.805846"><ele>104.0</ele><time>2026-04-25T16:20:45.491Z</time></trkpt><trkpt lat="45.3072072" lon="8.8060578"><ele>105.0</ele><time>2026-04-25T16:20:46.491Z</time></trkpt><trkpt lat="45.3073283" lon="8.8062758"><ele>106.0</ele><time>2026-04-25T16:20:47.491Z</time></trkpt><trkpt lat="45.3074443" lon="8.8064928"><ele>107.0</ele><time>2026-04-25T16:20:48.491Z</time></trkpt><trkpt lat="45.3075686" lon="8.8067147"><ele>106.33333333333333</ele><time>2026-04-25T16:20:49.491Z</time></trkpt><trkpt lat="45.3076912" lon="8.8069377"><ele>105.66666666666666</ele><time>2026-04-25T16:20:50.491Z</time></trkpt><trkpt lat="45.3078169" lon="8.8071595"><ele>105.0</ele><time>2026-04-25T16:20:51.491Z</time></trkpt><trkpt lat="45.3079482" lon="8.8073837"><ele>104.66666666666666</ele><time>2026-04-25T16:20:52.491Z</time></trkpt><trkpt lat="45.3080855" lon="8.8076064"><ele>104.33333333333333</ele><time>2026-04-25T16:20:53.491Z</time></trkpt><trkpt lat="45.3082277" lon="8.8078257"><ele>104.0</ele><time>2026-04-25T16:20:54.491Z</time></trkpt><trkpt lat="45.3083642" lon="8.8080289"><ele>104.66666666666666</ele><time>2026-04-25T16:20:55.49Z</time></trkpt><trkpt lat="45.3084904" lon="8.808207"><ele>105.33333333333334</ele><time>2026-04-25T16:20:56.491Z</time></trkpt><trkpt lat="45.3085956" lon="8.8083638"><ele>106.0</ele><time>2026-04-25T16:20:57.491Z</time></trkpt><trkpt lat="45.3086757" lon="8.808505"><ele>106.0</ele><time>2026-04-25T16:20:58.491Z</time></trkpt><trkpt lat="45.3087425" lon="8.8086415"><ele>106.0</ele><time>2026-04-25T16:20:59.49Z</time></trkpt><trkpt lat="45.3088004" lon="8.8087616"><ele>106.0</ele><time>2026-04-25T16:21:00.491Z</time></trkpt><trkpt lat="45.3088644" lon="8.8088742"><ele>106.0</ele><time>2026-04-25T16:21:01.491Z</time></trkpt><trkpt lat="45.3089418" lon="8.8089634"><ele>106.0</ele><time>2026-04-25T16:21:02.491Z</time></trkpt><trkpt lat="45.3090253" lon="8.8090298"><ele>106.33333333333334</ele><time>2026-04-25T16:21:03.491Z</time></trkpt><trkpt lat="45.3091144" lon="8.8090721"><ele>106.66666666666667</ele><time>2026-04-25T16:21:04.491Z</time></trkpt><trkpt lat="45.3092046" lon="8.8091043"><ele>107.0</ele><time>2026-04-25T16:21:05.49Z</time></trkpt><trkpt lat="45.3092843" lon="8.8091366"><ele>107.33333333333334</ele><time>2026-04-25T16:21:06.491Z</time></trkpt><trkpt lat="45.3093553" lon="8.8091822"><ele>107.66666666666667</ele><time>2026-04-25T16:21:07.491Z</time></trkpt><trkpt lat="45.3094116" lon="8.8092513"><ele>108.0</ele><time>2026-04-25T16:21:08.491Z</time></trkpt><trkpt lat="45.3094509" lon="8.8093383"><ele>108.4</ele><time>2026-04-25T16:21:09.49Z</time></trkpt><trkpt lat="45.3094995" lon="8.8094841"><ele>108.80000000000001</ele><time>2026-04-25T16:21:11.49Z</time></trkpt><trkpt lat="45.3095282" lon="8.8095979"><ele>109.2</ele><time>2026-04-25T16:21:13.49Z</time></trkpt><trkpt lat="45.3095658" lon="8.8097426"><ele>109.6</ele><time>2026-04-25T16:21:16.491Z</time></trkpt><trkpt lat="45.3096191" lon="8.8099187"><ele>110.0</ele><time>2026-04-25T16:21:18.491Z</time></trkpt><trkpt lat="45.3096376" lon="8.8100098"><ele>110.2</ele><time>2026-04-25T16:21:19.49Z</time></trkpt><trkpt lat="45.3096685" lon="8.8101764"><ele>110.4</ele><time>2026-04-25T16:21:21.491Z</time></trkpt><trkpt lat="45.3097102" lon="8.810306"><ele>110.6</ele><time>2026-04-25T16:21:23.491Z</time></trkpt><trkpt lat="45.3097435" lon="8.8104411"><ele>110.8</ele><time>2026-04-25T16:21:25.491Z</time></trkpt><trkpt lat="45.3097844" lon="8.8105946"><ele>111.0</ele><time>2026-04-25T16:21:27.491Z</time></trkpt><trkpt lat="45.3098131" lon="8.8106921"><ele>110.5</ele><time>2026-04-25T16:21:28.491Z</time></trkpt><trkpt lat="45.3098454" lon="8.8108098"><ele>110.0</ele><time>2026-04-25T16:21:29.491Z</time></trkpt><trkpt lat="45.3098787" lon="8.8109457"><ele>109.5</ele><time>2026-04-25T16:21:30.49Z</time></trkpt><trkpt lat="45.3099134" lon="8.8110725"><ele>109.0</ele><time>2026-04-25T16:21:31.491Z</time></trkpt><trkpt lat="45.3099426" lon="8.8111832"><ele>108.5</ele><time>2026-04-25T16:21:32.491Z</time></trkpt><trkpt lat="45.3099675" lon="8.8112756"><ele>108.0</ele><time>2026-04-25T16:21:33.49Z</time></trkpt><trkpt lat="45.3099874" lon="8.8113898"><ele>108.0</ele><time>2026-04-25T16:21:35.49Z</time></trkpt><trkpt lat="45.3100501" lon="8.8113984"><ele>108.00000000000001</ele><time>2026-04-25T16:21:45.49Z</time></trkpt><trkpt lat="45.309983" lon="8.8112781"><ele>108.00000000000001</ele><time>2026-04-25T16:21:51.491Z</time></trkpt><trkpt lat="45.3099316" lon="8.8111012"><ele>108.0</ele><time>2026-04-25T16:21:53.49Z</time></trkpt><trkpt lat="45.3099073" lon="8.8109967"><ele>108.0</ele><time>2026-04-25T16:21:54.491Z</time></trkpt><trkpt lat="45.3098796" lon="8.8108971"><ele>108.0</ele><time>2026-04-25T16:21:55.49Z</time></trkpt><trkpt lat="45.3098539" lon="8.8108034"><ele>108.0</ele><time>2026-04-25T16:21:56.491Z</time></trkpt><trkpt lat="45.3098253" lon="8.8106953"><ele>108.0</ele><time>2026-04-25T16:21:57.491Z</time></trkpt><trkpt lat="45.3097957" lon="8.8105739"><ele>108.0</ele><time>2026-04-25T16:21:58.491Z</time></trkpt><trkpt lat="45.3097597" lon="8.8104473"><ele>108.0</ele><time>2026-04-25T16:21:59.491Z</time></trkpt><trkpt lat="45.3097302" lon="8.8103311"><ele>108.0</ele><time>2026-04-25T16:22:00.491Z</time></trkpt><trkpt lat="45.3097053" lon="8.8102206"><ele>108.33333333333333</ele><time>2026-04-25T16:22:01.491Z</time></trkpt><trkpt lat="45.3096813" lon="8.810111"><ele>108.66666666666666</ele><time>2026-04-25T16:22:02.49Z</time></trkpt><trkpt lat="45.3096606" lon="8.8100121"><ele>109.0</ele><time>2026-04-25T16:22:03.491Z</time></trkpt><trkpt lat="45.3096357" lon="8.8099145"><ele>109.33333333333333</ele><time>2026-04-25T16:22:04.49Z</time></trkpt><trkpt lat="45.3096035" lon="8.8098245"><ele>109.66666666666666</ele><time>2026-04-25T16:22:05.49Z</time></trkpt><trkpt lat="45.3095536" lon="8.8096695"><ele>110.0</ele><time>2026-04-25T16:22:07.491Z</time></trkpt><trkpt lat="45.3095262" lon="8.8095635"><ele>109.99999999999999</ele><time>2026-04-25T16:22:09.49Z</time></trkpt><trkpt lat="45.3095861" lon="8.8095318"><ele>110.0</ele><time>2026-04-25T16:22:12.491Z</time></trkpt><trkpt lat="45.3096488" lon="8.8095494"><ele>110.0</ele><time>2026-04-25T16:22:14.49Z</time></trkpt><trkpt lat="45.3097304" lon="8.8095608"><ele>110.0</ele><time>2026-04-25T16:22:16.491Z</time></trkpt><trkpt lat="45.3098045" lon="8.8095473"><ele>109.99999999999999</ele><time>2026-04-25T16:22:18.491Z</time></trkpt><trkpt lat="45.3099095" lon="8.8095453"><ele>110.0</ele><time>2026-04-25T16:22:20.491Z</time></trkpt><trkpt lat="45.3099845" lon="8.8095395"><ele>109.71428571428571</ele><time>2026-04-25T16:22:21.49Z</time></trkpt><trkpt lat="45.3100561" lon="8.8095313"><ele>109.42857142857143</ele><time>2026-04-25T16:22:22.491Z</time></trkpt><trkpt lat="45.3101219" lon="8.8095235"><ele>109.14285714285714</ele><time>2026-04-25T16:22:23.491Z</time></trkpt><trkpt lat="45.3101922" lon="8.809516"><ele>108.85714285714286</ele><time>2026-04-25T16:22:24.49Z</time></trkpt><trkpt lat="45.310262" lon="8.8094987"><ele>108.57142857142857</ele><time>2026-04-25T16:22:25.491Z</time></trkpt><trkpt lat="45.3103347" lon="8.8094748"><ele>108.28571428571428</ele><time>2026-04-25T16:22:26.49Z</time></trkpt><trkpt lat="45.3104012" lon="8.8094434"><ele>108.0</ele><time>2026-04-25T16:22:27.491Z</time></trkpt><trkpt lat="45.3104613" lon="8.8094109"><ele>108.0</ele><time>2026-04-25T16:22:28.49Z</time></trkpt><trkpt lat="45.3105599" lon="8.8093558"><ele>108.00000000000001</ele><time>2026-04-25T16:22:30.491Z</time></trkpt><trkpt lat="45.3106487" lon="8.8093162"><ele>108.00000000000001</ele><time>2026-04-25T16:22:32.491Z</time></trkpt><trkpt lat="45.3107245" lon="8.8092939"><ele>108.0</ele><time>2026-04-25T16:22:33.491Z</time></trkpt><trkpt lat="45.3108167" lon="8.8092696"><ele>108.0</ele><time>2026-04-25T16:22:34.49Z</time></trkpt><trkpt lat="45.3109304" lon="8.8092483"><ele>107.75</ele><time>2026-04-25T16:22:35.49Z</time></trkpt><trkpt lat="45.3110525" lon="8.8092286"><ele>107.5</ele><time>2026-04-25T16:22:36.491Z</time></trkpt><trkpt lat="45.3111871" lon="8.8092098"><ele>107.25</ele><time>2026-04-25T16:22:37.49Z</time></trkpt><trkpt lat="45.3113306" lon="8.8091933"><ele>107.0</ele><time>2026-04-25T16:22:38.49Z</time></trkpt><trkpt lat="45.3114772" lon="8.809173"><ele>107.0</ele><time>2026-04-25T16:22:39.491Z</time></trkpt><trkpt lat="45.3116253" lon="8.809153"><ele>107.0</ele><time>2026-04-25T16:22:40.491Z</time></trkpt><trkpt lat="45.3117646" lon="8.8091326"><ele>107.0</ele><time>2026-04-25T16:22:41.491Z</time></trkpt><trkpt lat="45.3118956" lon="8.8091147"><ele>107.0</ele><time>2026-04-25T16:22:42.491Z</time></trkpt><trkpt lat="45.3120188" lon="8.8090848"><ele>107.0</ele><time>2026-04-25T16:22:43.491Z</time></trkpt><trkpt lat="45.3121329" lon="8.8090532"><ele>106.99999999999999</ele><time>2026-04-25T16:22:44.491Z</time></trkpt><trkpt lat="45.312232" lon="8.8090276"><ele>106.99999999999999</ele><time>2026-04-25T16:22:45.49Z</time></trkpt><trkpt lat="45.3123188" lon="8.8090151"><ele>107.0</ele><time>2026-04-25T16:22:46.49Z</time></trkpt><trkpt lat="45.312397" lon="8.8090212"><ele>107.0</ele><time>2026-04-25T16:22:47.491Z</time></trkpt><trkpt lat="45.3124731" lon="8.8090517"><ele>107.16666666666666</ele><time>2026-04-25T16:22:48.491Z</time></trkpt><trkpt lat="45.3125515" lon="8.8091285"><ele>107.33333333333333</ele><time>2026-04-25T16:22:49.49Z</time></trkpt><trkpt lat="45.3126243" lon="8.8092189"><ele>107.5</ele><time>2026-04-25T16:22:50.491Z</time></trkpt><trkpt lat="45.3126936" lon="8.8092907"><ele>107.66666666666666</ele><time>2026-04-25T16:22:51.491Z</time></trkpt><trkpt lat="45.3127692" lon="8.8093281"><ele>107.83333333333333</ele><time>2026-04-25T16:22:52.49Z</time></trkpt><trkpt lat="45.3128524" lon="8.8093284"><ele>108.0</ele><time>2026-04-25T16:22:53.49Z</time></trkpt><trkpt lat="45.3129399" lon="8.8092951"><ele>108.0</ele><time>2026-04-25T16:22:54.491Z</time></trkpt><trkpt lat="45.3130413" lon="8.809241"><ele>108.0</ele><time>2026-04-25T16:22:55.49Z</time></trkpt><trkpt lat="45.3131638" lon="8.8091819"><ele>108.0</ele><time>2026-04-25T16:22:56.491Z</time></trkpt><trkpt lat="45.3132957" lon="8.8091122"><ele>108.0</ele><time>2026-04-25T16:22:57.49Z</time></trkpt><trkpt lat="45.3134269" lon="8.8090415"><ele>108.0</ele><time>2026-04-25T16:22:58.491Z</time></trkpt><trkpt lat="45.313557" lon="8.8089713"><ele>108.0</ele><time>2026-04-25T16:22:59.49Z</time></trkpt><trkpt lat="45.313686" lon="8.8089034"><ele>108.0</ele><time>2026-04-25T16:23:00.491Z</time></trkpt><trkpt lat="45.3138138" lon="8.8088329"><ele>108.0</ele><time>2026-04-25T16:23:01.491Z</time></trkpt><trkpt lat="45.3139432" lon="8.8087638"><ele>108.0</ele><time>2026-04-25T16:23:02.491Z</time></trkpt><trkpt lat="45.3140669" lon="8.8086964"><ele>108.0</ele><time>2026-04-25T16:23:03.49Z</time></trkpt><trkpt lat="45.3141868" lon="8.8086334"><ele>108.0</ele><time>2026-04-25T16:23:04.491Z</time></trkpt><trkpt lat="45.3143043" lon="8.8085708"><ele>108.0</ele><time>2026-04-25T16:23:05.49Z</time></trkpt><trkpt lat="45.3144254" lon="8.808505"><ele>108.0</ele><time>2026-04-25T16:23:06.491Z</time></trkpt><trkpt lat="45.3145493" lon="8.8084373"><ele>108.0</ele><time>2026-04-25T16:23:07.491Z</time></trkpt><trkpt lat="45.3146737" lon="8.8083688"><ele>108.0</ele><time>2026-04-25T16:23:08.491Z</time></trkpt><trkpt lat="45.3147995" lon="8.8082997"><ele>108.0</ele><time>2026-04-25T16:23:09.49Z</time></trkpt><trkpt lat="45.3149146" lon="8.8082332"><ele>108.0</ele><time>2026-04-25T16:23:10.491Z</time></trkpt><trkpt lat="45.3150222" lon="8.8081683"><ele>108.00000000000001</ele><time>2026-04-25T16:23:11.49Z</time></trkpt><trkpt lat="45.3151242" lon="8.8081087"><ele>108.00000000000001</ele><time>2026-04-25T16:23:12.491Z</time></trkpt><trkpt lat="45.315218" lon="8.8080542"><ele>108.0</ele><time>2026-04-25T16:23:13.49Z</time></trkpt><trkpt lat="45.3152968" lon="8.8080168"><ele>108.0</ele><time>2026-04-25T16:23:14.491Z</time></trkpt><trkpt lat="45.315394" lon="8.8079543"><ele>108.0</ele><time>2026-04-25T16:23:16.491Z</time></trkpt><trkpt lat="45.3154261" lon="8.807851"><ele>108.00000000000001</ele><time>2026-04-25T16:23:19.491Z</time></trkpt><trkpt lat="45.3154003" lon="8.8076995"><ele>108.00000000000001</ele><time>2026-04-25T16:23:21.491Z</time></trkpt><trkpt lat="45.3153724" lon="8.8075287"><ele>108.0</ele><time>2026-04-25T16:23:23.491Z</time></trkpt><trkpt lat="45.3153609" lon="8.8074356"><ele>108.0</ele><time>2026-04-25T16:23:24.491Z</time></trkpt><trkpt lat="45.3153524" lon="8.8073221"><ele>108.0</ele><time>2026-04-25T16:23:25.49Z</time></trkpt><trkpt lat="45.3153453" lon="8.8071964"><ele>108.00000000000001</ele><time>2026-04-25T16:23:26.49Z</time></trkpt><trkpt lat="45.3153384" lon="8.8070638"><ele>108.00000000000001</ele><time>2026-04-25T16:23:27.49Z</time></trkpt><trkpt lat="45.3153228" lon="8.8069325"><ele>108.0</ele><time>2026-04-25T16:23:28.491Z</time></trkpt><trkpt lat="45.3152951" lon="8.806801"><ele>108.0</ele><time>2026-04-25T16:23:29.491Z</time></trkpt><trkpt lat="45.3152427" lon="8.8066747"><ele>107.5</ele><time>2026-04-25T16:23:30.491Z</time></trkpt><trkpt lat="45.3151719" lon="8.806554"><ele>107.0</ele><time>2026-04-25T16:23:31.49Z</time></trkpt><trkpt lat="45.3150884" lon="8.8064344"><ele>106.5</ele><time>2026-04-25T16:23:32.491Z</time></trkpt><trkpt lat="45.3149973" lon="8.8063117"><ele>106.0</ele><time>2026-04-25T16:23:33.49Z</time></trkpt><trkpt lat="45.3149056" lon="8.8061894"><ele>106.0</ele><time>2026-04-25T16:23:34.49Z</time></trkpt><trkpt lat="45.3148181" lon="8.8060711"><ele>106.0</ele><time>2026-04-25T16:23:35.49Z</time></trkpt><trkpt lat="45.3147407" lon="8.8059576"><ele>106.0</ele><time>2026-04-25T16:23:36.491Z</time></trkpt><trkpt lat="45.3146695" lon="8.8058585"><ele>106.0</ele><time>2026-04-25T16:23:37.491Z</time></trkpt><trkpt lat="45.3146045" lon="8.8057634"><ele>106.0</ele><time>2026-04-25T16:23:38.491Z</time></trkpt><trkpt lat="45.3145504" lon="8.8056787"><ele>106.00000000000001</ele><time>2026-04-25T16:23:39.49Z</time></trkpt><trkpt lat="45.3145098" lon="8.8056076"><ele>106.0</ele><time>2026-04-25T16:23:40.491Z</time></trkpt><trkpt lat="45.3144818" lon="8.8055164"><ele>106.0</ele><time>2026-04-25T16:23:42.491Z</time></trkpt><trkpt lat="45.3145244" lon="8.8054313"><ele>106.0</ele><time>2026-04-25T16:23:45.491Z</time></trkpt><trkpt lat="45.3146184" lon="8.8053689"><ele>106.00000000000001</ele><time>2026-04-25T16:23:47.491Z</time></trkpt><trkpt lat="45.31469" lon="8.8053272"><ele>106.0</ele><time>2026-04-25T16:23:48.49Z</time></trkpt><trkpt lat="45.3147748" lon="8.8052791"><ele>106.0</ele><time>2026-04-25T16:23:49.491Z</time></trkpt><trkpt lat="45.3148715" lon="8.8052302"><ele>106.0</ele><time>2026-04-25T16:23:50.491Z</time></trkpt><trkpt lat="45.314976" lon="8.8051764"><ele>106.0</ele><time>2026-04-25T16:23:51.49Z</time></trkpt><trkpt lat="45.3150858" lon="8.8051131"><ele>106.0</ele><time>2026-04-25T16:23:52.49Z</time></trkpt><trkpt lat="45.3152042" lon="8.8050424"><ele>106.0</ele><time>2026-04-25T16:23:53.491Z</time></trkpt><trkpt lat="45.3153257" lon="8.8049754"><ele>106.0</ele><time>2026-04-25T16:23:54.491Z</time></trkpt><trkpt lat="45.3154486" lon="8.8049049"><ele>106.0</ele><time>2026-04-25T16:23:55.49Z</time></trkpt><trkpt lat="45.3155758" lon="8.804831"><ele>106.0</ele><time>2026-04-25T16:23:56.49Z</time></trkpt><trkpt lat="45.3157065" lon="8.8047517"><ele>106.0</ele><time>2026-04-25T16:23:57.491Z</time></trkpt><trkpt lat="45.3158463" lon="8.8046712"><ele>106.0</ele><time>2026-04-25T16:23:58.49Z</time></trkpt><trkpt lat="45.3159931" lon="8.8045813"><ele>106.0</ele><time>2026-04-25T16:23:59.491Z</time></trkpt><trkpt lat="45.3161446" lon="8.8044871"><ele>106.0</ele><time>2026-04-25T16:24:00.491Z</time></trkpt><trkpt lat="45.3163028" lon="8.8043861"><ele>106.0</ele><time>2026-04-25T16:24:01.49Z</time></trkpt><trkpt lat="45.3164643" lon="8.8042852"><ele>106.0</ele><time>2026-04-25T16:24:02.491Z</time></trkpt><trkpt lat="45.3166231" lon="8.8041865"><ele>106.33333333333334</ele><time>2026-04-25T16:24:03.491Z</time></trkpt><trkpt lat="45.3167748" lon="8.8040935"><ele>106.66666666666666</ele><time>2026-04-25T16:24:04.491Z</time></trkpt><trkpt lat="45.3169141" lon="8.8040075"><ele>107.0</ele><time>2026-04-25T16:24:05.491Z</time></trkpt><trkpt lat="45.3170433" lon="8.8039303"><ele>107.0</ele><time>2026-04-25T16:24:06.491Z</time></trkpt><trkpt lat="45.3171618" lon="8.8038588"><ele>106.99999999999999</ele><time>2026-04-25T16:24:07.491Z</time></trkpt><trkpt lat="45.3172657" lon="8.8038013"><ele>106.99999999999999</ele><time>2026-04-25T16:24:08.491Z</time></trkpt><trkpt lat="45.317359" lon="8.8037619"><ele>107.0</ele><time>2026-04-25T16:24:09.491Z</time></trkpt><trkpt lat="45.3174397" lon="8.8037406"><ele>107.0</ele><time>2026-04-25T16:24:10.49Z</time></trkpt><trkpt lat="45.3175088" lon="8.8037354"><ele>107.19999999999999</ele><time>2026-04-25T16:24:11.491Z</time></trkpt><trkpt lat="45.3176113" lon="8.8038199"><ele>107.39999999999999</ele><time>2026-04-25T16:24:13.491Z</time></trkpt><trkpt lat="45.3176559" lon="8.8039042"><ele>107.60000000000001</ele><time>2026-04-25T16:24:14.491Z</time></trkpt><trkpt lat="45.3177065" lon="8.8040063"><ele>107.80000000000001</ele><time>2026-04-25T16:24:15.491Z</time></trkpt><trkpt lat="45.3177557" lon="8.8041259"><ele>108.0</ele><time>2026-04-25T16:24:16.491Z</time></trkpt><trkpt lat="45.3178103" lon="8.8042574"><ele>107.75</ele><time>2026-04-25T16:24:17.491Z</time></trkpt><trkpt lat="45.3178743" lon="8.8043946"><ele>107.5</ele><time>2026-04-25T16:24:18.491Z</time></trkpt><trkpt lat="45.3179424" lon="8.8045383"><ele>107.25</ele><time>2026-04-25T16:24:19.491Z</time></trkpt><trkpt lat="45.3180159" lon="8.8046915"><ele>107.0</ele><time>2026-04-25T16:24:20.491Z</time></trkpt><trkpt lat="45.3180881" lon="8.8048454"><ele>107.0</ele><time>2026-04-25T16:24:21.49Z</time></trkpt><trkpt lat="45.318162" lon="8.8049985"><ele>107.0</ele><time>2026-04-25T16:24:22.49Z</time></trkpt><trkpt lat="45.3182336" lon="8.8051488"><ele>107.0</ele><time>2026-04-25T16:24:23.491Z</time></trkpt><trkpt lat="45.318308" lon="8.8053028"><ele>107.0</ele><time>2026-04-25T16:24:24.491Z</time></trkpt><trkpt lat="45.3183859" lon="8.8054602"><ele>107.0</ele><time>2026-04-25T16:24:25.491Z</time></trkpt><trkpt lat="45.3184601" lon="8.8056118"><ele>107.0</ele><time>2026-04-25T16:24:26.491Z</time></trkpt><trkpt lat="45.3185309" lon="8.805752"><ele>107.0</ele><time>2026-04-25T16:24:27.491Z</time></trkpt><trkpt lat="45.3185989" lon="8.8058795"><ele>107.0</ele><time>2026-04-25T16:24:28.49Z</time></trkpt><trkpt lat="45.318659" lon="8.8059898"><ele>107.19999999999999</ele><time>2026-04-25T16:24:29.491Z</time></trkpt><trkpt lat="45.3187142" lon="8.8060788"><ele>107.39999999999999</ele><time>2026-04-25T16:24:30.491Z</time></trkpt><trkpt lat="45.3187985" lon="8.8061426"><ele>107.60000000000001</ele><time>2026-04-25T16:24:32.49Z</time></trkpt><trkpt lat="45.3188859" lon="8.8061047"><ele>107.80000000000001</ele><time>2026-04-25T16:24:34.491Z</time></trkpt><trkpt lat="45.3190042" lon="8.806033"><ele>108.0</ele><time>2026-04-25T16:24:36.491Z</time></trkpt><trkpt lat="45.3190767" lon="8.8059902"><ele>108.0</ele><time>2026-04-25T16:24:37.49Z</time></trkpt><trkpt lat="45.319155" lon="8.8059455"><ele>108.00000000000001</ele><time>2026-04-25T16:24:38.491Z</time></trkpt><trkpt lat="45.319239" lon="8.8058999"><ele>108.00000000000001</ele><time>2026-04-25T16:24:39.491Z</time></trkpt><trkpt lat="45.3193269" lon="8.8058445"><ele>108.0</ele><time>2026-04-25T16:24:40.491Z</time></trkpt><trkpt lat="45.3194249" lon="8.8057885"><ele>108.0</ele><time>2026-04-25T16:24:41.491Z</time></trkpt><trkpt lat="45.3195303" lon="8.8057297"><ele>108.0</ele><time>2026-04-25T16:24:42.491Z</time></trkpt><trkpt lat="45.319639" lon="8.8056662"><ele>108.0</ele><time>2026-04-25T16:24:43.491Z</time></trkpt><trkpt lat="45.3197456" lon="8.8056024"><ele>108.0</ele><time>2026-04-25T16:24:44.491Z</time></trkpt><trkpt lat="45.3198579" lon="8.8055438"><ele>108.0</ele><time>2026-04-25T16:24:45.49Z</time></trkpt><trkpt lat="45.3199685" lon="8.8054851"><ele>108.75</ele><time>2026-04-25T16:24:46.49Z</time></trkpt><trkpt lat="45.3200773" lon="8.8054305"><ele>109.5</ele><time>2026-04-25T16:24:47.491Z</time></trkpt><trkpt lat="45.3201862" lon="8.8053754"><ele>110.25</ele><time>2026-04-25T16:24:48.491Z</time></trkpt><trkpt lat="45.3202909" lon="8.8053163"><ele>111.0</ele><time>2026-04-25T16:24:49.49Z</time></trkpt><trkpt lat="45.3203893" lon="8.8052569"><ele>111.0</ele><time>2026-04-25T16:24:50.49Z</time></trkpt><trkpt lat="45.3204803" lon="8.805204"><ele>111.0</ele><time>2026-04-25T16:24:51.491Z</time></trkpt><trkpt lat="45.3205652" lon="8.8051528"><ele>111.0</ele><time>2026-04-25T16:24:52.49Z</time></trkpt><trkpt lat="45.3206405" lon="8.8051014"><ele>111.0</ele><time>2026-04-25T16:24:53.491Z</time></trkpt><trkpt lat="45.3207111" lon="8.805066"><ele>111.0</ele><time>2026-04-25T16:24:54.49Z</time></trkpt><trkpt lat="45.3207826" lon="8.8050473"><ele>111.0</ele><time>2026-04-25T16:24:55.491Z</time></trkpt><trkpt lat="45.320853" lon="8.8050523"><ele>110.83333333333333</ele><time>2026-04-25T16:24:56.491Z</time></trkpt><trkpt lat="45.3209168" lon="8.8050743"><ele>110.66666666666666</ele><time>2026-04-25T16:24:57.491Z</time></trkpt><trkpt lat="45.320974" lon="8.8051167"><ele>110.5</ele><time>2026-04-25T16:24:58.49Z</time></trkpt><trkpt lat="45.3210323" lon="8.805185"><ele>110.33333333333333</ele><time>2026-04-25T16:24:59.491Z</time></trkpt><trkpt lat="45.3210946" lon="8.8052668"><ele>110.16666666666666</ele><time>2026-04-25T16:25:00.49Z</time></trkpt><trkpt lat="45.3211601" lon="8.8053506"><ele>110.0</ele><time>2026-04-25T16:25:01.491Z</time></trkpt><trkpt lat="45.3212211" lon="8.8054337"><ele>110.0</ele><time>2026-04-25T16:25:02.491Z</time></trkpt><trkpt lat="45.3212846" lon="8.805525"><ele>110.0</ele><time>2026-04-25T16:25:03.491Z</time></trkpt><trkpt lat="45.3213516" lon="8.8056202"><ele>110.0</ele><time>2026-04-25T16:25:04.49Z</time></trkpt><trkpt lat="45.3214177" lon="8.8057242"><ele>110.0</ele><time>2026-04-25T16:25:05.491Z</time></trkpt><trkpt lat="45.3214823" lon="8.8058295"><ele>110.0</ele><time>2026-04-25T16:25:06.491Z</time></trkpt><trkpt lat="45.3215466" lon="8.8059436"><ele>110.0</ele><time>2026-04-25T16:25:07.49Z</time></trkpt><trkpt lat="45.3216179" lon="8.8060548"><ele>110.0</ele><time>2026-04-25T16:25:08.49Z</time></trkpt><trkpt lat="45.3216908" lon="8.8061667"><ele>110.0</ele><time>2026-04-25T16:25:09.491Z</time></trkpt><trkpt lat="45.3217617" lon="8.8062841"><ele>110.0</ele><time>2026-04-25T16:25:10.491Z</time></trkpt><trkpt lat="45.3218323" lon="8.8064026"><ele>110.0</ele><time>2026-04-25T16:25:11.491Z</time></trkpt><trkpt lat="45.3219018" lon="8.8065166"><ele>110.0</ele><time>2026-04-25T16:25:12.491Z</time></trkpt><trkpt lat="45.3219724" lon="8.8066256"><ele>110.0</ele><time>2026-04-25T16:25:13.491Z</time></trkpt><trkpt lat="45.32204" lon="8.8067287"><ele>110.0</ele><time>2026-04-25T16:25:14.491Z</time></trkpt><trkpt lat="45.3221089" lon="8.8068341"><ele>110.0</ele><time>2026-04-25T16:25:15.491Z</time></trkpt><trkpt lat="45.3221762" lon="8.806939"><ele>110.0</ele><time>2026-04-25T16:25:16.491Z</time></trkpt><trkpt lat="45.3222434" lon="8.8070462"><ele>109.99999999999999</ele><time>2026-04-25T16:25:17.491Z</time></trkpt><trkpt lat="45.3223051" lon="8.8071482"><ele>110.0</ele><time>2026-04-25T16:25:18.491Z</time></trkpt><trkpt lat="45.3223663" lon="8.8072424"><ele>110.0</ele><time>2026-04-25T16:25:19.491Z</time></trkpt><trkpt lat="45.3224262" lon="8.8073274"><ele>110.0</ele><time>2026-04-25T16:25:20.491Z</time></trkpt><trkpt lat="45.3224778" lon="8.8073977"><ele>109.99999999999999</ele><time>2026-04-25T16:25:21.491Z</time></trkpt><trkpt lat="45.3225495" lon="8.8074711"><ele>110.0</ele><time>2026-04-25T16:25:23.491Z</time></trkpt><trkpt lat="45.3226184" lon="8.807402"><ele>110.0</ele><time>2026-04-25T16:25:38.491Z</time></trkpt><trkpt lat="45.3226014" lon="8.8072295"><ele>110.0</ele><time>2026-04-25T16:25:40.491Z</time></trkpt><trkpt lat="45.322589" lon="8.8071264"><ele>110.0</ele><time>2026-04-25T16:25:41.49Z</time></trkpt><trkpt lat="45.3225827" lon="8.80701"><ele>110.0</ele><time>2026-04-25T16:25:42.49Z</time></trkpt><trkpt lat="45.3225722" lon="8.8068915"><ele>110.0</ele><time>2026-04-25T16:25:43.491Z</time></trkpt><trkpt lat="45.3225676" lon="8.8067587"><ele>110.2</ele><time>2026-04-25T16:25:44.49Z</time></trkpt><trkpt lat="45.3225528" lon="8.8066203"><ele>110.4</ele><time>2026-04-25T16:25:45.49Z</time></trkpt><trkpt lat="45.3225388" lon="8.8064723"><ele>110.6</ele><time>2026-04-25T16:25:46.491Z</time></trkpt><trkpt lat="45.3225228" lon="8.8063291"><ele>110.8</ele><time>2026-04-25T16:25:47.49Z</time></trkpt><trkpt lat="45.3225112" lon="8.8061788"><ele>111.0</ele><time>2026-04-25T16:25:48.49Z</time></trkpt><trkpt lat="45.322498" lon="8.8060327"><ele>111.0</ele><time>2026-04-25T16:25:49.491Z</time></trkpt><trkpt lat="45.3224916" lon="8.8058951"><ele>111.0</ele><time>2026-04-25T16:25:50.491Z</time></trkpt><trkpt lat="45.3224813" lon="8.8057564"><ele>111.0</ele><time>2026-04-25T16:25:51.491Z</time></trkpt><trkpt lat="45.3224702" lon="8.8056147"><ele>111.0</ele><time>2026-04-25T16:25:52.491Z</time></trkpt><trkpt lat="45.3224542" lon="8.8054657"><ele>111.0</ele><time>2026-04-25T16:25:53.491Z</time></trkpt><trkpt lat="45.3224386" lon="8.805315"><ele>111.0</ele><time>2026-04-25T16:25:54.49Z</time></trkpt><trkpt lat="45.3224282" lon="8.8051724"><ele>111.0</ele><time>2026-04-25T16:25:55.491Z</time></trkpt><trkpt lat="45.322418" lon="8.8050481"><ele>111.0</ele><time>2026-04-25T16:25:56.49Z</time></trkpt><trkpt lat="45.3224119" lon="8.8049333"><ele>111.0</ele><time>2026-04-25T16:25:57.491Z</time></trkpt><trkpt lat="45.3224023" lon="8.8048234"><ele>111.0</ele><time>2026-04-25T16:25:58.491Z</time></trkpt><trkpt lat="45.3223971" lon="8.8047074"><ele>111.0</ele><time>2026-04-25T16:25:59.491Z</time></trkpt><trkpt lat="45.3223905" lon="8.8045804"><ele>110.83333333333333</ele><time>2026-04-25T16:26:00.491Z</time></trkpt><trkpt lat="45.3223926" lon="8.8044477"><ele>110.66666666666666</ele><time>2026-04-25T16:26:01.491Z</time></trkpt><trkpt lat="45.3223974" lon="8.8043255"><ele>110.5</ele><time>2026-04-25T16:26:02.491Z</time></trkpt><trkpt lat="45.3224065" lon="8.8042131"><ele>110.33333333333333</ele><time>2026-04-25T16:26:03.491Z</time></trkpt><trkpt lat="45.3224198" lon="8.8041089"><ele>110.16666666666666</ele><time>2026-04-25T16:26:04.491Z</time></trkpt><trkpt lat="45.3224376" lon="8.8040028"><ele>110.0</ele><time>2026-04-25T16:26:05.491Z</time></trkpt><trkpt lat="45.3224561" lon="8.8038886"><ele>109.6</ele><time>2026-04-25T16:26:06.491Z</time></trkpt><trkpt lat="45.3224778" lon="8.8037771"><ele>109.2</ele><time>2026-04-25T16:26:07.49Z</time></trkpt><trkpt lat="45.3225" lon="8.8036634"><ele>108.80000000000001</ele><time>2026-04-25T16:26:08.491Z</time></trkpt><trkpt lat="45.3225254" lon="8.803546"><ele>108.4</ele><time>2026-04-25T16:26:09.491Z</time></trkpt><trkpt lat="45.3225513" lon="8.8034187"><ele>108.0</ele><time>2026-04-25T16:26:10.491Z</time></trkpt><trkpt lat="45.3225874" lon="8.8032695"><ele>108.0</ele><time>2026-04-25T16:26:11.49Z</time></trkpt><trkpt lat="45.3226246" lon="8.8031162"><ele>108.0</ele><time>2026-04-25T16:26:12.491Z</time></trkpt><trkpt lat="45.3226649" lon="8.8029547"><ele>108.0</ele><time>2026-04-25T16:26:13.491Z</time></trkpt><trkpt lat="45.3227081" lon="8.802785"><ele>108.0</ele><time>2026-04-25T16:26:14.491Z</time></trkpt><trkpt lat="45.3227488" lon="8.8026088"><ele>108.0</ele><time>2026-04-25T16:26:15.491Z</time></trkpt><trkpt lat="45.3227915" lon="8.8024293"><ele>108.0</ele><time>2026-04-25T16:26:16.491Z</time></trkpt><trkpt lat="45.3228331" lon="8.802252"><ele>108.0</ele><time>2026-04-25T16:26:17.491Z</time></trkpt><trkpt lat="45.3228728" lon="8.8020765"><ele>108.0</ele><time>2026-04-25T16:26:18.49Z</time></trkpt><trkpt lat="45.3229145" lon="8.8019078"><ele>108.0</ele><time>2026-04-25T16:26:19.491Z</time></trkpt><trkpt lat="45.3229532" lon="8.801736"><ele>108.0</ele><time>2026-04-25T16:26:20.49Z</time></trkpt><trkpt lat="45.3229964" lon="8.8015719"><ele>108.0</ele><time>2026-04-25T16:26:21.491Z</time></trkpt><trkpt lat="45.3230347" lon="8.8014045"><ele>108.0</ele><time>2026-04-25T16:26:22.491Z</time></trkpt><trkpt lat="45.3230751" lon="8.8012324"><ele>108.0</ele><time>2026-04-25T16:26:23.49Z</time></trkpt><trkpt lat="45.3231184" lon="8.8010569"><ele>108.0</ele><time>2026-04-25T16:26:24.491Z</time></trkpt><trkpt lat="45.3231583" lon="8.8008789"><ele>108.0</ele><time>2026-04-25T16:26:25.491Z</time></trkpt><trkpt lat="45.3231998" lon="8.8007021"><ele>108.0</ele><time>2026-04-25T16:26:26.491Z</time></trkpt><trkpt lat="45.3232428" lon="8.8005295"><ele>107.80000000000001</ele><time>2026-04-25T16:26:27.491Z</time></trkpt><trkpt lat="45.3232802" lon="8.8003666"><ele>107.60000000000001</ele><time>2026-04-25T16:26:28.49Z</time></trkpt><trkpt lat="45.323315" lon="8.800214"><ele>107.39999999999999</ele><time>2026-04-25T16:26:29.49Z</time></trkpt><trkpt lat="45.323347" lon="8.8000728"><ele>107.19999999999999</ele><time>2026-04-25T16:26:30.491Z</time></trkpt><trkpt lat="45.3233738" lon="8.7999426"><ele>107.0</ele><time>2026-04-25T16:26:31.491Z</time></trkpt><trkpt lat="45.3233984" lon="8.7998276"><ele>106.99999999999999</ele><time>2026-04-25T16:26:32.491Z</time></trkpt><trkpt lat="45.3234176" lon="8.7997247"><ele>107.0</ele><time>2026-04-25T16:26:33.49Z</time></trkpt><trkpt lat="45.3234373" lon="8.7996357"><ele>107.0</ele><time>2026-04-25T16:26:34.491Z</time></trkpt><trkpt lat="45.3234713" lon="8.7995122"><ele>107.0</ele><time>2026-04-25T16:26:36.49Z</time></trkpt><trkpt lat="45.3235209" lon="8.7994468"><ele>106.99999999999999</ele><time>2026-04-25T16:26:40.491Z</time></trkpt><trkpt lat="45.3234509" lon="8.7994242"><ele>107.0</ele><time>2026-04-25T16:26:55.491Z</time></trkpt><trkpt lat="45.3234151" lon="8.7995627"><ele>107.0</ele><time>2026-04-25T16:26:57.491Z</time></trkpt><trkpt lat="45.323398" lon="8.7996589"><ele>106.99999999999999</ele><time>2026-04-25T16:26:58.491Z</time></trkpt><trkpt lat="45.3233749" lon="8.7997733"><ele>106.99999999999999</ele><time>2026-04-25T16:26:59.491Z</time></trkpt><trkpt lat="45.3233451" lon="8.799913"><ele>107.0</ele><time>2026-04-25T16:27:00.49Z</time></trkpt><trkpt lat="45.3233088" lon="8.8000823"><ele>107.0</ele><time>2026-04-25T16:27:01.49Z</time></trkpt><trkpt lat="45.3232706" lon="8.8002581"><ele>107.25</ele><time>2026-04-25T16:27:02.491Z</time></trkpt><trkpt lat="45.323228" lon="8.8004402"><ele>107.5</ele><time>2026-04-25T16:27:03.49Z</time></trkpt><trkpt lat="45.3231848" lon="8.8006272"><ele>107.75</ele><time>2026-04-25T16:27:04.491Z</time></trkpt><trkpt lat="45.3231328" lon="8.8008302"><ele>108.0</ele><time>2026-04-25T16:27:05.491Z</time></trkpt><trkpt lat="45.3230855" lon="8.8010297"><ele>107.75</ele><time>2026-04-25T16:27:06.491Z</time></trkpt><trkpt lat="45.3230423" lon="8.8012193"><ele>107.5</ele><time>2026-04-25T16:27:07.491Z</time></trkpt><trkpt lat="45.3229982" lon="8.8013966"><ele>107.25</ele><time>2026-04-25T16:27:08.491Z</time></trkpt><trkpt lat="45.3229563" lon="8.8015654"><ele>107.0</ele><time>2026-04-25T16:27:09.491Z</time></trkpt><trkpt lat="45.3229128" lon="8.801739"><ele>107.25</ele><time>2026-04-25T16:27:10.491Z</time></trkpt><trkpt lat="45.322872" lon="8.8019189"><ele>107.5</ele><time>2026-04-25T16:27:11.491Z</time></trkpt><trkpt lat="45.3228274" lon="8.8021018"><ele>107.75</ele><time>2026-04-25T16:27:12.491Z</time></trkpt><trkpt lat="45.3227816" lon="8.8022947"><ele>108.0</ele><time>2026-04-25T16:27:13.491Z</time></trkpt><trkpt lat="45.3227313" lon="8.8024918"><ele>108.0</ele><time>2026-04-25T16:27:14.491Z</time></trkpt><trkpt lat="45.3226837" lon="8.8026896"><ele>108.0</ele><time>2026-04-25T16:27:15.49Z</time></trkpt><trkpt lat="45.3226351" lon="8.8028923"><ele>108.0</ele><time>2026-04-25T16:27:16.491Z</time></trkpt><trkpt lat="45.3225877" lon="8.8030898"><ele>108.0</ele><time>2026-04-25T16:27:17.49Z</time></trkpt><trkpt lat="45.3225423" lon="8.8032847"><ele>108.0</ele><time>2026-04-25T16:27:18.491Z</time></trkpt><trkpt lat="45.3224974" lon="8.8034776"><ele>108.0</ele><time>2026-04-25T16:27:19.491Z</time></trkpt><trkpt lat="45.3224553" lon="8.8036665"><ele>108.0</ele><time>2026-04-25T16:27:20.491Z</time></trkpt><trkpt lat="45.3224167" lon="8.8038421"><ele>108.0</ele><time>2026-04-25T16:27:21.49Z</time></trkpt><trkpt lat="45.3223873" lon="8.8040057"><ele>108.0</ele><time>2026-04-25T16:27:22.491Z</time></trkpt><trkpt lat="45.3223647" lon="8.8041605"><ele>108.00000000000001</ele><time>2026-04-25T16:27:23.491Z</time></trkpt><trkpt lat="45.3223511" lon="8.8043118"><ele>108.00000000000001</ele><time>2026-04-25T16:27:24.491Z</time></trkpt><trkpt lat="45.3223452" lon="8.8044625"><ele>108.0</ele><time>2026-04-25T16:27:25.491Z</time></trkpt><trkpt lat="45.3223477" lon="8.8046058"><ele>108.0</ele><time>2026-04-25T16:27:26.49Z</time></trkpt><trkpt lat="45.3223506" lon="8.8047317"><ele>108.28571428571428</ele><time>2026-04-25T16:27:27.491Z</time></trkpt><trkpt lat="45.3223574" lon="8.8048437"><ele>108.57142857142857</ele><time>2026-04-25T16:27:28.49Z</time></trkpt><trkpt lat="45.3223637" lon="8.8049368"><ele>108.85714285714286</ele><time>2026-04-25T16:27:29.491Z</time></trkpt><trkpt lat="45.3224109" lon="8.8050268"><ele>109.14285714285714</ele><time>2026-04-25T16:27:31.49Z</time></trkpt><trkpt lat="45.3224867" lon="8.8050292"><ele>109.42857142857143</ele><time>2026-04-25T16:27:33.49Z</time></trkpt><trkpt lat="45.3225596" lon="8.8050248"><ele>109.71428571428571</ele><time>2026-04-25T16:27:35.491Z</time></trkpt><trkpt lat="45.3226314" lon="8.8050229"><ele>110.0</ele><time>2026-04-25T16:27:37.491Z</time></trkpt><trkpt lat="45.3227131" lon="8.8050128"><ele>110.0</ele><time>2026-04-25T16:27:39.491Z</time></trkpt><trkpt lat="45.3228157" lon="8.8050115"><ele>110.0</ele><time>2026-04-25T16:27:41.491Z</time></trkpt><trkpt lat="45.3229412" lon="8.8050077"><ele>110.0</ele><time>2026-04-25T16:27:43.491Z</time></trkpt><trkpt lat="45.323014" lon="8.8049969"><ele>110.0</ele><time>2026-04-25T16:27:44.491Z</time></trkpt><trkpt lat="45.3230896" lon="8.8049916"><ele>110.0</ele><time>2026-04-25T16:27:45.491Z</time></trkpt><trkpt lat="45.3231706" lon="8.8049877"><ele>109.66666666666666</ele><time>2026-04-25T16:27:46.491Z</time></trkpt><trkpt lat="45.3232521" lon="8.8049866"><ele>109.33333333333333</ele><time>2026-04-25T16:27:47.49Z</time></trkpt><trkpt lat="45.3233393" lon="8.8049828"><ele>109.0</ele><time>2026-04-25T16:27:48.491Z</time></trkpt><trkpt lat="45.3234291" lon="8.8049802"><ele>108.66666666666666</ele><time>2026-04-25T16:27:49.49Z</time></trkpt><trkpt lat="45.323523" lon="8.8049765"><ele>108.33333333333333</ele><time>2026-04-25T16:27:50.491Z</time></trkpt><trkpt lat="45.3236167" lon="8.804974"><ele>108.0</ele><time>2026-04-25T16:27:51.49Z</time></trkpt><trkpt lat="45.3237116" lon="8.804971"><ele>108.0</ele><time>2026-04-25T16:27:52.491Z</time></trkpt><trkpt lat="45.3238059" lon="8.8049673"><ele>108.00000000000001</ele><time>2026-04-25T16:27:53.49Z</time></trkpt><trkpt lat="45.3239034" lon="8.804962"><ele>108.00000000000001</ele><time>2026-04-25T16:27:54.491Z</time></trkpt><trkpt lat="45.3239929" lon="8.8049534"><ele>108.0</ele><time>2026-04-25T16:27:55.49Z</time></trkpt><trkpt lat="45.3240805" lon="8.8049422"><ele>108.0</ele><time>2026-04-25T16:27:56.49Z</time></trkpt><trkpt lat="45.3241666" lon="8.8049256"><ele>107.80000000000001</ele><time>2026-04-25T16:27:57.49Z</time></trkpt><trkpt lat="45.3242524" lon="8.8049022"><ele>107.60000000000001</ele><time>2026-04-25T16:27:58.491Z</time></trkpt><trkpt lat="45.3243284" lon="8.8048645"><ele>107.39999999999999</ele><time>2026-04-25T16:27:59.49Z</time></trkpt><trkpt lat="45.3244066" lon="8.8048049"><ele>107.19999999999999</ele><time>2026-04-25T16:28:00.491Z</time></trkpt><trkpt lat="45.3244893" lon="8.8047347"><ele>107.0</ele><time>2026-04-25T16:28:01.491Z</time></trkpt><trkpt lat="45.3245779" lon="8.804658"><ele>107.0</ele><time>2026-04-25T16:28:02.491Z</time></trkpt><trkpt lat="45.3246669" lon="8.8045685"><ele>106.99999999999999</ele><time>2026-04-25T16:28:03.491Z</time></trkpt><trkpt lat="45.3247584" lon="8.8044823"><ele>106.99999999999999</ele><time>2026-04-25T16:28:04.491Z</time></trkpt><trkpt lat="45.3248525" lon="8.8043962"><ele>107.0</ele><time>2026-04-25T16:28:05.49Z</time></trkpt><trkpt lat="45.3249464" lon="8.8043042"><ele>107.0</ele><time>2026-04-25T16:28:06.491Z</time></trkpt><trkpt lat="45.3250382" lon="8.8042116"><ele>107.5</ele><time>2026-04-25T16:28:07.491Z</time></trkpt><trkpt lat="45.3251289" lon="8.8041178"><ele>108.0</ele><time>2026-04-25T16:28:08.49Z</time></trkpt><trkpt lat="45.3252267" lon="8.8040189"><ele>108.5</ele><time>2026-04-25T16:28:09.491Z</time></trkpt><trkpt lat="45.3253277" lon="8.803923"><ele>109.0</ele><time>2026-04-25T16:28:10.491Z</time></trkpt><trkpt lat="45.3254281" lon="8.8038284"><ele>109.0</ele><time>2026-04-25T16:28:11.49Z</time></trkpt><trkpt lat="45.3255331" lon="8.8037442"><ele>109.0</ele><time>2026-04-25T16:28:12.49Z</time></trkpt><trkpt lat="45.3256413" lon="8.8036744"><ele>109.0</ele><time>2026-04-25T16:28:13.49Z</time></trkpt><trkpt lat="45.3257531" lon="8.803629"><ele>109.0</ele><time>2026-04-25T16:28:14.49Z</time></trkpt><trkpt lat="45.3258701" lon="8.8035827"><ele>109.25</ele><time>2026-04-25T16:28:15.491Z</time></trkpt><trkpt lat="45.325988" lon="8.8035345"><ele>109.5</ele><time>2026-04-25T16:28:16.491Z</time></trkpt><trkpt lat="45.326107" lon="8.803478"><ele>109.75</ele><time>2026-04-25T16:28:17.49Z</time></trkpt><trkpt lat="45.3262319" lon="8.8034252"><ele>110.0</ele><time>2026-04-25T16:28:18.491Z</time></trkpt><trkpt lat="45.3263608" lon="8.8033731"><ele>109.75</ele><time>2026-04-25T16:28:19.491Z</time></trkpt><trkpt lat="45.3264856" lon="8.8033227"><ele>109.5</ele><time>2026-04-25T16:28:20.49Z</time></trkpt><trkpt lat="45.3266015" lon="8.8032752"><ele>109.25</ele><time>2026-04-25T16:28:21.491Z</time></trkpt><trkpt lat="45.3267106" lon="8.8032306"><ele>109.0</ele><time>2026-04-25T16:28:22.491Z</time></trkpt><trkpt lat="45.3268108" lon="8.8031907"><ele>109.0</ele><time>2026-04-25T16:28:23.49Z</time></trkpt><trkpt lat="45.3269037" lon="8.8031434"><ele>109.0</ele><time>2026-04-25T16:28:24.491Z</time></trkpt><trkpt lat="45.3269954" lon="8.8030913"><ele>109.0</ele><time>2026-04-25T16:28:25.491Z</time></trkpt><trkpt lat="45.327079" lon="8.8030382"><ele>109.0</ele><time>2026-04-25T16:28:26.49Z</time></trkpt><trkpt lat="45.3271563" lon="8.8029726"><ele>109.0</ele><time>2026-04-25T16:28:27.491Z</time></trkpt><trkpt lat="45.3272184" lon="8.8029044"><ele>109.00000000000001</ele><time>2026-04-25T16:28:28.491Z</time></trkpt><trkpt lat="45.3272701" lon="8.8028433"><ele>109.0</ele><time>2026-04-25T16:28:29.491Z</time></trkpt><trkpt lat="45.3273309" lon="8.8027696"><ele>109.0</ele><time>2026-04-25T16:28:31.491Z</time></trkpt><trkpt lat="45.327401" lon="8.8028113"><ele>109.0</ele><time>2026-04-25T16:28:34.49Z</time></trkpt><trkpt lat="45.3274555" lon="8.802936"><ele>109.00000000000001</ele><time>2026-04-25T16:28:36.491Z</time></trkpt><trkpt lat="45.3274893" lon="8.8030262"><ele>109.0</ele><time>2026-04-25T16:28:37.49Z</time></trkpt><trkpt lat="45.3275314" lon="8.8031289"><ele>109.0</ele><time>2026-04-25T16:28:38.49Z</time></trkpt><trkpt lat="45.3275801" lon="8.803242"><ele>109.0</ele><time>2026-04-25T16:28:39.49Z</time></trkpt><trkpt lat="45.3276352" lon="8.8033668"><ele>109.0</ele><time>2026-04-25T16:28:40.491Z</time></trkpt><trkpt lat="45.3276937" lon="8.8034965"><ele>109.0</ele><time>2026-04-25T16:28:41.49Z</time></trkpt><trkpt lat="45.3277524" lon="8.8036377"><ele>109.0</ele><time>2026-04-25T16:28:42.491Z</time></trkpt><trkpt lat="45.327814" lon="8.80378"><ele>109.0</ele><time>2026-04-25T16:28:43.491Z</time></trkpt><trkpt lat="45.3278762" lon="8.8039205"><ele>109.0</ele><time>2026-04-25T16:28:44.491Z</time></trkpt><trkpt lat="45.3279346" lon="8.804051"><ele>109.0</ele><time>2026-04-25T16:28:45.491Z</time></trkpt><trkpt lat="45.3279914" lon="8.8041786"><ele>109.0</ele><time>2026-04-25T16:28:46.491Z</time></trkpt><trkpt lat="45.3280433" lon="8.804305"><ele>109.0</ele><time>2026-04-25T16:28:47.491Z</time></trkpt><trkpt lat="45.3280957" lon="8.8044173"><ele>109.00000000000001</ele><time>2026-04-25T16:28:48.491Z</time></trkpt><trkpt lat="45.3281448" lon="8.8045233"><ele>109.0</ele><time>2026-04-25T16:28:49.491Z</time></trkpt><trkpt lat="45.3281871" lon="8.8046225"><ele>109.0</ele><time>2026-04-25T16:28:50.491Z</time></trkpt><trkpt lat="45.3282276" lon="8.8047174"><ele>109.0</ele><time>2026-04-25T16:28:51.491Z</time></trkpt><trkpt lat="45.3282669" lon="8.8048097"><ele>109.00000000000001</ele><time>2026-04-25T16:28:52.491Z</time></trkpt><trkpt lat="45.3283066" lon="8.8049022"><ele>109.0</ele><time>2026-04-25T16:28:53.491Z</time></trkpt><trkpt lat="45.3283548" lon="8.8049965"><ele>109.0</ele><time>2026-04-25T16:28:54.491Z</time></trkpt><trkpt lat="45.3284047" lon="8.8050991"><ele>109.0</ele><time>2026-04-25T16:28:55.49Z</time></trkpt><trkpt lat="45.3284548" lon="8.8052224"><ele>109.0</ele><time>2026-04-25T16:28:56.49Z</time></trkpt><trkpt lat="45.3285107" lon="8.8053516"><ele>109.0</ele><time>2026-04-25T16:28:57.49Z</time></trkpt><trkpt lat="45.3285688" lon="8.8054798"><ele>109.0</ele><time>2026-04-25T16:28:58.491Z</time></trkpt><trkpt lat="45.3286252" lon="8.805598"><ele>109.0</ele><time>2026-04-25T16:28:59.491Z</time></trkpt><trkpt lat="45.3286734" lon="8.8057111"><ele>109.0</ele><time>2026-04-25T16:29:00.491Z</time></trkpt><trkpt lat="45.3287286" lon="8.8058295"><ele>109.0</ele><time>2026-04-25T16:29:01.49Z</time></trkpt><trkpt lat="45.3287838" lon="8.8059576"><ele>109.0</ele><time>2026-04-25T16:29:02.491Z</time></trkpt><trkpt lat="45.3288461" lon="8.80609"><ele>109.0</ele><time>2026-04-25T16:29:03.491Z</time></trkpt><trkpt lat="45.32891" lon="8.8062266"><ele>109.4</ele><time>2026-04-25T16:29:04.491Z</time></trkpt><trkpt lat="45.3289711" lon="8.8063658"><ele>109.80000000000001</ele><time>2026-04-25T16:29:05.491Z</time></trkpt><trkpt lat="45.3290284" lon="8.8064898"><ele>110.19999999999999</ele><time>2026-04-25T16:29:06.491Z</time></trkpt><trkpt lat="45.3290803" lon="8.8066107"><ele>110.6</ele><time>2026-04-25T16:29:07.49Z</time></trkpt><trkpt lat="45.3291286" lon="8.8067155"><ele>111.0</ele><time>2026-04-25T16:29:08.491Z</time></trkpt><trkpt lat="45.3291733" lon="8.8068018"><ele>110.8</ele><time>2026-04-25T16:29:09.491Z</time></trkpt><trkpt lat="45.3292508" lon="8.806902"><ele>110.6</ele><time>2026-04-25T16:29:11.491Z</time></trkpt><trkpt lat="45.3293401" lon="8.8069166"><ele>110.4</ele><time>2026-04-25T16:29:13.491Z</time></trkpt><trkpt lat="45.329458" lon="8.8068974"><ele>110.2</ele><time>2026-04-25T16:29:15.49Z</time></trkpt><trkpt lat="45.3295553" lon="8.8068725"><ele>110.0</ele><time>2026-04-25T16:29:16.491Z</time></trkpt><trkpt lat="45.3296682" lon="8.8068491"><ele>109.75</ele><time>2026-04-25T16:29:17.49Z</time></trkpt><trkpt lat="45.3297899" lon="8.806819"><ele>109.5</ele><time>2026-04-25T16:29:18.491Z</time></trkpt><trkpt lat="45.3299212" lon="8.806787"><ele>109.25</ele><time>2026-04-25T16:29:19.491Z</time></trkpt><trkpt lat="45.3300607" lon="8.8067557"><ele>109.0</ele><time>2026-04-25T16:29:20.49Z</time></trkpt><trkpt lat="45.3302008" lon="8.8067214"><ele>109.0</ele><time>2026-04-25T16:29:21.491Z</time></trkpt><trkpt lat="45.3303378" lon="8.8066825"><ele>109.0</ele><time>2026-04-25T16:29:22.491Z</time></trkpt><trkpt lat="45.3304626" lon="8.806645"><ele>109.0</ele><time>2026-04-25T16:29:23.491Z</time></trkpt><trkpt lat="45.3305746" lon="8.8066075"><ele>109.0</ele><time>2026-04-25T16:29:24.491Z</time></trkpt><trkpt lat="45.3306737" lon="8.8065813"><ele>109.0</ele><time>2026-04-25T16:29:25.491Z</time></trkpt><trkpt lat="45.3307647" lon="8.8065849"><ele>109.0</ele><time>2026-04-25T16:29:26.49Z</time></trkpt><trkpt lat="45.3308543" lon="8.8066128"><ele>109.0</ele><time>2026-04-25T16:29:27.49Z</time></trkpt><trkpt lat="45.330946" lon="8.806645"><ele>109.0</ele><time>2026-04-25T16:29:28.491Z</time></trkpt><trkpt lat="45.3310534" lon="8.8066742"><ele>109.0</ele><time>2026-04-25T16:29:29.491Z</time></trkpt><trkpt lat="45.3311753" lon="8.8066928"><ele>109.0</ele><time>2026-04-25T16:29:30.491Z</time></trkpt><trkpt lat="45.3313043" lon="8.8067032"><ele>109.0</ele><time>2026-04-25T16:29:31.49Z</time></trkpt><trkpt lat="45.3314469" lon="8.8067047"><ele>109.0</ele><time>2026-04-25T16:29:32.491Z</time></trkpt><trkpt lat="45.3315947" lon="8.8066941"><ele>109.0</ele><time>2026-04-25T16:29:33.49Z</time></trkpt><trkpt lat="45.3317467" lon="8.8066767"><ele>109.33333333333334</ele><time>2026-04-25T16:29:34.491Z</time></trkpt><trkpt lat="45.3318984" lon="8.8066634"><ele>109.66666666666666</ele><time>2026-04-25T16:29:35.491Z</time></trkpt><trkpt lat="45.3320533" lon="8.8066488"><ele>110.0</ele><time>2026-04-25T16:29:36.491Z</time></trkpt><trkpt lat="45.3322047" lon="8.8066403"><ele>110.0</ele><time>2026-04-25T16:29:37.491Z</time></trkpt><trkpt lat="45.3323466" lon="8.8066406"><ele>110.0</ele><time>2026-04-25T16:29:38.49Z</time></trkpt><trkpt lat="45.3324873" lon="8.8066475"><ele>110.0</ele><time>2026-04-25T16:29:39.491Z</time></trkpt><trkpt lat="45.3326203" lon="8.8066682"><ele>110.0</ele><time>2026-04-25T16:29:40.491Z</time></trkpt><trkpt lat="45.3327541" lon="8.8067111"><ele>110.0</ele><time>2026-04-25T16:29:41.491Z</time></trkpt><trkpt lat="45.3328922" lon="8.806769"><ele>110.0</ele><time>2026-04-25T16:29:42.491Z</time></trkpt><trkpt lat="45.333036" lon="8.8068192"><ele>110.0</ele><time>2026-04-25T16:29:43.491Z</time></trkpt><trkpt lat="45.3331807" lon="8.8068345"><ele>110.0</ele><time>2026-04-25T16:29:44.491Z</time></trkpt><trkpt lat="45.3333149" lon="8.8068372"><ele>110.16666666666666</ele><time>2026-04-25T16:29:45.491Z</time></trkpt><trkpt lat="45.3334238" lon="8.806824"><ele>110.33333333333333</ele><time>2026-04-25T16:29:46.49Z</time></trkpt><trkpt lat="45.3335126" lon="8.8068045"><ele>110.5</ele><time>2026-04-25T16:29:47.49Z</time></trkpt><trkpt lat="45.3335893" lon="8.8067622"><ele>110.66666666666666</ele><time>2026-04-25T16:29:48.491Z</time></trkpt><trkpt lat="45.3336609" lon="8.8067005"><ele>110.83333333333333</ele><time>2026-04-25T16:29:49.49Z</time></trkpt><trkpt lat="45.3337174" lon="8.8066442"><ele>111.0</ele><time>2026-04-25T16:29:50.491Z</time></trkpt><trkpt lat="45.3338103" lon="8.8066087"><ele>110.8</ele><time>2026-04-25T16:29:52.49Z</time></trkpt><trkpt lat="45.3339063" lon="8.8066798"><ele>110.6</ele><time>2026-04-25T16:29:54.49Z</time></trkpt><trkpt lat="45.3339767" lon="8.8067476"><ele>110.4</ele><time>2026-04-25T16:29:55.491Z</time></trkpt><trkpt lat="45.3340604" lon="8.8068267"><ele>110.2</ele><time>2026-04-25T16:29:56.49Z</time></trkpt><trkpt lat="45.3341357" lon="8.8069011"><ele>110.0</ele><time>2026-04-25T16:29:57.491Z</time></trkpt><trkpt lat="45.334207" lon="8.806968"><ele>109.8</ele><time>2026-04-25T16:29:58.491Z</time></trkpt><trkpt lat="45.3342763" lon="8.8070434"><ele>109.6</ele><time>2026-04-25T16:29:59.49Z</time></trkpt><trkpt lat="45.3343563" lon="8.8071204"><ele>109.4</ele><time>2026-04-25T16:30:00.49Z</time></trkpt><trkpt lat="45.3344437" lon="8.8072056"><ele>109.2</ele><time>2026-04-25T16:30:01.49Z</time></trkpt><trkpt lat="45.3345408" lon="8.8073036"><ele>109.0</ele><time>2026-04-25T16:30:02.49Z</time></trkpt><trkpt lat="45.334652" lon="8.8074093"><ele>109.25</ele><time>2026-04-25T16:30:03.491Z</time></trkpt><trkpt lat="45.3347696" lon="8.8075242"><ele>109.5</ele><time>2026-04-25T16:30:04.49Z</time></trkpt><trkpt lat="45.3348939" lon="8.8076368"><ele>109.75</ele><time>2026-04-25T16:30:05.491Z</time></trkpt><trkpt lat="45.3350255" lon="8.8077583"><ele>110.0</ele><time>2026-04-25T16:30:06.49Z</time></trkpt><trkpt lat="45.3351531" lon="8.8078873"><ele>110.0</ele><time>2026-04-25T16:30:07.491Z</time></trkpt><trkpt lat="45.3352694" lon="8.8080137"><ele>110.0</ele><time>2026-04-25T16:30:08.491Z</time></trkpt><trkpt lat="45.3353859" lon="8.8081382"><ele>110.0</ele><time>2026-04-25T16:30:09.49Z</time></trkpt><trkpt lat="45.3354923" lon="8.8082631"><ele>110.0</ele><time>2026-04-25T16:30:10.491Z</time></trkpt><trkpt lat="45.3356015" lon="8.8083809"><ele>110.0</ele><time>2026-04-25T16:30:11.491Z</time></trkpt><trkpt lat="45.3357159" lon="8.808495"><ele>110.0</ele><time>2026-04-25T16:30:12.491Z</time></trkpt><trkpt lat="45.3358302" lon="8.8086059"><ele>110.0</ele><time>2026-04-25T16:30:13.491Z</time></trkpt><trkpt lat="45.3359434" lon="8.8087108"><ele>110.0</ele><time>2026-04-25T16:30:14.491Z</time></trkpt><trkpt lat="45.3360605" lon="8.8088084"><ele>110.0</ele><time>2026-04-25T16:30:15.49Z</time></trkpt><trkpt lat="45.3361746" lon="8.8089028"><ele>110.0</ele><time>2026-04-25T16:30:16.49Z</time></trkpt><trkpt lat="45.3362912" lon="8.8090016"><ele>110.0</ele><time>2026-04-25T16:30:17.491Z</time></trkpt><trkpt lat="45.3364074" lon="8.809107"><ele>110.0</ele><time>2026-04-25T16:30:18.491Z</time></trkpt><trkpt lat="45.3365212" lon="8.8092093"><ele>110.25</ele><time>2026-04-25T16:30:19.49Z</time></trkpt><trkpt lat="45.3366267" lon="8.8093014"><ele>110.5</ele><time>2026-04-25T16:30:20.491Z</time></trkpt><trkpt lat="45.3367275" lon="8.809385"><ele>110.75</ele><time>2026-04-25T16:30:21.49Z</time></trkpt><trkpt lat="45.3368256" lon="8.8094575"><ele>111.0</ele><time>2026-04-25T16:30:22.491Z</time></trkpt><trkpt lat="45.3369333" lon="8.8095281"><ele>111.0</ele><time>2026-04-25T16:30:23.49Z</time></trkpt><trkpt lat="45.3370446" lon="8.8096003"><ele>111.0</ele><time>2026-04-25T16:30:24.49Z</time></trkpt><trkpt lat="45.3371578" lon="8.8096719"><ele>111.0</ele><time>2026-04-25T16:30:25.491Z</time></trkpt><trkpt lat="45.3372751" lon="8.8097403"><ele>111.0</ele><time>2026-04-25T16:30:26.49Z</time></trkpt><trkpt lat="45.3373939" lon="8.8098118"><ele>111.0</ele><time>2026-04-25T16:30:27.49Z</time></trkpt><trkpt lat="45.3375148" lon="8.8098791"><ele>111.0</ele><time>2026-04-25T16:30:28.491Z</time></trkpt><trkpt lat="45.3376405" lon="8.8099498"><ele>111.0</ele><time>2026-04-25T16:30:29.491Z</time></trkpt><trkpt lat="45.3377683" lon="8.8100222"><ele>111.0</ele><time>2026-04-25T16:30:30.491Z</time></trkpt><trkpt lat="45.3378976" lon="8.8100981"><ele>110.5</ele><time>2026-04-25T16:30:31.49Z</time></trkpt><trkpt lat="45.3380275" lon="8.8101745"><ele>110.0</ele><time>2026-04-25T16:30:32.491Z</time></trkpt><trkpt lat="45.3381624" lon="8.8102508"><ele>109.5</ele><time>2026-04-25T16:30:33.49Z</time></trkpt><trkpt lat="45.3382946" lon="8.8103216"><ele>109.0</ele><time>2026-04-25T16:30:34.491Z</time></trkpt><trkpt lat="45.3384269" lon="8.8103995"><ele>110.0</ele><time>2026-04-25T16:30:35.49Z</time></trkpt><trkpt lat="45.3385517" lon="8.8104745"><ele>111.0</ele><time>2026-04-25T16:30:36.491Z</time></trkpt><trkpt lat="45.3386744" lon="8.8105492"><ele>112.0</ele><time>2026-04-25T16:30:37.491Z</time></trkpt><trkpt lat="45.3387848" lon="8.8106168"><ele>113.0</ele><time>2026-04-25T16:30:38.491Z</time></trkpt><trkpt lat="45.3388963" lon="8.8106767"><ele>113.0</ele><time>2026-04-25T16:30:39.491Z</time></trkpt><trkpt lat="45.3390111" lon="8.810743"><ele>113.0</ele><time>2026-04-25T16:30:40.49Z</time></trkpt><trkpt lat="45.3391223" lon="8.8108096"><ele>113.0</ele><time>2026-04-25T16:30:41.491Z</time></trkpt><trkpt lat="45.3392335" lon="8.8108763"><ele>113.0</ele><time>2026-04-25T16:30:42.491Z</time></trkpt><trkpt lat="45.3393484" lon="8.810944"><ele>113.0</ele><time>2026-04-25T16:30:43.49Z</time></trkpt><trkpt lat="45.3394619" lon="8.8110161"><ele>113.0</ele><time>2026-04-25T16:30:44.49Z</time></trkpt><trkpt lat="45.3395769" lon="8.8110901"><ele>113.0</ele><time>2026-04-25T16:30:45.491Z</time></trkpt><trkpt lat="45.3396926" lon="8.811152"><ele>113.0</ele><time>2026-04-25T16:30:46.491Z</time></trkpt><trkpt lat="45.3398028" lon="8.811212"><ele>112.83333333333333</ele><time>2026-04-25T16:30:47.491Z</time></trkpt><trkpt lat="45.3399085" lon="8.8112723"><ele>112.66666666666666</ele><time>2026-04-25T16:30:48.49Z</time></trkpt><trkpt lat="45.3400048" lon="8.811326"><ele>112.5</ele><time>2026-04-25T16:30:49.491Z</time></trkpt><trkpt lat="45.3400818" lon="8.8113684"><ele>112.33333333333334</ele><time>2026-04-25T16:30:50.491Z</time></trkpt><trkpt lat="45.3401459" lon="8.8114186"><ele>112.16666666666667</ele><time>2026-04-25T16:30:51.491Z</time></trkpt><trkpt lat="45.3401971" lon="8.8114927"><ele>112.0</ele><time>2026-04-25T16:30:52.491Z</time></trkpt><trkpt lat="45.340248" lon="8.8115711"><ele>112.0</ele><time>2026-04-25T16:30:53.491Z</time></trkpt><trkpt lat="45.3403516" lon="8.8116669"><ele>111.99999999999999</ele><time>2026-04-25T16:30:55.491Z</time></trkpt><trkpt lat="45.340424" lon="8.8116808"><ele>111.99999999999999</ele><time>2026-04-25T16:30:56.49Z</time></trkpt><trkpt lat="45.3404992" lon="8.8116666"><ele>112.0</ele><time>2026-04-25T16:30:57.491Z</time></trkpt><trkpt lat="45.3405788" lon="8.8116151"><ele>112.0</ele><time>2026-04-25T16:30:58.491Z</time></trkpt><trkpt lat="45.3406663" lon="8.8115459"><ele>112.0</ele><time>2026-04-25T16:30:59.49Z</time></trkpt><trkpt lat="45.3407656" lon="8.8114639"><ele>112.0</ele><time>2026-04-25T16:31:00.491Z</time></trkpt><trkpt lat="45.340868" lon="8.8113734"><ele>112.0</ele><time>2026-04-25T16:31:01.491Z</time></trkpt><trkpt lat="45.3409801" lon="8.8112769"><ele>112.0</ele><time>2026-04-25T16:31:02.491Z</time></trkpt><trkpt lat="45.3410947" lon="8.8111818"><ele>112.0</ele><time>2026-04-25T16:31:03.491Z</time></trkpt><trkpt lat="45.3412121" lon="8.8110961"><ele>112.0</ele><time>2026-04-25T16:31:04.491Z</time></trkpt><trkpt lat="45.3413363" lon="8.8110233"><ele>112.0</ele><time>2026-04-25T16:31:05.49Z</time></trkpt><trkpt lat="45.3414762" lon="8.8109709"><ele>112.0</ele><time>2026-04-25T16:31:06.491Z</time></trkpt><trkpt lat="45.3416253" lon="8.8109483"><ele>111.33333333333334</ele><time>2026-04-25T16:31:07.491Z</time></trkpt><trkpt lat="45.3417855" lon="8.8109335"><ele>110.66666666666666</ele><time>2026-04-25T16:31:08.491Z</time></trkpt><trkpt lat="45.3419537" lon="8.8109278"><ele>110.0</ele><time>2026-04-25T16:31:09.491Z</time></trkpt><trkpt lat="45.3421187" lon="8.8109195"><ele>110.33333333333333</ele><time>2026-04-25T16:31:10.491Z</time></trkpt><trkpt lat="45.3422835" lon="8.8109096"><ele>110.66666666666666</ele><time>2026-04-25T16:31:11.49Z</time></trkpt><trkpt lat="45.3424381" lon="8.8109016"><ele>111.0</ele><time>2026-04-25T16:31:12.49Z</time></trkpt><trkpt lat="45.3425796" lon="8.8108903"><ele>111.0</ele><time>2026-04-25T16:31:13.49Z</time></trkpt><trkpt lat="45.3426912" lon="8.8108835"><ele>111.0</ele><time>2026-04-25T16:31:14.49Z</time></trkpt><trkpt lat="45.3427844" lon="8.8108804"><ele>111.0</ele><time>2026-04-25T16:31:15.49Z</time></trkpt><trkpt lat="45.3428552" lon="8.8108761"><ele>111.0</ele><time>2026-04-25T16:31:16.491Z</time></trkpt><trkpt lat="45.3429392" lon="8.8109086"><ele>111.0</ele><time>2026-04-25T16:31:18.49Z</time></trkpt><trkpt lat="45.3429738" lon="8.8110028"><ele>111.0</ele><time>2026-04-25T16:31:20.49Z</time></trkpt><trkpt lat="45.342967" lon="8.8110919"><ele>111.0</ele><time>2026-04-25T16:31:22.491Z</time></trkpt><trkpt lat="45.342935" lon="8.8111822"><ele>111.0</ele><time>2026-04-25T16:31:25.491Z</time></trkpt><trkpt lat="45.3429366" lon="8.8112731"><ele>111.0</ele><time>2026-04-25T16:57:25.49Z</time></trkpt><trkpt lat="45.3429824" lon="8.8112051"><ele>111.0</ele><time>2026-04-25T16:57:32.49Z</time></trkpt><trkpt lat="45.3429654" lon="8.8110781"><ele>111.0</ele><time>2026-04-25T16:57:36.491Z</time></trkpt><trkpt lat="45.3429746" lon="8.8109838"><ele>111.0</ele><time>2026-04-25T16:57:39.49Z</time></trkpt><trkpt lat="45.3429414" lon="8.8109044"><ele>111.0</ele><time>2026-04-25T16:57:43.491Z</time></trkpt><trkpt lat="45.34287" lon="8.8108804"><ele>111.0</ele><time>2026-04-25T16:58:58.491Z</time></trkpt><trkpt lat="45.3427879" lon="8.8108697"><ele>111.0</ele><time>2026-04-25T16:59:00.491Z</time></trkpt><trkpt lat="45.3426656" lon="8.810878"><ele>111.0</ele><time>2026-04-25T16:59:02.49Z</time></trkpt><trkpt lat="45.3425871" lon="8.8108852"><ele>111.0</ele><time>2026-04-25T16:59:03.491Z</time></trkpt><trkpt lat="45.3425003" lon="8.8108933"><ele>111.0</ele><time>2026-04-25T16:59:04.491Z</time></trkpt><trkpt lat="45.3423891" lon="8.8109068"><ele>111.0</ele><time>2026-04-25T16:59:05.49Z</time></trkpt><trkpt lat="45.3422966" lon="8.810911"><ele>111.0</ele><time>2026-04-25T16:59:06.491Z</time></trkpt><trkpt lat="45.3421978" lon="8.8109144"><ele>111.0</ele><time>2026-04-25T16:59:07.49Z</time></trkpt><trkpt lat="45.3420951" lon="8.8109173"><ele>111.0</ele><time>2026-04-25T16:59:08.491Z</time></trkpt><trkpt lat="45.3419928" lon="8.8109261"><ele>111.0</ele><time>2026-04-25T16:59:09.491Z</time></trkpt><trkpt lat="45.3418909" lon="8.8109315"><ele>110.8</ele><time>2026-04-25T16:59:10.491Z</time></trkpt><trkpt lat="45.3417909" lon="8.8109381"><ele>110.6</ele><time>2026-04-25T16:59:11.491Z</time></trkpt><trkpt lat="45.3416951" lon="8.8109436"><ele>110.4</ele><time>2026-04-25T16:59:12.491Z</time></trkpt><trkpt lat="45.3416089" lon="8.8109541"><ele>110.2</ele><time>2026-04-25T16:59:13.491Z</time></trkpt><trkpt lat="45.3415156" lon="8.8109663"><ele>110.0</ele><time>2026-04-25T16:59:14.491Z</time></trkpt><trkpt lat="45.3414296" lon="8.8109876"><ele>110.33333333333333</ele><time>2026-04-25T16:59:15.491Z</time></trkpt><trkpt lat="45.3413444" lon="8.811018"><ele>110.66666666666666</ele><time>2026-04-25T16:59:16.49Z</time></trkpt><trkpt lat="45.3412654" lon="8.8110598"><ele>111.0</ele><time>2026-04-25T16:59:17.491Z</time></trkpt><trkpt lat="45.3411904" lon="8.8111117"><ele>111.33333333333334</ele><time>2026-04-25T16:59:18.49Z</time></trkpt><trkpt lat="45.3411134" lon="8.8111657"><ele>111.66666666666667</ele><time>2026-04-25T16:59:19.49Z</time></trkpt><trkpt lat="45.3410409" lon="8.8112279"><ele>112.0</ele><time>2026-04-25T16:59:20.49Z</time></trkpt><trkpt lat="45.3409681" lon="8.8112875"><ele>112.0</ele><time>2026-04-25T16:59:21.491Z</time></trkpt><trkpt lat="45.3408959" lon="8.8113495"><ele>112.0</ele><time>2026-04-25T16:59:22.491Z</time></trkpt><trkpt lat="45.3408299" lon="8.8114148"><ele>112.0</ele><time>2026-04-25T16:59:23.491Z</time></trkpt><trkpt lat="45.3406272" lon="8.8115989"><ele>112.0</ele><time>2026-04-25T16:59:26.491Z</time></trkpt><trkpt lat="45.3405056" lon="8.8116744"><ele>112.0</ele><time>2026-04-25T16:59:28.491Z</time></trkpt><trkpt lat="45.3403852" lon="8.8116858"><ele>112.0</ele><time>2026-04-25T16:59:30.49Z</time></trkpt><trkpt lat="45.3402816" lon="8.8116068"><ele>112.0</ele><time>2026-04-25T16:59:32.491Z</time></trkpt><trkpt lat="45.3401103" lon="8.8113764"><ele>112.0</ele><time>2026-04-25T16:59:36.491Z</time></trkpt><trkpt lat="45.3399809" lon="8.8112994"><ele>112.0</ele><time>2026-04-25T16:59:38.491Z</time></trkpt><trkpt lat="45.339903" lon="8.8112552"><ele>112.0</ele><time>2026-04-25T16:59:39.491Z</time></trkpt><trkpt lat="45.3397265" lon="8.8111554"><ele>112.0</ele><time>2026-04-25T16:59:41.49Z</time></trkpt><trkpt lat="45.339633" lon="8.8110936"><ele>112.25</ele><time>2026-04-25T16:59:42.49Z</time></trkpt><trkpt lat="45.3395338" lon="8.8110297"><ele>112.5</ele><time>2026-04-25T16:59:43.49Z</time></trkpt><trkpt lat="45.3394317" lon="8.8109686"><ele>112.75</ele><time>2026-04-25T16:59:44.49Z</time></trkpt><trkpt lat="45.3393207" lon="8.8109078"><ele>113.0</ele><time>2026-04-25T16:59:45.491Z</time></trkpt><trkpt lat="45.3391094" lon="8.8107881"><ele>113.0</ele><time>2026-04-25T16:59:47.49Z</time></trkpt><trkpt lat="45.339002" lon="8.8107283"><ele>113.0</ele><time>2026-04-25T16:59:48.49Z</time></trkpt><trkpt lat="45.3387889" lon="8.8105909"><ele>113.0</ele><time>2026-04-25T16:59:50.491Z</time></trkpt><trkpt lat="45.3386765" lon="8.8105275"><ele>113.0</ele><time>2026-04-25T16:59:51.49Z</time></trkpt><trkpt lat="45.3383278" lon="8.8103253"><ele>113.0</ele><time>2026-04-25T16:59:54.491Z</time></trkpt><trkpt lat="45.3374972" lon="8.8100225"><ele>112.60000000000001</ele><time>2026-04-25T17:00:04.491Z</time></trkpt><trkpt lat="45.3374532" lon="8.810096"><ele>112.20000000000002</ele><time>2026-04-25T17:00:05.49Z</time></trkpt><trkpt lat="45.3374026" lon="8.8101846"><ele>111.8</ele><time>2026-04-25T17:00:06.491Z</time></trkpt><trkpt lat="45.3373441" lon="8.8102867"><ele>111.4</ele><time>2026-04-25T17:00:07.491Z</time></trkpt><trkpt lat="45.3372739" lon="8.8103989"><ele>111.0</ele><time>2026-04-25T17:00:08.49Z</time></trkpt><trkpt lat="45.3371997" lon="8.8105228"><ele>110.8</ele><time>2026-04-25T17:00:09.491Z</time></trkpt><trkpt lat="45.3371248" lon="8.8106481"><ele>110.6</ele><time>2026-04-25T17:00:10.49Z</time></trkpt><trkpt lat="45.3370497" lon="8.8107701"><ele>110.4</ele><time>2026-04-25T17:00:11.491Z</time></trkpt><trkpt lat="45.3369776" lon="8.8108898"><ele>110.2</ele><time>2026-04-25T17:00:12.49Z</time></trkpt><trkpt lat="45.3369141" lon="8.8109868"><ele>110.0</ele><time>2026-04-25T17:00:13.491Z</time></trkpt><trkpt lat="45.3368689" lon="8.811057"><ele>110.0</ele><time>2026-04-25T17:00:14.491Z</time></trkpt><trkpt lat="45.336791" lon="8.8111841"><ele>110.0</ele><time>2026-04-25T17:00:16.49Z</time></trkpt><trkpt lat="45.3367222" lon="8.8113101"><ele>110.0</ele><time>2026-04-25T17:00:18.491Z</time></trkpt><trkpt lat="45.3366801" lon="8.8113886"><ele>110.0</ele><time>2026-04-25T17:00:19.49Z</time></trkpt><trkpt lat="45.3366284" lon="8.8114872"><ele>110.0</ele><time>2026-04-25T17:00:20.491Z</time></trkpt><trkpt lat="45.3365522" lon="8.8116236"><ele>110.0</ele><time>2026-04-25T17:00:21.491Z</time></trkpt><trkpt lat="45.3364595" lon="8.8117787"><ele>110.0</ele><time>2026-04-25T17:00:22.491Z</time></trkpt><trkpt lat="45.3363658" lon="8.811942"><ele>110.0</ele><time>2026-04-25T17:00:23.491Z</time></trkpt><trkpt lat="45.3362657" lon="8.812105"><ele>110.0</ele><time>2026-04-25T17:00:24.491Z</time></trkpt><trkpt lat="45.3361609" lon="8.8122781"><ele>110.0</ele><time>2026-04-25T17:00:25.491Z</time></trkpt><trkpt lat="45.3360488" lon="8.8124555"><ele>110.0</ele><time>2026-04-25T17:00:26.49Z</time></trkpt><trkpt lat="45.3359325" lon="8.8126332"><ele>110.0</ele><time>2026-04-25T17:00:27.491Z</time></trkpt><trkpt lat="45.3358125" lon="8.8128197"><ele>109.66666666666666</ele><time>2026-04-25T17:00:28.49Z</time></trkpt><trkpt lat="45.3356907" lon="8.8130108"><ele>109.33333333333334</ele><time>2026-04-25T17:00:29.491Z</time></trkpt><trkpt lat="45.3355635" lon="8.8132131"><ele>109.0</ele><time>2026-04-25T17:00:30.49Z</time></trkpt><trkpt lat="45.335436" lon="8.813417"><ele>109.0</ele><time>2026-04-25T17:00:31.49Z</time></trkpt><trkpt lat="45.335306" lon="8.8136194"><ele>109.0</ele><time>2026-04-25T17:00:32.491Z</time></trkpt><trkpt lat="45.3351729" lon="8.8138334"><ele>109.0</ele><time>2026-04-25T17:00:33.491Z</time></trkpt><trkpt lat="45.335044" lon="8.8140438"><ele>109.0</ele><time>2026-04-25T17:00:34.49Z</time></trkpt><trkpt lat="45.3349117" lon="8.8142506"><ele>109.0</ele><time>2026-04-25T17:00:35.49Z</time></trkpt><trkpt lat="45.3347832" lon="8.8144606"><ele>109.0</ele><time>2026-04-25T17:00:36.491Z</time></trkpt><trkpt lat="45.3346635" lon="8.8146611"><ele>109.0</ele><time>2026-04-25T17:00:37.49Z</time></trkpt><trkpt lat="45.3345456" lon="8.8148506"><ele>109.0</ele><time>2026-04-25T17:00:38.491Z</time></trkpt><trkpt lat="45.3344359" lon="8.8150263"><ele>109.0</ele><time>2026-04-25T17:00:39.491Z</time></trkpt><trkpt lat="45.3343328" lon="8.8151937"><ele>109.25</ele><time>2026-04-25T17:00:40.491Z</time></trkpt><trkpt lat="45.3342347" lon="8.8153538"><ele>109.5</ele><time>2026-04-25T17:00:41.491Z</time></trkpt><trkpt lat="45.3341365" lon="8.8155029"><ele>109.75</ele><time>2026-04-25T17:00:42.491Z</time></trkpt><trkpt lat="45.3340407" lon="8.8156493"><ele>110.0</ele><time>2026-04-25T17:00:43.491Z</time></trkpt><trkpt lat="45.3339495" lon="8.8157975"><ele>110.0</ele><time>2026-04-25T17:00:44.491Z</time></trkpt><trkpt lat="45.3338623" lon="8.8159476"><ele>110.0</ele><time>2026-04-25T17:00:45.491Z</time></trkpt><trkpt lat="45.3337853" lon="8.816111"><ele>110.0</ele><time>2026-04-25T17:00:46.491Z</time></trkpt><trkpt lat="45.3337139" lon="8.8162922"><ele>110.0</ele><time>2026-04-25T17:00:47.491Z</time></trkpt><trkpt lat="45.3336471" lon="8.8164876"><ele>110.0</ele><time>2026-04-25T17:00:48.491Z</time></trkpt><trkpt lat="45.3335819" lon="8.8166884"><ele>110.0</ele><time>2026-04-25T17:00:49.491Z</time></trkpt><trkpt lat="45.3335149" lon="8.8168994"><ele>110.0</ele><time>2026-04-25T17:00:50.491Z</time></trkpt><trkpt lat="45.3334437" lon="8.8171124"><ele>110.0</ele><time>2026-04-25T17:00:51.491Z</time></trkpt><trkpt lat="45.3333688" lon="8.8173291"><ele>110.0</ele><time>2026-04-25T17:00:52.49Z</time></trkpt><trkpt lat="45.3332997" lon="8.8175409"><ele>110.0</ele><time>2026-04-25T17:00:53.491Z</time></trkpt><trkpt lat="45.3332322" lon="8.8177438"><ele>110.0</ele><time>2026-04-25T17:00:54.491Z</time></trkpt><trkpt lat="45.3331646" lon="8.8179454"><ele>110.0</ele><time>2026-04-25T17:00:55.49Z</time></trkpt><trkpt lat="45.3331019" lon="8.8181432"><ele>110.0</ele><time>2026-04-25T17:00:56.491Z</time></trkpt><trkpt lat="45.3330351" lon="8.8183436"><ele>109.66666666666666</ele><time>2026-04-25T17:00:57.49Z</time></trkpt><trkpt lat="45.3329702" lon="8.8185458"><ele>109.33333333333334</ele><time>2026-04-25T17:00:58.491Z</time></trkpt><trkpt lat="45.3329118" lon="8.8187522"><ele>109.0</ele><time>2026-04-25T17:00:59.491Z</time></trkpt><trkpt lat="45.332849" lon="8.8189565"><ele>109.0</ele><time>2026-04-25T17:01:00.49Z</time></trkpt><trkpt lat="45.3327841" lon="8.8191607"><ele>109.0</ele><time>2026-04-25T17:01:01.491Z</time></trkpt><trkpt lat="45.3327148" lon="8.8193614"><ele>109.0</ele><time>2026-04-25T17:01:02.491Z</time></trkpt><trkpt lat="45.3326458" lon="8.8195612"><ele>109.0</ele><time>2026-04-25T17:01:03.49Z</time></trkpt><trkpt lat="45.3325731" lon="8.8197655"><ele>109.0</ele><time>2026-04-25T17:01:04.491Z</time></trkpt><trkpt lat="45.3324996" lon="8.8199726"><ele>109.0</ele><time>2026-04-25T17:01:05.491Z</time></trkpt><trkpt lat="45.3324325" lon="8.8201708"><ele>109.0</ele><time>2026-04-25T17:01:06.491Z</time></trkpt><trkpt lat="45.3323673" lon="8.8203598"><ele>109.0</ele><time>2026-04-25T17:01:07.491Z</time></trkpt><trkpt lat="45.3323049" lon="8.8205428"><ele>109.0</ele><time>2026-04-25T17:01:08.49Z</time></trkpt><trkpt lat="45.3322444" lon="8.8207253"><ele>109.0</ele><time>2026-04-25T17:01:09.49Z</time></trkpt><trkpt lat="45.3321888" lon="8.8209042"><ele>109.25</ele><time>2026-04-25T17:01:10.491Z</time></trkpt><trkpt lat="45.3321415" lon="8.8210832"><ele>109.5</ele><time>2026-04-25T17:01:11.491Z</time></trkpt><trkpt lat="45.3321047" lon="8.821265"><ele>109.75</ele><time>2026-04-25T17:01:12.49Z</time></trkpt><trkpt lat="45.3320884" lon="8.8214619"><ele>110.0</ele><time>2026-04-25T17:01:13.491Z</time></trkpt><trkpt lat="45.332084" lon="8.8216584"><ele>110.4</ele><time>2026-04-25T17:01:14.491Z</time></trkpt><trkpt lat="45.3320864" lon="8.8218377"><ele>110.8</ele><time>2026-04-25T17:01:15.491Z</time></trkpt><trkpt lat="45.3320952" lon="8.8219978"><ele>111.19999999999999</ele><time>2026-04-25T17:01:16.491Z</time></trkpt><trkpt lat="45.3321113" lon="8.8221513"><ele>111.6</ele><time>2026-04-25T17:01:17.491Z</time></trkpt><trkpt lat="45.3321301" lon="8.8222843"><ele>112.0</ele><time>2026-04-25T17:01:18.49Z</time></trkpt><trkpt lat="45.3321464" lon="8.8223886"><ele>112.00000000000001</ele><time>2026-04-25T17:01:19.491Z</time></trkpt><trkpt lat="45.3321494" lon="8.8225227"><ele>112.0</ele><time>2026-04-25T17:01:21.491Z</time></trkpt><trkpt lat="45.3321043" lon="8.8226025"><ele>112.0</ele><time>2026-04-25T17:01:23.491Z</time></trkpt><trkpt lat="45.332038" lon="8.8226793"><ele>112.0</ele><time>2026-04-25T17:01:25.49Z</time></trkpt><trkpt lat="45.3319558" lon="8.8227975"><ele>112.00000000000001</ele><time>2026-04-25T17:01:27.491Z</time></trkpt><trkpt lat="45.3319043" lon="8.8228812"><ele>112.0</ele><time>2026-04-25T17:01:28.491Z</time></trkpt><trkpt lat="45.3318432" lon="8.8229853"><ele>112.0</ele><time>2026-04-25T17:01:29.491Z</time></trkpt><trkpt lat="45.3317802" lon="8.8231027"><ele>112.0</ele><time>2026-04-25T17:01:30.491Z</time></trkpt><trkpt lat="45.3317104" lon="8.8232342"><ele>112.0</ele><time>2026-04-25T17:01:31.491Z</time></trkpt><trkpt lat="45.331646" lon="8.8233752"><ele>112.0</ele><time>2026-04-25T17:01:32.491Z</time></trkpt><trkpt lat="45.3315759" lon="8.8235163"><ele>111.75</ele><time>2026-04-25T17:01:33.491Z</time></trkpt><trkpt lat="45.3315083" lon="8.8236555"><ele>111.5</ele><time>2026-04-25T17:01:34.491Z</time></trkpt><trkpt lat="45.331442" lon="8.8237974"><ele>111.25</ele><time>2026-04-25T17:01:35.491Z</time></trkpt><trkpt lat="45.3313812" lon="8.8239437"><ele>111.0</ele><time>2026-04-25T17:01:36.491Z</time></trkpt><trkpt lat="45.3313273" lon="8.8240966"><ele>112.0</ele><time>2026-04-25T17:01:37.491Z</time></trkpt><trkpt lat="45.3312697" lon="8.8242546"><ele>113.0</ele><time>2026-04-25T17:01:38.491Z</time></trkpt><trkpt lat="45.3312159" lon="8.8244223"><ele>114.0</ele><time>2026-04-25T17:01:39.491Z</time></trkpt><trkpt lat="45.3311633" lon="8.8245999"><ele>115.0</ele><time>2026-04-25T17:01:40.491Z</time></trkpt><trkpt lat="45.3311073" lon="8.8247846"><ele>115.0</ele><time>2026-04-25T17:01:41.49Z</time></trkpt><trkpt lat="45.3310531" lon="8.8249691"><ele>115.0</ele><time>2026-04-25T17:01:42.491Z</time></trkpt><trkpt lat="45.3309956" lon="8.8251632"><ele>115.0</ele><time>2026-04-25T17:01:43.491Z</time></trkpt><trkpt lat="45.3309368" lon="8.8253624"><ele>115.0</ele><time>2026-04-25T17:01:44.49Z</time></trkpt><trkpt lat="45.3308727" lon="8.8255647"><ele>114.5</ele><time>2026-04-25T17:01:45.491Z</time></trkpt><trkpt lat="45.3308107" lon="8.8257621"><ele>114.0</ele><time>2026-04-25T17:01:46.491Z</time></trkpt><trkpt lat="45.3307537" lon="8.8259555"><ele>113.5</ele><time>2026-04-25T17:01:47.491Z</time></trkpt><trkpt lat="45.330699" lon="8.8261356"><ele>113.0</ele><time>2026-04-25T17:01:48.491Z</time></trkpt><trkpt lat="45.3306493" lon="8.8263036"><ele>113.25</ele><time>2026-04-25T17:01:49.491Z</time></trkpt><trkpt lat="45.3306039" lon="8.8264667"><ele>113.5</ele><time>2026-04-25T17:01:50.491Z</time></trkpt><trkpt lat="45.3305518" lon="8.8266282"><ele>113.75</ele><time>2026-04-25T17:01:51.49Z</time></trkpt><trkpt lat="45.3304897" lon="8.8267866"><ele>114.0</ele><time>2026-04-25T17:01:52.49Z</time></trkpt><trkpt lat="45.330427" lon="8.8269402"><ele>113.5</ele><time>2026-04-25T17:01:53.491Z</time></trkpt><trkpt lat="45.3303632" lon="8.8270935"><ele>113.0</ele><time>2026-04-25T17:01:54.491Z</time></trkpt><trkpt lat="45.3302967" lon="8.8272445"><ele>112.5</ele><time>2026-04-25T17:01:55.491Z</time></trkpt><trkpt lat="45.3302257" lon="8.8273882"><ele>112.0</ele><time>2026-04-25T17:01:56.49Z</time></trkpt><trkpt lat="45.3301613" lon="8.8275187"><ele>112.0</ele><time>2026-04-25T17:01:57.491Z</time></trkpt><trkpt lat="45.3300958" lon="8.8276418"><ele>111.99999999999999</ele><time>2026-04-25T17:01:58.491Z</time></trkpt><trkpt lat="45.3300298" lon="8.8277533"><ele>111.99999999999999</ele><time>2026-04-25T17:01:59.491Z</time></trkpt><trkpt lat="45.3299659" lon="8.8278671"><ele>112.0</ele><time>2026-04-25T17:02:00.49Z</time></trkpt><trkpt lat="45.3299008" lon="8.8279849"><ele>112.0</ele><time>2026-04-25T17:02:01.491Z</time></trkpt><trkpt lat="45.3298423" lon="8.8281053"><ele>112.0</ele><time>2026-04-25T17:02:02.49Z</time></trkpt><trkpt lat="45.3297864" lon="8.8282282"><ele>111.99999999999999</ele><time>2026-04-25T17:02:03.49Z</time></trkpt><trkpt lat="45.3297244" lon="8.8283494"><ele>111.99999999999999</ele><time>2026-04-25T17:02:04.491Z</time></trkpt><trkpt lat="45.3296601" lon="8.8284724"><ele>112.0</ele><time>2026-04-25T17:02:05.491Z</time></trkpt><trkpt lat="45.3295959" lon="8.8285888"><ele>112.0</ele><time>2026-04-25T17:02:06.491Z</time></trkpt><trkpt lat="45.3295325" lon="8.8287115"><ele>112.0</ele><time>2026-04-25T17:02:07.491Z</time></trkpt><trkpt lat="45.3294668" lon="8.8288561"><ele>112.0</ele><time>2026-04-25T17:02:08.491Z</time></trkpt><trkpt lat="45.3293853" lon="8.8290117"><ele>112.0</ele><time>2026-04-25T17:02:09.491Z</time></trkpt><trkpt lat="45.329297" lon="8.8291657"><ele>112.0</ele><time>2026-04-25T17:02:10.49Z</time></trkpt><trkpt lat="45.3291982" lon="8.8293269"><ele>112.25</ele><time>2026-04-25T17:02:11.491Z</time></trkpt><trkpt lat="45.3290916" lon="8.829484"><ele>112.5</ele><time>2026-04-25T17:02:12.491Z</time></trkpt><trkpt lat="45.3290001" lon="8.8296358"><ele>112.75</ele><time>2026-04-25T17:02:13.491Z</time></trkpt><trkpt lat="45.3289151" lon="8.8297766"><ele>113.0</ele><time>2026-04-25T17:02:14.491Z</time></trkpt><trkpt lat="45.3288474" lon="8.8298797"><ele>113.0</ele><time>2026-04-25T17:02:15.49Z</time></trkpt><trkpt lat="45.328788" lon="8.829981"><ele>113.0</ele><time>2026-04-25T17:02:16.49Z</time></trkpt><trkpt lat="45.3287214" lon="8.8300993"><ele>113.0</ele><time>2026-04-25T17:02:17.491Z</time></trkpt><trkpt lat="45.3286372" lon="8.8302283"><ele>113.0</ele><time>2026-04-25T17:02:18.491Z</time></trkpt><trkpt lat="45.3285449" lon="8.8303592"><ele>112.75</ele><time>2026-04-25T17:02:19.49Z</time></trkpt><trkpt lat="45.328456" lon="8.8304875"><ele>112.5</ele><time>2026-04-25T17:02:20.491Z</time></trkpt><trkpt lat="45.3283747" lon="8.8306073"><ele>112.25</ele><time>2026-04-25T17:02:21.491Z</time></trkpt><trkpt lat="45.328293" lon="8.8307212"><ele>112.0</ele><time>2026-04-25T17:02:22.49Z</time></trkpt><trkpt lat="45.3282075" lon="8.8308371"><ele>112.0</ele><time>2026-04-25T17:02:23.491Z</time></trkpt><trkpt lat="45.3281252" lon="8.8309493"><ele>111.99999999999999</ele><time>2026-04-25T17:02:24.49Z</time></trkpt><trkpt lat="45.3280511" lon="8.8310425"><ele>111.99999999999999</ele><time>2026-04-25T17:02:25.491Z</time></trkpt><trkpt lat="45.3279799" lon="8.8311264"><ele>112.0</ele><time>2026-04-25T17:02:26.491Z</time></trkpt><trkpt lat="45.3279147" lon="8.8312055"><ele>112.0</ele><time>2026-04-25T17:02:27.491Z</time></trkpt><trkpt lat="45.3278524" lon="8.83128"><ele>111.8</ele><time>2026-04-25T17:02:28.491Z</time></trkpt><trkpt lat="45.3277914" lon="8.8313634"><ele>111.6</ele><time>2026-04-25T17:02:29.49Z</time></trkpt><trkpt lat="45.3277242" lon="8.8314418"><ele>111.39999999999999</ele><time>2026-04-25T17:02:30.491Z</time></trkpt><trkpt lat="45.3276445" lon="8.8315176"><ele>111.19999999999999</ele><time>2026-04-25T17:02:31.491Z</time></trkpt><trkpt lat="45.3275557" lon="8.8315855"><ele>111.0</ele><time>2026-04-25T17:02:32.49Z</time></trkpt><trkpt lat="45.3274654" lon="8.8316591"><ele>111.0</ele><time>2026-04-25T17:02:33.491Z</time></trkpt><trkpt lat="45.3273769" lon="8.8317305"><ele>111.0</ele><time>2026-04-25T17:02:34.491Z</time></trkpt><trkpt lat="45.3273049" lon="8.8318028"><ele>111.0</ele><time>2026-04-25T17:02:35.491Z</time></trkpt><trkpt lat="45.3272455" lon="8.8318788"><ele>111.0</ele><time>2026-04-25T17:02:36.49Z</time></trkpt><trkpt lat="45.3271947" lon="8.8319661"><ele>111.0</ele><time>2026-04-25T17:02:37.491Z</time></trkpt><trkpt lat="45.3271497" lon="8.8320681"><ele>111.0</ele><time>2026-04-25T17:02:38.49Z</time></trkpt><trkpt lat="45.3271078" lon="8.8321869"><ele>111.0</ele><time>2026-04-25T17:02:39.491Z</time></trkpt><trkpt lat="45.3270606" lon="8.8323113"><ele>111.0</ele><time>2026-04-25T17:02:40.49Z</time></trkpt><trkpt lat="45.3270138" lon="8.8324493"><ele>111.0</ele><time>2026-04-25T17:02:41.49Z</time></trkpt><trkpt lat="45.3269672" lon="8.8325802"><ele>111.0</ele><time>2026-04-25T17:02:42.491Z</time></trkpt><trkpt lat="45.3269234" lon="8.8327077"><ele>111.0</ele><time>2026-04-25T17:02:43.491Z</time></trkpt><trkpt lat="45.3268794" lon="8.8328409"><ele>111.0</ele><time>2026-04-25T17:02:44.491Z</time></trkpt><trkpt lat="45.3268365" lon="8.8329665"><ele>111.0</ele><time>2026-04-25T17:02:45.49Z</time></trkpt><trkpt lat="45.3267829" lon="8.8330775"><ele>111.0</ele><time>2026-04-25T17:02:46.49Z</time></trkpt><trkpt lat="45.3267196" lon="8.8331827"><ele>111.0</ele><time>2026-04-25T17:02:47.491Z</time></trkpt><trkpt lat="45.3266549" lon="8.8332815"><ele>111.0</ele><time>2026-04-25T17:02:48.49Z</time></trkpt><trkpt lat="45.3265993" lon="8.8333783"><ele>111.0</ele><time>2026-04-25T17:02:49.491Z</time></trkpt><trkpt lat="45.3265525" lon="8.8334665"><ele>111.0</ele><time>2026-04-25T17:02:50.491Z</time></trkpt><trkpt lat="45.326462" lon="8.8335863"><ele>111.0</ele><time>2026-04-25T17:02:52.491Z</time></trkpt><trkpt lat="45.3263957" lon="8.8336135"><ele>111.0</ele><time>2026-04-25T17:02:53.491Z</time></trkpt><trkpt lat="45.3263255" lon="8.8336152"><ele>111.0</ele><time>2026-04-25T17:02:54.491Z</time></trkpt><trkpt lat="45.326258" lon="8.8336178"><ele>111.0</ele><time>2026-04-25T17:02:55.491Z</time></trkpt><trkpt lat="45.3261946" lon="8.8336372"><ele>110.71428571428571</ele><time>2026-04-25T17:02:56.491Z</time></trkpt><trkpt lat="45.3261364" lon="8.8336792"><ele>110.42857142857143</ele><time>2026-04-25T17:02:57.49Z</time></trkpt><trkpt lat="45.3260817" lon="8.8337404"><ele>110.14285714285714</ele><time>2026-04-25T17:02:58.491Z</time></trkpt><trkpt lat="45.3260425" lon="8.833824"><ele>109.85714285714286</ele><time>2026-04-25T17:02:59.49Z</time></trkpt><trkpt lat="45.3260257" lon="8.8339249"><ele>109.57142857142858</ele><time>2026-04-25T17:03:00.491Z</time></trkpt><trkpt lat="45.3260399" lon="8.8340327"><ele>109.28571428571429</ele><time>2026-04-25T17:03:01.491Z</time></trkpt><trkpt lat="45.3260808" lon="8.8341327"><ele>109.0</ele><time>2026-04-25T17:03:02.491Z</time></trkpt><trkpt lat="45.3261409" lon="8.8342212"><ele>109.0</ele><time>2026-04-25T17:03:03.491Z</time></trkpt><trkpt lat="45.3262109" lon="8.8343165"><ele>109.0</ele><time>2026-04-25T17:03:04.491Z</time></trkpt><trkpt lat="45.3262815" lon="8.8344319"><ele>109.0</ele><time>2026-04-25T17:03:05.491Z</time></trkpt><trkpt lat="45.3263497" lon="8.8345732"><ele>109.0</ele><time>2026-04-25T17:03:06.491Z</time></trkpt><trkpt lat="45.3264092" lon="8.8347402"><ele>109.0</ele><time>2026-04-25T17:03:07.49Z</time></trkpt><trkpt lat="45.3264519" lon="8.8349284"><ele>109.0</ele><time>2026-04-25T17:03:08.491Z</time></trkpt><trkpt lat="45.3265007" lon="8.8351266"><ele>109.0</ele><time>2026-04-25T17:03:09.491Z</time></trkpt><trkpt lat="45.3265459" lon="8.8353364"><ele>109.0</ele><time>2026-04-25T17:03:10.491Z</time></trkpt><trkpt lat="45.3266002" lon="8.8355562"><ele>109.33333333333334</ele><time>2026-04-25T17:03:11.491Z</time></trkpt><trkpt lat="45.3266566" lon="8.8357829"><ele>109.66666666666666</ele><time>2026-04-25T17:03:12.491Z</time></trkpt><trkpt lat="45.3267127" lon="8.8360092"><ele>110.0</ele><time>2026-04-25T17:03:13.491Z</time></trkpt><trkpt lat="45.32677" lon="8.8362313"><ele>110.66666666666666</ele><time>2026-04-25T17:03:14.49Z</time></trkpt><trkpt lat="45.3268238" lon="8.8364498"><ele>111.33333333333334</ele><time>2026-04-25T17:03:15.491Z</time></trkpt><trkpt lat="45.3268787" lon="8.8366627"><ele>112.0</ele><time>2026-04-25T17:03:16.491Z</time></trkpt><trkpt lat="45.3269289" lon="8.8368787"><ele>112.0</ele><time>2026-04-25T17:03:17.491Z</time></trkpt><trkpt lat="45.3269824" lon="8.8370952"><ele>112.0</ele><time>2026-04-25T17:03:18.49Z</time></trkpt><trkpt lat="45.3270358" lon="8.83731"><ele>112.0</ele><time>2026-04-25T17:03:19.491Z</time></trkpt><trkpt lat="45.3270859" lon="8.8375182"><ele>111.66666666666667</ele><time>2026-04-25T17:03:20.491Z</time></trkpt><trkpt lat="45.327137" lon="8.8377276"><ele>111.33333333333334</ele><time>2026-04-25T17:03:21.491Z</time></trkpt><trkpt lat="45.3271867" lon="8.8379322"><ele>111.0</ele><time>2026-04-25T17:03:22.491Z</time></trkpt><trkpt lat="45.3272326" lon="8.838133"><ele>111.0</ele><time>2026-04-25T17:03:23.491Z</time></trkpt><trkpt lat="45.3272787" lon="8.8383293"><ele>111.0</ele><time>2026-04-25T17:03:24.49Z</time></trkpt><trkpt lat="45.3273282" lon="8.8385281"><ele>111.0</ele><time>2026-04-25T17:03:25.491Z</time></trkpt><trkpt lat="45.3273756" lon="8.8387236"><ele>111.0</ele><time>2026-04-25T17:03:26.491Z</time></trkpt><trkpt lat="45.3274219" lon="8.8389158"><ele>111.0</ele><time>2026-04-25T17:03:27.49Z</time></trkpt><trkpt lat="45.3274674" lon="8.8391022"><ele>111.0</ele><time>2026-04-25T17:03:28.491Z</time></trkpt><trkpt lat="45.3275083" lon="8.8392738"><ele>111.0</ele><time>2026-04-25T17:03:29.49Z</time></trkpt><trkpt lat="45.3275465" lon="8.8394396"><ele>111.0</ele><time>2026-04-25T17:03:30.491Z</time></trkpt><trkpt lat="45.3275791" lon="8.8395921"><ele>111.0</ele><time>2026-04-25T17:03:31.491Z</time></trkpt><trkpt lat="45.3276067" lon="8.8397376"><ele>111.0</ele><time>2026-04-25T17:03:32.491Z</time></trkpt><trkpt lat="45.3276365" lon="8.8398753"><ele>111.0</ele><time>2026-04-25T17:03:33.491Z</time></trkpt><trkpt lat="45.3276551" lon="8.8400007"><ele>111.0</ele><time>2026-04-25T17:03:34.491Z</time></trkpt><trkpt lat="45.3276662" lon="8.8401126"><ele>111.0</ele><time>2026-04-25T17:03:35.49Z</time></trkpt><trkpt lat="45.3276722" lon="8.8402168"><ele>111.0</ele><time>2026-04-25T17:03:36.491Z</time></trkpt><trkpt lat="45.3276687" lon="8.8403083"><ele>111.0</ele><time>2026-04-25T17:03:37.49Z</time></trkpt><trkpt lat="45.327656" lon="8.8404894"><ele>111.0</ele><time>2026-04-25T17:03:39.491Z</time></trkpt><trkpt lat="45.3276539" lon="8.8405928"><ele>111.0</ele><time>2026-04-25T17:03:40.491Z</time></trkpt><trkpt lat="45.3276555" lon="8.8407005"><ele>111.0</ele><time>2026-04-25T17:03:41.491Z</time></trkpt><trkpt lat="45.3276738" lon="8.8408169"><ele>111.0</ele><time>2026-04-25T17:03:42.491Z</time></trkpt><trkpt lat="45.3277092" lon="8.8409197"><ele>111.16666666666667</ele><time>2026-04-25T17:03:43.491Z</time></trkpt><trkpt lat="45.3277546" lon="8.8410018"><ele>111.33333333333334</ele><time>2026-04-25T17:03:44.491Z</time></trkpt><trkpt lat="45.3278119" lon="8.8410686"><ele>111.5</ele><time>2026-04-25T17:03:45.49Z</time></trkpt><trkpt lat="45.3278778" lon="8.8411273"><ele>111.66666666666667</ele><time>2026-04-25T17:03:46.49Z</time></trkpt><trkpt lat="45.3279548" lon="8.8411796"><ele>111.83333333333334</ele><time>2026-04-25T17:03:47.491Z</time></trkpt><trkpt lat="45.3280492" lon="8.841249"><ele>112.0</ele><time>2026-04-25T17:03:48.491Z</time></trkpt><trkpt lat="45.3281482" lon="8.841348"><ele>112.0</ele><time>2026-04-25T17:03:49.491Z</time></trkpt><trkpt lat="45.3282381" lon="8.8414778"><ele>112.0</ele><time>2026-04-25T17:03:50.49Z</time></trkpt><trkpt lat="45.3283079" lon="8.8416356"><ele>112.0</ele><time>2026-04-25T17:03:51.49Z</time></trkpt><trkpt lat="45.3283631" lon="8.8418151"><ele>112.0</ele><time>2026-04-25T17:03:52.491Z</time></trkpt><trkpt lat="45.3284152" lon="8.8420163"><ele>111.5</ele><time>2026-04-25T17:03:53.491Z</time></trkpt><trkpt lat="45.3284605" lon="8.8422119"><ele>111.0</ele><time>2026-04-25T17:03:54.491Z</time></trkpt><trkpt lat="45.3285061" lon="8.8424099"><ele>110.5</ele><time>2026-04-25T17:03:55.49Z</time></trkpt><trkpt lat="45.3285538" lon="8.8425949"><ele>110.0</ele><time>2026-04-25T17:03:56.491Z</time></trkpt><trkpt lat="45.3285976" lon="8.8427862"><ele>109.66666666666666</ele><time>2026-04-25T17:03:57.491Z</time></trkpt><trkpt lat="45.3286463" lon="8.8429877"><ele>109.33333333333334</ele><time>2026-04-25T17:03:58.491Z</time></trkpt><trkpt lat="45.3286994" lon="8.8431933"><ele>109.0</ele><time>2026-04-25T17:03:59.491Z</time></trkpt><trkpt lat="45.3287498" lon="8.843393"><ele>108.75</ele><time>2026-04-25T17:04:00.49Z</time></trkpt><trkpt lat="45.3287992" lon="8.8435837"><ele>108.5</ele><time>2026-04-25T17:04:01.491Z</time></trkpt><trkpt lat="45.3288507" lon="8.8437614"><ele>108.25</ele><time>2026-04-25T17:04:02.49Z</time></trkpt><trkpt lat="45.3289067" lon="8.8439507"><ele>108.0</ele><time>2026-04-25T17:04:03.491Z</time></trkpt><trkpt lat="45.3289722" lon="8.8441497"><ele>107.0</ele><time>2026-04-25T17:04:04.491Z</time></trkpt><trkpt lat="45.3290406" lon="8.8443455"><ele>106.0</ele><time>2026-04-25T17:04:05.49Z</time></trkpt><trkpt lat="45.3291178" lon="8.8445499"><ele>105.0</ele><time>2026-04-25T17:04:06.491Z</time></trkpt><trkpt lat="45.3291924" lon="8.8447545"><ele>105.0</ele><time>2026-04-25T17:04:07.49Z</time></trkpt><trkpt lat="45.3292648" lon="8.8449517"><ele>105.0</ele><time>2026-04-25T17:04:08.49Z</time></trkpt><trkpt lat="45.3293374" lon="8.8451498"><ele>105.0</ele><time>2026-04-25T17:04:09.49Z</time></trkpt><trkpt lat="45.3294103" lon="8.8453428"><ele>105.25</ele><time>2026-04-25T17:04:10.491Z</time></trkpt><trkpt lat="45.3294793" lon="8.845536"><ele>105.5</ele><time>2026-04-25T17:04:11.491Z</time></trkpt><trkpt lat="45.3295464" lon="8.8457217"><ele>105.75</ele><time>2026-04-25T17:04:12.49Z</time></trkpt><trkpt lat="45.3296063" lon="8.8458996"><ele>106.0</ele><time>2026-04-25T17:04:13.491Z</time></trkpt><trkpt lat="45.3296603" lon="8.8460657"><ele>106.0</ele><time>2026-04-25T17:04:14.49Z</time></trkpt><trkpt lat="45.3297088" lon="8.8462225"><ele>106.0</ele><time>2026-04-25T17:04:15.491Z</time></trkpt><trkpt lat="45.3297501" lon="8.846374"><ele>106.0</ele><time>2026-04-25T17:04:16.49Z</time></trkpt><trkpt lat="45.3297848" lon="8.8465182"><ele>106.0</ele><time>2026-04-25T17:04:17.491Z</time></trkpt><trkpt lat="45.3298136" lon="8.8466608"><ele>106.0</ele><time>2026-04-25T17:04:18.491Z</time></trkpt><trkpt lat="45.3298362" lon="8.8467952"><ele>106.00000000000001</ele><time>2026-04-25T17:04:19.491Z</time></trkpt><trkpt lat="45.3298549" lon="8.8469293"><ele>106.0</ele><time>2026-04-25T17:04:20.491Z</time></trkpt><trkpt lat="45.3298661" lon="8.8470537"><ele>106.0</ele><time>2026-04-25T17:04:21.49Z</time></trkpt><trkpt lat="45.3298715" lon="8.847169"><ele>106.0</ele><time>2026-04-25T17:04:22.491Z</time></trkpt><trkpt lat="45.3298794" lon="8.8472765"><ele>106.00000000000001</ele><time>2026-04-25T17:04:23.491Z</time></trkpt><trkpt lat="45.3298749" lon="8.8473813"><ele>106.0</ele><time>2026-04-25T17:04:24.491Z</time></trkpt><trkpt lat="45.3298587" lon="8.847482"><ele>106.0</ele><time>2026-04-25T17:04:25.491Z</time></trkpt><trkpt lat="45.3298332" lon="8.8475687"><ele>106.0</ele><time>2026-04-25T17:04:26.491Z</time></trkpt><trkpt lat="45.3297979" lon="8.8476434"><ele>106.0</ele><time>2026-04-25T17:04:27.491Z</time></trkpt><trkpt lat="45.329752" lon="8.8477156"><ele>106.0</ele><time>2026-04-25T17:04:28.491Z</time></trkpt><trkpt lat="45.3297036" lon="8.8477961"><ele>106.0</ele><time>2026-04-25T17:04:29.491Z</time></trkpt><trkpt lat="45.329658" lon="8.8478895"><ele>106.0</ele><time>2026-04-25T17:04:30.491Z</time></trkpt><trkpt lat="45.3296189" lon="8.8479945"><ele>106.0</ele><time>2026-04-25T17:04:31.49Z</time></trkpt><trkpt lat="45.3295997" lon="8.8481062"><ele>106.0</ele><time>2026-04-25T17:04:32.49Z</time></trkpt><trkpt lat="45.3296096" lon="8.8482259"><ele>106.0</ele><time>2026-04-25T17:04:33.491Z</time></trkpt><trkpt lat="45.3296473" lon="8.8483482"><ele>106.0</ele><time>2026-04-25T17:04:34.491Z</time></trkpt><trkpt lat="45.3297084" lon="8.8484596"><ele>106.0</ele><time>2026-04-25T17:04:35.491Z</time></trkpt><trkpt lat="45.3297885" lon="8.8485421"><ele>106.0</ele><time>2026-04-25T17:04:36.49Z</time></trkpt><trkpt lat="45.3298793" lon="8.8485884"><ele>106.19999999999999</ele><time>2026-04-25T17:04:37.49Z</time></trkpt><trkpt lat="45.3299741" lon="8.8486152"><ele>106.39999999999999</ele><time>2026-04-25T17:04:38.49Z</time></trkpt><trkpt lat="45.3300694" lon="8.8486549"><ele>106.6</ele><time>2026-04-25T17:04:39.491Z</time></trkpt><trkpt lat="45.3301601" lon="8.8487296"><ele>106.8</ele><time>2026-04-25T17:04:40.49Z</time></trkpt><trkpt lat="45.3302381" lon="8.8488446"><ele>107.0</ele><time>2026-04-25T17:04:41.491Z</time></trkpt><trkpt lat="45.3303109" lon="8.8489836"><ele>107.0</ele><time>2026-04-25T17:04:42.491Z</time></trkpt><trkpt lat="45.3303902" lon="8.8491375"><ele>107.0</ele><time>2026-04-25T17:04:43.491Z</time></trkpt><trkpt lat="45.3304815" lon="8.8492953"><ele>107.0</ele><time>2026-04-25T17:04:44.491Z</time></trkpt><trkpt lat="45.3305823" lon="8.8494552"><ele>107.0</ele><time>2026-04-25T17:04:45.49Z</time></trkpt><trkpt lat="45.330684" lon="8.8496021"><ele>107.25</ele><time>2026-04-25T17:04:46.491Z</time></trkpt><trkpt lat="45.3307846" lon="8.8497363"><ele>107.5</ele><time>2026-04-25T17:04:47.49Z</time></trkpt><trkpt lat="45.3308944" lon="8.849866"><ele>107.75</ele><time>2026-04-25T17:04:48.491Z</time></trkpt><trkpt lat="45.3310103" lon="8.8499964"><ele>108.0</ele><time>2026-04-25T17:04:49.491Z</time></trkpt><trkpt lat="45.3311258" lon="8.850136"><ele>107.66666666666666</ele><time>2026-04-25T17:04:50.491Z</time></trkpt><trkpt lat="45.3312467" lon="8.8502742"><ele>107.33333333333333</ele><time>2026-04-25T17:04:51.49Z</time></trkpt><trkpt lat="45.3313659" lon="8.8504083"><ele>107.0</ele><time>2026-04-25T17:04:52.491Z</time></trkpt><trkpt lat="45.3314879" lon="8.8505476"><ele>107.0</ele><time>2026-04-25T17:04:53.491Z</time></trkpt><trkpt lat="45.3316126" lon="8.8506859"><ele>107.0</ele><time>2026-04-25T17:04:54.49Z</time></trkpt><trkpt lat="45.3317454" lon="8.8508299"><ele>107.0</ele><time>2026-04-25T17:04:55.49Z</time></trkpt><trkpt lat="45.331895" lon="8.8509891"><ele>106.66666666666666</ele><time>2026-04-25T17:04:56.491Z</time></trkpt><trkpt lat="45.3320544" lon="8.8511684"><ele>106.33333333333334</ele><time>2026-04-25T17:04:57.49Z</time></trkpt><trkpt lat="45.3322091" lon="8.8513621"><ele>106.0</ele><time>2026-04-25T17:04:58.49Z</time></trkpt><trkpt lat="45.3323658" lon="8.8515686"><ele>107.0</ele><time>2026-04-25T17:04:59.49Z</time></trkpt><trkpt lat="45.3325073" lon="8.8517665"><ele>108.0</ele><time>2026-04-25T17:05:00.491Z</time></trkpt><trkpt lat="45.332635" lon="8.851956"><ele>109.0</ele><time>2026-04-25T17:05:01.491Z</time></trkpt><trkpt lat="45.3327539" lon="8.8521386"><ele>109.0</ele><time>2026-04-25T17:05:02.491Z</time></trkpt><trkpt lat="45.3328594" lon="8.8523107"><ele>109.0</ele><time>2026-04-25T17:05:03.491Z</time></trkpt><trkpt lat="45.3329579" lon="8.8524798"><ele>109.0</ele><time>2026-04-25T17:05:04.491Z</time></trkpt><trkpt lat="45.3330532" lon="8.8526502"><ele>108.75</ele><time>2026-04-25T17:05:05.491Z</time></trkpt><trkpt lat="45.3331396" lon="8.8528146"><ele>108.5</ele><time>2026-04-25T17:05:06.491Z</time></trkpt><trkpt lat="45.333217" lon="8.852963"><ele>108.25</ele><time>2026-04-25T17:05:07.49Z</time></trkpt><trkpt lat="45.3332747" lon="8.8530853"><ele>108.0</ele><time>2026-04-25T17:05:08.491Z</time></trkpt><trkpt lat="45.3333208" lon="8.8532022"><ele>108.0</ele><time>2026-04-25T17:05:09.491Z</time></trkpt><trkpt lat="45.3333449" lon="8.8533106"><ele>108.0</ele><time>2026-04-25T17:05:10.491Z</time></trkpt><trkpt lat="45.3333606" lon="8.8534136"><ele>108.0</ele><time>2026-04-25T17:05:11.491Z</time></trkpt><trkpt lat="45.333391" lon="8.8535183"><ele>108.0</ele><time>2026-04-25T17:05:12.49Z</time></trkpt><trkpt lat="45.3334466" lon="8.8535881"><ele>108.0</ele><time>2026-04-25T17:05:13.491Z</time></trkpt><trkpt lat="45.3335127" lon="8.8536641"><ele>108.0</ele><time>2026-04-25T17:05:14.491Z</time></trkpt><trkpt lat="45.3335735" lon="8.8537753"><ele>108.0</ele><time>2026-04-25T17:05:15.491Z</time></trkpt><trkpt lat="45.3336492" lon="8.8539401"><ele>108.0</ele><time>2026-04-25T17:05:16.491Z</time></trkpt><trkpt lat="45.3337323" lon="8.8541382"><ele>108.0</ele><time>2026-04-25T17:05:17.49Z</time></trkpt><trkpt lat="45.3338173" lon="8.8543684"><ele>107.33333333333334</ele><time>2026-04-25T17:05:18.49Z</time></trkpt><trkpt lat="45.3338891" lon="8.8546041"><ele>106.66666666666667</ele><time>2026-04-25T17:05:19.491Z</time></trkpt><trkpt lat="45.3339628" lon="8.8548455"><ele>106.0</ele><time>2026-04-25T17:05:20.491Z</time></trkpt><trkpt lat="45.3340426" lon="8.8550975"><ele>105.66666666666667</ele><time>2026-04-25T17:05:21.49Z</time></trkpt><trkpt lat="45.3341152" lon="8.8553487"><ele>105.33333333333334</ele><time>2026-04-25T17:05:22.49Z</time></trkpt><trkpt lat="45.3341861" lon="8.8556056"><ele>105.0</ele><time>2026-04-25T17:05:23.491Z</time></trkpt><trkpt lat="45.3342489" lon="8.8558688"><ele>105.33333333333334</ele><time>2026-04-25T17:05:24.49Z</time></trkpt><trkpt lat="45.3343109" lon="8.8561485"><ele>105.66666666666667</ele><time>2026-04-25T17:05:25.491Z</time></trkpt><trkpt lat="45.3343715" lon="8.8564435"><ele>106.0</ele><time>2026-04-25T17:05:26.49Z</time></trkpt><trkpt lat="45.334424" lon="8.8567498"><ele>107.5</ele><time>2026-04-25T17:05:27.49Z</time></trkpt><trkpt lat="45.3344694" lon="8.857063"><ele>109.0</ele><time>2026-04-25T17:05:28.491Z</time></trkpt><trkpt lat="45.3345097" lon="8.8573933"><ele>107.5</ele><time>2026-04-25T17:05:29.49Z</time></trkpt><trkpt lat="45.3345418" lon="8.85773"><ele>106.0</ele><time>2026-04-25T17:05:30.491Z</time></trkpt><trkpt lat="45.3345642" lon="8.8580665"><ele>106.0</ele><time>2026-04-25T17:05:31.49Z</time></trkpt><trkpt lat="45.3345807" lon="8.8583936"><ele>106.0</ele><time>2026-04-25T17:05:32.49Z</time></trkpt><trkpt lat="45.3345936" lon="8.8587206"><ele>106.0</ele><time>2026-04-25T17:05:33.49Z</time></trkpt><trkpt lat="45.3346026" lon="8.8590461"><ele>106.0</ele><time>2026-04-25T17:05:34.491Z</time></trkpt><trkpt lat="45.3346086" lon="8.8593767"><ele>106.0</ele><time>2026-04-25T17:05:35.491Z</time></trkpt><trkpt lat="45.3346185" lon="8.8597221"><ele>106.0</ele><time>2026-04-25T17:05:36.491Z</time></trkpt><trkpt lat="45.3346341" lon="8.8600725"><ele>104.0</ele><time>2026-04-25T17:05:37.491Z</time></trkpt><trkpt lat="45.3346517" lon="8.860432"><ele>102.0</ele><time>2026-04-25T17:05:38.49Z</time></trkpt><trkpt lat="45.3346752" lon="8.8607985"><ele>102.5</ele><time>2026-04-25T17:05:39.491Z</time></trkpt><trkpt lat="45.3347119" lon="8.8611624"><ele>103.0</ele><time>2026-04-25T17:05:40.491Z</time></trkpt><trkpt lat="45.3347503" lon="8.8615185"><ele>103.5</ele><time>2026-04-25T17:05:41.491Z</time></trkpt><trkpt lat="45.3348033" lon="8.8618562"><ele>104.0</ele><time>2026-04-25T17:05:42.491Z</time></trkpt><trkpt lat="45.3348535" lon="8.8621724"><ele>104.0</ele><time>2026-04-25T17:05:43.491Z</time></trkpt><trkpt lat="45.3349079" lon="8.862463"><ele>104.0</ele><time>2026-04-25T17:05:44.49Z</time></trkpt><trkpt lat="45.3349653" lon="8.8627438"><ele>104.0</ele><time>2026-04-25T17:05:45.491Z</time></trkpt><trkpt lat="45.3350248" lon="8.863009"><ele>104.33333333333333</ele><time>2026-04-25T17:05:46.49Z</time></trkpt><trkpt lat="45.3350778" lon="8.8632438"><ele>104.66666666666666</ele><time>2026-04-25T17:05:47.491Z</time></trkpt><trkpt lat="45.3351247" lon="8.8634449"><ele>105.0</ele><time>2026-04-25T17:05:48.49Z</time></trkpt><trkpt lat="45.3351589" lon="8.8636265"><ele>105.0</ele><time>2026-04-25T17:05:49.491Z</time></trkpt><trkpt lat="45.335169" lon="8.863801"><ele>105.0</ele><time>2026-04-25T17:05:50.491Z</time></trkpt><trkpt lat="45.335149" lon="8.8639633"><ele>105.0</ele><time>2026-04-25T17:05:51.49Z</time></trkpt><trkpt lat="45.3351295" lon="8.8641169"><ele>105.0</ele><time>2026-04-25T17:05:52.491Z</time></trkpt><trkpt lat="45.3351287" lon="8.8642539"><ele>105.0</ele><time>2026-04-25T17:05:53.49Z</time></trkpt><trkpt lat="45.3351488" lon="8.8643745"><ele>104.8</ele><time>2026-04-25T17:05:54.491Z</time></trkpt><trkpt lat="45.3351884" lon="8.864466"><ele>104.6</ele><time>2026-04-25T17:05:55.49Z</time></trkpt><trkpt lat="45.3352553" lon="8.8645556"><ele>104.4</ele><time>2026-04-25T17:05:56.49Z</time></trkpt><trkpt lat="45.3353296" lon="8.8646629"><ele>104.2</ele><time>2026-04-25T17:05:57.491Z</time></trkpt><trkpt lat="45.3353926" lon="8.864793"><ele>104.0</ele><time>2026-04-25T17:05:58.491Z</time></trkpt><trkpt lat="45.3354412" lon="8.8649576"><ele>103.75</ele><time>2026-04-25T17:05:59.491Z</time></trkpt><trkpt lat="45.3354782" lon="8.8651413"><ele>103.5</ele><time>2026-04-25T17:06:00.491Z</time></trkpt><trkpt lat="45.3355196" lon="8.8653377"><ele>103.25</ele><time>2026-04-25T17:06:01.49Z</time></trkpt><trkpt lat="45.3355693" lon="8.8655478"><ele>103.0</ele><time>2026-04-25T17:06:02.491Z</time></trkpt><trkpt lat="45.3356232" lon="8.865772"><ele>103.33333333333334</ele><time>2026-04-25T17:06:03.491Z</time></trkpt><trkpt lat="45.3356729" lon="8.8660005"><ele>103.66666666666666</ele><time>2026-04-25T17:06:04.491Z</time></trkpt><trkpt lat="45.3357251" lon="8.8662369"><ele>104.0</ele><time>2026-04-25T17:06:05.49Z</time></trkpt><trkpt lat="45.3357737" lon="8.8664845"><ele>104.0</ele><time>2026-04-25T17:06:06.49Z</time></trkpt><trkpt lat="45.3358318" lon="8.8667491"><ele>104.0</ele><time>2026-04-25T17:06:07.49Z</time></trkpt><trkpt lat="45.335892" lon="8.8670428"><ele>104.0</ele><time>2026-04-25T17:06:08.491Z</time></trkpt><trkpt lat="45.3359462" lon="8.8673146"><ele>103.66666666666666</ele><time>2026-04-25T17:06:09.491Z</time></trkpt><trkpt lat="45.3359921" lon="8.867579"><ele>103.33333333333334</ele><time>2026-04-25T17:06:10.49Z</time></trkpt><trkpt lat="45.3360298" lon="8.8678394"><ele>103.0</ele><time>2026-04-25T17:06:11.491Z</time></trkpt><trkpt lat="45.336067" lon="8.8681011"><ele>103.66666666666667</ele><time>2026-04-25T17:06:12.49Z</time></trkpt><trkpt lat="45.3361011" lon="8.8683724"><ele>104.33333333333334</ele><time>2026-04-25T17:06:13.49Z</time></trkpt><trkpt lat="45.3361338" lon="8.8686496"><ele>105.0</ele><time>2026-04-25T17:06:14.491Z</time></trkpt><trkpt lat="45.33616" lon="8.8689321"><ele>105.0</ele><time>2026-04-25T17:06:15.491Z</time></trkpt><trkpt lat="45.336179" lon="8.8692147"><ele>105.0</ele><time>2026-04-25T17:06:16.49Z</time></trkpt><trkpt lat="45.3361945" lon="8.869503"><ele>105.0</ele><time>2026-04-25T17:06:17.491Z</time></trkpt><trkpt lat="45.3362039" lon="8.8697945"><ele>104.0</ele><time>2026-04-25T17:06:18.491Z</time></trkpt><trkpt lat="45.3362077" lon="8.8700922"><ele>103.0</ele><time>2026-04-25T17:06:19.491Z</time></trkpt><trkpt lat="45.336206" lon="8.8703893"><ele>102.0</ele><time>2026-04-25T17:06:20.491Z</time></trkpt><trkpt lat="45.3361977" lon="8.8706913"><ele>98.66666666666667</ele><time>2026-04-25T17:06:21.49Z</time></trkpt><trkpt lat="45.3361838" lon="8.8709941"><ele>95.33333333333334</ele><time>2026-04-25T17:06:22.491Z</time></trkpt><trkpt lat="45.3361678" lon="8.8712987"><ele>92.0</ele><time>2026-04-25T17:06:23.491Z</time></trkpt><trkpt lat="45.3361456" lon="8.8715991"><ele>90.66666666666667</ele><time>2026-04-25T17:06:24.49Z</time></trkpt><trkpt lat="45.3361218" lon="8.8718938"><ele>89.33333333333333</ele><time>2026-04-25T17:06:25.49Z</time></trkpt><trkpt lat="45.3361018" lon="8.8721774"><ele>88.0</ele><time>2026-04-25T17:06:26.491Z</time></trkpt><trkpt lat="45.3360855" lon="8.8724496"><ele>87.33333333333333</ele><time>2026-04-25T17:06:27.491Z</time></trkpt><trkpt lat="45.3360706" lon="8.8727145"><ele>86.66666666666667</ele><time>2026-04-25T17:06:28.491Z</time></trkpt><trkpt lat="45.3360513" lon="8.8729605"><ele>86.0</ele><time>2026-04-25T17:06:29.49Z</time></trkpt><trkpt lat="45.3360319" lon="8.8732123"><ele>85.66666666666667</ele><time>2026-04-25T17:06:30.49Z</time></trkpt><trkpt lat="45.3360123" lon="8.8734648"><ele>85.33333333333333</ele><time>2026-04-25T17:06:31.49Z</time></trkpt><trkpt lat="45.3359932" lon="8.8737189"><ele>85.0</ele><time>2026-04-25T17:06:32.491Z</time></trkpt><trkpt lat="45.3359738" lon="8.8739698"><ele>85.0</ele><time>2026-04-25T17:06:33.491Z</time></trkpt><trkpt lat="45.335955" lon="8.8742251"><ele>85.0</ele><time>2026-04-25T17:06:34.49Z</time></trkpt><trkpt lat="45.3359381" lon="8.8744778"><ele>85.0</ele><time>2026-04-25T17:06:35.491Z</time></trkpt><trkpt lat="45.3359212" lon="8.8747363"><ele>85.33333333333333</ele><time>2026-04-25T17:06:36.49Z</time></trkpt><trkpt lat="45.3359104" lon="8.87499"><ele>85.66666666666667</ele><time>2026-04-25T17:06:37.491Z</time></trkpt><trkpt lat="45.3358969" lon="8.8752404"><ele>86.0</ele><time>2026-04-25T17:06:38.491Z</time></trkpt><trkpt lat="45.3358927" lon="8.8754746"><ele>86.0</ele><time>2026-04-25T17:06:39.491Z</time></trkpt><trkpt lat="45.3359078" lon="8.8756923"><ele>86.0</ele><time>2026-04-25T17:06:40.491Z</time></trkpt><trkpt lat="45.3359375" lon="8.8759029"><ele>86.0</ele><time>2026-04-25T17:06:41.491Z</time></trkpt><trkpt lat="45.3359713" lon="8.8760962"><ele>86.0</ele><time>2026-04-25T17:06:42.491Z</time></trkpt><trkpt lat="45.3360056" lon="8.8762745"><ele>86.0</ele><time>2026-04-25T17:06:43.491Z</time></trkpt><trkpt lat="45.3360345" lon="8.8764502"><ele>86.0</ele><time>2026-04-25T17:06:44.491Z</time></trkpt><trkpt lat="45.3360502" lon="8.8766156"><ele>86.0</ele><time>2026-04-25T17:06:45.49Z</time></trkpt><trkpt lat="45.3360477" lon="8.8767745"><ele>86.0</ele><time>2026-04-25T17:06:46.49Z</time></trkpt><trkpt lat="45.3360347" lon="8.8769175"><ele>86.16666666666667</ele><time>2026-04-25T17:06:47.491Z</time></trkpt><trkpt lat="45.3360054" lon="8.8770437"><ele>86.33333333333334</ele><time>2026-04-25T17:06:48.491Z</time></trkpt><trkpt lat="45.3359609" lon="8.8771464"><ele>86.5</ele><time>2026-04-25T17:06:49.49Z</time></trkpt><trkpt lat="45.3359132" lon="8.8772358"><ele>86.66666666666667</ele><time>2026-04-25T17:06:50.491Z</time></trkpt><trkpt lat="45.3358876" lon="8.8773347"><ele>86.83333333333333</ele><time>2026-04-25T17:06:51.491Z</time></trkpt><trkpt lat="45.3358727" lon="8.8774356"><ele>87.0</ele><time>2026-04-25T17:06:52.491Z</time></trkpt><trkpt lat="45.3358873" lon="8.8775478"><ele>87.0</ele><time>2026-04-25T17:06:53.491Z</time></trkpt><trkpt lat="45.3359278" lon="8.8776405"><ele>87.0</ele><time>2026-04-25T17:06:54.491Z</time></trkpt><trkpt lat="45.3359884" lon="8.8777042"><ele>87.0</ele><time>2026-04-25T17:06:55.491Z</time></trkpt><trkpt lat="45.336064" lon="8.8777294"><ele>87.0</ele><time>2026-04-25T17:06:56.491Z</time></trkpt><trkpt lat="45.3361358" lon="8.8777053"><ele>87.0</ele><time>2026-04-25T17:06:57.49Z</time></trkpt><trkpt lat="45.3361983" lon="8.8776544"><ele>87.0</ele><time>2026-04-25T17:06:58.491Z</time></trkpt><trkpt lat="45.336245" lon="8.8775861"><ele>87.0</ele><time>2026-04-25T17:06:59.491Z</time></trkpt><trkpt lat="45.3362961" lon="8.8775121"><ele>87.0</ele><time>2026-04-25T17:07:00.491Z</time></trkpt><trkpt lat="45.3363558" lon="8.8774367"><ele>87.0</ele><time>2026-04-25T17:07:01.491Z</time></trkpt><trkpt lat="45.3364306" lon="8.8773739"><ele>87.0</ele><time>2026-04-25T17:07:02.49Z</time></trkpt><trkpt lat="45.336509" lon="8.8773269"><ele>87.0</ele><time>2026-04-25T17:07:03.491Z</time></trkpt><trkpt lat="45.3365914" lon="8.8772837"><ele>87.0</ele><time>2026-04-25T17:07:04.491Z</time></trkpt><trkpt lat="45.3366711" lon="8.8772464"><ele>87.0</ele><time>2026-04-25T17:07:05.49Z</time></trkpt><trkpt lat="45.3367507" lon="8.8772151"><ele>87.19999999999999</ele><time>2026-04-25T17:07:06.49Z</time></trkpt><trkpt lat="45.3368337" lon="8.8771856"><ele>87.4</ele><time>2026-04-25T17:07:07.49Z</time></trkpt><trkpt lat="45.3369143" lon="8.8771574"><ele>87.6</ele><time>2026-04-25T17:07:08.491Z</time></trkpt><trkpt lat="45.3370038" lon="8.8771237"><ele>87.80000000000001</ele><time>2026-04-25T17:07:09.491Z</time></trkpt><trkpt lat="45.3370939" lon="8.8770934"><ele>88.0</ele><time>2026-04-25T17:07:10.491Z</time></trkpt><trkpt lat="45.337188" lon="8.8770639"><ele>87.80000000000001</ele><time>2026-04-25T17:07:11.491Z</time></trkpt><trkpt lat="45.3372822" lon="8.8770322"><ele>87.6</ele><time>2026-04-25T17:07:12.491Z</time></trkpt><trkpt lat="45.3373816" lon="8.8769952"><ele>87.4</ele><time>2026-04-25T17:07:13.49Z</time></trkpt><trkpt lat="45.337491" lon="8.8769651"><ele>87.19999999999999</ele><time>2026-04-25T17:07:14.49Z</time></trkpt><trkpt lat="45.3376141" lon="8.8769399"><ele>87.0</ele><time>2026-04-25T17:07:15.491Z</time></trkpt><trkpt lat="45.3377441" lon="8.8769284"><ele>87.0</ele><time>2026-04-25T17:07:16.491Z</time></trkpt><trkpt lat="45.3378684" lon="8.8769222"><ele>87.0</ele><time>2026-04-25T17:07:17.491Z</time></trkpt><trkpt lat="45.3379977" lon="8.8769347"><ele>87.0</ele><time>2026-04-25T17:07:18.49Z</time></trkpt><trkpt lat="45.3381225" lon="8.8769583"><ele>87.0</ele><time>2026-04-25T17:07:19.49Z</time></trkpt><trkpt lat="45.3382465" lon="8.8769949"><ele>87.0</ele><time>2026-04-25T17:07:20.491Z</time></trkpt><trkpt lat="45.3383732" lon="8.8770466"><ele>87.0</ele><time>2026-04-25T17:07:21.49Z</time></trkpt><trkpt lat="45.3384928" lon="8.877119"><ele>87.0</ele><time>2026-04-25T17:07:22.491Z</time></trkpt><trkpt lat="45.3386027" lon="8.8772024"><ele>87.0</ele><time>2026-04-25T17:07:23.491Z</time></trkpt><trkpt lat="45.3387219" lon="8.8772951"><ele>87.0</ele><time>2026-04-25T17:07:24.49Z</time></trkpt><trkpt lat="45.3388223" lon="8.8773757"><ele>87.0</ele><time>2026-04-25T17:07:25.49Z</time></trkpt><trkpt lat="45.3389256" lon="8.8774609"><ele>87.0</ele><time>2026-04-25T17:07:26.49Z</time></trkpt><trkpt lat="45.3390254" lon="8.8775514"><ele>87.0</ele><time>2026-04-25T17:07:27.49Z</time></trkpt><trkpt lat="45.3391319" lon="8.8776402"><ele>86.5</ele><time>2026-04-25T17:07:28.491Z</time></trkpt><trkpt lat="45.3392373" lon="8.877725"><ele>86.0</ele><time>2026-04-25T17:07:29.491Z</time></trkpt><trkpt lat="45.3393439" lon="8.8778066"><ele>85.5</ele><time>2026-04-25T17:07:30.491Z</time></trkpt><trkpt lat="45.3394536" lon="8.8778935"><ele>85.0</ele><time>2026-04-25T17:07:31.49Z</time></trkpt><trkpt lat="45.3395621" lon="8.8779814"><ele>85.0</ele><time>2026-04-25T17:07:32.49Z</time></trkpt><trkpt lat="45.3396725" lon="8.8780745"><ele>85.0</ele><time>2026-04-25T17:07:33.49Z</time></trkpt><trkpt lat="45.3397866" lon="8.8781689"><ele>85.0</ele><time>2026-04-25T17:07:34.49Z</time></trkpt><trkpt lat="45.3399011" lon="8.8782662"><ele>85.0</ele><time>2026-04-25T17:07:35.491Z</time></trkpt><trkpt lat="45.3400109" lon="8.8783621"><ele>85.25</ele><time>2026-04-25T17:07:36.49Z</time></trkpt><trkpt lat="45.340121" lon="8.8784592"><ele>85.5</ele><time>2026-04-25T17:07:37.491Z</time></trkpt><trkpt lat="45.3402299" lon="8.8785502"><ele>85.75</ele><time>2026-04-25T17:07:38.491Z</time></trkpt><trkpt lat="45.3403302" lon="8.8786343"><ele>86.0</ele><time>2026-04-25T17:07:39.491Z</time></trkpt><trkpt lat="45.3404318" lon="8.8787168"><ele>86.0</ele><time>2026-04-25T17:07:40.491Z</time></trkpt><trkpt lat="45.3405375" lon="8.8788012"><ele>86.0</ele><time>2026-04-25T17:07:41.491Z</time></trkpt><trkpt lat="45.3406402" lon="8.8788907"><ele>86.0</ele><time>2026-04-25T17:07:42.49Z</time></trkpt><trkpt lat="45.3407447" lon="8.8789847"><ele>86.0</ele><time>2026-04-25T17:07:43.49Z</time></trkpt><trkpt lat="45.3408471" lon="8.8790823"><ele>85.25</ele><time>2026-04-25T17:07:44.491Z</time></trkpt><trkpt lat="45.3409477" lon="8.879177"><ele>84.5</ele><time>2026-04-25T17:07:45.49Z</time></trkpt><trkpt lat="45.3410492" lon="8.8792708"><ele>83.75</ele><time>2026-04-25T17:07:46.49Z</time></trkpt><trkpt lat="45.3411463" lon="8.879367"><ele>83.0</ele><time>2026-04-25T17:07:47.49Z</time></trkpt><trkpt lat="45.3412499" lon="8.8794634"><ele>83.0</ele><time>2026-04-25T17:07:48.491Z</time></trkpt><trkpt lat="45.3413486" lon="8.8795527"><ele>83.0</ele><time>2026-04-25T17:07:49.491Z</time></trkpt><trkpt lat="45.3414429" lon="8.8796447"><ele>83.0</ele><time>2026-04-25T17:07:50.491Z</time></trkpt><trkpt lat="45.34154" lon="8.8797345"><ele>83.0</ele><time>2026-04-25T17:07:51.491Z</time></trkpt><trkpt lat="45.3416363" lon="8.8798229"><ele>82.5</ele><time>2026-04-25T17:07:52.49Z</time></trkpt><trkpt lat="45.3417323" lon="8.8799106"><ele>82.0</ele><time>2026-04-25T17:07:53.491Z</time></trkpt><trkpt lat="45.3418276" lon="8.8799986"><ele>81.5</ele><time>2026-04-25T17:07:54.491Z</time></trkpt><trkpt lat="45.3419272" lon="8.8800873"><ele>81.0</ele><time>2026-04-25T17:07:55.491Z</time></trkpt><trkpt lat="45.3420274" lon="8.8801756"><ele>81.0</ele><time>2026-04-25T17:07:56.49Z</time></trkpt><trkpt lat="45.3421298" lon="8.8802689"><ele>81.0</ele><time>2026-04-25T17:07:57.49Z</time></trkpt><trkpt lat="45.342227" lon="8.8803568"><ele>81.0</ele><time>2026-04-25T17:07:58.49Z</time></trkpt><trkpt lat="45.342325" lon="8.8804477"><ele>81.0</ele><time>2026-04-25T17:07:59.491Z</time></trkpt><trkpt lat="45.3424278" lon="8.8805422"><ele>82.0</ele><time>2026-04-25T17:08:00.49Z</time></trkpt><trkpt lat="45.3425321" lon="8.8806391"><ele>83.0</ele><time>2026-04-25T17:08:01.49Z</time></trkpt><trkpt lat="45.342634" lon="8.8807424"><ele>84.0</ele><time>2026-04-25T17:08:02.491Z</time></trkpt><trkpt lat="45.3427312" lon="8.880854"><ele>85.0</ele><time>2026-04-25T17:08:03.491Z</time></trkpt><trkpt lat="45.3428203" lon="8.8809765"><ele>85.25</ele><time>2026-04-25T17:08:04.49Z</time></trkpt><trkpt lat="45.3429074" lon="8.881112"><ele>85.5</ele><time>2026-04-25T17:08:05.491Z</time></trkpt><trkpt lat="45.3429877" lon="8.8812588"><ele>85.75</ele><time>2026-04-25T17:08:06.491Z</time></trkpt><trkpt lat="45.3430609" lon="8.8814135"><ele>86.0</ele><time>2026-04-25T17:08:07.491Z</time></trkpt><trkpt lat="45.3431315" lon="8.8815798"><ele>85.75</ele><time>2026-04-25T17:08:08.491Z</time></trkpt><trkpt lat="45.3431927" lon="8.8817527"><ele>85.5</ele><time>2026-04-25T17:08:09.49Z</time></trkpt><trkpt lat="45.3432455" lon="8.881931"><ele>85.25</ele><time>2026-04-25T17:08:10.49Z</time></trkpt><trkpt lat="45.343288" lon="8.8821168"><ele>85.0</ele><time>2026-04-25T17:08:11.491Z</time></trkpt><trkpt lat="45.3433206" lon="8.8823056"><ele>85.0</ele><time>2026-04-25T17:08:12.491Z</time></trkpt><trkpt lat="45.3433458" lon="8.8824924"><ele>85.0</ele><time>2026-04-25T17:08:13.49Z</time></trkpt><trkpt lat="45.3433651" lon="8.8826858"><ele>85.0</ele><time>2026-04-25T17:08:14.491Z</time></trkpt><trkpt lat="45.3433878" lon="8.8828776"><ele>85.0</ele><time>2026-04-25T17:08:15.491Z</time></trkpt><trkpt lat="45.3434097" lon="8.8830657"><ele>85.25</ele><time>2026-04-25T17:08:16.491Z</time></trkpt><trkpt lat="45.3434297" lon="8.8832568"><ele>85.5</ele><time>2026-04-25T17:08:17.49Z</time></trkpt><trkpt lat="45.3434557" lon="8.883446"><ele>85.75</ele><time>2026-04-25T17:08:18.49Z</time></trkpt><trkpt lat="45.3434788" lon="8.8836384"><ele>86.0</ele><time>2026-04-25T17:08:19.491Z</time></trkpt><trkpt lat="45.3435013" lon="8.8838452"><ele>86.0</ele><time>2026-04-25T17:08:20.49Z</time></trkpt><trkpt lat="45.3435255" lon="8.8840688"><ele>86.0</ele><time>2026-04-25T17:08:21.49Z</time></trkpt><trkpt lat="45.3435508" lon="8.8842958"><ele>86.0</ele><time>2026-04-25T17:08:22.491Z</time></trkpt><trkpt lat="45.3435726" lon="8.8845197"><ele>85.66666666666667</ele><time>2026-04-25T17:08:23.491Z</time></trkpt><trkpt lat="45.3435981" lon="8.8847356"><ele>85.33333333333333</ele><time>2026-04-25T17:08:24.491Z</time></trkpt><trkpt lat="45.3436225" lon="8.8849505"><ele>85.0</ele><time>2026-04-25T17:08:25.491Z</time></trkpt><trkpt lat="45.3436474" lon="8.8851606"><ele>85.0</ele><time>2026-04-25T17:08:26.491Z</time></trkpt><trkpt lat="45.3436742" lon="8.8853689"><ele>85.0</ele><time>2026-04-25T17:08:27.49Z</time></trkpt><trkpt lat="45.3436983" lon="8.8855871"><ele>85.0</ele><time>2026-04-25T17:08:28.49Z</time></trkpt><trkpt lat="45.3437249" lon="8.8857996"><ele>85.33333333333333</ele><time>2026-04-25T17:08:29.49Z</time></trkpt><trkpt lat="45.3437613" lon="8.8860132"><ele>85.66666666666667</ele><time>2026-04-25T17:08:30.49Z</time></trkpt><trkpt lat="45.3438093" lon="8.8862175"><ele>86.0</ele><time>2026-04-25T17:08:31.491Z</time></trkpt><trkpt lat="45.3438653" lon="8.8864075"><ele>86.0</ele><time>2026-04-25T17:08:32.491Z</time></trkpt><trkpt lat="45.3439267" lon="8.8865853"><ele>86.0</ele><time>2026-04-25T17:08:33.491Z</time></trkpt><trkpt lat="45.3440078" lon="8.8867576"><ele>86.0</ele><time>2026-04-25T17:08:34.491Z</time></trkpt><trkpt lat="45.3440929" lon="8.8869169"><ele>86.0</ele><time>2026-04-25T17:08:35.491Z</time></trkpt><trkpt lat="45.3441906" lon="8.8870537"><ele>87.0</ele><time>2026-04-25T17:08:36.491Z</time></trkpt><trkpt lat="45.3442873" lon="8.8871874"><ele>88.0</ele><time>2026-04-25T17:08:37.49Z</time></trkpt><trkpt lat="45.3443863" lon="8.8873123"><ele>89.0</ele><time>2026-04-25T17:08:38.49Z</time></trkpt><trkpt lat="45.3444865" lon="8.887441"><ele>90.0</ele><time>2026-04-25T17:08:39.491Z</time></trkpt><trkpt lat="45.3445853" lon="8.8875674"><ele>90.25</ele><time>2026-04-25T17:08:40.491Z</time></trkpt><trkpt lat="45.3446855" lon="8.8876948"><ele>90.5</ele><time>2026-04-25T17:08:41.49Z</time></trkpt><trkpt lat="45.3447868" lon="8.8878244"><ele>90.75</ele><time>2026-04-25T17:08:42.49Z</time></trkpt><trkpt lat="45.3448825" lon="8.8879532"><ele>91.0</ele><time>2026-04-25T17:08:43.49Z</time></trkpt><trkpt lat="45.3449846" lon="8.8880879"><ele>90.75</ele><time>2026-04-25T17:08:44.491Z</time></trkpt><trkpt lat="45.3450881" lon="8.8882204"><ele>90.5</ele><time>2026-04-25T17:08:45.491Z</time></trkpt><trkpt lat="45.3451905" lon="8.8883489"><ele>90.25</ele><time>2026-04-25T17:08:46.491Z</time></trkpt><trkpt lat="45.3452946" lon="8.88848"><ele>90.0</ele><time>2026-04-25T17:08:47.491Z</time></trkpt><trkpt lat="45.345397" lon="8.8886113"><ele>90.0</ele><time>2026-04-25T17:08:48.491Z</time></trkpt><trkpt lat="45.3454988" lon="8.8887429"><ele>90.0</ele><time>2026-04-25T17:08:49.49Z</time></trkpt><trkpt lat="45.3456031" lon="8.8888749"><ele>90.0</ele><time>2026-04-25T17:08:50.491Z</time></trkpt><trkpt lat="45.3457074" lon="8.8890086"><ele>90.0</ele><time>2026-04-25T17:08:51.491Z</time></trkpt><trkpt lat="45.3458086" lon="8.8891368"><ele>89.75</ele><time>2026-04-25T17:08:52.491Z</time></trkpt><trkpt lat="45.3459101" lon="8.8892673"><ele>89.5</ele><time>2026-04-25T17:08:53.491Z</time></trkpt><trkpt lat="45.3460084" lon="8.8894019"><ele>89.25</ele><time>2026-04-25T17:08:54.491Z</time></trkpt><trkpt lat="45.3461096" lon="8.8895352"><ele>89.0</ele><time>2026-04-25T17:08:55.49Z</time></trkpt><trkpt lat="45.3462103" lon="8.8896731"><ele>89.0</ele><time>2026-04-25T17:08:56.491Z</time></trkpt><trkpt lat="45.3463135" lon="8.8898052"><ele>89.0</ele><time>2026-04-25T17:08:57.491Z</time></trkpt><trkpt lat="45.3464148" lon="8.8899329"><ele>89.0</ele><time>2026-04-25T17:08:58.49Z</time></trkpt><trkpt lat="45.3465189" lon="8.8900689"><ele>89.0</ele><time>2026-04-25T17:08:59.491Z</time></trkpt><trkpt lat="45.3466213" lon="8.8901995"><ele>89.25</ele><time>2026-04-25T17:09:00.491Z</time></trkpt><trkpt lat="45.3467211" lon="8.8903327"><ele>89.5</ele><time>2026-04-25T17:09:01.49Z</time></trkpt><trkpt lat="45.3468181" lon="8.8904627"><ele>89.75</ele><time>2026-04-25T17:09:02.49Z</time></trkpt><trkpt lat="45.3469211" lon="8.8905932"><ele>90.0</ele><time>2026-04-25T17:09:03.491Z</time></trkpt><trkpt lat="45.3470226" lon="8.8907218"><ele>90.0</ele><time>2026-04-25T17:09:04.49Z</time></trkpt><trkpt lat="45.3471227" lon="8.8908467"><ele>90.0</ele><time>2026-04-25T17:09:05.49Z</time></trkpt><trkpt lat="45.3472224" lon="8.8909711"><ele>90.0</ele><time>2026-04-25T17:09:06.49Z</time></trkpt><trkpt lat="45.3473226" lon="8.8910887"><ele>90.0</ele><time>2026-04-25T17:09:07.49Z</time></trkpt><trkpt lat="45.3474194" lon="8.8912129"><ele>89.25</ele><time>2026-04-25T17:09:08.491Z</time></trkpt><trkpt lat="45.3475191" lon="8.8913348"><ele>88.5</ele><time>2026-04-25T17:09:09.491Z</time></trkpt><trkpt lat="45.3476177" lon="8.8914545"><ele>87.75</ele><time>2026-04-25T17:09:10.49Z</time></trkpt><trkpt lat="45.347715" lon="8.8915757"><ele>87.0</ele><time>2026-04-25T17:09:11.491Z</time></trkpt><trkpt lat="45.3478132" lon="8.8916993"><ele>86.75</ele><time>2026-04-25T17:09:12.491Z</time></trkpt><trkpt lat="45.3479044" lon="8.8918218"><ele>86.5</ele><time>2026-04-25T17:09:13.49Z</time></trkpt><trkpt lat="45.3479897" lon="8.8919561"><ele>86.25</ele><time>2026-04-25T17:09:14.49Z</time></trkpt><trkpt lat="45.3480708" lon="8.8921045"><ele>86.0</ele><time>2026-04-25T17:09:15.491Z</time></trkpt><trkpt lat="45.3481396" lon="8.8922588"><ele>86.25</ele><time>2026-04-25T17:09:16.491Z</time></trkpt><trkpt lat="45.3481997" lon="8.8924277"><ele>86.5</ele><time>2026-04-25T17:09:17.49Z</time></trkpt><trkpt lat="45.3482535" lon="8.8926059"><ele>86.75</ele><time>2026-04-25T17:09:18.491Z</time></trkpt><trkpt lat="45.3483058" lon="8.8927898"><ele>87.0</ele><time>2026-04-25T17:09:19.49Z</time></trkpt><trkpt lat="45.3483553" lon="8.8929724"><ele>87.0</ele><time>2026-04-25T17:09:20.491Z</time></trkpt><trkpt lat="45.3484072" lon="8.8931626"><ele>87.0</ele><time>2026-04-25T17:09:21.491Z</time></trkpt><trkpt lat="45.3484609" lon="8.8933584"><ele>87.0</ele><time>2026-04-25T17:09:22.491Z</time></trkpt><trkpt lat="45.3485091" lon="8.8935571"><ele>87.0</ele><time>2026-04-25T17:09:23.49Z</time></trkpt><trkpt lat="45.3485585" lon="8.8937548"><ele>86.5</ele><time>2026-04-25T17:09:24.491Z</time></trkpt><trkpt lat="45.3486092" lon="8.8939516"><ele>86.0</ele><time>2026-04-25T17:09:25.49Z</time></trkpt><trkpt lat="45.3486575" lon="8.8941497"><ele>85.5</ele><time>2026-04-25T17:09:26.491Z</time></trkpt><trkpt lat="45.348706" lon="8.8943447"><ele>85.0</ele><time>2026-04-25T17:09:27.491Z</time></trkpt><trkpt lat="45.3487599" lon="8.8945377"><ele>85.5</ele><time>2026-04-25T17:09:28.491Z</time></trkpt><trkpt lat="45.34881" lon="8.8947313"><ele>86.0</ele><time>2026-04-25T17:09:29.49Z</time></trkpt><trkpt lat="45.348863" lon="8.8949235"><ele>86.5</ele><time>2026-04-25T17:09:30.491Z</time></trkpt><trkpt lat="45.3489139" lon="8.8951175"><ele>87.0</ele><time>2026-04-25T17:09:31.491Z</time></trkpt><trkpt lat="45.3489658" lon="8.8953135"><ele>87.0</ele><time>2026-04-25T17:09:32.49Z</time></trkpt><trkpt lat="45.3490228" lon="8.8955237"><ele>87.0</ele><time>2026-04-25T17:09:33.49Z</time></trkpt><trkpt lat="45.3490821" lon="8.895744"><ele>87.0</ele><time>2026-04-25T17:09:34.491Z</time></trkpt><trkpt lat="45.3491432" lon="8.8959738"><ele>86.66666666666667</ele><time>2026-04-25T17:09:35.491Z</time></trkpt><trkpt lat="45.3492062" lon="8.8962055"><ele>86.33333333333334</ele><time>2026-04-25T17:09:36.491Z</time></trkpt><trkpt lat="45.3492655" lon="8.8964265"><ele>86.0</ele><time>2026-04-25T17:09:37.491Z</time></trkpt><trkpt lat="45.349326" lon="8.896647"><ele>86.0</ele><time>2026-04-25T17:09:38.491Z</time></trkpt><trkpt lat="45.3493833" lon="8.8968659"><ele>86.0</ele><time>2026-04-25T17:09:39.491Z</time></trkpt><trkpt lat="45.3494439" lon="8.8970827"><ele>86.0</ele><time>2026-04-25T17:09:40.49Z</time></trkpt><trkpt lat="45.3494983" lon="8.8972981"><ele>86.0</ele><time>2026-04-25T17:09:41.491Z</time></trkpt><trkpt lat="45.3495543" lon="8.8975111"><ele>86.0</ele><time>2026-04-25T17:09:42.491Z</time></trkpt><trkpt lat="45.3496125" lon="8.8977262"><ele>86.0</ele><time>2026-04-25T17:09:43.49Z</time></trkpt><trkpt lat="45.3496745" lon="8.8979466"><ele>85.66666666666667</ele><time>2026-04-25T17:09:44.491Z</time></trkpt><trkpt lat="45.3497351" lon="8.8981755"><ele>85.33333333333333</ele><time>2026-04-25T17:09:45.49Z</time></trkpt><trkpt lat="45.3498001" lon="8.898409"><ele>85.0</ele><time>2026-04-25T17:09:46.491Z</time></trkpt><trkpt lat="45.3498608" lon="8.8986359"><ele>85.0</ele><time>2026-04-25T17:09:47.491Z</time></trkpt><trkpt lat="45.3499234" lon="8.898864"><ele>85.0</ele><time>2026-04-25T17:09:48.49Z</time></trkpt><trkpt lat="45.3499845" lon="8.8990924"><ele>85.0</ele><time>2026-04-25T17:09:49.491Z</time></trkpt><trkpt lat="45.3500476" lon="8.8993187"><ele>84.66666666666666</ele><time>2026-04-25T17:09:50.491Z</time></trkpt><trkpt lat="45.3501093" lon="8.8995432"><ele>84.33333333333333</ele><time>2026-04-25T17:09:51.49Z</time></trkpt><trkpt lat="45.3501663" lon="8.8997665"><ele>84.0</ele><time>2026-04-25T17:09:52.491Z</time></trkpt><trkpt lat="45.350224" lon="8.8999897"><ele>84.0</ele><time>2026-04-25T17:09:53.491Z</time></trkpt><trkpt lat="45.3502831" lon="8.9002131"><ele>84.0</ele><time>2026-04-25T17:09:54.491Z</time></trkpt><trkpt lat="45.3503472" lon="8.9004412"><ele>84.0</ele><time>2026-04-25T17:09:55.491Z</time></trkpt><trkpt lat="45.3504083" lon="8.9006601"><ele>84.0</ele><time>2026-04-25T17:09:56.491Z</time></trkpt><trkpt lat="45.3504694" lon="8.9008735"><ele>84.0</ele><time>2026-04-25T17:09:57.491Z</time></trkpt><trkpt lat="45.3505305" lon="8.9010913"><ele>84.0</ele><time>2026-04-25T17:09:58.491Z</time></trkpt><trkpt lat="45.3505902" lon="8.9013098"><ele>84.33333333333333</ele><time>2026-04-25T17:09:59.491Z</time></trkpt><trkpt lat="45.3506428" lon="8.9015237"><ele>84.66666666666666</ele><time>2026-04-25T17:10:00.491Z</time></trkpt><trkpt lat="45.3507004" lon="8.9017331"><ele>85.0</ele><time>2026-04-25T17:10:01.491Z</time></trkpt><trkpt lat="45.3507555" lon="8.9019438"><ele>85.0</ele><time>2026-04-25T17:10:02.49Z</time></trkpt><trkpt lat="45.3508081" lon="8.9021505"><ele>85.0</ele><time>2026-04-25T17:10:03.491Z</time></trkpt><trkpt lat="45.35086" lon="8.9023553"><ele>85.0</ele><time>2026-04-25T17:10:04.491Z</time></trkpt><trkpt lat="45.3509156" lon="8.9025633"><ele>85.33333333333333</ele><time>2026-04-25T17:10:05.491Z</time></trkpt><trkpt lat="45.3509725" lon="8.9027672"><ele>85.66666666666667</ele><time>2026-04-25T17:10:06.491Z</time></trkpt><trkpt lat="45.3510289" lon="8.9029762"><ele>86.0</ele><time>2026-04-25T17:10:07.49Z</time></trkpt><trkpt lat="45.351077" lon="8.9031831"><ele>86.0</ele><time>2026-04-25T17:10:08.49Z</time></trkpt><trkpt lat="45.3511297" lon="8.9033901"><ele>86.0</ele><time>2026-04-25T17:10:09.491Z</time></trkpt><trkpt lat="45.3511866" lon="8.9035963"><ele>86.0</ele><time>2026-04-25T17:10:10.491Z</time></trkpt><trkpt lat="45.3512366" lon="8.9037937"><ele>86.0</ele><time>2026-04-25T17:10:11.491Z</time></trkpt><trkpt lat="45.3512924" lon="8.903997"><ele>86.0</ele><time>2026-04-25T17:10:12.49Z</time></trkpt><trkpt lat="45.3513484" lon="8.9042003"><ele>86.0</ele><time>2026-04-25T17:10:13.49Z</time></trkpt><trkpt lat="45.3514045" lon="8.9044049"><ele>86.0</ele><time>2026-04-25T17:10:14.491Z</time></trkpt><trkpt lat="45.3514581" lon="8.9046088"><ele>86.0</ele><time>2026-04-25T17:10:15.49Z</time></trkpt><trkpt lat="45.3515109" lon="8.9048084"><ele>86.0</ele><time>2026-04-25T17:10:16.491Z</time></trkpt><trkpt lat="45.3515619" lon="8.9049927"><ele>86.0</ele><time>2026-04-25T17:10:17.49Z</time></trkpt><trkpt lat="45.351614" lon="8.9051831"><ele>86.0</ele><time>2026-04-25T17:10:18.491Z</time></trkpt><trkpt lat="45.3516616" lon="8.905375"><ele>86.0</ele><time>2026-04-25T17:10:19.49Z</time></trkpt><trkpt lat="45.3517126" lon="8.9055655"><ele>86.0</ele><time>2026-04-25T17:10:20.491Z</time></trkpt><trkpt lat="45.3517666" lon="8.905753"><ele>86.0</ele><time>2026-04-25T17:10:21.491Z</time></trkpt><trkpt lat="45.351819" lon="8.905937"><ele>86.0</ele><time>2026-04-25T17:10:22.491Z</time></trkpt><trkpt lat="45.3518784" lon="8.9061172"><ele>86.0</ele><time>2026-04-25T17:10:23.491Z</time></trkpt><trkpt lat="45.3519457" lon="8.9062975"><ele>86.0</ele><time>2026-04-25T17:10:24.49Z</time></trkpt><trkpt lat="45.3520231" lon="8.9064734"><ele>86.0</ele><time>2026-04-25T17:10:25.491Z</time></trkpt><trkpt lat="45.3521073" lon="8.9066423"><ele>86.0</ele><time>2026-04-25T17:10:26.491Z</time></trkpt><trkpt lat="45.3522011" lon="8.9068072"><ele>86.0</ele><time>2026-04-25T17:10:27.491Z</time></trkpt><trkpt lat="45.3522986" lon="8.9069691"><ele>86.0</ele><time>2026-04-25T17:10:28.491Z</time></trkpt><trkpt lat="45.3523997" lon="8.9071178"><ele>86.0</ele><time>2026-04-25T17:10:29.49Z</time></trkpt><trkpt lat="45.352513" lon="8.9072599"><ele>86.25</ele><time>2026-04-25T17:10:30.491Z</time></trkpt><trkpt lat="45.3526332" lon="8.9073948"><ele>86.5</ele><time>2026-04-25T17:10:31.491Z</time></trkpt><trkpt lat="45.352754" lon="8.9075201"><ele>86.75</ele><time>2026-04-25T17:10:32.491Z</time></trkpt><trkpt lat="45.35287" lon="8.9076357"><ele>87.0</ele><time>2026-04-25T17:10:33.491Z</time></trkpt><trkpt lat="45.3529875" lon="8.9077429"><ele>87.25</ele><time>2026-04-25T17:10:34.491Z</time></trkpt><trkpt lat="45.3531125" lon="8.9078376"><ele>87.5</ele><time>2026-04-25T17:10:35.49Z</time></trkpt><trkpt lat="45.353237" lon="8.9079148"><ele>87.75</ele><time>2026-04-25T17:10:36.491Z</time></trkpt><trkpt lat="45.353367" lon="8.9079897"><ele>88.0</ele><time>2026-04-25T17:10:37.49Z</time></trkpt><trkpt lat="45.3534945" lon="8.9080558"><ele>88.0</ele><time>2026-04-25T17:10:38.491Z</time></trkpt><trkpt lat="45.3536243" lon="8.9081124"><ele>88.0</ele><time>2026-04-25T17:10:39.49Z</time></trkpt><trkpt lat="45.3537601" lon="8.9081584"><ele>88.0</ele><time>2026-04-25T17:10:40.491Z</time></trkpt><trkpt lat="45.3538968" lon="8.9081946"><ele>88.0</ele><time>2026-04-25T17:10:41.491Z</time></trkpt><trkpt lat="45.3540336" lon="8.9082241"><ele>87.75</ele><time>2026-04-25T17:10:42.491Z</time></trkpt><trkpt lat="45.3541707" lon="8.9082508"><ele>87.5</ele><time>2026-04-25T17:10:43.49Z</time></trkpt><trkpt lat="45.3543122" lon="8.9082758"><ele>87.25</ele><time>2026-04-25T17:10:44.49Z</time></trkpt><trkpt lat="45.3544521" lon="8.9082976"><ele>87.0</ele><time>2026-04-25T17:10:45.491Z</time></trkpt><trkpt lat="45.3545846" lon="8.9083151"><ele>87.0</ele><time>2026-04-25T17:10:46.49Z</time></trkpt><trkpt lat="45.3547162" lon="8.9083299"><ele>87.0</ele><time>2026-04-25T17:10:47.49Z</time></trkpt><trkpt lat="45.3548445" lon="8.9083453"><ele>87.0</ele><time>2026-04-25T17:10:48.49Z</time></trkpt><trkpt lat="45.3549624" lon="8.9083556"><ele>87.0</ele><time>2026-04-25T17:10:49.491Z</time></trkpt><trkpt lat="45.3550764" lon="8.9083687"><ele>87.0</ele><time>2026-04-25T17:10:50.491Z</time></trkpt><trkpt lat="45.3551869" lon="8.9083809"><ele>87.0</ele><time>2026-04-25T17:10:51.491Z</time></trkpt><trkpt lat="45.3552986" lon="8.9083951"><ele>87.0</ele><time>2026-04-25T17:10:52.491Z</time></trkpt><trkpt lat="45.3554143" lon="8.9084075"><ele>87.0</ele><time>2026-04-25T17:10:53.49Z</time></trkpt><trkpt lat="45.3555282" lon="8.9084213"><ele>87.0</ele><time>2026-04-25T17:10:54.491Z</time></trkpt><trkpt lat="45.3556431" lon="8.9084358"><ele>87.0</ele><time>2026-04-25T17:10:55.491Z</time></trkpt><trkpt lat="45.3557589" lon="8.9084542"><ele>87.0</ele><time>2026-04-25T17:10:56.49Z</time></trkpt><trkpt lat="45.3558792" lon="8.9084723"><ele>87.0</ele><time>2026-04-25T17:10:57.491Z</time></trkpt><trkpt lat="45.355998" lon="8.9084901"><ele>87.0</ele><time>2026-04-25T17:10:58.491Z</time></trkpt><trkpt lat="45.3561149" lon="8.9085097"><ele>87.0</ele><time>2026-04-25T17:10:59.491Z</time></trkpt><trkpt lat="45.3562354" lon="8.9085282"><ele>87.0</ele><time>2026-04-25T17:11:00.491Z</time></trkpt><trkpt lat="45.3563495" lon="8.9085414"><ele>87.0</ele><time>2026-04-25T17:11:01.491Z</time></trkpt><trkpt lat="45.3564601" lon="8.9085596"><ele>87.0</ele><time>2026-04-25T17:11:02.49Z</time></trkpt><trkpt lat="45.3565684" lon="8.9085747"><ele>87.0</ele><time>2026-04-25T17:11:03.491Z</time></trkpt><trkpt lat="45.3566711" lon="8.9085863"><ele>87.0</ele><time>2026-04-25T17:11:04.491Z</time></trkpt><trkpt lat="45.3567742" lon="8.9086019"><ele>87.0</ele><time>2026-04-25T17:11:05.49Z</time></trkpt><trkpt lat="45.3568813" lon="8.9086169"><ele>87.0</ele><time>2026-04-25T17:11:06.491Z</time></trkpt><trkpt lat="45.3569959" lon="8.9086321"><ele>87.0</ele><time>2026-04-25T17:11:07.491Z</time></trkpt><trkpt lat="45.3571215" lon="8.9086504"><ele>87.0</ele><time>2026-04-25T17:11:08.49Z</time></trkpt><trkpt lat="45.3572434" lon="8.9086721"><ele>87.0</ele><time>2026-04-25T17:11:09.491Z</time></trkpt><trkpt lat="45.3573692" lon="8.9087014"><ele>87.0</ele><time>2026-04-25T17:11:10.49Z</time></trkpt><trkpt lat="45.3574883" lon="8.9087255"><ele>88.0</ele><time>2026-04-25T17:11:11.49Z</time></trkpt><trkpt lat="45.3576093" lon="8.908745"><ele>89.0</ele><time>2026-04-25T17:11:12.49Z</time></trkpt><trkpt lat="45.3577322" lon="8.9087612"><ele>90.0</ele><time>2026-04-25T17:11:13.49Z</time></trkpt><trkpt lat="45.357855" lon="8.9087788"><ele>91.0</ele><time>2026-04-25T17:11:14.491Z</time></trkpt><trkpt lat="45.3579815" lon="8.9087975"><ele>91.25</ele><time>2026-04-25T17:11:15.491Z</time></trkpt><trkpt lat="45.3581122" lon="8.9088206"><ele>91.5</ele><time>2026-04-25T17:11:16.49Z</time></trkpt><trkpt lat="45.3582362" lon="8.9088392"><ele>91.75</ele><time>2026-04-25T17:11:17.491Z</time></trkpt><trkpt lat="45.3583674" lon="8.9088593"><ele>92.0</ele><time>2026-04-25T17:11:18.49Z</time></trkpt><trkpt lat="45.3585095" lon="8.9088807"><ele>92.0</ele><time>2026-04-25T17:11:19.491Z</time></trkpt><trkpt lat="45.3586575" lon="8.9089022"><ele>92.0</ele><time>2026-04-25T17:11:20.49Z</time></trkpt><trkpt lat="45.3588095" lon="8.9089182"><ele>92.0</ele><time>2026-04-25T17:11:21.49Z</time></trkpt><trkpt lat="45.3589648" lon="8.9089401"><ele>91.66666666666667</ele><time>2026-04-25T17:11:22.491Z</time></trkpt><trkpt lat="45.3591236" lon="8.9089625"><ele>91.33333333333333</ele><time>2026-04-25T17:11:23.491Z</time></trkpt><trkpt lat="45.3592912" lon="8.9089918"><ele>91.0</ele><time>2026-04-25T17:11:24.491Z</time></trkpt><trkpt lat="45.3594602" lon="8.9090317"><ele>91.0</ele><time>2026-04-25T17:11:25.49Z</time></trkpt><trkpt lat="45.359631" lon="8.9090701"><ele>91.0</ele><time>2026-04-25T17:11:26.491Z</time></trkpt><trkpt lat="45.3597994" lon="8.9091048"><ele>91.0</ele><time>2026-04-25T17:11:27.491Z</time></trkpt><trkpt lat="45.3599646" lon="8.9091365"><ele>91.66666666666666</ele><time>2026-04-25T17:11:28.49Z</time></trkpt><trkpt lat="45.3601247" lon="8.9091638"><ele>92.33333333333333</ele><time>2026-04-25T17:11:29.491Z</time></trkpt><trkpt lat="45.3602801" lon="8.9091876"><ele>93.0</ele><time>2026-04-25T17:11:30.49Z</time></trkpt><trkpt lat="45.360432" lon="8.9092116"><ele>93.33333333333333</ele><time>2026-04-25T17:11:31.49Z</time></trkpt><trkpt lat="45.3605825" lon="8.9092359"><ele>93.66666666666666</ele><time>2026-04-25T17:11:32.491Z</time></trkpt><trkpt lat="45.3607368" lon="8.909258"><ele>94.0</ele><time>2026-04-25T17:11:33.491Z</time></trkpt><trkpt lat="45.3608901" lon="8.9092844"><ele>94.33333333333333</ele><time>2026-04-25T17:11:34.491Z</time></trkpt><trkpt lat="45.3610433" lon="8.90931"><ele>94.66666666666667</ele><time>2026-04-25T17:11:35.491Z</time></trkpt><trkpt lat="45.3612008" lon="8.9093337"><ele>95.0</ele><time>2026-04-25T17:11:36.491Z</time></trkpt><trkpt lat="45.3613585" lon="8.9093549"><ele>93.66666666666667</ele><time>2026-04-25T17:11:37.491Z</time></trkpt><trkpt lat="45.3615117" lon="8.9093796"><ele>92.33333333333333</ele><time>2026-04-25T17:11:38.49Z</time></trkpt><trkpt lat="45.3616697" lon="8.9094008"><ele>91.0</ele><time>2026-04-25T17:11:39.491Z</time></trkpt><trkpt lat="45.3618296" lon="8.9094244"><ele>91.0</ele><time>2026-04-25T17:11:40.49Z</time></trkpt><trkpt lat="45.3619922" lon="8.9094445"><ele>91.0</ele><time>2026-04-25T17:11:41.491Z</time></trkpt><trkpt lat="45.3621544" lon="8.9094678"><ele>91.0</ele><time>2026-04-25T17:11:42.491Z</time></trkpt><trkpt lat="45.362316" lon="8.9094921"><ele>90.66666666666666</ele><time>2026-04-25T17:11:43.49Z</time></trkpt><trkpt lat="45.3624753" lon="8.9095166"><ele>90.33333333333333</ele><time>2026-04-25T17:11:44.49Z</time></trkpt><trkpt lat="45.3626367" lon="8.9095399"><ele>90.0</ele><time>2026-04-25T17:11:45.491Z</time></trkpt><trkpt lat="45.3627994" lon="8.9095615"><ele>90.0</ele><time>2026-04-25T17:11:46.491Z</time></trkpt><trkpt lat="45.3629642" lon="8.9095826"><ele>90.0</ele><time>2026-04-25T17:11:47.491Z</time></trkpt><trkpt lat="45.3631272" lon="8.9096104"><ele>90.0</ele><time>2026-04-25T17:11:48.491Z</time></trkpt><trkpt lat="45.3632941" lon="8.909641"><ele>90.66666666666667</ele><time>2026-04-25T17:11:49.491Z</time></trkpt><trkpt lat="45.363462" lon="8.9096692"><ele>91.33333333333334</ele><time>2026-04-25T17:11:50.491Z</time></trkpt><trkpt lat="45.3636344" lon="8.9097023"><ele>92.0</ele><time>2026-04-25T17:11:51.49Z</time></trkpt><trkpt lat="45.3638093" lon="8.909728"><ele>92.0</ele><time>2026-04-25T17:11:52.491Z</time></trkpt><trkpt lat="45.3639839" lon="8.9097535"><ele>92.0</ele><time>2026-04-25T17:11:53.49Z</time></trkpt><trkpt lat="45.3641573" lon="8.9097783"><ele>92.0</ele><time>2026-04-25T17:11:54.491Z</time></trkpt><trkpt lat="45.3643297" lon="8.9098038"><ele>92.0</ele><time>2026-04-25T17:11:55.49Z</time></trkpt><trkpt lat="45.3644985" lon="8.9098272"><ele>92.0</ele><time>2026-04-25T17:11:56.491Z</time></trkpt><trkpt lat="45.3646704" lon="8.9098532"><ele>92.0</ele><time>2026-04-25T17:11:57.491Z</time></trkpt><trkpt lat="45.3648402" lon="8.909878"><ele>92.0</ele><time>2026-04-25T17:11:58.491Z</time></trkpt><trkpt lat="45.3650127" lon="8.9099045"><ele>92.0</ele><time>2026-04-25T17:11:59.491Z</time></trkpt><trkpt lat="45.3651881" lon="8.909934"><ele>92.0</ele><time>2026-04-25T17:12:00.49Z</time></trkpt><trkpt lat="45.3653622" lon="8.9099628"><ele>92.66666666666667</ele><time>2026-04-25T17:12:01.491Z</time></trkpt><trkpt lat="45.3655325" lon="8.909989"><ele>93.33333333333333</ele><time>2026-04-25T17:12:02.491Z</time></trkpt><trkpt lat="45.365707" lon="8.9100132"><ele>94.0</ele><time>2026-04-25T17:12:03.491Z</time></trkpt><trkpt lat="45.3658862" lon="8.9100424"><ele>94.0</ele><time>2026-04-25T17:12:04.49Z</time></trkpt><trkpt lat="45.366066" lon="8.9100681"><ele>94.0</ele><time>2026-04-25T17:12:05.491Z</time></trkpt><trkpt lat="45.3662445" lon="8.9100967"><ele>94.0</ele><time>2026-04-25T17:12:06.491Z</time></trkpt><trkpt lat="45.3664247" lon="8.9101247"><ele>94.66666666666666</ele><time>2026-04-25T17:12:07.491Z</time></trkpt><trkpt lat="45.366599" lon="8.9101513"><ele>95.33333333333333</ele><time>2026-04-25T17:12:08.491Z</time></trkpt><trkpt lat="45.3667768" lon="8.9101818"><ele>96.0</ele><time>2026-04-25T17:12:09.491Z</time></trkpt><trkpt lat="45.3669518" lon="8.9102077"><ele>96.0</ele><time>2026-04-25T17:12:10.49Z</time></trkpt><trkpt lat="45.3671255" lon="8.9102353"><ele>96.0</ele><time>2026-04-25T17:12:11.491Z</time></trkpt><trkpt lat="45.3672996" lon="8.9102669"><ele>96.0</ele><time>2026-04-25T17:12:12.491Z</time></trkpt><trkpt lat="45.3674769" lon="8.9102928"><ele>96.33333333333334</ele><time>2026-04-25T17:12:13.49Z</time></trkpt><trkpt lat="45.3676471" lon="8.9103171"><ele>96.66666666666667</ele><time>2026-04-25T17:12:14.49Z</time></trkpt><trkpt lat="45.3678219" lon="8.9103406"><ele>97.0</ele><time>2026-04-25T17:12:15.491Z</time></trkpt><trkpt lat="45.3679931" lon="8.9103639"><ele>96.66666666666667</ele><time>2026-04-25T17:12:16.491Z</time></trkpt><trkpt lat="45.3681593" lon="8.9103876"><ele>96.33333333333334</ele><time>2026-04-25T17:12:17.491Z</time></trkpt><trkpt lat="45.3683273" lon="8.9104099"><ele>96.0</ele><time>2026-04-25T17:12:18.491Z</time></trkpt><trkpt lat="45.3684904" lon="8.9104341"><ele>96.0</ele><time>2026-04-25T17:12:19.491Z</time></trkpt><trkpt lat="45.3686522" lon="8.9104597"><ele>96.0</ele><time>2026-04-25T17:12:20.491Z</time></trkpt><trkpt lat="45.368815" lon="8.9104843"><ele>96.0</ele><time>2026-04-25T17:12:21.491Z</time></trkpt><trkpt lat="45.3689816" lon="8.9105077"><ele>96.0</ele><time>2026-04-25T17:12:22.491Z</time></trkpt><trkpt lat="45.3691467" lon="8.9105295"><ele>96.0</ele><time>2026-04-25T17:12:23.491Z</time></trkpt><trkpt lat="45.3693125" lon="8.9105521"><ele>96.0</ele><time>2026-04-25T17:12:24.491Z</time></trkpt><trkpt lat="45.369478" lon="8.9105771"><ele>96.0</ele><time>2026-04-25T17:12:25.491Z</time></trkpt><trkpt lat="45.3696395" lon="8.9105959"><ele>96.0</ele><time>2026-04-25T17:12:26.49Z</time></trkpt><trkpt lat="45.3698017" lon="8.9106196"><ele>96.0</ele><time>2026-04-25T17:12:27.491Z</time></trkpt><trkpt lat="45.3699659" lon="8.9106359"><ele>96.33333333333334</ele><time>2026-04-25T17:12:28.49Z</time></trkpt><trkpt lat="45.3701319" lon="8.9106606"><ele>96.66666666666667</ele><time>2026-04-25T17:12:29.49Z</time></trkpt><trkpt lat="45.3702941" lon="8.9106794"><ele>97.0</ele><time>2026-04-25T17:12:30.49Z</time></trkpt><trkpt lat="45.3704564" lon="8.9107015"><ele>96.66666666666667</ele><time>2026-04-25T17:12:31.49Z</time></trkpt><trkpt lat="45.3706216" lon="8.9107264"><ele>96.33333333333334</ele><time>2026-04-25T17:12:32.49Z</time></trkpt><trkpt lat="45.3707847" lon="8.91075"><ele>96.0</ele><time>2026-04-25T17:12:33.491Z</time></trkpt><trkpt lat="45.3709462" lon="8.9107724"><ele>96.0</ele><time>2026-04-25T17:12:34.491Z</time></trkpt><trkpt lat="45.3711103" lon="8.9107932"><ele>96.0</ele><time>2026-04-25T17:12:35.491Z</time></trkpt><trkpt lat="45.3712704" lon="8.9108113"><ele>96.0</ele><time>2026-04-25T17:12:36.491Z</time></trkpt><trkpt lat="45.3714334" lon="8.9108365"><ele>96.33333333333334</ele><time>2026-04-25T17:12:37.491Z</time></trkpt><trkpt lat="45.3715976" lon="8.9108593"><ele>96.66666666666667</ele><time>2026-04-25T17:12:38.49Z</time></trkpt><trkpt lat="45.3717652" lon="8.910884"><ele>97.0</ele><time>2026-04-25T17:12:39.491Z</time></trkpt><trkpt lat="45.3719328" lon="8.9109147"><ele>97.0</ele><time>2026-04-25T17:12:40.491Z</time></trkpt><trkpt lat="45.3721008" lon="8.9109395"><ele>97.0</ele><time>2026-04-25T17:12:41.491Z</time></trkpt><trkpt lat="45.3722725" lon="8.9109627"><ele>97.0</ele><time>2026-04-25T17:12:42.491Z</time></trkpt><trkpt lat="45.3724459" lon="8.9109875"><ele>96.33333333333334</ele><time>2026-04-25T17:12:43.49Z</time></trkpt><trkpt lat="45.3726205" lon="8.9110104"><ele>95.66666666666667</ele><time>2026-04-25T17:12:44.491Z</time></trkpt><trkpt lat="45.3727894" lon="8.9110338"><ele>95.0</ele><time>2026-04-25T17:12:45.49Z</time></trkpt><trkpt lat="45.3729497" lon="8.9110575"><ele>95.5</ele><time>2026-04-25T17:12:46.491Z</time></trkpt><trkpt lat="45.3731052" lon="8.9110817"><ele>96.0</ele><time>2026-04-25T17:12:47.49Z</time></trkpt><trkpt lat="45.3732501" lon="8.9110977"><ele>96.5</ele><time>2026-04-25T17:12:48.491Z</time></trkpt><trkpt lat="45.3733949" lon="8.911116"><ele>97.0</ele><time>2026-04-25T17:12:49.49Z</time></trkpt><trkpt lat="45.3735462" lon="8.9111351"><ele>97.0</ele><time>2026-04-25T17:12:50.491Z</time></trkpt><trkpt lat="45.3736975" lon="8.9111544"><ele>97.0</ele><time>2026-04-25T17:12:51.491Z</time></trkpt><trkpt lat="45.373853" lon="8.911173"><ele>97.0</ele><time>2026-04-25T17:12:52.491Z</time></trkpt><trkpt lat="45.3740067" lon="8.9111927"><ele>97.0</ele><time>2026-04-25T17:12:53.491Z</time></trkpt><trkpt lat="45.3741593" lon="8.9112166"><ele>97.0</ele><time>2026-04-25T17:12:54.49Z</time></trkpt><trkpt lat="45.374306" lon="8.9112483"><ele>97.0</ele><time>2026-04-25T17:12:55.49Z</time></trkpt><trkpt lat="45.3744416" lon="8.9112858"><ele>97.0</ele><time>2026-04-25T17:12:56.491Z</time></trkpt><trkpt lat="45.3745695" lon="8.9113218"><ele>97.25</ele><time>2026-04-25T17:12:57.491Z</time></trkpt><trkpt lat="45.3746951" lon="8.9113641"><ele>97.5</ele><time>2026-04-25T17:12:58.491Z</time></trkpt><trkpt lat="45.3748214" lon="8.9114146"><ele>97.75</ele><time>2026-04-25T17:12:59.491Z</time></trkpt><trkpt lat="45.3749448" lon="8.9114752"><ele>98.0</ele><time>2026-04-25T17:13:00.491Z</time></trkpt><trkpt lat="45.3750611" lon="8.911536"><ele>98.0</ele><time>2026-04-25T17:13:01.491Z</time></trkpt><trkpt lat="45.3751761" lon="8.9116078"><ele>98.0</ele><time>2026-04-25T17:13:02.491Z</time></trkpt><trkpt lat="45.3752977" lon="8.9116788"><ele>98.0</ele><time>2026-04-25T17:13:03.491Z</time></trkpt><trkpt lat="45.3754169" lon="8.9117549"><ele>98.0</ele><time>2026-04-25T17:13:04.49Z</time></trkpt><trkpt lat="45.3755376" lon="8.9118321"><ele>99.25</ele><time>2026-04-25T17:13:05.491Z</time></trkpt><trkpt lat="45.375659" lon="8.9119126"><ele>100.5</ele><time>2026-04-25T17:13:06.491Z</time></trkpt><trkpt lat="45.3757849" lon="8.911992"><ele>101.75</ele><time>2026-04-25T17:13:07.491Z</time></trkpt><trkpt lat="45.3759101" lon="8.9120764"><ele>103.0</ele><time>2026-04-25T17:13:08.491Z</time></trkpt><trkpt lat="45.3760357" lon="8.9121613"><ele>103.0</ele><time>2026-04-25T17:13:09.49Z</time></trkpt><trkpt lat="45.3761613" lon="8.9122389"><ele>103.0</ele><time>2026-04-25T17:13:10.491Z</time></trkpt><trkpt lat="45.3762843" lon="8.9123176"><ele>103.0</ele><time>2026-04-25T17:13:11.491Z</time></trkpt><trkpt lat="45.3764095" lon="8.9123958"><ele>103.0</ele><time>2026-04-25T17:13:12.491Z</time></trkpt><trkpt lat="45.3765369" lon="8.9124758"><ele>103.5</ele><time>2026-04-25T17:13:13.491Z</time></trkpt><trkpt lat="45.376663" lon="8.9125551"><ele>104.0</ele><time>2026-04-25T17:13:14.49Z</time></trkpt><trkpt lat="45.3767853" lon="8.9126334"><ele>104.5</ele><time>2026-04-25T17:13:15.49Z</time></trkpt><trkpt lat="45.3769167" lon="8.912712"><ele>105.0</ele><time>2026-04-25T17:13:16.491Z</time></trkpt><trkpt lat="45.3770502" lon="8.9127911"><ele>105.75</ele><time>2026-04-25T17:13:17.491Z</time></trkpt><trkpt lat="45.3771856" lon="8.9128648"><ele>106.5</ele><time>2026-04-25T17:13:18.491Z</time></trkpt><trkpt lat="45.3773302" lon="8.9129408"><ele>107.25</ele><time>2026-04-25T17:13:19.491Z</time></trkpt><trkpt lat="45.3774707" lon="8.9130088"><ele>108.0</ele><time>2026-04-25T17:13:20.491Z</time></trkpt><trkpt lat="45.3776172" lon="8.9130793"><ele>108.0</ele><time>2026-04-25T17:13:21.491Z</time></trkpt><trkpt lat="45.3777659" lon="8.9131513"><ele>108.0</ele><time>2026-04-25T17:13:22.49Z</time></trkpt><trkpt lat="45.3779146" lon="8.9132224"><ele>108.0</ele><time>2026-04-25T17:13:23.491Z</time></trkpt><trkpt lat="45.3780664" lon="8.9132899"><ele>107.33333333333334</ele><time>2026-04-25T17:13:24.491Z</time></trkpt><trkpt lat="45.3782198" lon="8.9133554"><ele>106.66666666666667</ele><time>2026-04-25T17:13:25.49Z</time></trkpt><trkpt lat="45.3783707" lon="8.9134155"><ele>106.0</ele><time>2026-04-25T17:13:26.491Z</time></trkpt><trkpt lat="45.3785251" lon="8.9134775"><ele>106.0</ele><time>2026-04-25T17:13:27.491Z</time></trkpt><trkpt lat="45.3786804" lon="8.9135428"><ele>106.0</ele><time>2026-04-25T17:13:28.49Z</time></trkpt><trkpt lat="45.3788385" lon="8.9136065"><ele>106.0</ele><time>2026-04-25T17:13:29.49Z</time></trkpt><trkpt lat="45.3789983" lon="8.9136746"><ele>106.66666666666667</ele><time>2026-04-25T17:13:30.49Z</time></trkpt><trkpt lat="45.379157" lon="8.9137422"><ele>107.33333333333334</ele><time>2026-04-25T17:13:31.491Z</time></trkpt><trkpt lat="45.3793208" lon="8.9138088"><ele>108.0</ele><time>2026-04-25T17:13:32.49Z</time></trkpt><trkpt lat="45.3794848" lon="8.913872"><ele>108.0</ele><time>2026-04-25T17:13:33.491Z</time></trkpt><trkpt lat="45.3796468" lon="8.9139375"><ele>108.0</ele><time>2026-04-25T17:13:34.491Z</time></trkpt><trkpt lat="45.3798099" lon="8.9140086"><ele>108.0</ele><time>2026-04-25T17:13:35.491Z</time></trkpt><trkpt lat="45.3799748" lon="8.9140792"><ele>108.0</ele><time>2026-04-25T17:13:36.491Z</time></trkpt><trkpt lat="45.3801405" lon="8.914152"><ele>108.0</ele><time>2026-04-25T17:13:37.491Z</time></trkpt><trkpt lat="45.3803034" lon="8.9142229"><ele>108.0</ele><time>2026-04-25T17:13:38.491Z</time></trkpt><trkpt lat="45.3804667" lon="8.9142948"><ele>108.33333333333334</ele><time>2026-04-25T17:13:39.491Z</time></trkpt><trkpt lat="45.3806328" lon="8.9143664"><ele>108.66666666666667</ele><time>2026-04-25T17:13:40.491Z</time></trkpt><trkpt lat="45.3807992" lon="8.9144412"><ele>109.0</ele><time>2026-04-25T17:13:41.49Z</time></trkpt><trkpt lat="45.3809647" lon="8.9145099"><ele>109.0</ele><time>2026-04-25T17:13:42.491Z</time></trkpt><trkpt lat="45.3811272" lon="8.9145819"><ele>109.0</ele><time>2026-04-25T17:13:43.491Z</time></trkpt><trkpt lat="45.3812928" lon="8.9146516"><ele>109.0</ele><time>2026-04-25T17:13:44.49Z</time></trkpt><trkpt lat="45.3814629" lon="8.9147229"><ele>108.33333333333334</ele><time>2026-04-25T17:13:45.49Z</time></trkpt><trkpt lat="45.3816252" lon="8.9147906"><ele>107.66666666666666</ele><time>2026-04-25T17:13:46.491Z</time></trkpt><trkpt lat="45.3817868" lon="8.9148633"><ele>107.0</ele><time>2026-04-25T17:13:47.49Z</time></trkpt><trkpt lat="45.3819317" lon="8.9149236"><ele>107.0</ele><time>2026-04-25T17:13:48.491Z</time></trkpt><trkpt lat="45.3820686" lon="8.9149864"><ele>107.0</ele><time>2026-04-25T17:13:49.491Z</time></trkpt><trkpt lat="45.3821998" lon="8.9150433"><ele>107.0</ele><time>2026-04-25T17:13:50.491Z</time></trkpt><trkpt lat="45.3823314" lon="8.9150983"><ele>107.0</ele><time>2026-04-25T17:13:51.49Z</time></trkpt><trkpt lat="45.3824585" lon="8.9151523"><ele>107.75</ele><time>2026-04-25T17:13:52.491Z</time></trkpt><trkpt lat="45.3825799" lon="8.9152067"><ele>108.5</ele><time>2026-04-25T17:13:53.491Z</time></trkpt><trkpt lat="45.3826954" lon="8.9152696"><ele>109.25</ele><time>2026-04-25T17:13:54.49Z</time></trkpt><trkpt lat="45.3828137" lon="8.9153323"><ele>110.0</ele><time>2026-04-25T17:13:55.491Z</time></trkpt><trkpt lat="45.3829298" lon="8.9153942"><ele>109.5</ele><time>2026-04-25T17:13:56.491Z</time></trkpt><trkpt lat="45.3830438" lon="8.9154581"><ele>109.0</ele><time>2026-04-25T17:13:57.491Z</time></trkpt><trkpt lat="45.3831493" lon="8.9155203"><ele>108.5</ele><time>2026-04-25T17:13:58.491Z</time></trkpt><trkpt lat="45.3832552" lon="8.9155811"><ele>108.0</ele><time>2026-04-25T17:13:59.491Z</time></trkpt><trkpt lat="45.3833534" lon="8.9156388"><ele>108.0</ele><time>2026-04-25T17:14:00.491Z</time></trkpt><trkpt lat="45.3834449" lon="8.9156985"><ele>108.0</ele><time>2026-04-25T17:14:01.491Z</time></trkpt><trkpt lat="45.3835308" lon="8.9157518"><ele>108.0</ele><time>2026-04-25T17:14:02.49Z</time></trkpt><trkpt lat="45.3836033" lon="8.9158042"><ele>108.0</ele><time>2026-04-25T17:14:03.491Z</time></trkpt><trkpt lat="45.383674" lon="8.9158519"><ele>108.0</ele><time>2026-04-25T17:14:04.491Z</time></trkpt><trkpt lat="45.383742" lon="8.9159128"><ele>108.0</ele><time>2026-04-25T17:14:05.491Z</time></trkpt><trkpt lat="45.3838085" lon="8.9159727"><ele>108.16666666666667</ele><time>2026-04-25T17:14:06.491Z</time></trkpt><trkpt lat="45.3838645" lon="8.9160511"><ele>108.33333333333334</ele><time>2026-04-25T17:14:07.491Z</time></trkpt><trkpt lat="45.3839124" lon="8.9161325"><ele>108.5</ele><time>2026-04-25T17:14:08.49Z</time></trkpt><trkpt lat="45.3839393" lon="8.9162225"><ele>108.66666666666667</ele><time>2026-04-25T17:14:09.491Z</time></trkpt><trkpt lat="45.3839566" lon="8.9163274"><ele>108.83333333333334</ele><time>2026-04-25T17:14:10.49Z</time></trkpt><trkpt lat="45.3839762" lon="8.9164375"><ele>109.0</ele><time>2026-04-25T17:14:11.491Z</time></trkpt><trkpt lat="45.3840121" lon="8.9165381"><ele>109.00000000000001</ele><time>2026-04-25T17:14:12.491Z</time></trkpt><trkpt lat="45.3840653" lon="8.9166164"><ele>109.0</ele><time>2026-04-25T17:14:13.49Z</time></trkpt><trkpt lat="45.3841328" lon="8.9166658"><ele>109.0</ele><time>2026-04-25T17:14:14.491Z</time></trkpt><trkpt lat="45.3842102" lon="8.9166784"><ele>109.0</ele><time>2026-04-25T17:14:15.49Z</time></trkpt><trkpt lat="45.3842975" lon="8.9166556"><ele>109.00000000000001</ele><time>2026-04-25T17:14:16.491Z</time></trkpt><trkpt lat="45.3843861" lon="8.9166204"><ele>109.0</ele><time>2026-04-25T17:14:17.491Z</time></trkpt><trkpt lat="45.3844718" lon="8.9165971"><ele>109.0</ele><time>2026-04-25T17:14:18.49Z</time></trkpt><trkpt lat="45.3845595" lon="8.9165888"><ele>109.0</ele><time>2026-04-25T17:14:19.49Z</time></trkpt><trkpt lat="45.3846494" lon="8.9166065"><ele>109.0</ele><time>2026-04-25T17:14:20.491Z</time></trkpt><trkpt lat="45.3847381" lon="8.916644"><ele>109.0</ele><time>2026-04-25T17:14:21.491Z</time></trkpt><trkpt lat="45.3848268" lon="8.9166908"><ele>109.0</ele><time>2026-04-25T17:14:22.491Z</time></trkpt><trkpt lat="45.3849096" lon="8.9167452"><ele>109.83333333333334</ele><time>2026-04-25T17:14:23.491Z</time></trkpt><trkpt lat="45.3849933" lon="8.9167949"><ele>110.66666666666667</ele><time>2026-04-25T17:14:24.491Z</time></trkpt><trkpt lat="45.3850748" lon="8.9168478"><ele>111.5</ele><time>2026-04-25T17:14:25.491Z</time></trkpt><trkpt lat="45.385158" lon="8.916899"><ele>112.33333333333334</ele><time>2026-04-25T17:14:26.49Z</time></trkpt><trkpt lat="45.3852372" lon="8.9169514"><ele>113.16666666666667</ele><time>2026-04-25T17:14:27.49Z</time></trkpt><trkpt lat="45.3853177" lon="8.9170062"><ele>114.0</ele><time>2026-04-25T17:14:28.49Z</time></trkpt><trkpt lat="45.3854054" lon="8.9170634"><ele>114.0</ele><time>2026-04-25T17:14:29.491Z</time></trkpt><trkpt lat="45.3854916" lon="8.9171219"><ele>114.0</ele><time>2026-04-25T17:14:30.491Z</time></trkpt><trkpt lat="45.385577" lon="8.9171831"><ele>114.0</ele><time>2026-04-25T17:14:31.491Z</time></trkpt><trkpt lat="45.385666" lon="8.9172485"><ele>114.0</ele><time>2026-04-25T17:14:32.491Z</time></trkpt><trkpt lat="45.3857574" lon="8.9173179"><ele>114.0</ele><time>2026-04-25T17:14:33.491Z</time></trkpt><trkpt lat="45.3858498" lon="8.9173918"><ele>114.0</ele><time>2026-04-25T17:14:34.491Z</time></trkpt><trkpt lat="45.3859449" lon="8.9174718"><ele>114.0</ele><time>2026-04-25T17:14:35.491Z</time></trkpt><trkpt lat="45.3860389" lon="8.917558"><ele>114.0</ele><time>2026-04-25T17:14:36.491Z</time></trkpt><trkpt lat="45.3861274" lon="8.9176518"><ele>114.0</ele><time>2026-04-25T17:14:37.49Z</time></trkpt><trkpt lat="45.3862183" lon="8.91775"><ele>114.0</ele><time>2026-04-25T17:14:38.491Z</time></trkpt><trkpt lat="45.3863067" lon="8.917848"><ele>114.6</ele><time>2026-04-25T17:14:39.491Z</time></trkpt><trkpt lat="45.3863874" lon="8.9179487"><ele>115.2</ele><time>2026-04-25T17:14:40.491Z</time></trkpt><trkpt lat="45.3864643" lon="8.9180492"><ele>115.79999999999998</ele><time>2026-04-25T17:14:41.491Z</time></trkpt><trkpt lat="45.3865302" lon="8.918151"><ele>116.39999999999999</ele><time>2026-04-25T17:14:42.491Z</time></trkpt><trkpt lat="45.3865916" lon="8.9182457"><ele>117.0</ele><time>2026-04-25T17:14:43.491Z</time></trkpt><trkpt lat="45.3866453" lon="8.9183327"><ele>117.0</ele><time>2026-04-25T17:14:44.49Z</time></trkpt><trkpt lat="45.3866905" lon="8.9184068"><ele>117.0</ele><time>2026-04-25T17:14:45.49Z</time></trkpt><trkpt lat="45.3867299" lon="8.9184827"><ele>117.0</ele><time>2026-04-25T17:14:46.49Z</time></trkpt><trkpt lat="45.386789" lon="8.9186156"><ele>117.0</ele><time>2026-04-25T17:14:48.491Z</time></trkpt><trkpt lat="45.386834" lon="8.918741"><ele>117.0</ele><time>2026-04-25T17:14:50.49Z</time></trkpt><trkpt lat="45.3868706" lon="8.9188605"><ele>117.0</ele><time>2026-04-25T17:14:52.49Z</time></trkpt><trkpt lat="45.3868919" lon="8.9189452"><ele>117.0</ele><time>2026-04-25T17:14:54.49Z</time></trkpt><trkpt lat="45.386905" lon="8.9190531"><ele>117.0</ele><time>2026-04-25T17:14:57.49Z</time></trkpt><trkpt lat="45.386945" lon="8.9191927"><ele>117.0</ele><time>2026-04-25T17:14:59.49Z</time></trkpt><trkpt lat="45.3869728" lon="8.9192853"><ele>117.0</ele><time>2026-04-25T17:15:00.491Z</time></trkpt><trkpt lat="45.3870046" lon="8.9193904"><ele>117.0</ele><time>2026-04-25T17:15:01.491Z</time></trkpt><trkpt lat="45.3870356" lon="8.9195056"><ele>117.0</ele><time>2026-04-25T17:15:02.49Z</time></trkpt><trkpt lat="45.3870707" lon="8.919636"><ele>117.0</ele><time>2026-04-25T17:15:03.491Z</time></trkpt><trkpt lat="45.38711" lon="8.9197682"><ele>116.99999999999999</ele><time>2026-04-25T17:15:04.49Z</time></trkpt><trkpt lat="45.3871488" lon="8.919909"><ele>116.99999999999999</ele><time>2026-04-25T17:15:05.49Z</time></trkpt><trkpt lat="45.387193" lon="8.9200601"><ele>117.0</ele><time>2026-04-25T17:15:06.491Z</time></trkpt><trkpt lat="45.3872372" lon="8.9202104"><ele>117.0</ele><time>2026-04-25T17:15:07.49Z</time></trkpt><trkpt lat="45.3872808" lon="8.9203684"><ele>117.0</ele><time>2026-04-25T17:15:08.491Z</time></trkpt><trkpt lat="45.387324" lon="8.920529"><ele>117.0</ele><time>2026-04-25T17:15:09.49Z</time></trkpt><trkpt lat="45.3873663" lon="8.9206895"><ele>117.0</ele><time>2026-04-25T17:15:10.491Z</time></trkpt><trkpt lat="45.3874121" lon="8.9208533"><ele>117.0</ele><time>2026-04-25T17:15:11.491Z</time></trkpt><trkpt lat="45.3874605" lon="8.9210204"><ele>117.0</ele><time>2026-04-25T17:15:12.49Z</time></trkpt><trkpt lat="45.3875101" lon="8.9211876"><ele>117.0</ele><time>2026-04-25T17:15:13.491Z</time></trkpt><trkpt lat="45.3875666" lon="8.9213564"><ele>117.0</ele><time>2026-04-25T17:15:14.49Z</time></trkpt><trkpt lat="45.3876266" lon="8.9215197"><ele>117.0</ele><time>2026-04-25T17:15:15.491Z</time></trkpt><trkpt lat="45.387689" lon="8.9216718"><ele>117.0</ele><time>2026-04-25T17:15:16.491Z</time></trkpt><trkpt lat="45.3877509" lon="8.9218128"><ele>116.99999999999999</ele><time>2026-04-25T17:15:17.491Z</time></trkpt><trkpt lat="45.3877982" lon="8.9219553"><ele>116.99999999999999</ele><time>2026-04-25T17:15:18.49Z</time></trkpt><trkpt lat="45.3878372" lon="8.9220954"><ele>117.0</ele><time>2026-04-25T17:15:19.49Z</time></trkpt><trkpt lat="45.387889" lon="8.9222042"><ele>117.0</ele><time>2026-04-25T17:15:20.491Z</time></trkpt><trkpt lat="45.387955" lon="8.9222897"><ele>116.83333333333333</ele><time>2026-04-25T17:15:21.491Z</time></trkpt><trkpt lat="45.388022" lon="8.9223526"><ele>116.66666666666666</ele><time>2026-04-25T17:15:22.49Z</time></trkpt><trkpt lat="45.3880945" lon="8.922423"><ele>116.5</ele><time>2026-04-25T17:15:23.491Z</time></trkpt><trkpt lat="45.3881664" lon="8.9224999"><ele>116.33333333333333</ele><time>2026-04-25T17:15:24.491Z</time></trkpt><trkpt lat="45.3882288" lon="8.9225745"><ele>116.16666666666666</ele><time>2026-04-25T17:15:25.491Z</time></trkpt><trkpt lat="45.3882905" lon="8.922643"><ele>116.0</ele><time>2026-04-25T17:15:26.491Z</time></trkpt><trkpt lat="45.3883496" lon="8.9227022"><ele>115.83333333333333</ele><time>2026-04-25T17:15:27.49Z</time></trkpt><trkpt lat="45.3884086" lon="8.9227538"><ele>115.66666666666666</ele><time>2026-04-25T17:15:28.49Z</time></trkpt><trkpt lat="45.3885116" lon="8.9228444"><ele>115.5</ele><time>2026-04-25T17:15:30.49Z</time></trkpt><trkpt lat="45.3886041" lon="8.9229185"><ele>115.33333333333334</ele><time>2026-04-25T17:15:32.491Z</time></trkpt><trkpt lat="45.3886657" lon="8.9229714"><ele>115.16666666666667</ele><time>2026-04-25T17:15:34.491Z</time></trkpt><trkpt lat="45.3887209" lon="8.9230193"><ele>115.0</ele><time>2026-04-25T17:15:37.49Z</time></trkpt><trkpt lat="45.3887823" lon="8.9230598"><ele>115.6</ele><time>2026-04-25T17:15:39.491Z</time></trkpt><trkpt lat="45.3889053" lon="8.9231481"><ele>116.2</ele><time>2026-04-25T17:15:41.491Z</time></trkpt><trkpt lat="45.3889866" lon="8.9232005"><ele>116.80000000000001</ele><time>2026-04-25T17:15:42.49Z</time></trkpt><trkpt lat="45.389072" lon="8.9232562"><ele>117.4</ele><time>2026-04-25T17:15:43.491Z</time></trkpt><trkpt lat="45.3891726" lon="8.9233113"><ele>118.0</ele><time>2026-04-25T17:15:44.491Z</time></trkpt><trkpt lat="45.3892757" lon="8.9233708"><ele>118.0</ele><time>2026-04-25T17:15:45.491Z</time></trkpt><trkpt lat="45.3893727" lon="8.9234236"><ele>118.00000000000001</ele><time>2026-04-25T17:15:46.491Z</time></trkpt><trkpt lat="45.3894721" lon="8.9234746"><ele>118.00000000000001</ele><time>2026-04-25T17:15:47.491Z</time></trkpt><trkpt lat="45.3895686" lon="8.9235194"><ele>118.0</ele><time>2026-04-25T17:15:48.491Z</time></trkpt><trkpt lat="45.3896621" lon="8.9235656"><ele>118.0</ele><time>2026-04-25T17:15:49.491Z</time></trkpt><trkpt lat="45.3897587" lon="8.9236087"><ele>118.00000000000001</ele><time>2026-04-25T17:15:50.491Z</time></trkpt><trkpt lat="45.3898503" lon="8.9236445"><ele>118.0</ele><time>2026-04-25T17:15:51.491Z</time></trkpt><trkpt lat="45.389929" lon="8.9236822"><ele>118.0</ele><time>2026-04-25T17:15:52.491Z</time></trkpt><trkpt lat="45.3900055" lon="8.9237191"><ele>118.0</ele><time>2026-04-25T17:15:53.49Z</time></trkpt><trkpt lat="45.3900723" lon="8.9237515"><ele>118.00000000000001</ele><time>2026-04-25T17:15:54.491Z</time></trkpt><trkpt lat="45.3901643" lon="8.9237925"><ele>118.0</ele><time>2026-04-25T17:15:56.49Z</time></trkpt><trkpt lat="45.3902373" lon="8.9237796"><ele>118.0</ele><time>2026-04-25T17:15:58.491Z</time></trkpt><trkpt lat="45.3902751" lon="8.9236914"><ele>118.0</ele><time>2026-04-25T17:16:01.49Z</time></trkpt><trkpt lat="45.3902822" lon="8.9236016"><ele>118.0</ele><time>2026-04-25T17:16:05.49Z</time></trkpt><trkpt lat="45.3902219" lon="8.9235464"><ele>118.0</ele><time>2026-04-25T17:16:10.49Z</time></trkpt><trkpt lat="45.3901548" lon="8.9234836"><ele>118.0</ele><time>2026-04-25T17:16:20.491Z</time></trkpt><trkpt lat="45.3901548" lon="8.9234836"><ele>118.0</ele><time>2026-04-25T17:16:20.491Z</time></trkpt><trkpt lat="45.3901548" lon="8.9234836"><ele>118.0</ele><time>2026-04-25T17:16:20.491Z</time></trkpt><trkpt lat="45.3901548" lon="8.9234836"><ele>118.0</ele><time>2026-04-25T17:16:20.491Z</time></trkpt></trkseg></trk></gpx>